<?xml version="1.0" encoding="UTF-8" standalone="no" ?><gpx xmlns="http://www.topografix.com/GPX/1/1" xmlns:gpxx="http://www.garmin.com/xmlschemas/GpxExtensions/v3" xmlns:wptx1="http://www.garmin.com/xmlschemas/WaypointExtension/v1" xmlns:gpxtpx="http://www.garmin.com/xmlschemas/TrackPointExtension/v1" creator="GuideVTT.com" version="1.1" xmlns:xsi="http://www.w3.org/2001/XMLSchema-instance" xsi:schemaLocation="http://www.topografix.com/GPX/1/1 http://www.topografix.com/GPX/1/1/gpx.xsd http://www.garmin.com/xmlschemas/GpxExtensions/v3 http://www8.garmin.com/xmlschemas/GpxExtensionsv3.xsd http://www.garmin.com/xmlschemas/WaypointExtension/v1 http://www8.garmin.com/xmlschemas/WaypointExtensionv1.xsd http://www.garmin.com/xmlschemas/TrackPointExtension/v1 http://www.garmin.com/xmlschemas/TrackPointExtensionv1.xsd">
<metadata><link href="http://www.garmin.com"><text>Garmin International</text></link><time>2013-06-22T15:13:50Z</time></metadata>
<trk><name>2012-06-17-01.trk.gpx</name><extensions><gpxx:TrackExtension><gpxx:DisplayColor>Cyan</gpxx:DisplayColor></gpxx:TrackExtension></extensions><trkseg>
<trkpt lat="48.483250" lon="2.665352"><ele></ele><time>2017-9-19T5:36:6Z</time></trkpt>
<trkpt lat="48.483172" lon="2.665262"><ele></ele><time>2017-9-19T5:36:9Z</time></trkpt>
<trkpt lat="48.483170" lon="2.665258"><ele></ele><time>2017-9-19T5:36:12Z</time></trkpt>
<trkpt lat="48.483155" lon="2.665236"><ele></ele><time>2017-9-19T5:36:15Z</time></trkpt>
<trkpt lat="48.483126" lon="2.665200"><ele></ele><time>2017-9-19T5:36:18Z</time></trkpt>
<trkpt lat="48.482905" lon="2.664925"><ele></ele><time>2017-9-19T5:36:21Z</time></trkpt>
<trkpt lat="48.482905" lon="2.664925"><ele></ele><time>2017-9-19T5:36:24Z</time></trkpt>
<trkpt lat="48.482905" lon="2.664925"><ele></ele><time>2017-9-19T5:36:27Z</time></trkpt>
<trkpt lat="48.482905" lon="2.664935"><ele></ele><time>2017-9-19T5:36:30Z</time></trkpt>
<trkpt lat="48.482906" lon="2.664942"><ele></ele><time>2017-9-19T5:36:33Z</time></trkpt>
<trkpt lat="48.482908" lon="2.664942"><ele></ele><time>2017-9-19T5:36:36Z</time></trkpt>
<trkpt lat="48.482908" lon="2.664950"><ele></ele><time>2017-9-19T5:36:39Z</time></trkpt>
<trkpt lat="48.482908" lon="2.664948"><ele></ele><time>2017-9-19T5:36:42Z</time></trkpt>
<trkpt lat="48.482905" lon="2.664947"><ele></ele><time>2017-9-19T5:36:45Z</time></trkpt>
<trkpt lat="48.482900" lon="2.664950"><ele></ele><time>2017-9-19T5:36:48Z</time></trkpt>
<trkpt lat="48.482897" lon="2.664953"><ele></ele><time>2017-9-19T5:36:51Z</time></trkpt>
<trkpt lat="48.482901" lon="2.664950"><ele></ele><time>2017-9-19T5:36:54Z</time></trkpt>
<trkpt lat="48.482905" lon="2.664948"><ele></ele><time>2017-9-19T5:36:57Z</time></trkpt>
<trkpt lat="48.482905" lon="2.664948"><ele></ele><time>2017-9-19T5:37:0Z</time></trkpt>
<trkpt lat="48.482905" lon="2.664950"><ele></ele><time>2017-9-19T5:37:3Z</time></trkpt>
<trkpt lat="48.482905" lon="2.664950"><ele></ele><time>2017-9-19T5:37:6Z</time></trkpt>
<trkpt lat="48.482905" lon="2.664948"><ele></ele><time>2017-9-19T5:37:9Z</time></trkpt>
<trkpt lat="48.482905" lon="2.664948"><ele></ele><time>2017-9-19T5:37:12Z</time></trkpt>
<trkpt lat="48.482905" lon="2.664945"><ele></ele><time>2017-9-19T5:37:15Z</time></trkpt>
<trkpt lat="48.482903" lon="2.664942"><ele></ele><time>2017-9-19T5:37:18Z</time></trkpt>
<trkpt lat="48.482903" lon="2.664937"><ele></ele><time>2017-9-19T5:37:21Z</time></trkpt>
<trkpt lat="48.482903" lon="2.664932"><ele></ele><time>2017-9-19T5:37:24Z</time></trkpt>
<trkpt lat="48.482903" lon="2.664930"><ele></ele><time>2017-9-19T5:37:27Z</time></trkpt>
<trkpt lat="48.482903" lon="2.664930"><ele></ele><time>2017-9-19T5:37:30Z</time></trkpt>
<trkpt lat="48.482900" lon="2.664925"><ele></ele><time>2017-9-19T5:37:33Z</time></trkpt>
<trkpt lat="48.482900" lon="2.664923"><ele></ele><time>2017-9-19T5:37:36Z</time></trkpt>
<trkpt lat="48.482898" lon="2.664922"><ele></ele><time>2017-9-19T5:37:39Z</time></trkpt>
<trkpt lat="48.482897" lon="2.664920"><ele></ele><time>2017-9-19T5:37:42Z</time></trkpt>
<trkpt lat="48.482895" lon="2.664915"><ele></ele><time>2017-9-19T5:37:45Z</time></trkpt>
<trkpt lat="48.482892" lon="2.664910"><ele></ele><time>2017-9-19T5:37:48Z</time></trkpt>
<trkpt lat="48.482890" lon="2.664908"><ele></ele><time>2017-9-19T5:37:51Z</time></trkpt>
<trkpt lat="48.482888" lon="2.664908"><ele></ele><time>2017-9-19T5:37:54Z</time></trkpt>
<trkpt lat="48.482887" lon="2.664910"><ele></ele><time>2017-9-19T5:37:57Z</time></trkpt>
<trkpt lat="48.482887" lon="2.664908"><ele></ele><time>2017-9-19T5:38:0Z</time></trkpt>
<trkpt lat="48.482887" lon="2.664903"><ele></ele><time>2017-9-19T5:38:3Z</time></trkpt>
<trkpt lat="48.482883" lon="2.664902"><ele></ele><time>2017-9-19T5:38:6Z</time></trkpt>
<trkpt lat="48.482883" lon="2.664905"><ele></ele><time>2017-9-19T5:38:9Z</time></trkpt>
<trkpt lat="48.482878" lon="2.664902"><ele></ele><time>2017-9-19T5:38:12Z</time></trkpt>
<trkpt lat="48.482875" lon="2.664897"><ele></ele><time>2017-9-19T5:38:15Z</time></trkpt>
<trkpt lat="48.482870" lon="2.664893"><ele></ele><time>2017-9-19T5:38:18Z</time></trkpt>
<trkpt lat="48.482862" lon="2.664883"><ele></ele><time>2017-9-19T5:38:21Z</time></trkpt>
<trkpt lat="48.482860" lon="2.664882"><ele></ele><time>2017-9-19T5:38:24Z</time></trkpt>
<trkpt lat="48.482855" lon="2.664873"><ele></ele><time>2017-9-19T5:38:27Z</time></trkpt>
<trkpt lat="48.482845" lon="2.664857"><ele></ele><time>2017-9-19T5:38:30Z</time></trkpt>
<trkpt lat="48.482835" lon="2.664833"><ele></ele><time>2017-9-19T5:38:33Z</time></trkpt>
<trkpt lat="48.482785" lon="2.664728"><ele></ele><time>2017-9-19T5:38:36Z</time></trkpt>
<trkpt lat="48.482773" lon="2.664682"><ele></ele><time>2017-9-19T5:38:39Z</time></trkpt>
<trkpt lat="48.482648" lon="2.664122"><ele></ele><time>2017-9-19T5:38:42Z</time></trkpt>
<trkpt lat="48.482630" lon="2.664058"><ele></ele><time>2017-9-19T5:38:45Z</time></trkpt>
<trkpt lat="48.482442" lon="2.663212"><ele></ele><time>2017-9-19T5:38:48Z</time></trkpt>
<trkpt lat="48.481986" lon="2.661522"><ele></ele><time>2017-9-19T5:38:51Z</time></trkpt>
<trkpt lat="48.481953" lon="2.661433"><ele></ele><time>2017-9-19T5:38:54Z</time></trkpt>
<trkpt lat="48.480998" lon="2.658615"><ele></ele><time>2017-9-19T5:38:57Z</time></trkpt>
<trkpt lat="48.480145" lon="2.656052"><ele></ele><time>2017-9-19T5:39:0Z</time></trkpt>
<trkpt lat="48.480127" lon="2.655992"><ele></ele><time>2017-9-19T5:39:3Z</time></trkpt>
<trkpt lat="48.480005" lon="2.655673"><ele></ele><time>2017-9-19T5:39:6Z</time></trkpt>
<trkpt lat="48.479967" lon="2.655563"><ele></ele><time>2017-9-19T5:39:9Z</time></trkpt>
<trkpt lat="48.479940" lon="2.655442"><ele></ele><time>2017-9-19T5:39:12Z</time></trkpt>
<trkpt lat="48.479938" lon="2.655302"><ele></ele><time>2017-9-19T5:39:15Z</time></trkpt>
<trkpt lat="48.479928" lon="2.655258"><ele></ele><time>2017-9-19T5:39:18Z</time></trkpt>
<trkpt lat="48.479930" lon="2.655233"><ele></ele><time>2017-9-19T5:39:21Z</time></trkpt>
<trkpt lat="48.479918" lon="2.655220"><ele></ele><time>2017-9-19T5:39:24Z</time></trkpt>
<trkpt lat="48.479900" lon="2.655215"><ele></ele><time>2017-9-19T5:39:27Z</time></trkpt>
<trkpt lat="48.479848" lon="2.655197"><ele></ele><time>2017-9-19T5:39:30Z</time></trkpt>
<trkpt lat="48.479830" lon="2.655170"><ele></ele><time>2017-9-19T5:39:33Z</time></trkpt>
<trkpt lat="48.479827" lon="2.655150"><ele></ele><time>2017-9-19T5:39:36Z</time></trkpt>
<trkpt lat="48.479815" lon="2.655113"><ele></ele><time>2017-9-19T5:39:39Z</time></trkpt>
<trkpt lat="48.479791" lon="2.654997"><ele></ele><time>2017-9-19T5:39:42Z</time></trkpt>
<trkpt lat="48.479777" lon="2.654952"><ele></ele><time>2017-9-19T5:39:45Z</time></trkpt>
<trkpt lat="48.479628" lon="2.654478"><ele></ele><time>2017-9-19T5:39:48Z</time></trkpt>
<trkpt lat="48.479605" lon="2.654423"><ele></ele><time>2017-9-19T5:39:51Z</time></trkpt>
<trkpt lat="48.479570" lon="2.654262"><ele></ele><time>2017-9-19T5:39:54Z</time></trkpt>
<trkpt lat="48.479503" lon="2.654063"><ele></ele><time>2017-9-19T5:39:57Z</time></trkpt>
<trkpt lat="48.479243" lon="2.653298"><ele></ele><time>2017-9-19T5:40:0Z</time></trkpt>
<trkpt lat="48.479227" lon="2.653242"><ele></ele><time>2017-9-19T5:40:3Z</time></trkpt>
<trkpt lat="48.479157" lon="2.653020"><ele></ele><time>2017-9-19T5:40:6Z</time></trkpt>
<trkpt lat="48.479140" lon="2.652967"><ele></ele><time>2017-9-19T5:40:9Z</time></trkpt>
<trkpt lat="48.479050" lon="2.652695"><ele></ele><time>2017-9-19T5:40:12Z</time></trkpt>
<trkpt lat="48.479018" lon="2.652655"><ele></ele><time>2017-9-19T5:40:15Z</time></trkpt>
<trkpt lat="48.478990" lon="2.652625"><ele></ele><time>2017-9-19T5:40:18Z</time></trkpt>
<trkpt lat="48.478935" lon="2.652557"><ele></ele><time>2017-9-19T5:40:21Z</time></trkpt>
<trkpt lat="48.478898" lon="2.652510"><ele></ele><time>2017-9-19T5:40:24Z</time></trkpt>
<trkpt lat="48.478760" lon="2.652365"><ele></ele><time>2017-9-19T5:40:27Z</time></trkpt>
<trkpt lat="48.478751" lon="2.652383"><ele></ele><time>2017-9-19T5:40:30Z</time></trkpt>
<trkpt lat="48.478751" lon="2.652417"><ele></ele><time>2017-9-19T5:40:33Z</time></trkpt>
<trkpt lat="48.478760" lon="2.652458"><ele></ele><time>2017-9-19T5:40:36Z</time></trkpt>
<trkpt lat="48.478770" lon="2.652567"><ele></ele><time>2017-9-19T5:40:39Z</time></trkpt>
<trkpt lat="48.478768" lon="2.652627"><ele></ele><time>2017-9-19T5:40:42Z</time></trkpt>
<trkpt lat="48.478760" lon="2.652685"><ele></ele><time>2017-9-19T5:40:45Z</time></trkpt>
<trkpt lat="48.478751" lon="2.652740"><ele></ele><time>2017-9-19T5:40:48Z</time></trkpt>
<trkpt lat="48.478415" lon="2.654372"><ele></ele><time>2017-9-19T5:40:51Z</time></trkpt>
<trkpt lat="48.478193" lon="2.655387"><ele></ele><time>2017-9-19T5:40:54Z</time></trkpt>
<trkpt lat="48.478185" lon="2.655465"><ele></ele><time>2017-9-19T5:40:57Z</time></trkpt>
<trkpt lat="48.475715" lon="2.666587"><ele></ele><time>2017-9-19T5:41:0Z</time></trkpt>
<trkpt lat="48.475698" lon="2.666647"><ele></ele><time>2017-9-19T5:41:3Z</time></trkpt>
<trkpt lat="48.475561" lon="2.667117"><ele></ele><time>2017-9-19T5:41:6Z</time></trkpt>
<trkpt lat="48.475548" lon="2.667125"><ele></ele><time>2017-9-19T5:41:9Z</time></trkpt>
<trkpt lat="48.475535" lon="2.667117"><ele></ele><time>2017-9-19T5:41:12Z</time></trkpt>
<trkpt lat="48.475518" lon="2.667120"><ele></ele><time>2017-9-19T5:41:15Z</time></trkpt>
<trkpt lat="48.475483" lon="2.667118"><ele></ele><time>2017-9-19T5:41:18Z</time></trkpt>
<trkpt lat="48.475440" lon="2.667113"><ele></ele><time>2017-9-19T5:41:21Z</time></trkpt>
<trkpt lat="48.475430" lon="2.667113"><ele></ele><time>2017-9-19T5:41:24Z</time></trkpt>
<trkpt lat="48.475418" lon="2.667110"><ele></ele><time>2017-9-19T5:41:27Z</time></trkpt>
<trkpt lat="48.475408" lon="2.667110"><ele></ele><time>2017-9-19T5:41:30Z</time></trkpt>
<trkpt lat="48.475403" lon="2.667127"><ele></ele><time>2017-9-19T5:41:33Z</time></trkpt>
<trkpt lat="48.475405" lon="2.667145"><ele></ele><time>2017-9-19T5:41:36Z</time></trkpt>
<trkpt lat="48.475410" lon="2.667153"><ele></ele><time>2017-9-19T5:41:39Z</time></trkpt>
<trkpt lat="48.475417" lon="2.667152"><ele></ele><time>2017-9-19T5:41:42Z</time></trkpt>
<trkpt lat="48.475431" lon="2.667148"><ele></ele><time>2017-9-19T5:41:45Z</time></trkpt>
<trkpt lat="48.475448" lon="2.667150"><ele></ele><time>2017-9-19T5:41:48Z</time></trkpt>
<trkpt lat="48.475463" lon="2.667157"><ele></ele><time>2017-9-19T5:41:51Z</time></trkpt>
<trkpt lat="48.475472" lon="2.667172"><ele></ele><time>2017-9-19T5:41:54Z</time></trkpt>
<trkpt lat="48.475522" lon="2.667272"><ele></ele><time>2017-9-19T5:41:57Z</time></trkpt>
<trkpt lat="48.475518" lon="2.667305"><ele></ele><time>2017-9-19T5:42:0Z</time></trkpt>
<trkpt lat="48.475503" lon="2.667343"><ele></ele><time>2017-9-19T5:42:3Z</time></trkpt>
<trkpt lat="48.475485" lon="2.667383"><ele></ele><time>2017-9-19T5:42:6Z</time></trkpt>
<trkpt lat="48.475458" lon="2.667430"><ele></ele><time>2017-9-19T5:42:9Z</time></trkpt>
<trkpt lat="48.474885" lon="2.668475"><ele></ele><time>2017-9-19T5:42:12Z</time></trkpt>
<trkpt lat="48.474871" lon="2.668510"><ele></ele><time>2017-9-19T5:42:15Z</time></trkpt>
<trkpt lat="48.474825" lon="2.668620"><ele></ele><time>2017-9-19T5:42:18Z</time></trkpt>
<trkpt lat="48.474470" lon="2.669290"><ele></ele><time>2017-9-19T5:42:21Z</time></trkpt>
<trkpt lat="48.470228" lon="2.677228"><ele></ele><time>2017-9-19T5:42:24Z</time></trkpt>
<trkpt lat="48.470207" lon="2.677280"><ele></ele><time>2017-9-19T5:42:27Z</time></trkpt>
<trkpt lat="48.469325" lon="2.679313"><ele></ele><time>2017-9-19T5:42:30Z</time></trkpt>
<trkpt lat="48.469033" lon="2.679988"><ele></ele><time>2017-9-19T5:42:33Z</time></trkpt>
<trkpt lat="48.469025" lon="2.680032"><ele></ele><time>2017-9-19T5:42:36Z</time></trkpt>
<trkpt lat="48.469020" lon="2.680077"><ele></ele><time>2017-9-19T5:42:39Z</time></trkpt>
<trkpt lat="48.469031" lon="2.680093"><ele></ele><time>2017-9-19T5:42:42Z</time></trkpt>
<trkpt lat="48.469095" lon="2.680140"><ele></ele><time>2017-9-19T5:42:45Z</time></trkpt>
<trkpt lat="48.469156" lon="2.680195"><ele></ele><time>2017-9-19T5:42:48Z</time></trkpt>
<trkpt lat="48.469170" lon="2.680213"><ele></ele><time>2017-9-19T5:42:51Z</time></trkpt>
<trkpt lat="48.469197" lon="2.680240"><ele></ele><time>2017-9-19T5:42:54Z</time></trkpt>
<trkpt lat="48.469217" lon="2.680260"><ele></ele><time>2017-9-19T5:42:57Z</time></trkpt>
<trkpt lat="48.469222" lon="2.680270"><ele></ele><time>2017-9-19T5:43:0Z</time></trkpt>
<trkpt lat="48.469223" lon="2.680272"><ele></ele><time>2017-9-19T5:43:3Z</time></trkpt>
<trkpt lat="48.469223" lon="2.680275"><ele></ele><time>2017-9-19T5:43:6Z</time></trkpt>
<trkpt lat="48.469223" lon="2.680280"><ele></ele><time>2017-9-19T5:43:9Z</time></trkpt>
<trkpt lat="48.469222" lon="2.680288"><ele></ele><time>2017-9-19T5:43:12Z</time></trkpt>
<trkpt lat="48.469223" lon="2.680303"><ele></ele><time>2017-9-19T5:43:15Z</time></trkpt>
<trkpt lat="48.469227" lon="2.680313"><ele></ele><time>2017-9-19T5:43:18Z</time></trkpt>
<trkpt lat="48.469240" lon="2.680355"><ele></ele><time>2017-9-19T5:43:21Z</time></trkpt>
<trkpt lat="48.469248" lon="2.680366"><ele></ele><time>2017-9-19T5:43:24Z</time></trkpt>
<trkpt lat="48.469265" lon="2.680373"><ele></ele><time>2017-9-19T5:43:27Z</time></trkpt>
<trkpt lat="48.469282" lon="2.680385"><ele></ele><time>2017-9-19T5:43:30Z</time></trkpt>
<trkpt lat="48.469303" lon="2.680408"><ele></ele><time>2017-9-19T5:43:33Z</time></trkpt>
<trkpt lat="48.469327" lon="2.680443"><ele></ele><time>2017-9-19T5:43:36Z</time></trkpt>
<trkpt lat="48.469343" lon="2.680487"><ele></ele><time>2017-9-19T5:43:39Z</time></trkpt>
<trkpt lat="48.469393" lon="2.680595"><ele></ele><time>2017-9-19T5:43:42Z</time></trkpt>
<trkpt lat="48.469398" lon="2.680632"><ele></ele><time>2017-9-19T5:43:45Z</time></trkpt>
<trkpt lat="48.469413" lon="2.680715"><ele></ele><time>2017-9-19T5:43:48Z</time></trkpt>
<trkpt lat="48.469430" lon="2.680762"><ele></ele><time>2017-9-19T5:43:51Z</time></trkpt>
<trkpt lat="48.469468" lon="2.680915"><ele></ele><time>2017-9-19T5:43:54Z</time></trkpt>
<trkpt lat="48.469485" lon="2.680962"><ele></ele><time>2017-9-19T5:43:57Z</time></trkpt>
<trkpt lat="48.469575" lon="2.681238"><ele></ele><time>2017-9-19T5:44:0Z</time></trkpt>
<trkpt lat="48.469667" lon="2.681513"><ele></ele><time>2017-9-19T5:44:3Z</time></trkpt>
<trkpt lat="48.469658" lon="2.681562"><ele></ele><time>2017-9-19T5:44:6Z</time></trkpt>
<trkpt lat="48.469635" lon="2.681605"><ele></ele><time>2017-9-19T5:44:9Z</time></trkpt>
<trkpt lat="48.469606" lon="2.681635"><ele></ele><time>2017-9-19T5:44:12Z</time></trkpt>
<trkpt lat="48.469572" lon="2.681660"><ele></ele><time>2017-9-19T5:44:15Z</time></trkpt>
<trkpt lat="48.467700" lon="2.683088"><ele></ele><time>2017-9-19T5:44:18Z</time></trkpt>
<trkpt lat="48.467655" lon="2.683132"><ele></ele><time>2017-9-19T5:44:21Z</time></trkpt>
<trkpt lat="48.466393" lon="2.684120"><ele></ele><time>2017-9-19T5:44:24Z</time></trkpt>
<trkpt lat="48.465183" lon="2.685083"><ele></ele><time>2017-9-19T5:44:27Z</time></trkpt>
<trkpt lat="48.464855" lon="2.685340"><ele></ele><time>2017-9-19T5:44:30Z</time></trkpt>
<trkpt lat="48.464815" lon="2.685367"><ele></ele><time>2017-9-19T5:44:33Z</time></trkpt>
<trkpt lat="48.463408" lon="2.686443"><ele></ele><time>2017-9-19T5:44:36Z</time></trkpt>
<trkpt lat="48.463338" lon="2.686500"><ele></ele><time>2017-9-19T5:44:39Z</time></trkpt>
<trkpt lat="48.463198" lon="2.686617"><ele></ele><time>2017-9-19T5:44:42Z</time></trkpt>
<trkpt lat="48.462780" lon="2.686892"><ele></ele><time>2017-9-19T5:44:45Z</time></trkpt>
<trkpt lat="48.462081" lon="2.687430"><ele></ele><time>2017-9-19T5:44:48Z</time></trkpt>
<trkpt lat="48.462041" lon="2.687467"><ele></ele><time>2017-9-19T5:44:51Z</time></trkpt>
<trkpt lat="48.459778" lon="2.689217"><ele></ele><time>2017-9-19T5:44:54Z</time></trkpt>
<trkpt lat="48.459752" lon="2.689243"><ele></ele><time>2017-9-19T5:44:57Z</time></trkpt>
<trkpt lat="48.459727" lon="2.689273"><ele></ele><time>2017-9-19T5:45:0Z</time></trkpt>
<trkpt lat="48.457411" lon="2.691675"><ele></ele><time>2017-9-19T5:45:3Z</time></trkpt>
<trkpt lat="48.457385" lon="2.691700"><ele></ele><time>2017-9-19T5:45:6Z</time></trkpt>
<trkpt lat="48.457283" lon="2.691775"><ele></ele><time>2017-9-19T5:45:9Z</time></trkpt>
<trkpt lat="48.457230" lon="2.691813"><ele></ele><time>2017-9-19T5:45:12Z</time></trkpt>
<trkpt lat="48.457105" lon="2.691902"><ele></ele><time>2017-9-19T5:45:15Z</time></trkpt>
<trkpt lat="48.456688" lon="2.692250"><ele></ele><time>2017-9-19T5:45:18Z</time></trkpt>
<trkpt lat="48.454845" lon="2.694123"><ele></ele><time>2017-9-19T5:45:21Z</time></trkpt>
<trkpt lat="48.454552" lon="2.694410"><ele></ele><time>2017-9-19T5:45:24Z</time></trkpt>
<trkpt lat="48.454520" lon="2.694452"><ele></ele><time>2017-9-19T5:45:27Z</time></trkpt>
<trkpt lat="48.454430" lon="2.694592"><ele></ele><time>2017-9-19T5:45:30Z</time></trkpt>
<trkpt lat="48.454422" lon="2.694645"><ele></ele><time>2017-9-19T5:45:33Z</time></trkpt>
<trkpt lat="48.454435" lon="2.694693"><ele></ele><time>2017-9-19T5:45:36Z</time></trkpt>
<trkpt lat="48.454462" lon="2.694723"><ele></ele><time>2017-9-19T5:45:39Z</time></trkpt>
<trkpt lat="48.454488" lon="2.694745"><ele></ele><time>2017-9-19T5:45:42Z</time></trkpt>
<trkpt lat="48.454513" lon="2.694763"><ele></ele><time>2017-9-19T5:45:45Z</time></trkpt>
<trkpt lat="48.454568" lon="2.694795"><ele></ele><time>2017-9-19T5:45:48Z</time></trkpt>
<trkpt lat="48.455528" lon="2.695295"><ele></ele><time>2017-9-19T5:45:51Z</time></trkpt>
<trkpt lat="48.455558" lon="2.695327"><ele></ele><time>2017-9-19T5:45:54Z</time></trkpt>
<trkpt lat="48.455652" lon="2.695448"><ele></ele><time>2017-9-19T5:45:57Z</time></trkpt>
<trkpt lat="48.455680" lon="2.695498"><ele></ele><time>2017-9-19T5:46:0Z</time></trkpt>
<trkpt lat="48.456303" lon="2.696620"><ele></ele><time>2017-9-19T5:46:3Z</time></trkpt>
<trkpt lat="48.456323" lon="2.696672"><ele></ele><time>2017-9-19T5:46:6Z</time></trkpt>
<trkpt lat="48.456408" lon="2.696870"><ele></ele><time>2017-9-19T5:46:9Z</time></trkpt>
<trkpt lat="48.456455" lon="2.696958"><ele></ele><time>2017-9-19T5:46:12Z</time></trkpt>
<trkpt lat="48.457038" lon="2.697933"><ele></ele><time>2017-9-19T5:46:15Z</time></trkpt>
<trkpt lat="48.457390" lon="2.698523"><ele></ele><time>2017-9-19T5:46:18Z</time></trkpt>
<trkpt lat="48.457413" lon="2.698565"><ele></ele><time>2017-9-19T5:46:21Z</time></trkpt>
<trkpt lat="48.458162" lon="2.699853"><ele></ele><time>2017-9-19T5:46:24Z</time></trkpt>
<trkpt lat="48.458190" lon="2.699887"><ele></ele><time>2017-9-19T5:46:27Z</time></trkpt>
<trkpt lat="48.458220" lon="2.699915"><ele></ele><time>2017-9-19T5:46:30Z</time></trkpt>
<trkpt lat="48.458270" lon="2.699970"><ele></ele><time>2017-9-19T5:46:33Z</time></trkpt>
<trkpt lat="48.458286" lon="2.700005"><ele></ele><time>2017-9-19T5:46:36Z</time></trkpt>
<trkpt lat="48.458343" lon="2.700117"><ele></ele><time>2017-9-19T5:46:39Z</time></trkpt>
<trkpt lat="48.458352" lon="2.700125"><ele></ele><time>2017-9-19T5:46:42Z</time></trkpt>
<trkpt lat="48.458358" lon="2.700128"><ele></ele><time>2017-9-19T5:46:45Z</time></trkpt>
<trkpt lat="48.458366" lon="2.700128"><ele></ele><time>2017-9-19T5:46:48Z</time></trkpt>
<trkpt lat="48.458371" lon="2.700133"><ele></ele><time>2017-9-19T5:46:51Z</time></trkpt>
<trkpt lat="48.458377" lon="2.700143"><ele></ele><time>2017-9-19T5:46:54Z</time></trkpt>
<trkpt lat="48.458407" lon="2.700203"><ele></ele><time>2017-9-19T5:46:57Z</time></trkpt>
<trkpt lat="48.458415" lon="2.700237"><ele></ele><time>2017-9-19T5:47:0Z</time></trkpt>
<trkpt lat="48.458416" lon="2.700275"><ele></ele><time>2017-9-19T5:47:3Z</time></trkpt>
<trkpt lat="48.458405" lon="2.700315"><ele></ele><time>2017-9-19T5:47:6Z</time></trkpt>
<trkpt lat="48.458385" lon="2.700350"><ele></ele><time>2017-9-19T5:47:9Z</time></trkpt>
<trkpt lat="48.458337" lon="2.700410"><ele></ele><time>2017-9-19T5:47:12Z</time></trkpt>
<trkpt lat="48.458203" lon="2.700570"><ele></ele><time>2017-9-19T5:47:15Z</time></trkpt>
<trkpt lat="48.458188" lon="2.700615"><ele></ele><time>2017-9-19T5:47:18Z</time></trkpt>
<trkpt lat="48.458182" lon="2.700672"><ele></ele><time>2017-9-19T5:47:21Z</time></trkpt>
<trkpt lat="48.458185" lon="2.700725"><ele></ele><time>2017-9-19T5:47:24Z</time></trkpt>
<trkpt lat="48.458198" lon="2.700775"><ele></ele><time>2017-9-19T5:47:27Z</time></trkpt>
<trkpt lat="48.458218" lon="2.700818"><ele></ele><time>2017-9-19T5:47:30Z</time></trkpt>
<trkpt lat="48.458243" lon="2.700858"><ele></ele><time>2017-9-19T5:47:33Z</time></trkpt>
<trkpt lat="48.458330" lon="2.700970"><ele></ele><time>2017-9-19T5:47:36Z</time></trkpt>
<trkpt lat="48.458353" lon="2.701027"><ele></ele><time>2017-9-19T5:47:39Z</time></trkpt>
<trkpt lat="48.458371" lon="2.701088"><ele></ele><time>2017-9-19T5:47:42Z</time></trkpt>
<trkpt lat="48.458527" lon="2.701623"><ele></ele><time>2017-9-19T5:47:45Z</time></trkpt>
<trkpt lat="48.458647" lon="2.701963"><ele></ele><time>2017-9-19T5:47:48Z</time></trkpt>
<trkpt lat="48.458788" lon="2.702433"><ele></ele><time>2017-9-19T5:47:51Z</time></trkpt>
<trkpt lat="48.458800" lon="2.702493"><ele></ele><time>2017-9-19T5:47:54Z</time></trkpt>
<trkpt lat="48.459086" lon="2.703407"><ele></ele><time>2017-9-19T5:47:57Z</time></trkpt>
<trkpt lat="48.459208" lon="2.703720"><ele></ele><time>2017-9-19T5:48:0Z</time></trkpt>
<trkpt lat="48.459311" lon="2.704060"><ele></ele><time>2017-9-19T5:48:3Z</time></trkpt>
<trkpt lat="48.459465" lon="2.704585"><ele></ele><time>2017-9-19T5:48:6Z</time></trkpt>
<trkpt lat="48.459563" lon="2.704910"><ele></ele><time>2017-9-19T5:48:9Z</time></trkpt>
<trkpt lat="48.460403" lon="2.707697"><ele></ele><time>2017-9-19T5:48:12Z</time></trkpt>
<trkpt lat="48.460417" lon="2.707753"><ele></ele><time>2017-9-19T5:48:15Z</time></trkpt>
<trkpt lat="48.461025" lon="2.709770"><ele></ele><time>2017-9-19T5:48:18Z</time></trkpt>
<trkpt lat="48.461688" lon="2.711917"><ele></ele><time>2017-9-19T5:48:21Z</time></trkpt>
<trkpt lat="48.461690" lon="2.711915"><ele></ele><time>2017-9-19T5:48:24Z</time></trkpt>
<trkpt lat="48.461692" lon="2.711910"><ele></ele><time>2017-9-19T5:48:27Z</time></trkpt>
<trkpt lat="48.461692" lon="2.711905"><ele></ele><time>2017-9-19T5:48:30Z</time></trkpt>
<trkpt lat="48.461693" lon="2.711902"><ele></ele><time>2017-9-19T5:48:33Z</time></trkpt>
<trkpt lat="48.461695" lon="2.711895"><ele></ele><time>2017-9-19T5:48:36Z</time></trkpt>
<trkpt lat="48.461698" lon="2.711890"><ele></ele><time>2017-9-19T5:48:39Z</time></trkpt>
<trkpt lat="48.461700" lon="2.711885"><ele></ele><time>2017-9-19T5:48:42Z</time></trkpt>
<trkpt lat="48.461700" lon="2.711887"><ele></ele><time>2017-9-19T5:48:45Z</time></trkpt>
<trkpt lat="48.461701" lon="2.711882"><ele></ele><time>2017-9-19T5:48:48Z</time></trkpt>
<trkpt lat="48.461701" lon="2.711880"><ele></ele><time>2017-9-19T5:48:51Z</time></trkpt>
<trkpt lat="48.461703" lon="2.711878"><ele></ele><time>2017-9-19T5:48:54Z</time></trkpt>
<trkpt lat="48.461706" lon="2.711883"><ele></ele><time>2017-9-19T5:48:57Z</time></trkpt>
<trkpt lat="48.461710" lon="2.711892"><ele></ele><time>2017-9-19T5:49:0Z</time></trkpt>
<trkpt lat="48.461713" lon="2.711903"><ele></ele><time>2017-9-19T5:49:3Z</time></trkpt>
<trkpt lat="48.461720" lon="2.711912"><ele></ele><time>2017-9-19T5:49:6Z</time></trkpt>
<trkpt lat="48.461726" lon="2.711917"><ele></ele><time>2017-9-19T5:49:9Z</time></trkpt>
<trkpt lat="48.461750" lon="2.711923"><ele></ele><time>2017-9-19T5:49:12Z</time></trkpt>
<trkpt lat="48.461765" lon="2.711918"><ele></ele><time>2017-9-19T5:49:15Z</time></trkpt>
<trkpt lat="48.461780" lon="2.711908"><ele></ele><time>2017-9-19T5:49:18Z</time></trkpt>
<trkpt lat="48.461798" lon="2.711887"><ele></ele><time>2017-9-19T5:49:21Z</time></trkpt>
<trkpt lat="48.461820" lon="2.711858"><ele></ele><time>2017-9-19T5:49:24Z</time></trkpt>
<trkpt lat="48.462672" lon="2.710762"><ele></ele><time>2017-9-19T5:49:27Z</time></trkpt>
<trkpt lat="48.462697" lon="2.710723"><ele></ele><time>2017-9-19T5:49:30Z</time></trkpt>
<trkpt lat="48.462768" lon="2.710618"><ele></ele><time>2017-9-19T5:49:33Z</time></trkpt>
<trkpt lat="48.463090" lon="2.710147"><ele></ele><time>2017-9-19T5:49:36Z</time></trkpt>
<trkpt lat="48.463108" lon="2.710103"><ele></ele><time>2017-9-19T5:49:39Z</time></trkpt>
<trkpt lat="48.463362" lon="2.709540"><ele></ele><time>2017-9-19T5:49:42Z</time></trkpt>
<trkpt lat="48.463442" lon="2.709432"><ele></ele><time>2017-9-19T5:49:45Z</time></trkpt>
<trkpt lat="48.463480" lon="2.709408"><ele></ele><time>2017-9-19T5:49:48Z</time></trkpt>
<trkpt lat="48.463507" lon="2.709373"><ele></ele><time>2017-9-19T5:49:51Z</time></trkpt>
<trkpt lat="48.463545" lon="2.709305"><ele></ele><time>2017-9-19T5:49:54Z</time></trkpt>
<trkpt lat="48.463548" lon="2.709278"><ele></ele><time>2017-9-19T5:49:57Z</time></trkpt>
<trkpt lat="48.463541" lon="2.709253"><ele></ele><time>2017-9-19T5:50:0Z</time></trkpt>
<trkpt lat="48.463541" lon="2.709232"><ele></ele><time>2017-9-19T5:50:3Z</time></trkpt>
<trkpt lat="48.463548" lon="2.709218"><ele></ele><time>2017-9-19T5:50:6Z</time></trkpt>
<trkpt lat="48.463560" lon="2.709215"><ele></ele><time>2017-9-19T5:50:9Z</time></trkpt>
<trkpt lat="48.463572" lon="2.709220"><ele></ele><time>2017-9-19T5:50:12Z</time></trkpt>
<trkpt lat="48.463581" lon="2.709227"><ele></ele><time>2017-9-19T5:50:15Z</time></trkpt>
<trkpt lat="48.463602" lon="2.709220"><ele></ele><time>2017-9-19T5:50:18Z</time></trkpt>
<trkpt lat="48.463622" lon="2.709200"><ele></ele><time>2017-9-19T5:50:21Z</time></trkpt>
<trkpt lat="48.463675" lon="2.709152"><ele></ele><time>2017-9-19T5:50:24Z</time></trkpt>
<trkpt lat="48.463777" lon="2.709055"><ele></ele><time>2017-9-19T5:50:27Z</time></trkpt>
<trkpt lat="48.463797" lon="2.709018"><ele></ele><time>2017-9-19T5:50:30Z</time></trkpt>
<trkpt lat="48.464175" lon="2.708500"><ele></ele><time>2017-9-19T5:50:33Z</time></trkpt>
<trkpt lat="48.464223" lon="2.708460"><ele></ele><time>2017-9-19T5:50:36Z</time></trkpt>
<trkpt lat="48.464285" lon="2.708380"><ele></ele><time>2017-9-19T5:50:39Z</time></trkpt>
<trkpt lat="48.464308" lon="2.708338"><ele></ele><time>2017-9-19T5:50:42Z</time></trkpt>
<trkpt lat="48.464373" lon="2.708260"><ele></ele><time>2017-9-19T5:50:45Z</time></trkpt>
<trkpt lat="48.464410" lon="2.708230"><ele></ele><time>2017-9-19T5:50:48Z</time></trkpt>
<trkpt lat="48.464447" lon="2.708197"><ele></ele><time>2017-9-19T5:50:51Z</time></trkpt>
<trkpt lat="48.464498" lon="2.708140"><ele></ele><time>2017-9-19T5:50:54Z</time></trkpt>
<trkpt lat="48.464565" lon="2.708063"><ele></ele><time>2017-9-19T5:50:57Z</time></trkpt>
<trkpt lat="48.464595" lon="2.708036"><ele></ele><time>2017-9-19T5:51:0Z</time></trkpt>
<trkpt lat="48.464605" lon="2.708028"><ele></ele><time>2017-9-19T5:51:3Z</time></trkpt>
<trkpt lat="48.464641" lon="2.707997"><ele></ele><time>2017-9-19T5:51:6Z</time></trkpt>
<trkpt lat="48.464661" lon="2.707968"><ele></ele><time>2017-9-19T5:51:9Z</time></trkpt>
<trkpt lat="48.464792" lon="2.707805"><ele></ele><time>2017-9-19T5:51:12Z</time></trkpt>
<trkpt lat="48.464810" lon="2.707753"><ele></ele><time>2017-9-19T5:51:15Z</time></trkpt>
<trkpt lat="48.464843" lon="2.707720"><ele></ele><time>2017-9-19T5:51:18Z</time></trkpt>
<trkpt lat="48.464908" lon="2.707638"><ele></ele><time>2017-9-19T5:51:21Z</time></trkpt>
<trkpt lat="48.465248" lon="2.707203"><ele></ele><time>2017-9-19T5:51:24Z</time></trkpt>
<trkpt lat="48.466095" lon="2.706143"><ele></ele><time>2017-9-19T5:51:27Z</time></trkpt>
<trkpt lat="48.466133" lon="2.706112"><ele></ele><time>2017-9-19T5:51:30Z</time></trkpt>
<trkpt lat="48.466402" lon="2.705867"><ele></ele><time>2017-9-19T5:51:33Z</time></trkpt>
<trkpt lat="48.466438" lon="2.705817"><ele></ele><time>2017-9-19T5:51:36Z</time></trkpt>
<trkpt lat="48.466585" lon="2.705640"><ele></ele><time>2017-9-19T5:51:39Z</time></trkpt>
<trkpt lat="48.466623" lon="2.705637"><ele></ele><time>2017-9-19T5:51:42Z</time></trkpt>
<trkpt lat="48.466656" lon="2.705655"><ele></ele><time>2017-9-19T5:51:45Z</time></trkpt>
<trkpt lat="48.466685" lon="2.705687"><ele></ele><time>2017-9-19T5:51:48Z</time></trkpt>
<trkpt lat="48.466708" lon="2.705725"><ele></ele><time>2017-9-19T5:51:51Z</time></trkpt>
<trkpt lat="48.466833" lon="2.705925"><ele></ele><time>2017-9-19T5:51:54Z</time></trkpt>
<trkpt lat="48.466856" lon="2.705977"><ele></ele><time>2017-9-19T5:51:57Z</time></trkpt>
<trkpt lat="48.466873" lon="2.706042"><ele></ele><time>2017-9-19T5:52:0Z</time></trkpt>
<trkpt lat="48.466870" lon="2.706127"><ele></ele><time>2017-9-19T5:52:3Z</time></trkpt>
<trkpt lat="48.466850" lon="2.706203"><ele></ele><time>2017-9-19T5:52:6Z</time></trkpt>
<trkpt lat="48.466820" lon="2.706265"><ele></ele><time>2017-9-19T5:52:9Z</time></trkpt>
<trkpt lat="48.466786" lon="2.706320"><ele></ele><time>2017-9-19T5:52:12Z</time></trkpt>
<trkpt lat="48.466745" lon="2.706363"><ele></ele><time>2017-9-19T5:52:15Z</time></trkpt>
<trkpt lat="48.466625" lon="2.706507"><ele></ele><time>2017-9-19T5:52:18Z</time></trkpt>
<trkpt lat="48.466588" lon="2.706558"><ele></ele><time>2017-9-19T5:52:21Z</time></trkpt>
<trkpt lat="48.466487" lon="2.706722"><ele></ele><time>2017-9-19T5:52:24Z</time></trkpt>
<trkpt lat="48.466210" lon="2.707255"><ele></ele><time>2017-9-19T5:52:27Z</time></trkpt>
<trkpt lat="48.465793" lon="2.708155"><ele></ele><time>2017-9-19T5:52:30Z</time></trkpt>
<trkpt lat="48.465688" lon="2.708432"><ele></ele><time>2017-9-19T5:52:33Z</time></trkpt>
<trkpt lat="48.465555" lon="2.708748"><ele></ele><time>2017-9-19T5:52:36Z</time></trkpt>
<trkpt lat="48.465390" lon="2.709043"><ele></ele><time>2017-9-19T5:52:39Z</time></trkpt>
<trkpt lat="48.464860" lon="2.710005"><ele></ele><time>2017-9-19T5:52:42Z</time></trkpt>
<trkpt lat="48.464825" lon="2.710040"><ele></ele><time>2017-9-19T5:52:45Z</time></trkpt>
<trkpt lat="48.464785" lon="2.710070"><ele></ele><time>2017-9-19T5:52:48Z</time></trkpt>
<trkpt lat="48.464703" lon="2.710108"><ele></ele><time>2017-9-19T5:52:51Z</time></trkpt>
<trkpt lat="48.464578" lon="2.710145"><ele></ele><time>2017-9-19T5:52:54Z</time></trkpt>
<trkpt lat="48.464072" lon="2.710263"><ele></ele><time>2017-9-19T5:52:57Z</time></trkpt>
<trkpt lat="48.464053" lon="2.710278"><ele></ele><time>2017-9-19T5:53:0Z</time></trkpt>
<trkpt lat="48.464036" lon="2.710283"><ele></ele><time>2017-9-19T5:53:3Z</time></trkpt>
<trkpt lat="48.464017" lon="2.710282"><ele></ele><time>2017-9-19T5:53:6Z</time></trkpt>
<trkpt lat="48.463903" lon="2.710273"><ele></ele><time>2017-9-19T5:53:9Z</time></trkpt>
<trkpt lat="48.463880" lon="2.710278"><ele></ele><time>2017-9-19T5:53:12Z</time></trkpt>
<trkpt lat="48.463692" lon="2.710310"><ele></ele><time>2017-9-19T5:53:15Z</time></trkpt>
<trkpt lat="48.463655" lon="2.710313"><ele></ele><time>2017-9-19T5:53:18Z</time></trkpt>
<trkpt lat="48.463623" lon="2.710323"><ele></ele><time>2017-9-19T5:53:21Z</time></trkpt>
<trkpt lat="48.463590" lon="2.710335"><ele></ele><time>2017-9-19T5:53:24Z</time></trkpt>
<trkpt lat="48.463557" lon="2.710352"><ele></ele><time>2017-9-19T5:53:27Z</time></trkpt>
<trkpt lat="48.463527" lon="2.710370"><ele></ele><time>2017-9-19T5:53:30Z</time></trkpt>
<trkpt lat="48.463497" lon="2.710397"><ele></ele><time>2017-9-19T5:53:33Z</time></trkpt>
<trkpt lat="48.463433" lon="2.710460"><ele></ele><time>2017-9-19T5:53:36Z</time></trkpt>
<trkpt lat="48.462863" lon="2.711107"><ele></ele><time>2017-9-19T5:53:39Z</time></trkpt>
<trkpt lat="48.462826" lon="2.711153"><ele></ele><time>2017-9-19T5:53:42Z</time></trkpt>
<trkpt lat="48.462768" lon="2.711253"><ele></ele><time>2017-9-19T5:53:45Z</time></trkpt>
<trkpt lat="48.462760" lon="2.711307"><ele></ele><time>2017-9-19T5:53:48Z</time></trkpt>
<trkpt lat="48.462765" lon="2.711355"><ele></ele><time>2017-9-19T5:53:51Z</time></trkpt>
<trkpt lat="48.462918" lon="2.712902"><ele></ele><time>2017-9-19T5:53:54Z</time></trkpt>
<trkpt lat="48.462980" lon="2.713672"><ele></ele><time>2017-9-19T5:53:57Z</time></trkpt>
<trkpt lat="48.462987" lon="2.713708"><ele></ele><time>2017-9-19T5:54:0Z</time></trkpt>
<trkpt lat="48.462987" lon="2.713750"><ele></ele><time>2017-9-19T5:54:3Z</time></trkpt>
<trkpt lat="48.462988" lon="2.713818"><ele></ele><time>2017-9-19T5:54:6Z</time></trkpt>
<trkpt lat="48.462993" lon="2.713842"><ele></ele><time>2017-9-19T5:54:9Z</time></trkpt>
<trkpt lat="48.463000" lon="2.713908"><ele></ele><time>2017-9-19T5:54:12Z</time></trkpt>
<trkpt lat="48.463010" lon="2.714028"><ele></ele><time>2017-9-19T5:54:15Z</time></trkpt>
<trkpt lat="48.463013" lon="2.714057"><ele></ele><time>2017-9-19T5:54:18Z</time></trkpt>
<trkpt lat="48.463017" lon="2.714080"><ele></ele><time>2017-9-19T5:54:21Z</time></trkpt>
<trkpt lat="48.463022" lon="2.714098"><ele></ele><time>2017-9-19T5:54:24Z</time></trkpt>
<trkpt lat="48.463023" lon="2.714108"><ele></ele><time>2017-9-19T5:54:27Z</time></trkpt>
<trkpt lat="48.463018" lon="2.714115"><ele></ele><time>2017-9-19T5:54:30Z</time></trkpt>
<trkpt lat="48.463018" lon="2.714122"><ele></ele><time>2017-9-19T5:54:33Z</time></trkpt>
<trkpt lat="48.463018" lon="2.714127"><ele></ele><time>2017-9-19T5:54:36Z</time></trkpt>
<trkpt lat="48.463018" lon="2.714132"><ele></ele><time>2017-9-19T5:54:39Z</time></trkpt>
<trkpt lat="48.463020" lon="2.714138"><ele></ele><time>2017-9-19T5:54:42Z</time></trkpt>
<trkpt lat="48.463043" lon="2.714158"><ele></ele><time>2017-9-19T5:54:45Z</time></trkpt>
<trkpt lat="48.463047" lon="2.714168"><ele></ele><time>2017-9-19T5:54:48Z</time></trkpt>
<trkpt lat="48.463050" lon="2.714173"><ele></ele><time>2017-9-19T5:54:51Z</time></trkpt>
<trkpt lat="48.463051" lon="2.714183"><ele></ele><time>2017-9-19T5:54:54Z</time></trkpt>
<trkpt lat="48.463055" lon="2.714197"><ele></ele><time>2017-9-19T5:54:57Z</time></trkpt>
<trkpt lat="48.463051" lon="2.714215"><ele></ele><time>2017-9-19T5:55:0Z</time></trkpt>
<trkpt lat="48.463048" lon="2.714228"><ele></ele><time>2017-9-19T5:55:3Z</time></trkpt>
<trkpt lat="48.463042" lon="2.714255"><ele></ele><time>2017-9-19T5:55:6Z</time></trkpt>
<trkpt lat="48.463042" lon="2.714260"><ele></ele><time>2017-9-19T5:55:9Z</time></trkpt>
<trkpt lat="48.463042" lon="2.714262"><ele></ele><time>2017-9-19T5:55:12Z</time></trkpt>
<trkpt lat="48.463038" lon="2.714263"><ele></ele><time>2017-9-19T5:55:15Z</time></trkpt>
<trkpt lat="48.463037" lon="2.714267"><ele></ele><time>2017-9-19T5:55:18Z</time></trkpt>
<trkpt lat="48.463028" lon="2.714267"><ele></ele><time>2017-9-19T5:55:21Z</time></trkpt>
<trkpt lat="48.463026" lon="2.714268"><ele></ele><time>2017-9-19T5:55:24Z</time></trkpt>
<trkpt lat="48.463023" lon="2.714268"><ele></ele><time>2017-9-19T5:55:27Z</time></trkpt>
<trkpt lat="48.463026" lon="2.714268"><ele></ele><time>2017-9-19T5:55:30Z</time></trkpt>
<trkpt lat="48.463030" lon="2.714270"><ele></ele><time>2017-9-19T5:55:33Z</time></trkpt>
<trkpt lat="48.463026" lon="2.714276"><ele></ele><time>2017-9-19T5:55:36Z</time></trkpt>
<trkpt lat="48.463022" lon="2.714280"><ele></ele><time>2017-9-19T5:55:39Z</time></trkpt>
<trkpt lat="48.463018" lon="2.714283"><ele></ele><time>2017-9-19T5:55:42Z</time></trkpt>
<trkpt lat="48.463015" lon="2.714285"><ele></ele><time>2017-9-19T5:55:45Z</time></trkpt>
<trkpt lat="48.463010" lon="2.714285"><ele></ele><time>2017-9-19T5:55:48Z</time></trkpt>
<trkpt lat="48.462985" lon="2.714282"><ele></ele><time>2017-9-19T5:55:51Z</time></trkpt>
<trkpt lat="48.462965" lon="2.714280"><ele></ele><time>2017-9-19T5:55:54Z</time></trkpt>
<trkpt lat="48.462943" lon="2.714276"><ele></ele><time>2017-9-19T5:55:57Z</time></trkpt>
<trkpt lat="48.462918" lon="2.714275"><ele></ele><time>2017-9-19T5:56:0Z</time></trkpt>
<trkpt lat="48.462893" lon="2.714287"><ele></ele><time>2017-9-19T5:56:3Z</time></trkpt>
<trkpt lat="48.462753" lon="2.714332"><ele></ele><time>2017-9-19T5:56:6Z</time></trkpt>
<trkpt lat="48.462731" lon="2.714343"><ele></ele><time>2017-9-19T5:56:9Z</time></trkpt>
<trkpt lat="48.462703" lon="2.714355"><ele></ele><time>2017-9-19T5:56:12Z</time></trkpt>
<trkpt lat="48.462490" lon="2.714427"><ele></ele><time>2017-9-19T5:56:15Z</time></trkpt>
<trkpt lat="48.462432" lon="2.714433"><ele></ele><time>2017-9-19T5:56:18Z</time></trkpt>
<trkpt lat="48.462365" lon="2.714453"><ele></ele><time>2017-9-19T5:56:21Z</time></trkpt>
<trkpt lat="48.461883" lon="2.714612"><ele></ele><time>2017-9-19T5:56:24Z</time></trkpt>
<trkpt lat="48.461783" lon="2.714638"><ele></ele><time>2017-9-19T5:56:27Z</time></trkpt>
<trkpt lat="48.461758" lon="2.714643"><ele></ele><time>2017-9-19T5:56:30Z</time></trkpt>
<trkpt lat="48.461731" lon="2.714640"><ele></ele><time>2017-9-19T5:56:33Z</time></trkpt>
<trkpt lat="48.461700" lon="2.714640"><ele></ele><time>2017-9-19T5:56:36Z</time></trkpt>
<trkpt lat="48.461603" lon="2.714657"><ele></ele><time>2017-9-19T5:56:39Z</time></trkpt>
<trkpt lat="48.461510" lon="2.714708"><ele></ele><time>2017-9-19T5:56:42Z</time></trkpt>
<trkpt lat="48.461505" lon="2.714722"><ele></ele><time>2017-9-19T5:56:45Z</time></trkpt>
<trkpt lat="48.461501" lon="2.714735"><ele></ele><time>2017-9-19T5:56:48Z</time></trkpt>
<trkpt lat="48.461497" lon="2.714745"><ele></ele><time>2017-9-19T5:56:51Z</time></trkpt>
<trkpt lat="48.461493" lon="2.714752"><ele></ele><time>2017-9-19T5:56:54Z</time></trkpt>
<trkpt lat="48.461490" lon="2.714748"><ele></ele><time>2017-9-19T5:56:57Z</time></trkpt>
<trkpt lat="48.461488" lon="2.714750"><ele></ele><time>2017-9-19T5:57:0Z</time></trkpt>
<trkpt lat="48.461485" lon="2.714743"><ele></ele><time>2017-9-19T5:57:3Z</time></trkpt>
<trkpt lat="48.461483" lon="2.714740"><ele></ele><time>2017-9-19T5:57:6Z</time></trkpt>
<trkpt lat="48.461480" lon="2.714735"><ele></ele><time>2017-9-19T5:57:9Z</time></trkpt>
<trkpt lat="48.461478" lon="2.714732"><ele></ele><time>2017-9-19T5:57:12Z</time></trkpt>
<trkpt lat="48.461477" lon="2.714730"><ele></ele><time>2017-9-19T5:57:15Z</time></trkpt>
<trkpt lat="48.461473" lon="2.714728"><ele></ele><time>2017-9-19T5:57:18Z</time></trkpt>
<trkpt lat="48.461472" lon="2.714727"><ele></ele><time>2017-9-19T5:57:21Z</time></trkpt>
<trkpt lat="48.461472" lon="2.714725"><ele></ele><time>2017-9-19T5:57:24Z</time></trkpt>
<trkpt lat="48.461470" lon="2.714725"><ele></ele><time>2017-9-19T5:57:27Z</time></trkpt>
<trkpt lat="48.461472" lon="2.714725"><ele></ele><time>2017-9-19T5:57:30Z</time></trkpt>
<trkpt lat="48.461470" lon="2.714725"><ele></ele><time>2017-9-19T5:57:33Z</time></trkpt>
<trkpt lat="48.461470" lon="2.714725"><ele></ele><time>2017-9-19T5:57:36Z</time></trkpt>
<trkpt lat="48.461473" lon="2.714722"><ele></ele><time>2017-9-19T5:57:39Z</time></trkpt>
<trkpt lat="48.461477" lon="2.714718"><ele></ele><time>2017-9-19T5:57:42Z</time></trkpt>
<trkpt lat="48.461481" lon="2.714713"><ele></ele><time>2017-9-19T5:57:45Z</time></trkpt>
<trkpt lat="48.461487" lon="2.714710"><ele></ele><time>2017-9-19T5:57:48Z</time></trkpt>
<trkpt lat="48.461488" lon="2.714712"><ele></ele><time>2017-9-19T5:57:51Z</time></trkpt>
<trkpt lat="48.461488" lon="2.714715"><ele></ele><time>2017-9-19T5:57:54Z</time></trkpt>
<trkpt lat="48.461488" lon="2.714717"><ele></ele><time>2017-9-19T5:57:57Z</time></trkpt>
<trkpt lat="48.461490" lon="2.714717"><ele></ele><time>2017-9-19T5:58:0Z</time></trkpt>
<trkpt lat="48.461492" lon="2.714717"><ele></ele><time>2017-9-19T5:58:3Z</time></trkpt>
<trkpt lat="48.461492" lon="2.714717"><ele></ele><time>2017-9-19T5:58:6Z</time></trkpt>
<trkpt lat="48.461492" lon="2.714720"><ele></ele><time>2017-9-19T5:58:9Z</time></trkpt>
<trkpt lat="48.461495" lon="2.714715"><ele></ele><time>2017-9-19T5:58:12Z</time></trkpt>
<trkpt lat="48.461493" lon="2.714723"><ele></ele><time>2017-9-19T5:58:15Z</time></trkpt>
<trkpt lat="48.461492" lon="2.714730"><ele></ele><time>2017-9-19T5:58:18Z</time></trkpt>
<trkpt lat="48.461490" lon="2.714735"><ele></ele><time>2017-9-19T5:58:21Z</time></trkpt>
<trkpt lat="48.461490" lon="2.714742"><ele></ele><time>2017-9-19T5:58:24Z</time></trkpt>
<trkpt lat="48.461488" lon="2.714747"><ele></ele><time>2017-9-19T5:58:27Z</time></trkpt>
<trkpt lat="48.461487" lon="2.714755"><ele></ele><time>2017-9-19T5:58:30Z</time></trkpt>
<trkpt lat="48.461485" lon="2.714768"><ele></ele><time>2017-9-19T5:58:33Z</time></trkpt>
<trkpt lat="48.461483" lon="2.714773"><ele></ele><time>2017-9-19T5:58:36Z</time></trkpt>
<trkpt lat="48.461485" lon="2.714775"><ele></ele><time>2017-9-19T5:58:39Z</time></trkpt>
<trkpt lat="48.461483" lon="2.714780"><ele></ele><time>2017-9-19T5:58:42Z</time></trkpt>
<trkpt lat="48.461483" lon="2.714785"><ele></ele><time>2017-9-19T5:58:45Z</time></trkpt>
<trkpt lat="48.461481" lon="2.714792"><ele></ele><time>2017-9-19T5:58:48Z</time></trkpt>
<trkpt lat="48.461468" lon="2.714832"><ele></ele><time>2017-9-19T5:58:51Z</time></trkpt>
<trkpt lat="48.461467" lon="2.714843"><ele></ele><time>2017-9-19T5:58:54Z</time></trkpt>
<trkpt lat="48.461468" lon="2.714852"><ele></ele><time>2017-9-19T5:58:57Z</time></trkpt>
<trkpt lat="48.461470" lon="2.714857"><ele></ele><time>2017-9-19T5:59:0Z</time></trkpt>
<trkpt lat="48.461477" lon="2.714883"><ele></ele><time>2017-9-19T5:59:3Z</time></trkpt>
<trkpt lat="48.461485" lon="2.714895"><ele></ele><time>2017-9-19T5:59:6Z</time></trkpt>
<trkpt lat="48.461582" lon="2.715023"><ele></ele><time>2017-9-19T5:59:9Z</time></trkpt>
<trkpt lat="48.461675" lon="2.715150"><ele></ele><time>2017-9-19T5:59:12Z</time></trkpt>
<trkpt lat="48.461697" lon="2.715187"><ele></ele><time>2017-9-19T5:59:15Z</time></trkpt>
<trkpt lat="48.461787" lon="2.715337"><ele></ele><time>2017-9-19T5:59:18Z</time></trkpt>
<trkpt lat="48.461802" lon="2.715385"><ele></ele><time>2017-9-19T5:59:21Z</time></trkpt>
<trkpt lat="48.461823" lon="2.715428"><ele></ele><time>2017-9-19T5:59:24Z</time></trkpt>
<trkpt lat="48.461855" lon="2.715467"><ele></ele><time>2017-9-19T5:59:27Z</time></trkpt>
<trkpt lat="48.461937" lon="2.715578"><ele></ele><time>2017-9-19T5:59:30Z</time></trkpt>
<trkpt lat="48.461962" lon="2.715622"><ele></ele><time>2017-9-19T5:59:33Z</time></trkpt>
<trkpt lat="48.462083" lon="2.715822"><ele></ele><time>2017-9-19T5:59:36Z</time></trkpt>
<trkpt lat="48.462135" lon="2.715928"><ele></ele><time>2017-9-19T5:59:39Z</time></trkpt>
<trkpt lat="48.462150" lon="2.715972"><ele></ele><time>2017-9-19T5:59:42Z</time></trkpt>
<trkpt lat="48.462162" lon="2.715992"><ele></ele><time>2017-9-19T5:59:45Z</time></trkpt>
<trkpt lat="48.464123" lon="2.719732"><ele></ele><time>2017-9-19T5:59:48Z</time></trkpt>
<trkpt lat="48.464150" lon="2.719782"><ele></ele><time>2017-9-19T5:59:51Z</time></trkpt>
<trkpt lat="48.465232" lon="2.721750"><ele></ele><time>2017-9-19T5:59:54Z</time></trkpt>
<trkpt lat="48.465837" lon="2.722880"><ele></ele><time>2017-9-19T5:59:57Z</time></trkpt>
<trkpt lat="48.466255" lon="2.723687"><ele></ele><time>2017-9-19T6:0:0Z</time></trkpt>
<trkpt lat="48.466317" lon="2.723705"><ele></ele><time>2017-9-19T6:0:3Z</time></trkpt>
<trkpt lat="48.466380" lon="2.723708"><ele></ele><time>2017-9-19T6:0:6Z</time></trkpt>
<trkpt lat="48.466445" lon="2.723698"><ele></ele><time>2017-9-19T6:0:9Z</time></trkpt>
<trkpt lat="48.467308" lon="2.723450"><ele></ele><time>2017-9-19T6:0:12Z</time></trkpt>
<trkpt lat="48.468928" lon="2.722970"><ele></ele><time>2017-9-19T6:0:15Z</time></trkpt>
<trkpt lat="48.469020" lon="2.722925"><ele></ele><time>2017-9-19T6:0:18Z</time></trkpt>
<trkpt lat="48.469058" lon="2.722922"><ele></ele><time>2017-9-19T6:0:21Z</time></trkpt>
<trkpt lat="48.469085" lon="2.722942"><ele></ele><time>2017-9-19T6:0:24Z</time></trkpt>
<trkpt lat="48.469113" lon="2.722973"><ele></ele><time>2017-9-19T6:0:27Z</time></trkpt>
<trkpt lat="48.469275" lon="2.723200"><ele></ele><time>2017-9-19T6:0:30Z</time></trkpt>
<trkpt lat="48.469865" lon="2.724038"><ele></ele><time>2017-9-19T6:0:33Z</time></trkpt>
<trkpt lat="48.469908" lon="2.724080"><ele></ele><time>2017-9-19T6:0:36Z</time></trkpt>
<trkpt lat="48.471120" lon="2.725272"><ele></ele><time>2017-9-19T6:0:39Z</time></trkpt>
<trkpt lat="48.471203" lon="2.725328"><ele></ele><time>2017-9-19T6:0:42Z</time></trkpt>
<trkpt lat="48.471437" lon="2.725445"><ele></ele><time>2017-9-19T6:0:45Z</time></trkpt>
<trkpt lat="48.472128" lon="2.725785"><ele></ele><time>2017-9-19T6:0:48Z</time></trkpt>
<trkpt lat="48.472147" lon="2.725805"><ele></ele><time>2017-9-19T6:0:51Z</time></trkpt>
<trkpt lat="48.472165" lon="2.725832"><ele></ele><time>2017-9-19T6:0:54Z</time></trkpt>
<trkpt lat="48.476297" lon="2.732027"><ele></ele><time>2017-9-19T6:0:57Z</time></trkpt>
<trkpt lat="48.476317" lon="2.732045"><ele></ele><time>2017-9-19T6:1:0Z</time></trkpt>
<trkpt lat="48.476332" lon="2.732051"><ele></ele><time>2017-9-19T6:1:3Z</time></trkpt>
<trkpt lat="48.476337" lon="2.732051"><ele></ele><time>2017-9-19T6:1:6Z</time></trkpt>
<trkpt lat="48.476340" lon="2.732051"><ele></ele><time>2017-9-19T6:1:9Z</time></trkpt>
<trkpt lat="48.476343" lon="2.732050"><ele></ele><time>2017-9-19T6:1:12Z</time></trkpt>
<trkpt lat="48.476345" lon="2.732048"><ele></ele><time>2017-9-19T6:1:15Z</time></trkpt>
<trkpt lat="48.476345" lon="2.732048"><ele></ele><time>2017-9-19T6:1:18Z</time></trkpt>
<trkpt lat="48.476345" lon="2.732048"><ele></ele><time>2017-9-19T6:1:21Z</time></trkpt>
<trkpt lat="48.476345" lon="2.732048"><ele></ele><time>2017-9-19T6:1:24Z</time></trkpt>
<trkpt lat="48.476346" lon="2.732048"><ele></ele><time>2017-9-19T6:1:27Z</time></trkpt>
<trkpt lat="48.476346" lon="2.732048"><ele></ele><time>2017-9-19T6:1:30Z</time></trkpt>
<trkpt lat="48.476346" lon="2.732048"><ele></ele><time>2017-9-19T6:1:33Z</time></trkpt>
<trkpt lat="48.476346" lon="2.732047"><ele></ele><time>2017-9-19T6:1:36Z</time></trkpt>
<trkpt lat="48.476346" lon="2.732047"><ele></ele><time>2017-9-19T6:1:39Z</time></trkpt>
<trkpt lat="48.476346" lon="2.732047"><ele></ele><time>2017-9-19T6:1:42Z</time></trkpt>
<trkpt lat="48.476346" lon="2.732047"><ele></ele><time>2017-9-19T6:1:45Z</time></trkpt>
<trkpt lat="48.476348" lon="2.732047"><ele></ele><time>2017-9-19T6:1:48Z</time></trkpt>
<trkpt lat="48.476348" lon="2.732047"><ele></ele><time>2017-9-19T6:1:51Z</time></trkpt>
<trkpt lat="48.476348" lon="2.732047"><ele></ele><time>2017-9-19T6:1:54Z</time></trkpt>
<trkpt lat="48.476346" lon="2.732045"><ele></ele><time>2017-9-19T6:1:57Z</time></trkpt>
<trkpt lat="48.476346" lon="2.732045"><ele></ele><time>2017-9-19T6:2:0Z</time></trkpt>
<trkpt lat="48.476346" lon="2.732045"><ele></ele><time>2017-9-19T6:2:3Z</time></trkpt>
<trkpt lat="48.476346" lon="2.732045"><ele></ele><time>2017-9-19T6:2:6Z</time></trkpt>
<trkpt lat="48.476346" lon="2.732045"><ele></ele><time>2017-9-19T6:2:9Z</time></trkpt>
<trkpt lat="48.476345" lon="2.732043"><ele></ele><time>2017-9-19T6:2:12Z</time></trkpt>
<trkpt lat="48.476345" lon="2.732045"><ele></ele><time>2017-9-19T6:2:15Z</time></trkpt>
<trkpt lat="48.476346" lon="2.732045"><ele></ele><time>2017-9-19T6:2:18Z</time></trkpt>
<trkpt lat="48.476346" lon="2.732047"><ele></ele><time>2017-9-19T6:2:21Z</time></trkpt>
<trkpt lat="48.476346" lon="2.732047"><ele></ele><time>2017-9-19T6:2:24Z</time></trkpt>
<trkpt lat="48.476348" lon="2.732047"><ele></ele><time>2017-9-19T6:2:27Z</time></trkpt>
<trkpt lat="48.476348" lon="2.732048"><ele></ele><time>2017-9-19T6:2:30Z</time></trkpt>
<trkpt lat="48.476348" lon="2.732047"><ele></ele><time>2017-9-19T6:2:33Z</time></trkpt>
<trkpt lat="48.476346" lon="2.732047"><ele></ele><time>2017-9-19T6:2:36Z</time></trkpt>
<trkpt lat="48.476346" lon="2.732047"><ele></ele><time>2017-9-19T6:2:39Z</time></trkpt>
<trkpt lat="48.476346" lon="2.732050"><ele></ele><time>2017-9-19T6:2:42Z</time></trkpt>
<trkpt lat="48.476350" lon="2.732060"><ele></ele><time>2017-9-19T6:2:45Z</time></trkpt>
<trkpt lat="48.476357" lon="2.732075"><ele></ele><time>2017-9-19T6:2:48Z</time></trkpt>
<trkpt lat="48.476363" lon="2.732093"><ele></ele><time>2017-9-19T6:2:51Z</time></trkpt>
<trkpt lat="48.476387" lon="2.732158"><ele></ele><time>2017-9-19T6:2:54Z</time></trkpt>
<trkpt lat="48.476400" lon="2.732182"><ele></ele><time>2017-9-19T6:2:57Z</time></trkpt>
<trkpt lat="48.476478" lon="2.732318"><ele></ele><time>2017-9-19T6:3:0Z</time></trkpt>
<trkpt lat="48.476495" lon="2.732355"><ele></ele><time>2017-9-19T6:3:3Z</time></trkpt>
<trkpt lat="48.476575" lon="2.732487"><ele></ele><time>2017-9-19T6:3:6Z</time></trkpt>
<trkpt lat="48.476632" lon="2.732573"><ele></ele><time>2017-9-19T6:3:9Z</time></trkpt>
<trkpt lat="48.476655" lon="2.732622"><ele></ele><time>2017-9-19T6:3:12Z</time></trkpt>
<trkpt lat="48.476753" lon="2.732782"><ele></ele><time>2017-9-19T6:3:15Z</time></trkpt>
<trkpt lat="48.476782" lon="2.732810"><ele></ele><time>2017-9-19T6:3:18Z</time></trkpt>
<trkpt lat="48.476808" lon="2.732845"><ele></ele><time>2017-9-19T6:3:21Z</time></trkpt>
<trkpt lat="48.476953" lon="2.733038"><ele></ele><time>2017-9-19T6:3:24Z</time></trkpt>
<trkpt lat="48.476980" lon="2.733082"><ele></ele><time>2017-9-19T6:3:27Z</time></trkpt>
<trkpt lat="48.477048" lon="2.733155"><ele></ele><time>2017-9-19T6:3:30Z</time></trkpt>
<trkpt lat="48.477117" lon="2.733242"><ele></ele><time>2017-9-19T6:3:33Z</time></trkpt>
<trkpt lat="48.477180" lon="2.733337"><ele></ele><time>2017-9-19T6:3:36Z</time></trkpt>
<trkpt lat="48.477457" lon="2.733755"><ele></ele><time>2017-9-19T6:3:39Z</time></trkpt>
<trkpt lat="48.477478" lon="2.733805"><ele></ele><time>2017-9-19T6:3:42Z</time></trkpt>
<trkpt lat="48.477535" lon="2.733908"><ele></ele><time>2017-9-19T6:3:45Z</time></trkpt>
<trkpt lat="48.478213" lon="2.734912"><ele></ele><time>2017-9-19T6:3:48Z</time></trkpt>
<trkpt lat="48.478317" lon="2.735072"><ele></ele><time>2017-9-19T6:3:51Z</time></trkpt>
<trkpt lat="48.478413" lon="2.735235"><ele></ele><time>2017-9-19T6:3:54Z</time></trkpt>
<trkpt lat="48.478433" lon="2.735275"><ele></ele><time>2017-9-19T6:3:57Z</time></trkpt>
<trkpt lat="48.478457" lon="2.735312"><ele></ele><time>2017-9-19T6:4:0Z</time></trkpt>
<trkpt lat="48.478970" lon="2.736067"><ele></ele><time>2017-9-19T6:4:3Z</time></trkpt>
<trkpt lat="48.478997" lon="2.736105"><ele></ele><time>2017-9-19T6:4:6Z</time></trkpt>
<trkpt lat="48.481077" lon="2.739288"><ele></ele><time>2017-9-19T6:4:9Z</time></trkpt>
<trkpt lat="48.483420" lon="2.742810"><ele></ele><time>2017-9-19T6:4:12Z</time></trkpt>
<trkpt lat="48.483425" lon="2.742812"><ele></ele><time>2017-9-19T6:4:15Z</time></trkpt>
<trkpt lat="48.483425" lon="2.742815"><ele></ele><time>2017-9-19T6:4:18Z</time></trkpt>
<trkpt lat="48.483427" lon="2.742820"><ele></ele><time>2017-9-19T6:4:21Z</time></trkpt>
<trkpt lat="48.483437" lon="2.742825"><ele></ele><time>2017-9-19T6:4:24Z</time></trkpt>
<trkpt lat="48.483446" lon="2.742827"><ele></ele><time>2017-9-19T6:4:27Z</time></trkpt>
<trkpt lat="48.483455" lon="2.742820"><ele></ele><time>2017-9-19T6:4:30Z</time></trkpt>
<trkpt lat="48.483462" lon="2.742813"><ele></ele><time>2017-9-19T6:4:33Z</time></trkpt>
<trkpt lat="48.483472" lon="2.742813"><ele></ele><time>2017-9-19T6:4:36Z</time></trkpt>
<trkpt lat="48.483480" lon="2.742817"><ele></ele><time>2017-9-19T6:4:39Z</time></trkpt>
<trkpt lat="48.483487" lon="2.742822"><ele></ele><time>2017-9-19T6:4:42Z</time></trkpt>
<trkpt lat="48.483495" lon="2.742830"><ele></ele><time>2017-9-19T6:4:45Z</time></trkpt>
<trkpt lat="48.483502" lon="2.742840"><ele></ele><time>2017-9-19T6:4:48Z</time></trkpt>
<trkpt lat="48.483515" lon="2.742863"><ele></ele><time>2017-9-19T6:4:51Z</time></trkpt>
<trkpt lat="48.483520" lon="2.742875"><ele></ele><time>2017-9-19T6:4:54Z</time></trkpt>
<trkpt lat="48.483525" lon="2.742882"><ele></ele><time>2017-9-19T6:4:57Z</time></trkpt>
<trkpt lat="48.483527" lon="2.742885"><ele></ele><time>2017-9-19T6:5:0Z</time></trkpt>
<trkpt lat="48.483527" lon="2.742892"><ele></ele><time>2017-9-19T6:5:3Z</time></trkpt>
<trkpt lat="48.483527" lon="2.742907"><ele></ele><time>2017-9-19T6:5:6Z</time></trkpt>
<trkpt lat="48.483535" lon="2.743192"><ele></ele><time>2017-9-19T6:5:9Z</time></trkpt>
<trkpt lat="48.483527" lon="2.743417"><ele></ele><time>2017-9-19T6:5:12Z</time></trkpt>
<trkpt lat="48.483432" lon="2.745528"><ele></ele><time>2017-9-19T6:5:15Z</time></trkpt>
<trkpt lat="48.483416" lon="2.745602"><ele></ele><time>2017-9-19T6:5:18Z</time></trkpt>
<trkpt lat="48.483328" lon="2.745868"><ele></ele><time>2017-9-19T6:5:21Z</time></trkpt>
<trkpt lat="48.483298" lon="2.745927"><ele></ele><time>2017-9-19T6:5:24Z</time></trkpt>
<trkpt lat="48.483130" lon="2.746227"><ele></ele><time>2017-9-19T6:5:27Z</time></trkpt>
<trkpt lat="48.483095" lon="2.746282"><ele></ele><time>2017-9-19T6:5:30Z</time></trkpt>
<trkpt lat="48.483060" lon="2.746335"><ele></ele><time>2017-9-19T6:5:33Z</time></trkpt>
<trkpt lat="48.483018" lon="2.746383"><ele></ele><time>2017-9-19T6:5:36Z</time></trkpt>
<trkpt lat="48.482887" lon="2.746505"><ele></ele><time>2017-9-19T6:5:39Z</time></trkpt>
<trkpt lat="48.482843" lon="2.746537"><ele></ele><time>2017-9-19T6:5:42Z</time></trkpt>
<trkpt lat="48.482706" lon="2.746622"><ele></ele><time>2017-9-19T6:5:45Z</time></trkpt>
<trkpt lat="48.482567" lon="2.746693"><ele></ele><time>2017-9-19T6:5:48Z</time></trkpt>
<trkpt lat="48.482117" lon="2.746895"><ele></ele><time>2017-9-19T6:5:51Z</time></trkpt>
<trkpt lat="48.481732" lon="2.747107"><ele></ele><time>2017-9-19T6:5:54Z</time></trkpt>
<trkpt lat="48.481696" lon="2.747137"><ele></ele><time>2017-9-19T6:5:57Z</time></trkpt>
<trkpt lat="48.481447" lon="2.747357"><ele></ele><time>2017-9-19T6:6:0Z</time></trkpt>
<trkpt lat="48.481430" lon="2.747363"><ele></ele><time>2017-9-19T6:6:3Z</time></trkpt>
<trkpt lat="48.481417" lon="2.747363"><ele></ele><time>2017-9-19T6:6:6Z</time></trkpt>
<trkpt lat="48.481406" lon="2.747362"><ele></ele><time>2017-9-19T6:6:9Z</time></trkpt>
<trkpt lat="48.481400" lon="2.747363"><ele></ele><time>2017-9-19T6:6:12Z</time></trkpt>
<trkpt lat="48.481392" lon="2.747363"><ele></ele><time>2017-9-19T6:6:15Z</time></trkpt>
<trkpt lat="48.481380" lon="2.747360"><ele></ele><time>2017-9-19T6:6:18Z</time></trkpt>
<trkpt lat="48.481348" lon="2.747363"><ele></ele><time>2017-9-19T6:6:21Z</time></trkpt>
<trkpt lat="48.481335" lon="2.747378"><ele></ele><time>2017-9-19T6:6:24Z</time></trkpt>
<trkpt lat="48.481323" lon="2.747395"><ele></ele><time>2017-9-19T6:6:27Z</time></trkpt>
<trkpt lat="48.481303" lon="2.747425"><ele></ele><time>2017-9-19T6:6:30Z</time></trkpt>
<trkpt lat="48.481298" lon="2.747443"><ele></ele><time>2017-9-19T6:6:33Z</time></trkpt>
<trkpt lat="48.481296" lon="2.747472"><ele></ele><time>2017-9-19T6:6:36Z</time></trkpt>
<trkpt lat="48.481288" lon="2.747535"><ele></ele><time>2017-9-19T6:6:39Z</time></trkpt>
<trkpt lat="48.481277" lon="2.747608"><ele></ele><time>2017-9-19T6:6:42Z</time></trkpt>
<trkpt lat="48.481278" lon="2.747648"><ele></ele><time>2017-9-19T6:6:45Z</time></trkpt>
<trkpt lat="48.481285" lon="2.747698"><ele></ele><time>2017-9-19T6:6:48Z</time></trkpt>
<trkpt lat="48.481290" lon="2.747810"><ele></ele><time>2017-9-19T6:6:51Z</time></trkpt>
<trkpt lat="48.481332" lon="2.749433"><ele></ele><time>2017-9-19T6:6:54Z</time></trkpt>
<trkpt lat="48.481327" lon="2.749502"><ele></ele><time>2017-9-19T6:6:57Z</time></trkpt>
<trkpt lat="48.481311" lon="2.749568"><ele></ele><time>2017-9-19T6:7:0Z</time></trkpt>
<trkpt lat="48.480642" lon="2.751850"><ele></ele><time>2017-9-19T6:7:3Z</time></trkpt>
<trkpt lat="48.480621" lon="2.751920"><ele></ele><time>2017-9-19T6:7:6Z</time></trkpt>
<trkpt lat="48.479547" lon="2.755595"><ele></ele><time>2017-9-19T6:7:9Z</time></trkpt>
<trkpt lat="48.479325" lon="2.756262"><ele></ele><time>2017-9-19T6:7:12Z</time></trkpt>
<trkpt lat="48.479295" lon="2.756317"><ele></ele><time>2017-9-19T6:7:15Z</time></trkpt>
<trkpt lat="48.479112" lon="2.756653"><ele></ele><time>2017-9-19T6:7:18Z</time></trkpt>
<trkpt lat="48.479072" lon="2.756683"><ele></ele><time>2017-9-19T6:7:21Z</time></trkpt>
<trkpt lat="48.479040" lon="2.756718"><ele></ele><time>2017-9-19T6:7:24Z</time></trkpt>
<trkpt lat="48.479010" lon="2.756763"><ele></ele><time>2017-9-19T6:7:27Z</time></trkpt>
<trkpt lat="48.478873" lon="2.756968"><ele></ele><time>2017-9-19T6:7:30Z</time></trkpt>
<trkpt lat="48.477126" lon="2.759593"><ele></ele><time>2017-9-19T6:7:33Z</time></trkpt>
<trkpt lat="48.477097" lon="2.759632"><ele></ele><time>2017-9-19T6:7:36Z</time></trkpt>
<trkpt lat="48.474887" lon="2.763018"><ele></ele><time>2017-9-19T6:7:39Z</time></trkpt>
<trkpt lat="48.474466" lon="2.763630"><ele></ele><time>2017-9-19T6:7:42Z</time></trkpt>
<trkpt lat="48.474445" lon="2.763673"><ele></ele><time>2017-9-19T6:7:45Z</time></trkpt>
<trkpt lat="48.474398" lon="2.763750"><ele></ele><time>2017-9-19T6:7:48Z</time></trkpt>
<trkpt lat="48.474370" lon="2.763780"><ele></ele><time>2017-9-19T6:7:51Z</time></trkpt>
<trkpt lat="48.474092" lon="2.764040"><ele></ele><time>2017-9-19T6:7:54Z</time></trkpt>
<trkpt lat="48.474057" lon="2.764057"><ele></ele><time>2017-9-19T6:7:57Z</time></trkpt>
<trkpt lat="48.474020" lon="2.764060"><ele></ele><time>2017-9-19T6:8:0Z</time></trkpt>
<trkpt lat="48.473945" lon="2.764085"><ele></ele><time>2017-9-19T6:8:3Z</time></trkpt>
<trkpt lat="48.473905" lon="2.764108"><ele></ele><time>2017-9-19T6:8:6Z</time></trkpt>
<trkpt lat="48.473868" lon="2.764122"><ele></ele><time>2017-9-19T6:8:9Z</time></trkpt>
<trkpt lat="48.473722" lon="2.764198"><ele></ele><time>2017-9-19T6:8:12Z</time></trkpt>
<trkpt lat="48.473505" lon="2.764330"><ele></ele><time>2017-9-19T6:8:15Z</time></trkpt>
<trkpt lat="48.473467" lon="2.764345"><ele></ele><time>2017-9-19T6:8:18Z</time></trkpt>
<trkpt lat="48.472968" lon="2.764618"><ele></ele><time>2017-9-19T6:8:21Z</time></trkpt>
<trkpt lat="48.472943" lon="2.764638"><ele></ele><time>2017-9-19T6:8:24Z</time></trkpt>
<trkpt lat="48.472915" lon="2.764658"><ele></ele><time>2017-9-19T6:8:27Z</time></trkpt>
<trkpt lat="48.472885" lon="2.764680"><ele></ele><time>2017-9-19T6:8:30Z</time></trkpt>
<trkpt lat="48.472670" lon="2.764813"><ele></ele><time>2017-9-19T6:8:33Z</time></trkpt>
<trkpt lat="48.472395" lon="2.764955"><ele></ele><time>2017-9-19T6:8:36Z</time></trkpt>
<trkpt lat="48.472366" lon="2.764965"><ele></ele><time>2017-9-19T6:8:39Z</time></trkpt>
<trkpt lat="48.472338" lon="2.764977"><ele></ele><time>2017-9-19T6:8:42Z</time></trkpt>
<trkpt lat="48.472308" lon="2.764998"><ele></ele><time>2017-9-19T6:8:45Z</time></trkpt>
<trkpt lat="48.472277" lon="2.765017"><ele></ele><time>2017-9-19T6:8:48Z</time></trkpt>
<trkpt lat="48.472245" lon="2.765033"><ele></ele><time>2017-9-19T6:8:51Z</time></trkpt>
<trkpt lat="48.472213" lon="2.765045"><ele></ele><time>2017-9-19T6:8:54Z</time></trkpt>
<trkpt lat="48.472143" lon="2.765082"><ele></ele><time>2017-9-19T6:8:57Z</time></trkpt>
<trkpt lat="48.471723" lon="2.765353"><ele></ele><time>2017-9-19T6:9:0Z</time></trkpt>
<trkpt lat="48.471588" lon="2.765440"><ele></ele><time>2017-9-19T6:9:3Z</time></trkpt>
<trkpt lat="48.471368" lon="2.765615"><ele></ele><time>2017-9-19T6:9:6Z</time></trkpt>
<trkpt lat="48.471325" lon="2.765652"><ele></ele><time>2017-9-19T6:9:9Z</time></trkpt>
<trkpt lat="48.471305" lon="2.765678"><ele></ele><time>2017-9-19T6:9:12Z</time></trkpt>
<trkpt lat="48.471207" lon="2.765830"><ele></ele><time>2017-9-19T6:9:15Z</time></trkpt>
<trkpt lat="48.470812" lon="2.766450"><ele></ele><time>2017-9-19T6:9:18Z</time></trkpt>
<trkpt lat="48.470788" lon="2.766497"><ele></ele><time>2017-9-19T6:9:21Z</time></trkpt>
<trkpt lat="48.470190" lon="2.767547"><ele></ele><time>2017-9-19T6:9:24Z</time></trkpt>
<trkpt lat="48.470105" lon="2.767670"><ele></ele><time>2017-9-19T6:9:27Z</time></trkpt>
<trkpt lat="48.470055" lon="2.767753"><ele></ele><time>2017-9-19T6:9:30Z</time></trkpt>
<trkpt lat="48.469653" lon="2.768467"><ele></ele><time>2017-9-19T6:9:33Z</time></trkpt>
<trkpt lat="48.469305" lon="2.769035"><ele></ele><time>2017-9-19T6:9:36Z</time></trkpt>
<trkpt lat="48.469271" lon="2.769073"><ele></ele><time>2017-9-19T6:9:39Z</time></trkpt>
<trkpt lat="48.469200" lon="2.769170"><ele></ele><time>2017-9-19T6:9:42Z</time></trkpt>
<trkpt lat="48.469186" lon="2.769205"><ele></ele><time>2017-9-19T6:9:45Z</time></trkpt>
<trkpt lat="48.469170" lon="2.769235"><ele></ele><time>2017-9-19T6:9:48Z</time></trkpt>
<trkpt lat="48.469001" lon="2.769552"><ele></ele><time>2017-9-19T6:9:51Z</time></trkpt>
<trkpt lat="48.468975" lon="2.769598"><ele></ele><time>2017-9-19T6:9:54Z</time></trkpt>
<trkpt lat="48.468808" lon="2.769882"><ele></ele><time>2017-9-19T6:9:57Z</time></trkpt>
<trkpt lat="48.468556" lon="2.770306"><ele></ele><time>2017-9-19T6:10:0Z</time></trkpt>
<trkpt lat="48.468528" lon="2.770342"><ele></ele><time>2017-9-19T6:10:3Z</time></trkpt>
<trkpt lat="48.468497" lon="2.770370"><ele></ele><time>2017-9-19T6:10:6Z</time></trkpt>
<trkpt lat="48.468461" lon="2.770402"><ele></ele><time>2017-9-19T6:10:9Z</time></trkpt>
<trkpt lat="48.468425" lon="2.770423"><ele></ele><time>2017-9-19T6:10:12Z</time></trkpt>
<trkpt lat="48.468388" lon="2.770437"><ele></ele><time>2017-9-19T6:10:15Z</time></trkpt>
<trkpt lat="48.468347" lon="2.770445"><ele></ele><time>2017-9-19T6:10:18Z</time></trkpt>
<trkpt lat="48.467950" lon="2.770550"><ele></ele><time>2017-9-19T6:10:21Z</time></trkpt>
<trkpt lat="48.467911" lon="2.770553"><ele></ele><time>2017-9-19T6:10:24Z</time></trkpt>
<trkpt lat="48.467596" lon="2.770593"><ele></ele><time>2017-9-19T6:10:27Z</time></trkpt>
<trkpt lat="48.467412" lon="2.770602"><ele></ele><time>2017-9-19T6:10:30Z</time></trkpt>
<trkpt lat="48.467363" lon="2.770602"><ele></ele><time>2017-9-19T6:10:33Z</time></trkpt>
<trkpt lat="48.467223" lon="2.770620"><ele></ele><time>2017-9-19T6:10:36Z</time></trkpt>
<trkpt lat="48.466727" lon="2.770693"><ele></ele><time>2017-9-19T6:10:39Z</time></trkpt>
<trkpt lat="48.466673" lon="2.770692"><ele></ele><time>2017-9-19T6:10:42Z</time></trkpt>
<trkpt lat="48.466513" lon="2.770693"><ele></ele><time>2017-9-19T6:10:45Z</time></trkpt>
<trkpt lat="48.466463" lon="2.770715"><ele></ele><time>2017-9-19T6:10:48Z</time></trkpt>
<trkpt lat="48.466418" lon="2.770730"><ele></ele><time>2017-9-19T6:10:51Z</time></trkpt>
<trkpt lat="48.466328" lon="2.770735"><ele></ele><time>2017-9-19T6:10:54Z</time></trkpt>
<trkpt lat="48.466285" lon="2.770727"><ele></ele><time>2017-9-19T6:10:57Z</time></trkpt>
<trkpt lat="48.466156" lon="2.770685"><ele></ele><time>2017-9-19T6:11:0Z</time></trkpt>
<trkpt lat="48.466060" lon="2.770680"><ele></ele><time>2017-9-19T6:11:3Z</time></trkpt>
<trkpt lat="48.465815" lon="2.770685"><ele></ele><time>2017-9-19T6:11:6Z</time></trkpt>
<trkpt lat="48.465765" lon="2.770680"><ele></ele><time>2017-9-19T6:11:9Z</time></trkpt>
<trkpt lat="48.465722" lon="2.770670"><ele></ele><time>2017-9-19T6:11:12Z</time></trkpt>
<trkpt lat="48.465477" lon="2.770620"><ele></ele><time>2017-9-19T6:11:15Z</time></trkpt>
<trkpt lat="48.465430" lon="2.770605"><ele></ele><time>2017-9-19T6:11:18Z</time></trkpt>
<trkpt lat="48.465390" lon="2.770588"><ele></ele><time>2017-9-19T6:11:21Z</time></trkpt>
<trkpt lat="48.465356" lon="2.770573"><ele></ele><time>2017-9-19T6:11:24Z</time></trkpt>
<trkpt lat="48.465050" lon="2.770465"><ele></ele><time>2017-9-19T6:11:27Z</time></trkpt>
<trkpt lat="48.463990" lon="2.770078"><ele></ele><time>2017-9-19T6:11:30Z</time></trkpt>
<trkpt lat="48.463952" lon="2.770042"><ele></ele><time>2017-9-19T6:11:33Z</time></trkpt>
<trkpt lat="48.463856" lon="2.769925"><ele></ele><time>2017-9-19T6:11:36Z</time></trkpt>
<trkpt lat="48.463838" lon="2.769883"><ele></ele><time>2017-9-19T6:11:39Z</time></trkpt>
<trkpt lat="48.463828" lon="2.769838"><ele></ele><time>2017-9-19T6:11:42Z</time></trkpt>
<trkpt lat="48.463823" lon="2.769798"><ele></ele><time>2017-9-19T6:11:45Z</time></trkpt>
<trkpt lat="48.463817" lon="2.769737"><ele></ele><time>2017-9-19T6:11:48Z</time></trkpt>
<trkpt lat="48.463810" lon="2.769712"><ele></ele><time>2017-9-19T6:11:51Z</time></trkpt>
<trkpt lat="48.463797" lon="2.769692"><ele></ele><time>2017-9-19T6:11:54Z</time></trkpt>
<trkpt lat="48.463741" lon="2.769595"><ele></ele><time>2017-9-19T6:11:57Z</time></trkpt>
<trkpt lat="48.463733" lon="2.769560"><ele></ele><time>2017-9-19T6:12:0Z</time></trkpt>
<trkpt lat="48.463733" lon="2.769520"><ele></ele><time>2017-9-19T6:12:3Z</time></trkpt>
<trkpt lat="48.463750" lon="2.769353"><ele></ele><time>2017-9-19T6:12:6Z</time></trkpt>
<trkpt lat="48.463765" lon="2.769187"><ele></ele><time>2017-9-19T6:12:9Z</time></trkpt>
<trkpt lat="48.463765" lon="2.769143"><ele></ele><time>2017-9-19T6:12:12Z</time></trkpt>
<trkpt lat="48.463762" lon="2.769057"><ele></ele><time>2017-9-19T6:12:15Z</time></trkpt>
<trkpt lat="48.463765" lon="2.769015"><ele></ele><time>2017-9-19T6:12:18Z</time></trkpt>
<trkpt lat="48.463780" lon="2.768903"><ele></ele><time>2017-9-19T6:12:21Z</time></trkpt>
<trkpt lat="48.463848" lon="2.768443"><ele></ele><time>2017-9-19T6:12:24Z</time></trkpt>
<trkpt lat="48.463855" lon="2.768420"><ele></ele><time>2017-9-19T6:12:27Z</time></trkpt>
<trkpt lat="48.463862" lon="2.768403"><ele></ele><time>2017-9-19T6:12:30Z</time></trkpt>
<trkpt lat="48.463870" lon="2.768390"><ele></ele><time>2017-9-19T6:12:33Z</time></trkpt>
<trkpt lat="48.463872" lon="2.768382"><ele></ele><time>2017-9-19T6:12:36Z</time></trkpt>
<trkpt lat="48.463873" lon="2.768377"><ele></ele><time>2017-9-19T6:12:39Z</time></trkpt>
<trkpt lat="48.463873" lon="2.768372"><ele></ele><time>2017-9-19T6:12:42Z</time></trkpt>
<trkpt lat="48.463873" lon="2.768367"><ele></ele><time>2017-9-19T6:12:45Z</time></trkpt>
<trkpt lat="48.463873" lon="2.768363"><ele></ele><time>2017-9-19T6:12:48Z</time></trkpt>
<trkpt lat="48.463872" lon="2.768358"><ele></ele><time>2017-9-19T6:12:51Z</time></trkpt>
<trkpt lat="48.463870" lon="2.768352"><ele></ele><time>2017-9-19T6:12:54Z</time></trkpt>
<trkpt lat="48.463865" lon="2.768343"><ele></ele><time>2017-9-19T6:12:57Z</time></trkpt>
<trkpt lat="48.463863" lon="2.768338"><ele></ele><time>2017-9-19T6:13:0Z</time></trkpt>
<trkpt lat="48.463860" lon="2.768333"><ele></ele><time>2017-9-19T6:13:3Z</time></trkpt>
<trkpt lat="48.463856" lon="2.768328"><ele></ele><time>2017-9-19T6:13:6Z</time></trkpt>
<trkpt lat="48.463855" lon="2.768321"><ele></ele><time>2017-9-19T6:13:9Z</time></trkpt>
<trkpt lat="48.463858" lon="2.768312"><ele></ele><time>2017-9-19T6:13:12Z</time></trkpt>
<trkpt lat="48.463862" lon="2.768300"><ele></ele><time>2017-9-19T6:13:15Z</time></trkpt>
<trkpt lat="48.463865" lon="2.768260"><ele></ele><time>2017-9-19T6:13:18Z</time></trkpt>
<trkpt lat="48.463865" lon="2.768227"><ele></ele><time>2017-9-19T6:13:21Z</time></trkpt>
<trkpt lat="48.463868" lon="2.768193"><ele></ele><time>2017-9-19T6:13:24Z</time></trkpt>
<trkpt lat="48.464030" lon="2.766283"><ele></ele><time>2017-9-19T6:13:27Z</time></trkpt>
<trkpt lat="48.464088" lon="2.765855"><ele></ele><time>2017-9-19T6:13:30Z</time></trkpt>
<trkpt lat="48.464148" lon="2.765267"><ele></ele><time>2017-9-19T6:13:33Z</time></trkpt>
<trkpt lat="48.464235" lon="2.764388"><ele></ele><time>2017-9-19T6:13:36Z</time></trkpt>
<trkpt lat="48.464242" lon="2.764352"><ele></ele><time>2017-9-19T6:13:39Z</time></trkpt>
<trkpt lat="48.464245" lon="2.764317"><ele></ele><time>2017-9-19T6:13:42Z</time></trkpt>
<trkpt lat="48.464255" lon="2.764200"><ele></ele><time>2017-9-19T6:13:45Z</time></trkpt>
<trkpt lat="48.464263" lon="2.764160"><ele></ele><time>2017-9-19T6:13:48Z</time></trkpt>
<trkpt lat="48.464292" lon="2.763903"><ele></ele><time>2017-9-19T6:13:51Z</time></trkpt>
<trkpt lat="48.464403" lon="2.762940"><ele></ele><time>2017-9-19T6:13:54Z</time></trkpt>
<trkpt lat="48.464411" lon="2.762903"><ele></ele><time>2017-9-19T6:13:57Z</time></trkpt>
<trkpt lat="48.464497" lon="2.762475"><ele></ele><time>2017-9-19T6:14:0Z</time></trkpt>
<trkpt lat="48.464687" lon="2.761397"><ele></ele><time>2017-9-19T6:14:3Z</time></trkpt>
<trkpt lat="48.464701" lon="2.761353"><ele></ele><time>2017-9-19T6:14:6Z</time></trkpt>
<trkpt lat="48.464750" lon="2.761233"><ele></ele><time>2017-9-19T6:14:9Z</time></trkpt>
<trkpt lat="48.464878" lon="2.760958"><ele></ele><time>2017-9-19T6:14:12Z</time></trkpt>
<trkpt lat="48.464898" lon="2.760922"><ele></ele><time>2017-9-19T6:14:15Z</time></trkpt>
<trkpt lat="48.464918" lon="2.760878"><ele></ele><time>2017-9-19T6:14:18Z</time></trkpt>
<trkpt lat="48.464940" lon="2.760845"><ele></ele><time>2017-9-19T6:14:21Z</time></trkpt>
<trkpt lat="48.465233" lon="2.760388"><ele></ele><time>2017-9-19T6:14:24Z</time></trkpt>
<trkpt lat="48.465257" lon="2.760365"><ele></ele><time>2017-9-19T6:14:27Z</time></trkpt>
<trkpt lat="48.465303" lon="2.760295"><ele></ele><time>2017-9-19T6:14:30Z</time></trkpt>
<trkpt lat="48.465381" lon="2.760153"><ele></ele><time>2017-9-19T6:14:33Z</time></trkpt>
<trkpt lat="48.465413" lon="2.760078"><ele></ele><time>2017-9-19T6:14:36Z</time></trkpt>
<trkpt lat="48.465425" lon="2.760043"><ele></ele><time>2017-9-19T6:14:39Z</time></trkpt>
<trkpt lat="48.465440" lon="2.759967"><ele></ele><time>2017-9-19T6:14:42Z</time></trkpt>
<trkpt lat="48.465437" lon="2.759923"><ele></ele><time>2017-9-19T6:14:45Z</time></trkpt>
<trkpt lat="48.465421" lon="2.759872"><ele></ele><time>2017-9-19T6:14:48Z</time></trkpt>
<trkpt lat="48.465400" lon="2.759817"><ele></ele><time>2017-9-19T6:14:51Z</time></trkpt>
<trkpt lat="48.465317" lon="2.759577"><ele></ele><time>2017-9-19T6:14:54Z</time></trkpt>
<trkpt lat="48.464933" lon="2.758227"><ele></ele><time>2017-9-19T6:14:57Z</time></trkpt>
<trkpt lat="48.464917" lon="2.758167"><ele></ele><time>2017-9-19T6:15:0Z</time></trkpt>
<trkpt lat="48.464703" lon="2.757388"><ele></ele><time>2017-9-19T6:15:3Z</time></trkpt>
<trkpt lat="48.464470" lon="2.756567"><ele></ele><time>2017-9-19T6:15:6Z</time></trkpt>
<trkpt lat="48.464455" lon="2.756517"><ele></ele><time>2017-9-19T6:15:9Z</time></trkpt>
<trkpt lat="48.464233" lon="2.755702"><ele></ele><time>2017-9-19T6:15:12Z</time></trkpt>
<trkpt lat="48.464165" lon="2.755422"><ele></ele><time>2017-9-19T6:15:15Z</time></trkpt>
<trkpt lat="48.464132" lon="2.755313"><ele></ele><time>2017-9-19T6:15:18Z</time></trkpt>
<trkpt lat="48.463950" lon="2.754760"><ele></ele><time>2017-9-19T6:15:21Z</time></trkpt>
<trkpt lat="48.463932" lon="2.754716"><ele></ele><time>2017-9-19T6:15:24Z</time></trkpt>
<trkpt lat="48.463847" lon="2.754445"><ele></ele><time>2017-9-19T6:15:27Z</time></trkpt>
<trkpt lat="48.463817" lon="2.754415"><ele></ele><time>2017-9-19T6:15:30Z</time></trkpt>
<trkpt lat="48.463788" lon="2.754400"><ele></ele><time>2017-9-19T6:15:33Z</time></trkpt>
<trkpt lat="48.463730" lon="2.754365"><ele></ele><time>2017-9-19T6:15:36Z</time></trkpt>
<trkpt lat="48.463693" lon="2.754358"><ele></ele><time>2017-9-19T6:15:39Z</time></trkpt>
<trkpt lat="48.463553" lon="2.754317"><ele></ele><time>2017-9-19T6:15:42Z</time></trkpt>
<trkpt lat="48.462963" lon="2.754087"><ele></ele><time>2017-9-19T6:15:45Z</time></trkpt>
<trkpt lat="48.462872" lon="2.754070"><ele></ele><time>2017-9-19T6:15:48Z</time></trkpt>
<trkpt lat="48.462845" lon="2.754075"><ele></ele><time>2017-9-19T6:15:51Z</time></trkpt>
<trkpt lat="48.462823" lon="2.754085"><ele></ele><time>2017-9-19T6:15:54Z</time></trkpt>
<trkpt lat="48.462780" lon="2.754097"><ele></ele><time>2017-9-19T6:15:57Z</time></trkpt>
<trkpt lat="48.462760" lon="2.754077"><ele></ele><time>2017-9-19T6:16:0Z</time></trkpt>
<trkpt lat="48.462740" lon="2.754056"><ele></ele><time>2017-9-19T6:16:3Z</time></trkpt>
<trkpt lat="48.462716" lon="2.754040"><ele></ele><time>2017-9-19T6:16:6Z</time></trkpt>
<trkpt lat="48.462660" lon="2.754005"><ele></ele><time>2017-9-19T6:16:9Z</time></trkpt>
<trkpt lat="48.462630" lon="2.753990"><ele></ele><time>2017-9-19T6:16:12Z</time></trkpt>
<trkpt lat="48.462596" lon="2.753978"><ele></ele><time>2017-9-19T6:16:15Z</time></trkpt>
<trkpt lat="48.462565" lon="2.753970"><ele></ele><time>2017-9-19T6:16:18Z</time></trkpt>
<trkpt lat="48.462530" lon="2.753965"><ele></ele><time>2017-9-19T6:16:21Z</time></trkpt>
<trkpt lat="48.462495" lon="2.753967"><ele></ele><time>2017-9-19T6:16:24Z</time></trkpt>
<trkpt lat="48.462123" lon="2.753988"><ele></ele><time>2017-9-19T6:16:27Z</time></trkpt>
<trkpt lat="48.462086" lon="2.753982"><ele></ele><time>2017-9-19T6:16:30Z</time></trkpt>
<trkpt lat="48.462048" lon="2.753972"><ele></ele><time>2017-9-19T6:16:33Z</time></trkpt>
<trkpt lat="48.460991" lon="2.753568"><ele></ele><time>2017-9-19T6:16:36Z</time></trkpt>
<trkpt lat="48.459677" lon="2.752757"><ele></ele><time>2017-9-19T6:16:39Z</time></trkpt>
<trkpt lat="48.459638" lon="2.752730"><ele></ele><time>2017-9-19T6:16:42Z</time></trkpt>
<trkpt lat="48.459527" lon="2.752670"><ele></ele><time>2017-9-19T6:16:45Z</time></trkpt>
<trkpt lat="48.459495" lon="2.752650"><ele></ele><time>2017-9-19T6:16:48Z</time></trkpt>
<trkpt lat="48.459432" lon="2.752617"><ele></ele><time>2017-9-19T6:16:51Z</time></trkpt>
<trkpt lat="48.459333" lon="2.752552"><ele></ele><time>2017-9-19T6:16:54Z</time></trkpt>
<trkpt lat="48.459190" lon="2.752447"><ele></ele><time>2017-9-19T6:16:57Z</time></trkpt>
<trkpt lat="48.459160" lon="2.752420"><ele></ele><time>2017-9-19T6:17:0Z</time></trkpt>
<trkpt lat="48.459053" lon="2.752317"><ele></ele><time>2017-9-19T6:17:3Z</time></trkpt>
<trkpt lat="48.459023" lon="2.752302"><ele></ele><time>2017-9-19T6:17:6Z</time></trkpt>
<trkpt lat="48.458970" lon="2.752265"><ele></ele><time>2017-9-19T6:17:9Z</time></trkpt>
<trkpt lat="48.458948" lon="2.752240"><ele></ele><time>2017-9-19T6:17:12Z</time></trkpt>
<trkpt lat="48.458933" lon="2.752210"><ele></ele><time>2017-9-19T6:17:15Z</time></trkpt>
<trkpt lat="48.458932" lon="2.752177"><ele></ele><time>2017-9-19T6:17:18Z</time></trkpt>
<trkpt lat="48.458937" lon="2.752152"><ele></ele><time>2017-9-19T6:17:21Z</time></trkpt>
<trkpt lat="48.458942" lon="2.752130"><ele></ele><time>2017-9-19T6:17:24Z</time></trkpt>
<trkpt lat="48.458933" lon="2.752122"><ele></ele><time>2017-9-19T6:17:27Z</time></trkpt>
<trkpt lat="48.458923" lon="2.752133"><ele></ele><time>2017-9-19T6:17:30Z</time></trkpt>
<trkpt lat="48.458910" lon="2.752158"><ele></ele><time>2017-9-19T6:17:33Z</time></trkpt>
<trkpt lat="48.458886" lon="2.752185"><ele></ele><time>2017-9-19T6:17:36Z</time></trkpt>
<trkpt lat="48.458857" lon="2.752205"><ele></ele><time>2017-9-19T6:17:39Z</time></trkpt>
<trkpt lat="48.458823" lon="2.752213"><ele></ele><time>2017-9-19T6:17:42Z</time></trkpt>
<trkpt lat="48.458791" lon="2.752213"><ele></ele><time>2017-9-19T6:17:45Z</time></trkpt>
<trkpt lat="48.458765" lon="2.752202"><ele></ele><time>2017-9-19T6:17:48Z</time></trkpt>
<trkpt lat="48.458618" lon="2.752123"><ele></ele><time>2017-9-19T6:17:51Z</time></trkpt>
<trkpt lat="48.458603" lon="2.752108"><ele></ele><time>2017-9-19T6:17:54Z</time></trkpt>
<trkpt lat="48.458587" lon="2.752097"><ele></ele><time>2017-9-19T6:17:57Z</time></trkpt>
<trkpt lat="48.458481" lon="2.752030"><ele></ele><time>2017-9-19T6:18:0Z</time></trkpt>
<trkpt lat="48.458391" lon="2.751990"><ele></ele><time>2017-9-19T6:18:3Z</time></trkpt>
<trkpt lat="48.458366" lon="2.751987"><ele></ele><time>2017-9-19T6:18:6Z</time></trkpt>
<trkpt lat="48.458303" lon="2.751970"><ele></ele><time>2017-9-19T6:18:9Z</time></trkpt>
<trkpt lat="48.458295" lon="2.751955"><ele></ele><time>2017-9-19T6:18:12Z</time></trkpt>
<trkpt lat="48.458280" lon="2.751942"><ele></ele><time>2017-9-19T6:18:15Z</time></trkpt>
<trkpt lat="48.458260" lon="2.751933"><ele></ele><time>2017-9-19T6:18:18Z</time></trkpt>
<trkpt lat="48.458075" lon="2.751868"><ele></ele><time>2017-9-19T6:18:21Z</time></trkpt>
<trkpt lat="48.458040" lon="2.751860"><ele></ele><time>2017-9-19T6:18:24Z</time></trkpt>
<trkpt lat="48.457381" lon="2.751692"><ele></ele><time>2017-9-19T6:18:27Z</time></trkpt>
<trkpt lat="48.457271" lon="2.751683"><ele></ele><time>2017-9-19T6:18:30Z</time></trkpt>
<trkpt lat="48.457273" lon="2.751665"><ele></ele><time>2017-9-19T6:18:33Z</time></trkpt>
<trkpt lat="48.457275" lon="2.751640"><ele></ele><time>2017-9-19T6:18:36Z</time></trkpt>
<trkpt lat="48.457271" lon="2.751615"><ele></ele><time>2017-9-19T6:18:39Z</time></trkpt>
<trkpt lat="48.457223" lon="2.751198"><ele></ele><time>2017-9-19T6:18:42Z</time></trkpt>
<trkpt lat="48.457228" lon="2.751162"><ele></ele><time>2017-9-19T6:18:45Z</time></trkpt>
<trkpt lat="48.457225" lon="2.751128"><ele></ele><time>2017-9-19T6:18:48Z</time></trkpt>
<trkpt lat="48.457200" lon="2.751000"><ele></ele><time>2017-9-19T6:18:51Z</time></trkpt>
<trkpt lat="48.457193" lon="2.750973"><ele></ele><time>2017-9-19T6:18:54Z</time></trkpt>
<trkpt lat="48.457188" lon="2.750945"><ele></ele><time>2017-9-19T6:18:57Z</time></trkpt>
<trkpt lat="48.457192" lon="2.750915"><ele></ele><time>2017-9-19T6:19:0Z</time></trkpt>
<trkpt lat="48.457195" lon="2.750852"><ele></ele><time>2017-9-19T6:19:3Z</time></trkpt>
<trkpt lat="48.457188" lon="2.750812"><ele></ele><time>2017-9-19T6:19:6Z</time></trkpt>
<trkpt lat="48.457181" lon="2.750773"><ele></ele><time>2017-9-19T6:19:9Z</time></trkpt>
<trkpt lat="48.457178" lon="2.750735"><ele></ele><time>2017-9-19T6:19:12Z</time></trkpt>
<trkpt lat="48.457170" lon="2.750658"><ele></ele><time>2017-9-19T6:19:15Z</time></trkpt>
<trkpt lat="48.457153" lon="2.750445"><ele></ele><time>2017-9-19T6:19:18Z</time></trkpt>
<trkpt lat="48.457143" lon="2.750332"><ele></ele><time>2017-9-19T6:19:21Z</time></trkpt>
<trkpt lat="48.457136" lon="2.750310"><ele></ele><time>2017-9-19T6:19:24Z</time></trkpt>
<trkpt lat="48.457132" lon="2.750292"><ele></ele><time>2017-9-19T6:19:27Z</time></trkpt>
<trkpt lat="48.457136" lon="2.750273"><ele></ele><time>2017-9-19T6:19:30Z</time></trkpt>
<trkpt lat="48.457138" lon="2.750258"><ele></ele><time>2017-9-19T6:19:33Z</time></trkpt>
<trkpt lat="48.457136" lon="2.750233"><ele></ele><time>2017-9-19T6:19:36Z</time></trkpt>
<trkpt lat="48.457130" lon="2.750190"><ele></ele><time>2017-9-19T6:19:39Z</time></trkpt>
<trkpt lat="48.457130" lon="2.750168"><ele></ele><time>2017-9-19T6:19:42Z</time></trkpt>
<trkpt lat="48.457127" lon="2.750113"><ele></ele><time>2017-9-19T6:19:45Z</time></trkpt>
<trkpt lat="48.457123" lon="2.750085"><ele></ele><time>2017-9-19T6:19:48Z</time></trkpt>
<trkpt lat="48.457110" lon="2.750035"><ele></ele><time>2017-9-19T6:19:51Z</time></trkpt>
<trkpt lat="48.457102" lon="2.749995"><ele></ele><time>2017-9-19T6:19:54Z</time></trkpt>
<trkpt lat="48.457095" lon="2.749952"><ele></ele><time>2017-9-19T6:19:57Z</time></trkpt>
<trkpt lat="48.457080" lon="2.749818"><ele></ele><time>2017-9-19T6:20:0Z</time></trkpt>
<trkpt lat="48.457073" lon="2.749792"><ele></ele><time>2017-9-19T6:20:3Z</time></trkpt>
<trkpt lat="48.457068" lon="2.749763"><ele></ele><time>2017-9-19T6:20:6Z</time></trkpt>
<trkpt lat="48.457065" lon="2.749741"><ele></ele><time>2017-9-19T6:20:9Z</time></trkpt>
<trkpt lat="48.457063" lon="2.749717"><ele></ele><time>2017-9-19T6:20:12Z</time></trkpt>
<trkpt lat="48.457060" lon="2.749692"><ele></ele><time>2017-9-19T6:20:15Z</time></trkpt>
<trkpt lat="48.457035" lon="2.749505"><ele></ele><time>2017-9-19T6:20:18Z</time></trkpt>
<trkpt lat="48.457035" lon="2.749480"><ele></ele><time>2017-9-19T6:20:21Z</time></trkpt>
<trkpt lat="48.457032" lon="2.749430"><ele></ele><time>2017-9-19T6:20:24Z</time></trkpt>
<trkpt lat="48.457027" lon="2.749412"><ele></ele><time>2017-9-19T6:20:27Z</time></trkpt>
<trkpt lat="48.457020" lon="2.749397"><ele></ele><time>2017-9-19T6:20:30Z</time></trkpt>
<trkpt lat="48.457012" lon="2.749388"><ele></ele><time>2017-9-19T6:20:33Z</time></trkpt>
<trkpt lat="48.457005" lon="2.749382"><ele></ele><time>2017-9-19T6:20:36Z</time></trkpt>
<trkpt lat="48.456998" lon="2.749375"><ele></ele><time>2017-9-19T6:20:39Z</time></trkpt>
<trkpt lat="48.456992" lon="2.749362"><ele></ele><time>2017-9-19T6:20:42Z</time></trkpt>
<trkpt lat="48.456980" lon="2.749342"><ele></ele><time>2017-9-19T6:20:45Z</time></trkpt>
<trkpt lat="48.456967" lon="2.749343"><ele></ele><time>2017-9-19T6:20:48Z</time></trkpt>
<trkpt lat="48.456952" lon="2.749348"><ele></ele><time>2017-9-19T6:20:51Z</time></trkpt>
<trkpt lat="48.456933" lon="2.749357"><ele></ele><time>2017-9-19T6:20:54Z</time></trkpt>
<trkpt lat="48.456455" lon="2.749510"><ele></ele><time>2017-9-19T6:20:57Z</time></trkpt>
<trkpt lat="48.456418" lon="2.749517"><ele></ele><time>2017-9-19T6:21:0Z</time></trkpt>
<trkpt lat="48.455666" lon="2.749658"><ele></ele><time>2017-9-19T6:21:3Z</time></trkpt>
<trkpt lat="48.455428" lon="2.749672"><ele></ele><time>2017-9-19T6:21:6Z</time></trkpt>
<trkpt lat="48.455283" lon="2.749675"><ele></ele><time>2017-9-19T6:21:9Z</time></trkpt>
<trkpt lat="48.455256" lon="2.749652"><ele></ele><time>2017-9-19T6:21:12Z</time></trkpt>
<trkpt lat="48.455236" lon="2.749615"><ele></ele><time>2017-9-19T6:21:15Z</time></trkpt>
<trkpt lat="48.455222" lon="2.749570"><ele></ele><time>2017-9-19T6:21:18Z</time></trkpt>
<trkpt lat="48.455208" lon="2.749520"><ele></ele><time>2017-9-19T6:21:21Z</time></trkpt>
<trkpt lat="48.455200" lon="2.749465"><ele></ele><time>2017-9-19T6:21:24Z</time></trkpt>
<trkpt lat="48.455138" lon="2.748937"><ele></ele><time>2017-9-19T6:21:27Z</time></trkpt>
<trkpt lat="48.455121" lon="2.748893"><ele></ele><time>2017-9-19T6:21:30Z</time></trkpt>
<trkpt lat="48.455097" lon="2.748860"><ele></ele><time>2017-9-19T6:21:33Z</time></trkpt>
<trkpt lat="48.455067" lon="2.748843"><ele></ele><time>2017-9-19T6:21:36Z</time></trkpt>
<trkpt lat="48.455033" lon="2.748835"><ele></ele><time>2017-9-19T6:21:39Z</time></trkpt>
<trkpt lat="48.454997" lon="2.748835"><ele></ele><time>2017-9-19T6:21:42Z</time></trkpt>
<trkpt lat="48.454825" lon="2.748838"><ele></ele><time>2017-9-19T6:21:45Z</time></trkpt>
<trkpt lat="48.454803" lon="2.748822"><ele></ele><time>2017-9-19T6:21:48Z</time></trkpt>
<trkpt lat="48.454787" lon="2.748793"><ele></ele><time>2017-9-19T6:21:51Z</time></trkpt>
<trkpt lat="48.454778" lon="2.748757"><ele></ele><time>2017-9-19T6:21:54Z</time></trkpt>
<trkpt lat="48.454775" lon="2.748717"><ele></ele><time>2017-9-19T6:21:57Z</time></trkpt>
<trkpt lat="48.454738" lon="2.748422"><ele></ele><time>2017-9-19T6:22:0Z</time></trkpt>
<trkpt lat="48.454728" lon="2.748378"><ele></ele><time>2017-9-19T6:22:3Z</time></trkpt>
<trkpt lat="48.454631" lon="2.747802"><ele></ele><time>2017-9-19T6:22:6Z</time></trkpt>
<trkpt lat="48.454617" lon="2.747790"><ele></ele><time>2017-9-19T6:22:9Z</time></trkpt>
<trkpt lat="48.454597" lon="2.747782"><ele></ele><time>2017-9-19T6:22:12Z</time></trkpt>
<trkpt lat="48.454573" lon="2.747780"><ele></ele><time>2017-9-19T6:22:15Z</time></trkpt>
<trkpt lat="48.454548" lon="2.747785"><ele></ele><time>2017-9-19T6:22:18Z</time></trkpt>
<trkpt lat="48.454443" lon="2.747808"><ele></ele><time>2017-9-19T6:22:21Z</time></trkpt>
<trkpt lat="48.454420" lon="2.747793"><ele></ele><time>2017-9-19T6:22:24Z</time></trkpt>
<trkpt lat="48.454403" lon="2.747765"><ele></ele><time>2017-9-19T6:22:27Z</time></trkpt>
<trkpt lat="48.454393" lon="2.747728"><ele></ele><time>2017-9-19T6:22:30Z</time></trkpt>
<trkpt lat="48.454390" lon="2.747690"><ele></ele><time>2017-9-19T6:22:33Z</time></trkpt>
<trkpt lat="48.454388" lon="2.747608"><ele></ele><time>2017-9-19T6:22:36Z</time></trkpt>
<trkpt lat="48.454391" lon="2.747563"><ele></ele><time>2017-9-19T6:22:39Z</time></trkpt>
<trkpt lat="48.454393" lon="2.747517"><ele></ele><time>2017-9-19T6:22:42Z</time></trkpt>
<trkpt lat="48.454395" lon="2.747307"><ele></ele><time>2017-9-19T6:22:45Z</time></trkpt>
<trkpt lat="48.454393" lon="2.747250"><ele></ele><time>2017-9-19T6:22:48Z</time></trkpt>
<trkpt lat="48.454387" lon="2.747197"><ele></ele><time>2017-9-19T6:22:51Z</time></trkpt>
<trkpt lat="48.454198" lon="2.745762"><ele></ele><time>2017-9-19T6:22:54Z</time></trkpt>
<trkpt lat="48.454185" lon="2.745727"><ele></ele><time>2017-9-19T6:22:57Z</time></trkpt>
<trkpt lat="48.454172" lon="2.745698"><ele></ele><time>2017-9-19T6:23:0Z</time></trkpt>
<trkpt lat="48.454158" lon="2.745678"><ele></ele><time>2017-9-19T6:23:3Z</time></trkpt>
<trkpt lat="48.454136" lon="2.745652"><ele></ele><time>2017-9-19T6:23:6Z</time></trkpt>
<trkpt lat="48.454123" lon="2.745653"><ele></ele><time>2017-9-19T6:23:9Z</time></trkpt>
<trkpt lat="48.454112" lon="2.745658"><ele></ele><time>2017-9-19T6:23:12Z</time></trkpt>
<trkpt lat="48.454087" lon="2.745667"><ele></ele><time>2017-9-19T6:23:15Z</time></trkpt>
<trkpt lat="48.454072" lon="2.745677"><ele></ele><time>2017-9-19T6:23:18Z</time></trkpt>
<trkpt lat="48.453848" lon="2.745850"><ele></ele><time>2017-9-19T6:23:21Z</time></trkpt>
<trkpt lat="48.453818" lon="2.745880"><ele></ele><time>2017-9-19T6:23:24Z</time></trkpt>
<trkpt lat="48.453758" lon="2.745947"><ele></ele><time>2017-9-19T6:23:27Z</time></trkpt>
<trkpt lat="48.453730" lon="2.745982"><ele></ele><time>2017-9-19T6:23:30Z</time></trkpt>
<trkpt lat="48.453165" lon="2.746650"><ele></ele><time>2017-9-19T6:23:33Z</time></trkpt>
<trkpt lat="48.453156" lon="2.746652"><ele></ele><time>2017-9-19T6:23:36Z</time></trkpt>
<trkpt lat="48.453153" lon="2.746655"><ele></ele><time>2017-9-19T6:23:39Z</time></trkpt>
<trkpt lat="48.453143" lon="2.746668"><ele></ele><time>2017-9-19T6:23:42Z</time></trkpt>
<trkpt lat="48.453140" lon="2.746683"><ele></ele><time>2017-9-19T6:23:45Z</time></trkpt>
<trkpt lat="48.453133" lon="2.746703"><ele></ele><time>2017-9-19T6:23:48Z</time></trkpt>
<trkpt lat="48.453118" lon="2.746725"><ele></ele><time>2017-9-19T6:23:51Z</time></trkpt>
<trkpt lat="48.453077" lon="2.746777"><ele></ele><time>2017-9-19T6:23:54Z</time></trkpt>
<trkpt lat="48.452491" lon="2.747470"><ele></ele><time>2017-9-19T6:23:57Z</time></trkpt>
<trkpt lat="48.452466" lon="2.747493"><ele></ele><time>2017-9-19T6:24:0Z</time></trkpt>
<trkpt lat="48.452423" lon="2.747527"><ele></ele><time>2017-9-19T6:24:3Z</time></trkpt>
<trkpt lat="48.452410" lon="2.747528"><ele></ele><time>2017-9-19T6:24:6Z</time></trkpt>
<trkpt lat="48.452397" lon="2.747518"><ele></ele><time>2017-9-19T6:24:9Z</time></trkpt>
<trkpt lat="48.452387" lon="2.747495"><ele></ele><time>2017-9-19T6:24:12Z</time></trkpt>
<trkpt lat="48.452378" lon="2.747462"><ele></ele><time>2017-9-19T6:24:15Z</time></trkpt>
<trkpt lat="48.452372" lon="2.747422"><ele></ele><time>2017-9-19T6:24:18Z</time></trkpt>
<trkpt lat="48.452367" lon="2.747327"><ele></ele><time>2017-9-19T6:24:21Z</time></trkpt>
<trkpt lat="48.452380" lon="2.746923"><ele></ele><time>2017-9-19T6:24:24Z</time></trkpt>
<trkpt lat="48.452397" lon="2.746813"><ele></ele><time>2017-9-19T6:24:27Z</time></trkpt>
<trkpt lat="48.453527" lon="2.740223"><ele></ele><time>2017-9-19T6:24:30Z</time></trkpt>
<trkpt lat="48.453531" lon="2.740142"><ele></ele><time>2017-9-19T6:24:33Z</time></trkpt>
<trkpt lat="48.453550" lon="2.739658"><ele></ele><time>2017-9-19T6:24:36Z</time></trkpt>
<trkpt lat="48.453543" lon="2.739398"><ele></ele><time>2017-9-19T6:24:39Z</time></trkpt>
<trkpt lat="48.453520" lon="2.738913"><ele></ele><time>2017-9-19T6:24:42Z</time></trkpt>
<trkpt lat="48.453465" lon="2.738148"><ele></ele><time>2017-9-19T6:24:45Z</time></trkpt>
<trkpt lat="48.453405" lon="2.737110"><ele></ele><time>2017-9-19T6:24:48Z</time></trkpt>
<trkpt lat="48.453410" lon="2.737087"><ele></ele><time>2017-9-19T6:24:51Z</time></trkpt>
<trkpt lat="48.453412" lon="2.737070"><ele></ele><time>2017-9-19T6:24:54Z</time></trkpt>
<trkpt lat="48.453417" lon="2.737063"><ele></ele><time>2017-9-19T6:24:57Z</time></trkpt>
<trkpt lat="48.453418" lon="2.737058"><ele></ele><time>2017-9-19T6:25:0Z</time></trkpt>
<trkpt lat="48.453418" lon="2.737052"><ele></ele><time>2017-9-19T6:25:3Z</time></trkpt>
<trkpt lat="48.453420" lon="2.737045"><ele></ele><time>2017-9-19T6:25:6Z</time></trkpt>
<trkpt lat="48.453420" lon="2.737037"><ele></ele><time>2017-9-19T6:25:9Z</time></trkpt>
<trkpt lat="48.453420" lon="2.737030"><ele></ele><time>2017-9-19T6:25:12Z</time></trkpt>
<trkpt lat="48.453421" lon="2.737022"><ele></ele><time>2017-9-19T6:25:15Z</time></trkpt>
<trkpt lat="48.453417" lon="2.737012"><ele></ele><time>2017-9-19T6:25:18Z</time></trkpt>
<trkpt lat="48.453413" lon="2.737007"><ele></ele><time>2017-9-19T6:25:21Z</time></trkpt>
<trkpt lat="48.453407" lon="2.736995"><ele></ele><time>2017-9-19T6:25:24Z</time></trkpt>
<trkpt lat="48.453403" lon="2.736992"><ele></ele><time>2017-9-19T6:25:27Z</time></trkpt>
<trkpt lat="48.453396" lon="2.736985"><ele></ele><time>2017-9-19T6:25:30Z</time></trkpt>
<trkpt lat="48.453392" lon="2.736978"><ele></ele><time>2017-9-19T6:25:33Z</time></trkpt>
<trkpt lat="48.453387" lon="2.736972"><ele></ele><time>2017-9-19T6:25:36Z</time></trkpt>
<trkpt lat="48.453383" lon="2.736968"><ele></ele><time>2017-9-19T6:25:39Z</time></trkpt>
<trkpt lat="48.453382" lon="2.736967"><ele></ele><time>2017-9-19T6:25:42Z</time></trkpt>
<trkpt lat="48.453378" lon="2.736963"><ele></ele><time>2017-9-19T6:25:45Z</time></trkpt>
<trkpt lat="48.453377" lon="2.736962"><ele></ele><time>2017-9-19T6:25:48Z</time></trkpt>
<trkpt lat="48.453325" lon="2.736917"><ele></ele><time>2017-9-19T6:25:51Z</time></trkpt>
<trkpt lat="48.453310" lon="2.736913"><ele></ele><time>2017-9-19T6:25:54Z</time></trkpt>
<trkpt lat="48.453275" lon="2.736907"><ele></ele><time>2017-9-19T6:25:57Z</time></trkpt>
<trkpt lat="48.453253" lon="2.736907"><ele></ele><time>2017-9-19T6:26:0Z</time></trkpt>
<trkpt lat="48.453196" lon="2.736927"><ele></ele><time>2017-9-19T6:26:3Z</time></trkpt>
<trkpt lat="48.453175" lon="2.736932"><ele></ele><time>2017-9-19T6:26:6Z</time></trkpt>
<trkpt lat="48.453118" lon="2.736932"><ele></ele><time>2017-9-19T6:26:9Z</time></trkpt>
<trkpt lat="48.453078" lon="2.736925"><ele></ele><time>2017-9-19T6:26:12Z</time></trkpt>
<trkpt lat="48.452947" lon="2.736900"><ele></ele><time>2017-9-19T6:26:15Z</time></trkpt>
<trkpt lat="48.451316" lon="2.736758"><ele></ele><time>2017-9-19T6:26:18Z</time></trkpt>
<trkpt lat="48.451277" lon="2.736735"><ele></ele><time>2017-9-19T6:26:21Z</time></trkpt>
<trkpt lat="48.451237" lon="2.736705"><ele></ele><time>2017-9-19T6:26:24Z</time></trkpt>
<trkpt lat="48.450273" lon="2.736045"><ele></ele><time>2017-9-19T6:26:27Z</time></trkpt>
<trkpt lat="48.450217" lon="2.735953"><ele></ele><time>2017-9-19T6:26:30Z</time></trkpt>
<trkpt lat="48.450212" lon="2.735888"><ele></ele><time>2017-9-19T6:26:33Z</time></trkpt>
<trkpt lat="48.450183" lon="2.735142"><ele></ele><time>2017-9-19T6:26:36Z</time></trkpt>
<trkpt lat="48.450176" lon="2.735127"><ele></ele><time>2017-9-19T6:26:39Z</time></trkpt>
<trkpt lat="48.450170" lon="2.735115"><ele></ele><time>2017-9-19T6:26:42Z</time></trkpt>
<trkpt lat="48.450165" lon="2.735107"><ele></ele><time>2017-9-19T6:26:45Z</time></trkpt>
<trkpt lat="48.450162" lon="2.735107"><ele></ele><time>2017-9-19T6:26:48Z</time></trkpt>
<trkpt lat="48.450160" lon="2.735115"><ele></ele><time>2017-9-19T6:26:51Z</time></trkpt>
<trkpt lat="48.450160" lon="2.735123"><ele></ele><time>2017-9-19T6:26:54Z</time></trkpt>
<trkpt lat="48.450163" lon="2.735137"><ele></ele><time>2017-9-19T6:26:57Z</time></trkpt>
<trkpt lat="48.450173" lon="2.735177"><ele></ele><time>2017-9-19T6:27:0Z</time></trkpt>
<trkpt lat="48.450180" lon="2.735210"><ele></ele><time>2017-9-19T6:27:3Z</time></trkpt>
<trkpt lat="48.450225" lon="2.735442"><ele></ele><time>2017-9-19T6:27:6Z</time></trkpt>
<trkpt lat="48.450238" lon="2.735538"><ele></ele><time>2017-9-19T6:27:9Z</time></trkpt>
<trkpt lat="48.450240" lon="2.735683"><ele></ele><time>2017-9-19T6:27:12Z</time></trkpt>
<trkpt lat="48.450237" lon="2.735760"><ele></ele><time>2017-9-19T6:27:15Z</time></trkpt>
<trkpt lat="48.450255" lon="2.736363"><ele></ele><time>2017-9-19T6:27:18Z</time></trkpt>
<trkpt lat="48.450263" lon="2.736485"><ele></ele><time>2017-9-19T6:27:21Z</time></trkpt>
<trkpt lat="48.450272" lon="2.736543"><ele></ele><time>2017-9-19T6:27:24Z</time></trkpt>
<trkpt lat="48.450302" lon="2.736675"><ele></ele><time>2017-9-19T6:27:27Z</time></trkpt>
<trkpt lat="48.450332" lon="2.736818"><ele></ele><time>2017-9-19T6:27:30Z</time></trkpt>
<trkpt lat="48.450373" lon="2.737068"><ele></ele><time>2017-9-19T6:27:33Z</time></trkpt>
<trkpt lat="48.450376" lon="2.737128"><ele></ele><time>2017-9-19T6:27:36Z</time></trkpt>
<trkpt lat="48.450385" lon="2.737600"><ele></ele><time>2017-9-19T6:27:39Z</time></trkpt>
<trkpt lat="48.450382" lon="2.737652"><ele></ele><time>2017-9-19T6:27:42Z</time></trkpt>
<trkpt lat="48.450378" lon="2.737710"><ele></ele><time>2017-9-19T6:27:45Z</time></trkpt>
<trkpt lat="48.450363" lon="2.737885"><ele></ele><time>2017-9-19T6:27:48Z</time></trkpt>
<trkpt lat="48.450335" lon="2.737995"><ele></ele><time>2017-9-19T6:27:51Z</time></trkpt>
<trkpt lat="48.450128" lon="2.738633"><ele></ele><time>2017-9-19T6:27:54Z</time></trkpt>
<trkpt lat="48.450125" lon="2.738650"><ele></ele><time>2017-9-19T6:27:57Z</time></trkpt>
<trkpt lat="48.450128" lon="2.738648"><ele></ele><time>2017-9-19T6:28:0Z</time></trkpt>
<trkpt lat="48.450132" lon="2.738648"><ele></ele><time>2017-9-19T6:28:3Z</time></trkpt>
<trkpt lat="48.450133" lon="2.738655"><ele></ele><time>2017-9-19T6:28:6Z</time></trkpt>
<trkpt lat="48.450133" lon="2.738662"><ele></ele><time>2017-9-19T6:28:9Z</time></trkpt>
<trkpt lat="48.450132" lon="2.738665"><ele></ele><time>2017-9-19T6:28:12Z</time></trkpt>
<trkpt lat="48.450130" lon="2.738668"><ele></ele><time>2017-9-19T6:28:15Z</time></trkpt>
<trkpt lat="48.450127" lon="2.738672"><ele></ele><time>2017-9-19T6:28:18Z</time></trkpt>
<trkpt lat="48.450127" lon="2.738673"><ele></ele><time>2017-9-19T6:28:21Z</time></trkpt>
<trkpt lat="48.450128" lon="2.738678"><ele></ele><time>2017-9-19T6:28:24Z</time></trkpt>
<trkpt lat="48.450130" lon="2.738677"><ele></ele><time>2017-9-19T6:28:27Z</time></trkpt>
<trkpt lat="48.450132" lon="2.738677"><ele></ele><time>2017-9-19T6:28:30Z</time></trkpt>
<trkpt lat="48.450133" lon="2.738672"><ele></ele><time>2017-9-19T6:28:33Z</time></trkpt>
<trkpt lat="48.450138" lon="2.738662"><ele></ele><time>2017-9-19T6:28:36Z</time></trkpt>
<trkpt lat="48.450143" lon="2.738648"><ele></ele><time>2017-9-19T6:28:39Z</time></trkpt>
<trkpt lat="48.450147" lon="2.738645"><ele></ele><time>2017-9-19T6:28:42Z</time></trkpt>
<trkpt lat="48.450150" lon="2.738637"><ele></ele><time>2017-9-19T6:28:45Z</time></trkpt>
<trkpt lat="48.450153" lon="2.738627"><ele></ele><time>2017-9-19T6:28:48Z</time></trkpt>
<trkpt lat="48.450158" lon="2.738618"><ele></ele><time>2017-9-19T6:28:51Z</time></trkpt>
<trkpt lat="48.450162" lon="2.738612"><ele></ele><time>2017-9-19T6:28:54Z</time></trkpt>
<trkpt lat="48.450165" lon="2.738603"><ele></ele><time>2017-9-19T6:28:57Z</time></trkpt>
<trkpt lat="48.450168" lon="2.738597"><ele></ele><time>2017-9-19T6:29:0Z</time></trkpt>
<trkpt lat="48.450172" lon="2.738592"><ele></ele><time>2017-9-19T6:29:3Z</time></trkpt>
<trkpt lat="48.450175" lon="2.738587"><ele></ele><time>2017-9-19T6:29:6Z</time></trkpt>
<trkpt lat="48.450176" lon="2.738582"><ele></ele><time>2017-9-19T6:29:9Z</time></trkpt>
<trkpt lat="48.450176" lon="2.738582"><ele></ele><time>2017-9-19T6:29:12Z</time></trkpt>
<trkpt lat="48.450178" lon="2.738580"><ele></ele><time>2017-9-19T6:29:15Z</time></trkpt>
<trkpt lat="48.450178" lon="2.738580"><ele></ele><time>2017-9-19T6:29:18Z</time></trkpt>
<trkpt lat="48.450178" lon="2.738580"><ele></ele><time>2017-9-19T6:29:21Z</time></trkpt>
<trkpt lat="48.450178" lon="2.738580"><ele></ele><time>2017-9-19T6:29:24Z</time></trkpt>
<trkpt lat="48.450180" lon="2.738578"><ele></ele><time>2017-9-19T6:29:27Z</time></trkpt>
<trkpt lat="48.450178" lon="2.738575"><ele></ele><time>2017-9-19T6:29:30Z</time></trkpt>
<trkpt lat="48.450176" lon="2.738572"><ele></ele><time>2017-9-19T6:29:33Z</time></trkpt>
<trkpt lat="48.450172" lon="2.738565"><ele></ele><time>2017-9-19T6:29:36Z</time></trkpt>
<trkpt lat="48.450170" lon="2.738563"><ele></ele><time>2017-9-19T6:29:39Z</time></trkpt>
<trkpt lat="48.450172" lon="2.738562"><ele></ele><time>2017-9-19T6:29:42Z</time></trkpt>
<trkpt lat="48.450167" lon="2.738567"><ele></ele><time>2017-9-19T6:29:45Z</time></trkpt>
<trkpt lat="48.450158" lon="2.738575"><ele></ele><time>2017-9-19T6:29:48Z</time></trkpt>
<trkpt lat="48.450153" lon="2.738583"><ele></ele><time>2017-9-19T6:29:51Z</time></trkpt>
<trkpt lat="48.450147" lon="2.738593"><ele></ele><time>2017-9-19T6:29:54Z</time></trkpt>
<trkpt lat="48.450148" lon="2.738592"><ele></ele><time>2017-9-19T6:29:57Z</time></trkpt>
<trkpt lat="48.450150" lon="2.738588"><ele></ele><time>2017-9-19T6:30:0Z</time></trkpt>
<trkpt lat="48.450152" lon="2.738587"><ele></ele><time>2017-9-19T6:30:3Z</time></trkpt>
<trkpt lat="48.450155" lon="2.738580"><ele></ele><time>2017-9-19T6:30:6Z</time></trkpt>
<trkpt lat="48.450157" lon="2.738575"><ele></ele><time>2017-9-19T6:30:9Z</time></trkpt>
<trkpt lat="48.450158" lon="2.738568"><ele></ele><time>2017-9-19T6:30:12Z</time></trkpt>
<trkpt lat="48.450160" lon="2.738565"><ele></ele><time>2017-9-19T6:30:15Z</time></trkpt>
<trkpt lat="48.450162" lon="2.738560"><ele></ele><time>2017-9-19T6:30:18Z</time></trkpt>
<trkpt lat="48.450163" lon="2.738557"><ele></ele><time>2017-9-19T6:30:21Z</time></trkpt>
<trkpt lat="48.450163" lon="2.738553"><ele></ele><time>2017-9-19T6:30:24Z</time></trkpt>
<trkpt lat="48.450160" lon="2.738562"><ele></ele><time>2017-9-19T6:30:27Z</time></trkpt>
<trkpt lat="48.450158" lon="2.738573"><ele></ele><time>2017-9-19T6:30:30Z</time></trkpt>
<trkpt lat="48.450152" lon="2.738585"><ele></ele><time>2017-9-19T6:30:33Z</time></trkpt>
<trkpt lat="48.450152" lon="2.738598"><ele></ele><time>2017-9-19T6:30:36Z</time></trkpt>
<trkpt lat="48.450153" lon="2.738640"><ele></ele><time>2017-9-19T6:30:39Z</time></trkpt>
<trkpt lat="48.450150" lon="2.738670"><ele></ele><time>2017-9-19T6:30:42Z</time></trkpt>
<trkpt lat="48.450148" lon="2.738708"><ele></ele><time>2017-9-19T6:30:45Z</time></trkpt>
<trkpt lat="48.450135" lon="2.738745"><ele></ele><time>2017-9-19T6:30:48Z</time></trkpt>
<trkpt lat="48.450123" lon="2.738782"><ele></ele><time>2017-9-19T6:30:51Z</time></trkpt>
<trkpt lat="48.450113" lon="2.738825"><ele></ele><time>2017-9-19T6:30:54Z</time></trkpt>
<trkpt lat="48.450103" lon="2.738873"><ele></ele><time>2017-9-19T6:30:57Z</time></trkpt>
<trkpt lat="48.450100" lon="2.738890"><ele></ele><time>2017-9-19T6:31:0Z</time></trkpt>
<trkpt lat="48.450100" lon="2.738907"><ele></ele><time>2017-9-19T6:31:3Z</time></trkpt>
<trkpt lat="48.450091" lon="2.738957"><ele></ele><time>2017-9-19T6:31:6Z</time></trkpt>
<trkpt lat="48.450088" lon="2.738982"><ele></ele><time>2017-9-19T6:31:9Z</time></trkpt>
<trkpt lat="48.450052" lon="2.739203"><ele></ele><time>2017-9-19T6:31:12Z</time></trkpt>
<trkpt lat="48.450026" lon="2.739335"><ele></ele><time>2017-9-19T6:31:15Z</time></trkpt>
<trkpt lat="48.450021" lon="2.739378"><ele></ele><time>2017-9-19T6:31:18Z</time></trkpt>
<trkpt lat="48.450010" lon="2.739512"><ele></ele><time>2017-9-19T6:31:21Z</time></trkpt>
<trkpt lat="48.449978" lon="2.739687"><ele></ele><time>2017-9-19T6:31:24Z</time></trkpt>
<trkpt lat="48.449962" lon="2.739728"><ele></ele><time>2017-9-19T6:31:27Z</time></trkpt>
<trkpt lat="48.449852" lon="2.739945"><ele></ele><time>2017-9-19T6:31:30Z</time></trkpt>
<trkpt lat="48.449513" lon="2.740610"><ele></ele><time>2017-9-19T6:31:33Z</time></trkpt>
<trkpt lat="48.449396" lon="2.740812"><ele></ele><time>2017-9-19T6:31:36Z</time></trkpt>
<trkpt lat="48.449210" lon="2.741177"><ele></ele><time>2017-9-19T6:31:39Z</time></trkpt>
<trkpt lat="48.448676" lon="2.742245"><ele></ele><time>2017-9-19T6:31:42Z</time></trkpt>
<trkpt lat="48.448638" lon="2.742273"><ele></ele><time>2017-9-19T6:31:45Z</time></trkpt>
<trkpt lat="48.448595" lon="2.742287"><ele></ele><time>2017-9-19T6:31:48Z</time></trkpt>
<trkpt lat="48.448411" lon="2.742350"><ele></ele><time>2017-9-19T6:31:51Z</time></trkpt>
<trkpt lat="48.448096" lon="2.742457"><ele></ele><time>2017-9-19T6:31:54Z</time></trkpt>
<trkpt lat="48.448048" lon="2.742448"><ele></ele><time>2017-9-19T6:31:57Z</time></trkpt>
<trkpt lat="48.447490" lon="2.742285"><ele></ele><time>2017-9-19T6:32:0Z</time></trkpt>
<trkpt lat="48.446435" lon="2.741995"><ele></ele><time>2017-9-19T6:32:3Z</time></trkpt>
<trkpt lat="48.446400" lon="2.741960"><ele></ele><time>2017-9-19T6:32:6Z</time></trkpt>
<trkpt lat="48.446363" lon="2.741933"><ele></ele><time>2017-9-19T6:32:9Z</time></trkpt>
<trkpt lat="48.446268" lon="2.741855"><ele></ele><time>2017-9-19T6:32:12Z</time></trkpt>
<trkpt lat="48.446248" lon="2.741813"><ele></ele><time>2017-9-19T6:32:15Z</time></trkpt>
<trkpt lat="48.446220" lon="2.741725"><ele></ele><time>2017-9-19T6:32:18Z</time></trkpt>
<trkpt lat="48.446198" lon="2.741668"><ele></ele><time>2017-9-19T6:32:21Z</time></trkpt>
<trkpt lat="48.446188" lon="2.741653"><ele></ele><time>2017-9-19T6:32:24Z</time></trkpt>
<trkpt lat="48.446170" lon="2.741645"><ele></ele><time>2017-9-19T6:32:27Z</time></trkpt>
<trkpt lat="48.446148" lon="2.741640"><ele></ele><time>2017-9-19T6:32:30Z</time></trkpt>
<trkpt lat="48.446093" lon="2.741630"><ele></ele><time>2017-9-19T6:32:33Z</time></trkpt>
<trkpt lat="48.446015" lon="2.741630"><ele></ele><time>2017-9-19T6:32:36Z</time></trkpt>
<trkpt lat="48.445982" lon="2.741633"><ele></ele><time>2017-9-19T6:32:39Z</time></trkpt>
<trkpt lat="48.445946" lon="2.741655"><ele></ele><time>2017-9-19T6:32:42Z</time></trkpt>
<trkpt lat="48.445915" lon="2.741685"><ele></ele><time>2017-9-19T6:32:45Z</time></trkpt>
<trkpt lat="48.445828" lon="2.741780"><ele></ele><time>2017-9-19T6:32:48Z</time></trkpt>
<trkpt lat="48.445803" lon="2.741822"><ele></ele><time>2017-9-19T6:32:51Z</time></trkpt>
<trkpt lat="48.445723" lon="2.741947"><ele></ele><time>2017-9-19T6:32:54Z</time></trkpt>
<trkpt lat="48.445623" lon="2.742092"><ele></ele><time>2017-9-19T6:32:57Z</time></trkpt>
<trkpt lat="48.445607" lon="2.742122"><ele></ele><time>2017-9-19T6:33:0Z</time></trkpt>
<trkpt lat="48.445591" lon="2.742142"><ele></ele><time>2017-9-19T6:33:3Z</time></trkpt>
<trkpt lat="48.445582" lon="2.742148"><ele></ele><time>2017-9-19T6:33:6Z</time></trkpt>
<trkpt lat="48.445570" lon="2.742160"><ele></ele><time>2017-9-19T6:33:9Z</time></trkpt>
<trkpt lat="48.445570" lon="2.742163"><ele></ele><time>2017-9-19T6:33:12Z</time></trkpt>
<trkpt lat="48.445568" lon="2.742165"><ele></ele><time>2017-9-19T6:33:15Z</time></trkpt>
<trkpt lat="48.445568" lon="2.742167"><ele></ele><time>2017-9-19T6:33:18Z</time></trkpt>
<trkpt lat="48.445566" lon="2.742167"><ele></ele><time>2017-9-19T6:33:21Z</time></trkpt>
<trkpt lat="48.445566" lon="2.742170"><ele></ele><time>2017-9-19T6:33:24Z</time></trkpt>
<trkpt lat="48.445568" lon="2.742180"><ele></ele><time>2017-9-19T6:33:27Z</time></trkpt>
<trkpt lat="48.445561" lon="2.742195"><ele></ele><time>2017-9-19T6:33:30Z</time></trkpt>
<trkpt lat="48.445487" lon="2.742347"><ele></ele><time>2017-9-19T6:33:33Z</time></trkpt>
<trkpt lat="48.445413" lon="2.742518"><ele></ele><time>2017-9-19T6:33:36Z</time></trkpt>
<trkpt lat="48.445393" lon="2.742558"><ele></ele><time>2017-9-19T6:33:39Z</time></trkpt>
<trkpt lat="48.445220" lon="2.742850"><ele></ele><time>2017-9-19T6:33:42Z</time></trkpt>
<trkpt lat="48.445165" lon="2.742963"><ele></ele><time>2017-9-19T6:33:45Z</time></trkpt>
<trkpt lat="48.445172" lon="2.742998"><ele></ele><time>2017-9-19T6:33:48Z</time></trkpt>
<trkpt lat="48.445182" lon="2.743037"><ele></ele><time>2017-9-19T6:33:51Z</time></trkpt>
<trkpt lat="48.445188" lon="2.743077"><ele></ele><time>2017-9-19T6:33:54Z</time></trkpt>
<trkpt lat="48.445190" lon="2.743113"><ele></ele><time>2017-9-19T6:33:57Z</time></trkpt>
<trkpt lat="48.445190" lon="2.743126"><ele></ele><time>2017-9-19T6:34:0Z</time></trkpt>
<trkpt lat="48.445185" lon="2.743123"><ele></ele><time>2017-9-19T6:34:3Z</time></trkpt>
<trkpt lat="48.445170" lon="2.743118"><ele></ele><time>2017-9-19T6:34:6Z</time></trkpt>
<trkpt lat="48.445140" lon="2.743107"><ele></ele><time>2017-9-19T6:34:9Z</time></trkpt>
<trkpt lat="48.445108" lon="2.743103"><ele></ele><time>2017-9-19T6:34:12Z</time></trkpt>
<trkpt lat="48.445073" lon="2.743098"><ele></ele><time>2017-9-19T6:34:15Z</time></trkpt>
<trkpt lat="48.445037" lon="2.743100"><ele></ele><time>2017-9-19T6:34:18Z</time></trkpt>
<trkpt lat="48.444977" lon="2.743118"><ele></ele><time>2017-9-19T6:34:21Z</time></trkpt>
<trkpt lat="48.444943" lon="2.743137"><ele></ele><time>2017-9-19T6:34:24Z</time></trkpt>
<trkpt lat="48.444903" lon="2.743138"><ele></ele><time>2017-9-19T6:34:27Z</time></trkpt>
<trkpt lat="48.444868" lon="2.743120"><ele></ele><time>2017-9-19T6:34:30Z</time></trkpt>
<trkpt lat="48.444845" lon="2.743092"><ele></ele><time>2017-9-19T6:34:33Z</time></trkpt>
<trkpt lat="48.444828" lon="2.743050"><ele></ele><time>2017-9-19T6:34:36Z</time></trkpt>
<trkpt lat="48.444817" lon="2.743005"><ele></ele><time>2017-9-19T6:34:39Z</time></trkpt>
<trkpt lat="48.444802" lon="2.742965"><ele></ele><time>2017-9-19T6:34:42Z</time></trkpt>
<trkpt lat="48.444780" lon="2.742937"><ele></ele><time>2017-9-19T6:34:45Z</time></trkpt>
<trkpt lat="48.444692" lon="2.742837"><ele></ele><time>2017-9-19T6:34:48Z</time></trkpt>
<trkpt lat="48.444598" lon="2.742713"><ele></ele><time>2017-9-19T6:34:51Z</time></trkpt>
<trkpt lat="48.444572" lon="2.742665"><ele></ele><time>2017-9-19T6:34:54Z</time></trkpt>
<trkpt lat="48.444535" lon="2.742585"><ele></ele><time>2017-9-19T6:34:57Z</time></trkpt>
<trkpt lat="48.444525" lon="2.742528"><ele></ele><time>2017-9-19T6:35:0Z</time></trkpt>
<trkpt lat="48.444488" lon="2.742132"><ele></ele><time>2017-9-19T6:35:3Z</time></trkpt>
<trkpt lat="48.444463" lon="2.742013"><ele></ele><time>2017-9-19T6:35:6Z</time></trkpt>
<trkpt lat="48.444421" lon="2.741803"><ele></ele><time>2017-9-19T6:35:9Z</time></trkpt>
<trkpt lat="48.444398" lon="2.741630"><ele></ele><time>2017-9-19T6:35:12Z</time></trkpt>
<trkpt lat="48.444385" lon="2.741560"><ele></ele><time>2017-9-19T6:35:15Z</time></trkpt>
<trkpt lat="48.444365" lon="2.741493"><ele></ele><time>2017-9-19T6:35:18Z</time></trkpt>
<trkpt lat="48.444340" lon="2.741428"><ele></ele><time>2017-9-19T6:35:21Z</time></trkpt>
<trkpt lat="48.444292" lon="2.741330"><ele></ele><time>2017-9-19T6:35:24Z</time></trkpt>
<trkpt lat="48.444223" lon="2.741167"><ele></ele><time>2017-9-19T6:35:27Z</time></trkpt>
<trkpt lat="48.444215" lon="2.741127"><ele></ele><time>2017-9-19T6:35:30Z</time></trkpt>
<trkpt lat="48.444212" lon="2.741098"><ele></ele><time>2017-9-19T6:35:33Z</time></trkpt>
<trkpt lat="48.444213" lon="2.741078"><ele></ele><time>2017-9-19T6:35:36Z</time></trkpt>
<trkpt lat="48.444210" lon="2.740965"><ele></ele><time>2017-9-19T6:35:39Z</time></trkpt>
<trkpt lat="48.444215" lon="2.740937"><ele></ele><time>2017-9-19T6:35:42Z</time></trkpt>
<trkpt lat="48.444233" lon="2.740853"><ele></ele><time>2017-9-19T6:35:45Z</time></trkpt>
<trkpt lat="48.444240" lon="2.740798"><ele></ele><time>2017-9-19T6:35:48Z</time></trkpt>
<trkpt lat="48.444245" lon="2.740733"><ele></ele><time>2017-9-19T6:35:51Z</time></trkpt>
<trkpt lat="48.444243" lon="2.740675"><ele></ele><time>2017-9-19T6:35:54Z</time></trkpt>
<trkpt lat="48.444228" lon="2.740617"><ele></ele><time>2017-9-19T6:35:57Z</time></trkpt>
<trkpt lat="48.444215" lon="2.740563"><ele></ele><time>2017-9-19T6:36:0Z</time></trkpt>
<trkpt lat="48.444193" lon="2.740508"><ele></ele><time>2017-9-19T6:36:3Z</time></trkpt>
<trkpt lat="48.444023" lon="2.739983"><ele></ele><time>2017-9-19T6:36:6Z</time></trkpt>
<trkpt lat="48.444005" lon="2.739920"><ele></ele><time>2017-9-19T6:36:9Z</time></trkpt>
<trkpt lat="48.443980" lon="2.739865"><ele></ele><time>2017-9-19T6:36:12Z</time></trkpt>
<trkpt lat="48.443947" lon="2.739802"><ele></ele><time>2017-9-19T6:36:15Z</time></trkpt>
<trkpt lat="48.443925" lon="2.739763"><ele></ele><time>2017-9-19T6:36:18Z</time></trkpt>
<trkpt lat="48.443866" lon="2.739667"><ele></ele><time>2017-9-19T6:36:21Z</time></trkpt>
<trkpt lat="48.443830" lon="2.739622"><ele></ele><time>2017-9-19T6:36:24Z</time></trkpt>
<trkpt lat="48.443790" lon="2.739582"><ele></ele><time>2017-9-19T6:36:27Z</time></trkpt>
<trkpt lat="48.443598" lon="2.739393"><ele></ele><time>2017-9-19T6:36:30Z</time></trkpt>
<trkpt lat="48.443556" lon="2.739362"><ele></ele><time>2017-9-19T6:36:33Z</time></trkpt>
<trkpt lat="48.443518" lon="2.739345"><ele></ele><time>2017-9-19T6:36:36Z</time></trkpt>
<trkpt lat="48.443480" lon="2.739342"><ele></ele><time>2017-9-19T6:36:39Z</time></trkpt>
<trkpt lat="48.442955" lon="2.739320"><ele></ele><time>2017-9-19T6:36:42Z</time></trkpt>
<trkpt lat="48.442930" lon="2.739303"><ele></ele><time>2017-9-19T6:36:45Z</time></trkpt>
<trkpt lat="48.442912" lon="2.739278"><ele></ele><time>2017-9-19T6:36:48Z</time></trkpt>
<trkpt lat="48.442831" lon="2.739170"><ele></ele><time>2017-9-19T6:36:51Z</time></trkpt>
<trkpt lat="48.442802" lon="2.739158"><ele></ele><time>2017-9-19T6:36:54Z</time></trkpt>
<trkpt lat="48.442767" lon="2.739160"><ele></ele><time>2017-9-19T6:36:57Z</time></trkpt>
<trkpt lat="48.442728" lon="2.739173"><ele></ele><time>2017-9-19T6:37:0Z</time></trkpt>
<trkpt lat="48.442685" lon="2.739183"><ele></ele><time>2017-9-19T6:37:3Z</time></trkpt>
<trkpt lat="48.442645" lon="2.739182"><ele></ele><time>2017-9-19T6:37:6Z</time></trkpt>
<trkpt lat="48.442546" lon="2.739153"><ele></ele><time>2017-9-19T6:37:9Z</time></trkpt>
<trkpt lat="48.442528" lon="2.739128"><ele></ele><time>2017-9-19T6:37:12Z</time></trkpt>
<trkpt lat="48.442510" lon="2.739095"><ele></ele><time>2017-9-19T6:37:15Z</time></trkpt>
<trkpt lat="48.442488" lon="2.739065"><ele></ele><time>2017-9-19T6:37:18Z</time></trkpt>
<trkpt lat="48.442463" lon="2.739047"><ele></ele><time>2017-9-19T6:37:21Z</time></trkpt>
<trkpt lat="48.442430" lon="2.739040"><ele></ele><time>2017-9-19T6:37:24Z</time></trkpt>
<trkpt lat="48.442320" lon="2.739018"><ele></ele><time>2017-9-19T6:37:27Z</time></trkpt>
<trkpt lat="48.442288" lon="2.739003"><ele></ele><time>2017-9-19T6:37:30Z</time></trkpt>
<trkpt lat="48.442235" lon="2.738983"><ele></ele><time>2017-9-19T6:37:33Z</time></trkpt>
<trkpt lat="48.442208" lon="2.738980"><ele></ele><time>2017-9-19T6:37:36Z</time></trkpt>
<trkpt lat="48.442177" lon="2.738990"><ele></ele><time>2017-9-19T6:37:39Z</time></trkpt>
<trkpt lat="48.442138" lon="2.739018"><ele></ele><time>2017-9-19T6:37:42Z</time></trkpt>
<trkpt lat="48.442045" lon="2.739058"><ele></ele><time>2017-9-19T6:37:45Z</time></trkpt>
<trkpt lat="48.441998" lon="2.739048"><ele></ele><time>2017-9-19T6:37:48Z</time></trkpt>
<trkpt lat="48.441782" lon="2.739002"><ele></ele><time>2017-9-19T6:37:51Z</time></trkpt>
<trkpt lat="48.441740" lon="2.738988"><ele></ele><time>2017-9-19T6:37:54Z</time></trkpt>
<trkpt lat="48.441562" lon="2.738982"><ele></ele><time>2017-9-19T6:37:57Z</time></trkpt>
<trkpt lat="48.441387" lon="2.739013"><ele></ele><time>2017-9-19T6:38:0Z</time></trkpt>
<trkpt lat="48.441355" lon="2.739000"><ele></ele><time>2017-9-19T6:38:3Z</time></trkpt>
<trkpt lat="48.441320" lon="2.738973"><ele></ele><time>2017-9-19T6:38:6Z</time></trkpt>
<trkpt lat="48.441313" lon="2.738940"><ele></ele><time>2017-9-19T6:38:9Z</time></trkpt>
<trkpt lat="48.441308" lon="2.738895"><ele></ele><time>2017-9-19T6:38:12Z</time></trkpt>
<trkpt lat="48.441305" lon="2.738840"><ele></ele><time>2017-9-19T6:38:15Z</time></trkpt>
<trkpt lat="48.441295" lon="2.738785"><ele></ele><time>2017-9-19T6:38:18Z</time></trkpt>
<trkpt lat="48.441277" lon="2.738735"><ele></ele><time>2017-9-19T6:38:21Z</time></trkpt>
<trkpt lat="48.441255" lon="2.738687"><ele></ele><time>2017-9-19T6:38:24Z</time></trkpt>
<trkpt lat="48.441228" lon="2.738637"><ele></ele><time>2017-9-19T6:38:27Z</time></trkpt>
<trkpt lat="48.441200" lon="2.738595"><ele></ele><time>2017-9-19T6:38:30Z</time></trkpt>
<trkpt lat="48.441095" lon="2.738448"><ele></ele><time>2017-9-19T6:38:33Z</time></trkpt>
<trkpt lat="48.440996" lon="2.738318"><ele></ele><time>2017-9-19T6:38:36Z</time></trkpt>
<trkpt lat="48.440982" lon="2.738280"><ele></ele><time>2017-9-19T6:38:39Z</time></trkpt>
<trkpt lat="48.440977" lon="2.738238"><ele></ele><time>2017-9-19T6:38:42Z</time></trkpt>
<trkpt lat="48.440973" lon="2.738198"><ele></ele><time>2017-9-19T6:38:45Z</time></trkpt>
<trkpt lat="48.440953" lon="2.738068"><ele></ele><time>2017-9-19T6:38:48Z</time></trkpt>
<trkpt lat="48.440950" lon="2.737885"><ele></ele><time>2017-9-19T6:38:51Z</time></trkpt>
<trkpt lat="48.440963" lon="2.737830"><ele></ele><time>2017-9-19T6:38:54Z</time></trkpt>
<trkpt lat="48.440973" lon="2.737768"><ele></ele><time>2017-9-19T6:38:57Z</time></trkpt>
<trkpt lat="48.440993" lon="2.737720"><ele></ele><time>2017-9-19T6:39:0Z</time></trkpt>
<trkpt lat="48.441037" lon="2.737625"><ele></ele><time>2017-9-19T6:39:3Z</time></trkpt>
<trkpt lat="48.441073" lon="2.737542"><ele></ele><time>2017-9-19T6:39:6Z</time></trkpt>
<trkpt lat="48.441095" lon="2.737513"><ele></ele><time>2017-9-19T6:39:9Z</time></trkpt>
<trkpt lat="48.441115" lon="2.737487"><ele></ele><time>2017-9-19T6:39:12Z</time></trkpt>
<trkpt lat="48.441195" lon="2.737350"><ele></ele><time>2017-9-19T6:39:15Z</time></trkpt>
<trkpt lat="48.441233" lon="2.737280"><ele></ele><time>2017-9-19T6:39:18Z</time></trkpt>
<trkpt lat="48.441260" lon="2.737257"><ele></ele><time>2017-9-19T6:39:21Z</time></trkpt>
<trkpt lat="48.441290" lon="2.737235"><ele></ele><time>2017-9-19T6:39:24Z</time></trkpt>
<trkpt lat="48.441378" lon="2.737153"><ele></ele><time>2017-9-19T6:39:27Z</time></trkpt>
<trkpt lat="48.441407" lon="2.737107"><ele></ele><time>2017-9-19T6:39:30Z</time></trkpt>
<trkpt lat="48.441657" lon="2.736663"><ele></ele><time>2017-9-19T6:39:33Z</time></trkpt>
<trkpt lat="48.441677" lon="2.736605"><ele></ele><time>2017-9-19T6:39:36Z</time></trkpt>
<trkpt lat="48.441688" lon="2.736548"><ele></ele><time>2017-9-19T6:39:39Z</time></trkpt>
<trkpt lat="48.441715" lon="2.736440"><ele></ele><time>2017-9-19T6:39:42Z</time></trkpt>
<trkpt lat="48.441721" lon="2.736390"><ele></ele><time>2017-9-19T6:39:45Z</time></trkpt>
<trkpt lat="48.441723" lon="2.736288"><ele></ele><time>2017-9-19T6:39:48Z</time></trkpt>
<trkpt lat="48.441713" lon="2.736220"><ele></ele><time>2017-9-19T6:39:51Z</time></trkpt>
<trkpt lat="48.441695" lon="2.736142"><ele></ele><time>2017-9-19T6:39:54Z</time></trkpt>
<trkpt lat="48.441672" lon="2.736077"><ele></ele><time>2017-9-19T6:39:57Z</time></trkpt>
<trkpt lat="48.441620" lon="2.735870"><ele></ele><time>2017-9-19T6:40:0Z</time></trkpt>
<trkpt lat="48.441587" lon="2.735808"><ele></ele><time>2017-9-19T6:40:3Z</time></trkpt>
<trkpt lat="48.441477" lon="2.735630"><ele></ele><time>2017-9-19T6:40:6Z</time></trkpt>
<trkpt lat="48.441443" lon="2.735585"><ele></ele><time>2017-9-19T6:40:9Z</time></trkpt>
<trkpt lat="48.441412" lon="2.735545"><ele></ele><time>2017-9-19T6:40:12Z</time></trkpt>
<trkpt lat="48.441360" lon="2.735492"><ele></ele><time>2017-9-19T6:40:15Z</time></trkpt>
<trkpt lat="48.441238" lon="2.735402"><ele></ele><time>2017-9-19T6:40:18Z</time></trkpt>
<trkpt lat="48.441218" lon="2.735383"><ele></ele><time>2017-9-19T6:40:21Z</time></trkpt>
<trkpt lat="48.441201" lon="2.735365"><ele></ele><time>2017-9-19T6:40:24Z</time></trkpt>
<trkpt lat="48.441167" lon="2.735317"><ele></ele><time>2017-9-19T6:40:27Z</time></trkpt>
<trkpt lat="48.441158" lon="2.735290"><ele></ele><time>2017-9-19T6:40:30Z</time></trkpt>
<trkpt lat="48.441158" lon="2.735260"><ele></ele><time>2017-9-19T6:40:33Z</time></trkpt>
<trkpt lat="48.441170" lon="2.735240"><ele></ele><time>2017-9-19T6:40:36Z</time></trkpt>
<trkpt lat="48.441188" lon="2.735225"><ele></ele><time>2017-9-19T6:40:39Z</time></trkpt>
<trkpt lat="48.441208" lon="2.735222"><ele></ele><time>2017-9-19T6:40:42Z</time></trkpt>
<trkpt lat="48.441243" lon="2.735212"><ele></ele><time>2017-9-19T6:40:45Z</time></trkpt>
<trkpt lat="48.441260" lon="2.735188"><ele></ele><time>2017-9-19T6:40:48Z</time></trkpt>
<trkpt lat="48.441315" lon="2.735110"><ele></ele><time>2017-9-19T6:40:51Z</time></trkpt>
<trkpt lat="48.441328" lon="2.735080"><ele></ele><time>2017-9-19T6:40:54Z</time></trkpt>
<trkpt lat="48.441393" lon="2.734947"><ele></ele><time>2017-9-19T6:40:57Z</time></trkpt>
<trkpt lat="48.441405" lon="2.734903"><ele></ele><time>2017-9-19T6:41:0Z</time></trkpt>
<trkpt lat="48.441421" lon="2.734860"><ele></ele><time>2017-9-19T6:41:3Z</time></trkpt>
<trkpt lat="48.441482" lon="2.734665"><ele></ele><time>2017-9-19T6:41:6Z</time></trkpt>
<trkpt lat="48.441477" lon="2.734610"><ele></ele><time>2017-9-19T6:41:9Z</time></trkpt>
<trkpt lat="48.441463" lon="2.734555"><ele></ele><time>2017-9-19T6:41:12Z</time></trkpt>
<trkpt lat="48.441440" lon="2.734507"><ele></ele><time>2017-9-19T6:41:15Z</time></trkpt>
<trkpt lat="48.441413" lon="2.734468"><ele></ele><time>2017-9-19T6:41:18Z</time></trkpt>
<trkpt lat="48.441375" lon="2.734433"><ele></ele><time>2017-9-19T6:41:21Z</time></trkpt>
<trkpt lat="48.441342" lon="2.734408"><ele></ele><time>2017-9-19T6:41:24Z</time></trkpt>
<trkpt lat="48.441303" lon="2.734383"><ele></ele><time>2017-9-19T6:41:27Z</time></trkpt>
<trkpt lat="48.441233" lon="2.734325"><ele></ele><time>2017-9-19T6:41:30Z</time></trkpt>
<trkpt lat="48.441205" lon="2.734280"><ele></ele><time>2017-9-19T6:41:33Z</time></trkpt>
<trkpt lat="48.441178" lon="2.734238"><ele></ele><time>2017-9-19T6:41:36Z</time></trkpt>
<trkpt lat="48.441116" lon="2.734163"><ele></ele><time>2017-9-19T6:41:39Z</time></trkpt>
<trkpt lat="48.441055" lon="2.734085"><ele></ele><time>2017-9-19T6:41:42Z</time></trkpt>
<trkpt lat="48.441028" lon="2.734038"><ele></ele><time>2017-9-19T6:41:45Z</time></trkpt>
<trkpt lat="48.440985" lon="2.733962"><ele></ele><time>2017-9-19T6:41:48Z</time></trkpt>
<trkpt lat="48.440963" lon="2.733937"><ele></ele><time>2017-9-19T6:41:51Z</time></trkpt>
<trkpt lat="48.440940" lon="2.733917"><ele></ele><time>2017-9-19T6:41:54Z</time></trkpt>
<trkpt lat="48.440857" lon="2.733850"><ele></ele><time>2017-9-19T6:41:57Z</time></trkpt>
<trkpt lat="48.440823" lon="2.733815"><ele></ele><time>2017-9-19T6:42:0Z</time></trkpt>
<trkpt lat="48.440796" lon="2.733775"><ele></ele><time>2017-9-19T6:42:3Z</time></trkpt>
<trkpt lat="48.440768" lon="2.733707"><ele></ele><time>2017-9-19T6:42:6Z</time></trkpt>
<trkpt lat="48.440762" lon="2.733675"><ele></ele><time>2017-9-19T6:42:9Z</time></trkpt>
<trkpt lat="48.440758" lon="2.733640"><ele></ele><time>2017-9-19T6:42:12Z</time></trkpt>
<trkpt lat="48.440758" lon="2.733598"><ele></ele><time>2017-9-19T6:42:15Z</time></trkpt>
<trkpt lat="48.440753" lon="2.733397"><ele></ele><time>2017-9-19T6:42:18Z</time></trkpt>
<trkpt lat="48.440742" lon="2.733337"><ele></ele><time>2017-9-19T6:42:21Z</time></trkpt>
<trkpt lat="48.440692" lon="2.733103"><ele></ele><time>2017-9-19T6:42:24Z</time></trkpt>
<trkpt lat="48.440675" lon="2.733053"><ele></ele><time>2017-9-19T6:42:27Z</time></trkpt>
<trkpt lat="48.440658" lon="2.732998"><ele></ele><time>2017-9-19T6:42:30Z</time></trkpt>
<trkpt lat="48.440646" lon="2.732940"><ele></ele><time>2017-9-19T6:42:33Z</time></trkpt>
<trkpt lat="48.440596" lon="2.732645"><ele></ele><time>2017-9-19T6:42:36Z</time></trkpt>
<trkpt lat="48.440600" lon="2.732587"><ele></ele><time>2017-9-19T6:42:39Z</time></trkpt>
<trkpt lat="48.440608" lon="2.732468"><ele></ele><time>2017-9-19T6:42:42Z</time></trkpt>
<trkpt lat="48.440613" lon="2.732100"><ele></ele><time>2017-9-19T6:42:45Z</time></trkpt>
<trkpt lat="48.440608" lon="2.732043"><ele></ele><time>2017-9-19T6:42:48Z</time></trkpt>
<trkpt lat="48.440600" lon="2.731997"><ele></ele><time>2017-9-19T6:42:51Z</time></trkpt>
<trkpt lat="48.440590" lon="2.731952"><ele></ele><time>2017-9-19T6:42:54Z</time></trkpt>
<trkpt lat="48.440552" lon="2.731810"><ele></ele><time>2017-9-19T6:42:57Z</time></trkpt>
<trkpt lat="48.440528" lon="2.731762"><ele></ele><time>2017-9-19T6:43:0Z</time></trkpt>
<trkpt lat="48.440506" lon="2.731723"><ele></ele><time>2017-9-19T6:43:3Z</time></trkpt>
<trkpt lat="48.440485" lon="2.731688"><ele></ele><time>2017-9-19T6:43:6Z</time></trkpt>
<trkpt lat="48.440447" lon="2.731622"><ele></ele><time>2017-9-19T6:43:9Z</time></trkpt>
<trkpt lat="48.440441" lon="2.731615"><ele></ele><time>2017-9-19T6:43:12Z</time></trkpt>
<trkpt lat="48.440440" lon="2.731613"><ele></ele><time>2017-9-19T6:43:15Z</time></trkpt>
<trkpt lat="48.440437" lon="2.731612"><ele></ele><time>2017-9-19T6:43:18Z</time></trkpt>
<trkpt lat="48.440437" lon="2.731610"><ele></ele><time>2017-9-19T6:43:21Z</time></trkpt>
<trkpt lat="48.440437" lon="2.731610"><ele></ele><time>2017-9-19T6:43:24Z</time></trkpt>
<trkpt lat="48.440435" lon="2.731605"><ele></ele><time>2017-9-19T6:43:27Z</time></trkpt>
<trkpt lat="48.440435" lon="2.731595"><ele></ele><time>2017-9-19T6:43:30Z</time></trkpt>
<trkpt lat="48.440430" lon="2.731580"><ele></ele><time>2017-9-19T6:43:33Z</time></trkpt>
<trkpt lat="48.440428" lon="2.731568"><ele></ele><time>2017-9-19T6:43:36Z</time></trkpt>
<trkpt lat="48.440425" lon="2.731562"><ele></ele><time>2017-9-19T6:43:39Z</time></trkpt>
<trkpt lat="48.440425" lon="2.731557"><ele></ele><time>2017-9-19T6:43:42Z</time></trkpt>
<trkpt lat="48.440425" lon="2.731523"><ele></ele><time>2017-9-19T6:43:45Z</time></trkpt>
<trkpt lat="48.440423" lon="2.731500"><ele></ele><time>2017-9-19T6:43:48Z</time></trkpt>
<trkpt lat="48.440413" lon="2.731437"><ele></ele><time>2017-9-19T6:43:51Z</time></trkpt>
<trkpt lat="48.440403" lon="2.731398"><ele></ele><time>2017-9-19T6:43:54Z</time></trkpt>
<trkpt lat="48.440388" lon="2.731360"><ele></ele><time>2017-9-19T6:43:57Z</time></trkpt>
<trkpt lat="48.440290" lon="2.731145"><ele></ele><time>2017-9-19T6:44:0Z</time></trkpt>
<trkpt lat="48.440145" lon="2.730830"><ele></ele><time>2017-9-19T6:44:3Z</time></trkpt>
<trkpt lat="48.440137" lon="2.730778"><ele></ele><time>2017-9-19T6:44:6Z</time></trkpt>
<trkpt lat="48.440133" lon="2.730732"><ele></ele><time>2017-9-19T6:44:9Z</time></trkpt>
<trkpt lat="48.440123" lon="2.730463"><ele></ele><time>2017-9-19T6:44:12Z</time></trkpt>
<trkpt lat="48.440125" lon="2.730310"><ele></ele><time>2017-9-19T6:44:15Z</time></trkpt>
<trkpt lat="48.440140" lon="2.730255"><ele></ele><time>2017-9-19T6:44:18Z</time></trkpt>
<trkpt lat="48.440160" lon="2.730211"><ele></ele><time>2017-9-19T6:44:21Z</time></trkpt>
<trkpt lat="48.440210" lon="2.730137"><ele></ele><time>2017-9-19T6:44:24Z</time></trkpt>
<trkpt lat="48.440227" lon="2.730090"><ele></ele><time>2017-9-19T6:44:27Z</time></trkpt>
<trkpt lat="48.440232" lon="2.730050"><ele></ele><time>2017-9-19T6:44:30Z</time></trkpt>
<trkpt lat="48.440223" lon="2.730007"><ele></ele><time>2017-9-19T6:44:33Z</time></trkpt>
<trkpt lat="48.440223" lon="2.729977"><ele></ele><time>2017-9-19T6:44:36Z</time></trkpt>
<trkpt lat="48.440232" lon="2.729955"><ele></ele><time>2017-9-19T6:44:39Z</time></trkpt>
<trkpt lat="48.440240" lon="2.729940"><ele></ele><time>2017-9-19T6:44:42Z</time></trkpt>
<trkpt lat="48.440297" lon="2.729850"><ele></ele><time>2017-9-19T6:44:45Z</time></trkpt>
<trkpt lat="48.440310" lon="2.729798"><ele></ele><time>2017-9-19T6:44:48Z</time></trkpt>
<trkpt lat="48.440317" lon="2.729740"><ele></ele><time>2017-9-19T6:44:51Z</time></trkpt>
<trkpt lat="48.440318" lon="2.729680"><ele></ele><time>2017-9-19T6:44:54Z</time></trkpt>
<trkpt lat="48.440315" lon="2.729627"><ele></ele><time>2017-9-19T6:44:57Z</time></trkpt>
<trkpt lat="48.440305" lon="2.729582"><ele></ele><time>2017-9-19T6:45:0Z</time></trkpt>
<trkpt lat="48.440293" lon="2.729477"><ele></ele><time>2017-9-19T6:45:3Z</time></trkpt>
<trkpt lat="48.440288" lon="2.729417"><ele></ele><time>2017-9-19T6:45:6Z</time></trkpt>
<trkpt lat="48.440293" lon="2.729357"><ele></ele><time>2017-9-19T6:45:9Z</time></trkpt>
<trkpt lat="48.440298" lon="2.729295"><ele></ele><time>2017-9-19T6:45:12Z</time></trkpt>
<trkpt lat="48.440300" lon="2.729233"><ele></ele><time>2017-9-19T6:45:15Z</time></trkpt>
<trkpt lat="48.440288" lon="2.729107"><ele></ele><time>2017-9-19T6:45:18Z</time></trkpt>
<trkpt lat="48.440278" lon="2.728973"><ele></ele><time>2017-9-19T6:45:21Z</time></trkpt>
<trkpt lat="48.440260" lon="2.728652"><ele></ele><time>2017-9-19T6:45:24Z</time></trkpt>
<trkpt lat="48.440248" lon="2.728588"><ele></ele><time>2017-9-19T6:45:27Z</time></trkpt>
<trkpt lat="48.440232" lon="2.728523"><ele></ele><time>2017-9-19T6:45:30Z</time></trkpt>
<trkpt lat="48.440173" lon="2.728263"><ele></ele><time>2017-9-19T6:45:33Z</time></trkpt>
<trkpt lat="48.440175" lon="2.728202"><ele></ele><time>2017-9-19T6:45:36Z</time></trkpt>
<trkpt lat="48.440185" lon="2.728145"><ele></ele><time>2017-9-19T6:45:39Z</time></trkpt>
<trkpt lat="48.440200" lon="2.728093"><ele></ele><time>2017-9-19T6:45:42Z</time></trkpt>
<trkpt lat="48.440263" lon="2.727766"><ele></ele><time>2017-9-19T6:45:45Z</time></trkpt>
<trkpt lat="48.440270" lon="2.727690"><ele></ele><time>2017-9-19T6:45:48Z</time></trkpt>
<trkpt lat="48.440290" lon="2.727413"><ele></ele><time>2017-9-19T6:45:51Z</time></trkpt>
<trkpt lat="48.440272" lon="2.727357"><ele></ele><time>2017-9-19T6:45:54Z</time></trkpt>
<trkpt lat="48.440248" lon="2.727307"><ele></ele><time>2017-9-19T6:45:57Z</time></trkpt>
<trkpt lat="48.440223" lon="2.727258"><ele></ele><time>2017-9-19T6:46:0Z</time></trkpt>
<trkpt lat="48.440148" lon="2.727110"><ele></ele><time>2017-9-19T6:46:3Z</time></trkpt>
<trkpt lat="48.440137" lon="2.727048"><ele></ele><time>2017-9-19T6:46:6Z</time></trkpt>
<trkpt lat="48.440101" lon="2.726822"><ele></ele><time>2017-9-19T6:46:9Z</time></trkpt>
<trkpt lat="48.440088" lon="2.726777"><ele></ele><time>2017-9-19T6:46:12Z</time></trkpt>
<trkpt lat="48.440068" lon="2.726707"><ele></ele><time>2017-9-19T6:46:15Z</time></trkpt>
<trkpt lat="48.440065" lon="2.726695"><ele></ele><time>2017-9-19T6:46:18Z</time></trkpt>
<trkpt lat="48.440062" lon="2.726693"><ele></ele><time>2017-9-19T6:46:21Z</time></trkpt>
<trkpt lat="48.440062" lon="2.726693"><ele></ele><time>2017-9-19T6:46:24Z</time></trkpt>
<trkpt lat="48.440062" lon="2.726692"><ele></ele><time>2017-9-19T6:46:27Z</time></trkpt>
<trkpt lat="48.440060" lon="2.726688"><ele></ele><time>2017-9-19T6:46:30Z</time></trkpt>
<trkpt lat="48.440060" lon="2.726683"><ele></ele><time>2017-9-19T6:46:33Z</time></trkpt>
<trkpt lat="48.440060" lon="2.726680"><ele></ele><time>2017-9-19T6:46:36Z</time></trkpt>
<trkpt lat="48.440060" lon="2.726675"><ele></ele><time>2017-9-19T6:46:39Z</time></trkpt>
<trkpt lat="48.440058" lon="2.726670"><ele></ele><time>2017-9-19T6:46:42Z</time></trkpt>
<trkpt lat="48.440058" lon="2.726662"><ele></ele><time>2017-9-19T6:46:45Z</time></trkpt>
<trkpt lat="48.440060" lon="2.726650"><ele></ele><time>2017-9-19T6:46:48Z</time></trkpt>
<trkpt lat="48.440070" lon="2.726623"><ele></ele><time>2017-9-19T6:46:51Z</time></trkpt>
<trkpt lat="48.440075" lon="2.726595"><ele></ele><time>2017-9-19T6:46:54Z</time></trkpt>
<trkpt lat="48.440072" lon="2.726557"><ele></ele><time>2017-9-19T6:46:57Z</time></trkpt>
<trkpt lat="48.440053" lon="2.726520"><ele></ele><time>2017-9-19T6:47:0Z</time></trkpt>
<trkpt lat="48.440028" lon="2.726485"><ele></ele><time>2017-9-19T6:47:3Z</time></trkpt>
<trkpt lat="48.440008" lon="2.726440"><ele></ele><time>2017-9-19T6:47:6Z</time></trkpt>
<trkpt lat="48.439998" lon="2.726395"><ele></ele><time>2017-9-19T6:47:9Z</time></trkpt>
<trkpt lat="48.439998" lon="2.726348"><ele></ele><time>2017-9-19T6:47:12Z</time></trkpt>
<trkpt lat="48.440015" lon="2.726263"><ele></ele><time>2017-9-19T6:47:15Z</time></trkpt>
<trkpt lat="48.440018" lon="2.726213"><ele></ele><time>2017-9-19T6:47:18Z</time></trkpt>
<trkpt lat="48.440013" lon="2.726148"><ele></ele><time>2017-9-19T6:47:21Z</time></trkpt>
<trkpt lat="48.440000" lon="2.726083"><ele></ele><time>2017-9-19T6:47:24Z</time></trkpt>
<trkpt lat="48.439988" lon="2.725963"><ele></ele><time>2017-9-19T6:47:27Z</time></trkpt>
<trkpt lat="48.439980" lon="2.725858"><ele></ele><time>2017-9-19T6:47:30Z</time></trkpt>
<trkpt lat="48.439957" lon="2.725608"><ele></ele><time>2017-9-19T6:47:33Z</time></trkpt>
<trkpt lat="48.439947" lon="2.725551"><ele></ele><time>2017-9-19T6:47:36Z</time></trkpt>
<trkpt lat="48.439930" lon="2.725490"><ele></ele><time>2017-9-19T6:47:39Z</time></trkpt>
<trkpt lat="48.439915" lon="2.725433"><ele></ele><time>2017-9-19T6:47:42Z</time></trkpt>
<trkpt lat="48.439897" lon="2.725380"><ele></ele><time>2017-9-19T6:47:45Z</time></trkpt>
<trkpt lat="48.439857" lon="2.725270"><ele></ele><time>2017-9-19T6:47:48Z</time></trkpt>
<trkpt lat="48.439791" lon="2.725107"><ele></ele><time>2017-9-19T6:47:51Z</time></trkpt>
<trkpt lat="48.439740" lon="2.724893"><ele></ele><time>2017-9-19T6:47:54Z</time></trkpt>
<trkpt lat="48.439725" lon="2.724848"><ele></ele><time>2017-9-19T6:47:57Z</time></trkpt>
<trkpt lat="48.439651" lon="2.724680"><ele></ele><time>2017-9-19T6:48:0Z</time></trkpt>
<trkpt lat="48.439622" lon="2.724638"><ele></ele><time>2017-9-19T6:48:3Z</time></trkpt>
<trkpt lat="48.439597" lon="2.724617"><ele></ele><time>2017-9-19T6:48:6Z</time></trkpt>
<trkpt lat="48.439568" lon="2.724602"><ele></ele><time>2017-9-19T6:48:9Z</time></trkpt>
<trkpt lat="48.439530" lon="2.724557"><ele></ele><time>2017-9-19T6:48:12Z</time></trkpt>
<trkpt lat="48.439518" lon="2.724520"><ele></ele><time>2017-9-19T6:48:15Z</time></trkpt>
<trkpt lat="48.439515" lon="2.724478"><ele></ele><time>2017-9-19T6:48:18Z</time></trkpt>
<trkpt lat="48.439501" lon="2.724433"><ele></ele><time>2017-9-19T6:48:21Z</time></trkpt>
<trkpt lat="48.439492" lon="2.724382"><ele></ele><time>2017-9-19T6:48:24Z</time></trkpt>
<trkpt lat="48.439467" lon="2.724228"><ele></ele><time>2017-9-19T6:48:27Z</time></trkpt>
<trkpt lat="48.439452" lon="2.724190"><ele></ele><time>2017-9-19T6:48:30Z</time></trkpt>
<trkpt lat="48.439435" lon="2.724160"><ele></ele><time>2017-9-19T6:48:33Z</time></trkpt>
<trkpt lat="48.439405" lon="2.724097"><ele></ele><time>2017-9-19T6:48:36Z</time></trkpt>
<trkpt lat="48.439337" lon="2.723965"><ele></ele><time>2017-9-19T6:48:39Z</time></trkpt>
<trkpt lat="48.439301" lon="2.723918"><ele></ele><time>2017-9-19T6:48:42Z</time></trkpt>
<trkpt lat="48.439253" lon="2.723820"><ele></ele><time>2017-9-19T6:48:45Z</time></trkpt>
<trkpt lat="48.439213" lon="2.723735"><ele></ele><time>2017-9-19T6:48:48Z</time></trkpt>
<trkpt lat="48.439197" lon="2.723708"><ele></ele><time>2017-9-19T6:48:51Z</time></trkpt>
<trkpt lat="48.439155" lon="2.723650"><ele></ele><time>2017-9-19T6:48:54Z</time></trkpt>
<trkpt lat="48.439127" lon="2.723628"><ele></ele><time>2017-9-19T6:48:57Z</time></trkpt>
<trkpt lat="48.439095" lon="2.723617"><ele></ele><time>2017-9-19T6:49:0Z</time></trkpt>
<trkpt lat="48.439071" lon="2.723615"><ele></ele><time>2017-9-19T6:49:3Z</time></trkpt>
<trkpt lat="48.439035" lon="2.723610"><ele></ele><time>2017-9-19T6:49:6Z</time></trkpt>
<trkpt lat="48.439027" lon="2.723613"><ele></ele><time>2017-9-19T6:49:9Z</time></trkpt>
<trkpt lat="48.439023" lon="2.723622"><ele></ele><time>2017-9-19T6:49:12Z</time></trkpt>
<trkpt lat="48.439020" lon="2.723622"><ele></ele><time>2017-9-19T6:49:15Z</time></trkpt>
<trkpt lat="48.439017" lon="2.723622"><ele></ele><time>2017-9-19T6:49:18Z</time></trkpt>
<trkpt lat="48.439013" lon="2.723622"><ele></ele><time>2017-9-19T6:49:21Z</time></trkpt>
<trkpt lat="48.439011" lon="2.723622"><ele></ele><time>2017-9-19T6:49:24Z</time></trkpt>
<trkpt lat="48.439010" lon="2.723620"><ele></ele><time>2017-9-19T6:49:27Z</time></trkpt>
<trkpt lat="48.439008" lon="2.723620"><ele></ele><time>2017-9-19T6:49:30Z</time></trkpt>
<trkpt lat="48.439005" lon="2.723620"><ele></ele><time>2017-9-19T6:49:33Z</time></trkpt>
<trkpt lat="48.439002" lon="2.723622"><ele></ele><time>2017-9-19T6:49:36Z</time></trkpt>
<trkpt lat="48.438997" lon="2.723630"><ele></ele><time>2017-9-19T6:49:39Z</time></trkpt>
<trkpt lat="48.438993" lon="2.723625"><ele></ele><time>2017-9-19T6:49:42Z</time></trkpt>
<trkpt lat="48.438983" lon="2.723592"><ele></ele><time>2017-9-19T6:49:45Z</time></trkpt>
<trkpt lat="48.438975" lon="2.723562"><ele></ele><time>2017-9-19T6:49:48Z</time></trkpt>
<trkpt lat="48.438978" lon="2.723537"><ele></ele><time>2017-9-19T6:49:51Z</time></trkpt>
<trkpt lat="48.438981" lon="2.723523"><ele></ele><time>2017-9-19T6:49:54Z</time></trkpt>
<trkpt lat="48.438983" lon="2.723507"><ele></ele><time>2017-9-19T6:49:57Z</time></trkpt>
<trkpt lat="48.438985" lon="2.723457"><ele></ele><time>2017-9-19T6:50:0Z</time></trkpt>
<trkpt lat="48.438985" lon="2.723452"><ele></ele><time>2017-9-19T6:50:3Z</time></trkpt>
<trkpt lat="48.438986" lon="2.723442"><ele></ele><time>2017-9-19T6:50:6Z</time></trkpt>
<trkpt lat="48.438988" lon="2.723438"><ele></ele><time>2017-9-19T6:50:9Z</time></trkpt>
<trkpt lat="48.438988" lon="2.723432"><ele></ele><time>2017-9-19T6:50:12Z</time></trkpt>
<trkpt lat="48.438992" lon="2.723425"><ele></ele><time>2017-9-19T6:50:15Z</time></trkpt>
<trkpt lat="48.438986" lon="2.723417"><ele></ele><time>2017-9-19T6:50:18Z</time></trkpt>
<trkpt lat="48.438988" lon="2.723410"><ele></ele><time>2017-9-19T6:50:21Z</time></trkpt>
<trkpt lat="48.438985" lon="2.723403"><ele></ele><time>2017-9-19T6:50:24Z</time></trkpt>
<trkpt lat="48.438988" lon="2.723403"><ele></ele><time>2017-9-19T6:50:27Z</time></trkpt>
<trkpt lat="48.438990" lon="2.723400"><ele></ele><time>2017-9-19T6:50:30Z</time></trkpt>
<trkpt lat="48.438986" lon="2.723395"><ele></ele><time>2017-9-19T6:50:33Z</time></trkpt>
<trkpt lat="48.438988" lon="2.723390"><ele></ele><time>2017-9-19T6:50:36Z</time></trkpt>
<trkpt lat="48.438993" lon="2.723385"><ele></ele><time>2017-9-19T6:50:39Z</time></trkpt>
<trkpt lat="48.438998" lon="2.723380"><ele></ele><time>2017-9-19T6:50:42Z</time></trkpt>
<trkpt lat="48.439000" lon="2.723378"><ele></ele><time>2017-9-19T6:50:45Z</time></trkpt>
<trkpt lat="48.439002" lon="2.723377"><ele></ele><time>2017-9-19T6:50:48Z</time></trkpt>
<trkpt lat="48.439003" lon="2.723377"><ele></ele><time>2017-9-19T6:50:51Z</time></trkpt>
<trkpt lat="48.439005" lon="2.723375"><ele></ele><time>2017-9-19T6:50:54Z</time></trkpt>
<trkpt lat="48.439006" lon="2.723375"><ele></ele><time>2017-9-19T6:50:57Z</time></trkpt>
<trkpt lat="48.439010" lon="2.723375"><ele></ele><time>2017-9-19T6:51:0Z</time></trkpt>
<trkpt lat="48.439011" lon="2.723375"><ele></ele><time>2017-9-19T6:51:3Z</time></trkpt>
<trkpt lat="48.439015" lon="2.723375"><ele></ele><time>2017-9-19T6:51:6Z</time></trkpt>
<trkpt lat="48.439017" lon="2.723375"><ele></ele><time>2017-9-19T6:51:9Z</time></trkpt>
<trkpt lat="48.439020" lon="2.723375"><ele></ele><time>2017-9-19T6:51:12Z</time></trkpt>
<trkpt lat="48.439023" lon="2.723377"><ele></ele><time>2017-9-19T6:51:15Z</time></trkpt>
<trkpt lat="48.439025" lon="2.723377"><ele></ele><time>2017-9-19T6:51:18Z</time></trkpt>
<trkpt lat="48.439028" lon="2.723377"><ele></ele><time>2017-9-19T6:51:21Z</time></trkpt>
<trkpt lat="48.439030" lon="2.723378"><ele></ele><time>2017-9-19T6:51:24Z</time></trkpt>
<trkpt lat="48.439038" lon="2.723380"><ele></ele><time>2017-9-19T6:51:27Z</time></trkpt>
<trkpt lat="48.439042" lon="2.723382"><ele></ele><time>2017-9-19T6:51:30Z</time></trkpt>
<trkpt lat="48.439045" lon="2.723382"><ele></ele><time>2017-9-19T6:51:33Z</time></trkpt>
<trkpt lat="48.439047" lon="2.723383"><ele></ele><time>2017-9-19T6:51:36Z</time></trkpt>
<trkpt lat="48.439048" lon="2.723383"><ele></ele><time>2017-9-19T6:51:39Z</time></trkpt>
<trkpt lat="48.439050" lon="2.723385"><ele></ele><time>2017-9-19T6:51:42Z</time></trkpt>
<trkpt lat="48.439052" lon="2.723385"><ele></ele><time>2017-9-19T6:51:45Z</time></trkpt>
<trkpt lat="48.439052" lon="2.723387"><ele></ele><time>2017-9-19T6:51:48Z</time></trkpt>
<trkpt lat="48.439053" lon="2.723387"><ele></ele><time>2017-9-19T6:51:51Z</time></trkpt>
<trkpt lat="48.439055" lon="2.723388"><ele></ele><time>2017-9-19T6:51:54Z</time></trkpt>
<trkpt lat="48.439055" lon="2.723388"><ele></ele><time>2017-9-19T6:51:57Z</time></trkpt>
<trkpt lat="48.439057" lon="2.723388"><ele></ele><time>2017-9-19T6:52:0Z</time></trkpt>
<trkpt lat="48.439057" lon="2.723390"><ele></ele><time>2017-9-19T6:52:3Z</time></trkpt>
<trkpt lat="48.439058" lon="2.723390"><ele></ele><time>2017-9-19T6:52:6Z</time></trkpt>
<trkpt lat="48.439058" lon="2.723392"><ele></ele><time>2017-9-19T6:52:9Z</time></trkpt>
<trkpt lat="48.439058" lon="2.723392"><ele></ele><time>2017-9-19T6:52:12Z</time></trkpt>
<trkpt lat="48.439058" lon="2.723392"><ele></ele><time>2017-9-19T6:52:15Z</time></trkpt>
<trkpt lat="48.439058" lon="2.723393"><ele></ele><time>2017-9-19T6:52:18Z</time></trkpt>
<trkpt lat="48.439058" lon="2.723393"><ele></ele><time>2017-9-19T6:52:21Z</time></trkpt>
<trkpt lat="48.439060" lon="2.723395"><ele></ele><time>2017-9-19T6:52:24Z</time></trkpt>
<trkpt lat="48.439060" lon="2.723395"><ele></ele><time>2017-9-19T6:52:27Z</time></trkpt>
<trkpt lat="48.439060" lon="2.723395"><ele></ele><time>2017-9-19T6:52:30Z</time></trkpt>
<trkpt lat="48.439060" lon="2.723397"><ele></ele><time>2017-9-19T6:52:33Z</time></trkpt>
<trkpt lat="48.439060" lon="2.723397"><ele></ele><time>2017-9-19T6:52:36Z</time></trkpt>
<trkpt lat="48.439062" lon="2.723398"><ele></ele><time>2017-9-19T6:52:39Z</time></trkpt>
<trkpt lat="48.439062" lon="2.723398"><ele></ele><time>2017-9-19T6:52:42Z</time></trkpt>
<trkpt lat="48.439062" lon="2.723400"><ele></ele><time>2017-9-19T6:52:45Z</time></trkpt>
<trkpt lat="48.439062" lon="2.723400"><ele></ele><time>2017-9-19T6:52:48Z</time></trkpt>
<trkpt lat="48.439062" lon="2.723402"><ele></ele><time>2017-9-19T6:52:51Z</time></trkpt>
<trkpt lat="48.439063" lon="2.723402"><ele></ele><time>2017-9-19T6:52:54Z</time></trkpt>
<trkpt lat="48.439063" lon="2.723402"><ele></ele><time>2017-9-19T6:52:57Z</time></trkpt>
<trkpt lat="48.439063" lon="2.723403"><ele></ele><time>2017-9-19T6:53:0Z</time></trkpt>
<trkpt lat="48.439065" lon="2.723403"><ele></ele><time>2017-9-19T6:53:3Z</time></trkpt>
<trkpt lat="48.439065" lon="2.723405"><ele></ele><time>2017-9-19T6:53:6Z</time></trkpt>
<trkpt lat="48.439065" lon="2.723405"><ele></ele><time>2017-9-19T6:53:9Z</time></trkpt>
<trkpt lat="48.439063" lon="2.723405"><ele></ele><time>2017-9-19T6:53:12Z</time></trkpt>
<trkpt lat="48.439065" lon="2.723405"><ele></ele><time>2017-9-19T6:53:15Z</time></trkpt>
<trkpt lat="48.439065" lon="2.723407"><ele></ele><time>2017-9-19T6:53:18Z</time></trkpt>
<trkpt lat="48.439065" lon="2.723407"><ele></ele><time>2017-9-19T6:53:21Z</time></trkpt>
<trkpt lat="48.439065" lon="2.723407"><ele></ele><time>2017-9-19T6:53:24Z</time></trkpt>
<trkpt lat="48.439065" lon="2.723408"><ele></ele><time>2017-9-19T6:53:27Z</time></trkpt>
<trkpt lat="48.439065" lon="2.723408"><ele></ele><time>2017-9-19T6:53:30Z</time></trkpt>
<trkpt lat="48.439065" lon="2.723408"><ele></ele><time>2017-9-19T6:53:33Z</time></trkpt>
<trkpt lat="48.439065" lon="2.723408"><ele></ele><time>2017-9-19T6:53:36Z</time></trkpt>
<trkpt lat="48.439065" lon="2.723408"><ele></ele><time>2017-9-19T6:53:39Z</time></trkpt>
<trkpt lat="48.439065" lon="2.723410"><ele></ele><time>2017-9-19T6:53:42Z</time></trkpt>
<trkpt lat="48.439065" lon="2.723410"><ele></ele><time>2017-9-19T6:53:45Z</time></trkpt>
<trkpt lat="48.439065" lon="2.723410"><ele></ele><time>2017-9-19T6:53:48Z</time></trkpt>
<trkpt lat="48.439065" lon="2.723410"><ele></ele><time>2017-9-19T6:53:51Z</time></trkpt>
<trkpt lat="48.439065" lon="2.723412"><ele></ele><time>2017-9-19T6:53:54Z</time></trkpt>
<trkpt lat="48.439065" lon="2.723412"><ele></ele><time>2017-9-19T6:53:57Z</time></trkpt>
<trkpt lat="48.439067" lon="2.723412"><ele></ele><time>2017-9-19T6:54:0Z</time></trkpt>
<trkpt lat="48.439067" lon="2.723412"><ele></ele><time>2017-9-19T6:54:3Z</time></trkpt>
<trkpt lat="48.439067" lon="2.723413"><ele></ele><time>2017-9-19T6:54:6Z</time></trkpt>
<trkpt lat="48.439067" lon="2.723413"><ele></ele><time>2017-9-19T6:54:9Z</time></trkpt>
<trkpt lat="48.439067" lon="2.723413"><ele></ele><time>2017-9-19T6:54:12Z</time></trkpt>
<trkpt lat="48.439067" lon="2.723413"><ele></ele><time>2017-9-19T6:54:15Z</time></trkpt>
<trkpt lat="48.439068" lon="2.723413"><ele></ele><time>2017-9-19T6:54:18Z</time></trkpt>
<trkpt lat="48.439068" lon="2.723415"><ele></ele><time>2017-9-19T6:54:21Z</time></trkpt>
<trkpt lat="48.439068" lon="2.723415"><ele></ele><time>2017-9-19T6:54:24Z</time></trkpt>
<trkpt lat="48.439068" lon="2.723415"><ele></ele><time>2017-9-19T6:54:27Z</time></trkpt>
<trkpt lat="48.439068" lon="2.723415"><ele></ele><time>2017-9-19T6:54:30Z</time></trkpt>
<trkpt lat="48.439068" lon="2.723415"><ele></ele><time>2017-9-19T6:54:33Z</time></trkpt>
<trkpt lat="48.439068" lon="2.723417"><ele></ele><time>2017-9-19T6:54:36Z</time></trkpt>
<trkpt lat="48.439068" lon="2.723417"><ele></ele><time>2017-9-19T6:54:39Z</time></trkpt>
<trkpt lat="48.439068" lon="2.723417"><ele></ele><time>2017-9-19T6:54:42Z</time></trkpt>
<trkpt lat="48.439068" lon="2.723417"><ele></ele><time>2017-9-19T6:54:45Z</time></trkpt>
<trkpt lat="48.439068" lon="2.723417"><ele></ele><time>2017-9-19T6:54:48Z</time></trkpt>
<trkpt lat="48.439068" lon="2.723418"><ele></ele><time>2017-9-19T6:54:51Z</time></trkpt>
<trkpt lat="48.439068" lon="2.723418"><ele></ele><time>2017-9-19T6:54:54Z</time></trkpt>
<trkpt lat="48.439068" lon="2.723418"><ele></ele><time>2017-9-19T6:54:57Z</time></trkpt>
<trkpt lat="48.439068" lon="2.723420"><ele></ele><time>2017-9-19T6:55:0Z</time></trkpt>
<trkpt lat="48.439068" lon="2.723420"><ele></ele><time>2017-9-19T6:55:3Z</time></trkpt>
<trkpt lat="48.439068" lon="2.723420"><ele></ele><time>2017-9-19T6:55:6Z</time></trkpt>
<trkpt lat="48.439067" lon="2.723418"><ele></ele><time>2017-9-19T6:55:9Z</time></trkpt>
<trkpt lat="48.439067" lon="2.723420"><ele></ele><time>2017-9-19T6:55:12Z</time></trkpt>
<trkpt lat="48.439068" lon="2.723420"><ele></ele><time>2017-9-19T6:55:15Z</time></trkpt>
<trkpt lat="48.439070" lon="2.723422"><ele></ele><time>2017-9-19T6:55:18Z</time></trkpt>
<trkpt lat="48.439068" lon="2.723422"><ele></ele><time>2017-9-19T6:55:21Z</time></trkpt>
<trkpt lat="48.439068" lon="2.723422"><ele></ele><time>2017-9-19T6:55:24Z</time></trkpt>
<trkpt lat="48.439068" lon="2.723423"><ele></ele><time>2017-9-19T6:55:27Z</time></trkpt>
<trkpt lat="48.439070" lon="2.723423"><ele></ele><time>2017-9-19T6:55:30Z</time></trkpt>
<trkpt lat="48.439070" lon="2.723423"><ele></ele><time>2017-9-19T6:55:33Z</time></trkpt>
<trkpt lat="48.439071" lon="2.723425"><ele></ele><time>2017-9-19T6:55:36Z</time></trkpt>
<trkpt lat="48.439071" lon="2.723425"><ele></ele><time>2017-9-19T6:55:39Z</time></trkpt>
<trkpt lat="48.439071" lon="2.723425"><ele></ele><time>2017-9-19T6:55:42Z</time></trkpt>
<trkpt lat="48.439070" lon="2.723427"><ele></ele><time>2017-9-19T6:55:45Z</time></trkpt>
<trkpt lat="48.439071" lon="2.723427"><ele></ele><time>2017-9-19T6:55:48Z</time></trkpt>
<trkpt lat="48.439071" lon="2.723427"><ele></ele><time>2017-9-19T6:55:51Z</time></trkpt>
<trkpt lat="48.439071" lon="2.723427"><ele></ele><time>2017-9-19T6:55:54Z</time></trkpt>
<trkpt lat="48.439070" lon="2.723428"><ele></ele><time>2017-9-19T6:55:57Z</time></trkpt>
<trkpt lat="48.439071" lon="2.723428"><ele></ele><time>2017-9-19T6:56:0Z</time></trkpt>
<trkpt lat="48.439063" lon="2.723427"><ele></ele><time>2017-9-19T6:56:3Z</time></trkpt>
<trkpt lat="48.439063" lon="2.723427"><ele></ele><time>2017-9-19T6:56:6Z</time></trkpt>
<trkpt lat="48.439062" lon="2.723427"><ele></ele><time>2017-9-19T6:56:9Z</time></trkpt>
<trkpt lat="48.439063" lon="2.723427"><ele></ele><time>2017-9-19T6:56:12Z</time></trkpt>
<trkpt lat="48.439063" lon="2.723428"><ele></ele><time>2017-9-19T6:56:15Z</time></trkpt>
<trkpt lat="48.439067" lon="2.723430"><ele></ele><time>2017-9-19T6:56:18Z</time></trkpt>
<trkpt lat="48.439068" lon="2.723432"><ele></ele><time>2017-9-19T6:56:21Z</time></trkpt>
<trkpt lat="48.439068" lon="2.723432"><ele></ele><time>2017-9-19T6:56:24Z</time></trkpt>
<trkpt lat="48.439068" lon="2.723432"><ele></ele><time>2017-9-19T6:56:27Z</time></trkpt>
<trkpt lat="48.439068" lon="2.723432"><ele></ele><time>2017-9-19T6:56:30Z</time></trkpt>
<trkpt lat="48.439070" lon="2.723433"><ele></ele><time>2017-9-19T6:56:33Z</time></trkpt>
<trkpt lat="48.439068" lon="2.723433"><ele></ele><time>2017-9-19T6:56:36Z</time></trkpt>
<trkpt lat="48.439068" lon="2.723433"><ele></ele><time>2017-9-19T6:56:39Z</time></trkpt>
<trkpt lat="48.439068" lon="2.723433"><ele></ele><time>2017-9-19T6:56:42Z</time></trkpt>
<trkpt lat="48.439068" lon="2.723433"><ele></ele><time>2017-9-19T6:56:45Z</time></trkpt>
<trkpt lat="48.439068" lon="2.723435"><ele></ele><time>2017-9-19T6:56:48Z</time></trkpt>
<trkpt lat="48.439068" lon="2.723435"><ele></ele><time>2017-9-19T6:56:51Z</time></trkpt>
<trkpt lat="48.439068" lon="2.723435"><ele></ele><time>2017-9-19T6:56:54Z</time></trkpt>
<trkpt lat="48.439068" lon="2.723435"><ele></ele><time>2017-9-19T6:56:57Z</time></trkpt>
<trkpt lat="48.439068" lon="2.723435"><ele></ele><time>2017-9-19T6:57:0Z</time></trkpt>
<trkpt lat="48.439068" lon="2.723437"><ele></ele><time>2017-9-19T6:57:3Z</time></trkpt>
<trkpt lat="48.439068" lon="2.723437"><ele></ele><time>2017-9-19T6:57:6Z</time></trkpt>
<trkpt lat="48.439067" lon="2.723437"><ele></ele><time>2017-9-19T6:57:9Z</time></trkpt>
<trkpt lat="48.439067" lon="2.723437"><ele></ele><time>2017-9-19T6:57:12Z</time></trkpt>
<trkpt lat="48.439067" lon="2.723437"><ele></ele><time>2017-9-19T6:57:15Z</time></trkpt>
<trkpt lat="48.439065" lon="2.723437"><ele></ele><time>2017-9-19T6:57:18Z</time></trkpt>
<trkpt lat="48.439065" lon="2.723437"><ele></ele><time>2017-9-19T6:57:21Z</time></trkpt>
<trkpt lat="48.439063" lon="2.723437"><ele></ele><time>2017-9-19T6:57:24Z</time></trkpt>
<trkpt lat="48.439063" lon="2.723437"><ele></ele><time>2017-9-19T6:57:27Z</time></trkpt>
<trkpt lat="48.439062" lon="2.723437"><ele></ele><time>2017-9-19T6:57:30Z</time></trkpt>
<trkpt lat="48.439060" lon="2.723437"><ele></ele><time>2017-9-19T6:57:33Z</time></trkpt>
<trkpt lat="48.439060" lon="2.723437"><ele></ele><time>2017-9-19T6:57:36Z</time></trkpt>
<trkpt lat="48.439060" lon="2.723435"><ele></ele><time>2017-9-19T6:57:39Z</time></trkpt>
<trkpt lat="48.439058" lon="2.723435"><ele></ele><time>2017-9-19T6:57:42Z</time></trkpt>
<trkpt lat="48.439058" lon="2.723435"><ele></ele><time>2017-9-19T6:57:45Z</time></trkpt>
<trkpt lat="48.439057" lon="2.723435"><ele></ele><time>2017-9-19T6:57:48Z</time></trkpt>
<trkpt lat="48.439057" lon="2.723435"><ele></ele><time>2017-9-19T6:57:51Z</time></trkpt>
<trkpt lat="48.439055" lon="2.723435"><ele></ele><time>2017-9-19T6:57:54Z</time></trkpt>
<trkpt lat="48.439055" lon="2.723435"><ele></ele><time>2017-9-19T6:57:57Z</time></trkpt>
<trkpt lat="48.439053" lon="2.723435"><ele></ele><time>2017-9-19T6:58:0Z</time></trkpt>
<trkpt lat="48.439053" lon="2.723433"><ele></ele><time>2017-9-19T6:58:3Z</time></trkpt>
<trkpt lat="48.439052" lon="2.723433"><ele></ele><time>2017-9-19T6:58:6Z</time></trkpt>
<trkpt lat="48.439052" lon="2.723433"><ele></ele><time>2017-9-19T6:58:9Z</time></trkpt>
<trkpt lat="48.439058" lon="2.723435"><ele></ele><time>2017-9-19T6:58:12Z</time></trkpt>
<trkpt lat="48.439058" lon="2.723437"><ele></ele><time>2017-9-19T6:58:15Z</time></trkpt>
<trkpt lat="48.439058" lon="2.723438"><ele></ele><time>2017-9-19T6:58:18Z</time></trkpt>
<trkpt lat="48.439058" lon="2.723438"><ele></ele><time>2017-9-19T6:58:21Z</time></trkpt>
<trkpt lat="48.439071" lon="2.723438"><ele></ele><time>2017-9-19T6:58:24Z</time></trkpt>
<trkpt lat="48.439083" lon="2.723438"><ele></ele><time>2017-9-19T6:58:27Z</time></trkpt>
<trkpt lat="48.439083" lon="2.723437"><ele></ele><time>2017-9-19T6:58:30Z</time></trkpt>
<trkpt lat="48.439073" lon="2.723445"><ele></ele><time>2017-9-19T6:58:33Z</time></trkpt>
<trkpt lat="48.439083" lon="2.723445"><ele></ele><time>2017-9-19T6:58:36Z</time></trkpt>
<trkpt lat="48.439090" lon="2.723443"><ele></ele><time>2017-9-19T6:58:39Z</time></trkpt>
<trkpt lat="48.439096" lon="2.723440"><ele></ele><time>2017-9-19T6:58:42Z</time></trkpt>
<trkpt lat="48.439101" lon="2.723440"><ele></ele><time>2017-9-19T6:58:45Z</time></trkpt>
<trkpt lat="48.439105" lon="2.723438"><ele></ele><time>2017-9-19T6:58:48Z</time></trkpt>
<trkpt lat="48.439108" lon="2.723437"><ele></ele><time>2017-9-19T6:58:51Z</time></trkpt>
<trkpt lat="48.439110" lon="2.723437"><ele></ele><time>2017-9-19T6:58:54Z</time></trkpt>
<trkpt lat="48.439112" lon="2.723435"><ele></ele><time>2017-9-19T6:58:57Z</time></trkpt>
<trkpt lat="48.439117" lon="2.723432"><ele></ele><time>2017-9-19T6:59:0Z</time></trkpt>
<trkpt lat="48.439115" lon="2.723433"><ele></ele><time>2017-9-19T6:59:3Z</time></trkpt>
<trkpt lat="48.439115" lon="2.723433"><ele></ele><time>2017-9-19T6:59:6Z</time></trkpt>
<trkpt lat="48.439115" lon="2.723433"><ele></ele><time>2017-9-19T6:59:9Z</time></trkpt>
<trkpt lat="48.439113" lon="2.723433"><ele></ele><time>2017-9-19T6:59:12Z</time></trkpt>
<trkpt lat="48.439110" lon="2.723433"><ele></ele><time>2017-9-19T6:59:15Z</time></trkpt>
<trkpt lat="48.439108" lon="2.723435"><ele></ele><time>2017-9-19T6:59:18Z</time></trkpt>
<trkpt lat="48.439105" lon="2.723435"><ele></ele><time>2017-9-19T6:59:21Z</time></trkpt>
<trkpt lat="48.439103" lon="2.723435"><ele></ele><time>2017-9-19T6:59:24Z</time></trkpt>
<trkpt lat="48.439100" lon="2.723437"><ele></ele><time>2017-9-19T6:59:27Z</time></trkpt>
<trkpt lat="48.439096" lon="2.723437"><ele></ele><time>2017-9-19T6:59:30Z</time></trkpt>
<trkpt lat="48.439092" lon="2.723438"><ele></ele><time>2017-9-19T6:59:33Z</time></trkpt>
<trkpt lat="48.439088" lon="2.723438"><ele></ele><time>2017-9-19T6:59:36Z</time></trkpt>
<trkpt lat="48.439082" lon="2.723440"><ele></ele><time>2017-9-19T6:59:39Z</time></trkpt>
<trkpt lat="48.439090" lon="2.723437"><ele></ele><time>2017-9-19T6:59:42Z</time></trkpt>
<trkpt lat="48.439087" lon="2.723432"><ele></ele><time>2017-9-19T6:59:45Z</time></trkpt>
<trkpt lat="48.439082" lon="2.723433"><ele></ele><time>2017-9-19T6:59:48Z</time></trkpt>
<trkpt lat="48.439078" lon="2.723430"><ele></ele><time>2017-9-19T6:59:51Z</time></trkpt>
<trkpt lat="48.439075" lon="2.723427"><ele></ele><time>2017-9-19T6:59:54Z</time></trkpt>
<trkpt lat="48.439071" lon="2.723423"><ele></ele><time>2017-9-19T6:59:57Z</time></trkpt>
<trkpt lat="48.439070" lon="2.723420"><ele></ele><time>2017-9-19T7:0:0Z</time></trkpt>
<trkpt lat="48.439068" lon="2.723418"><ele></ele><time>2017-9-19T7:0:3Z</time></trkpt>
<trkpt lat="48.439063" lon="2.723420"><ele></ele><time>2017-9-19T7:0:6Z</time></trkpt>
<trkpt lat="48.439067" lon="2.723418"><ele></ele><time>2017-9-19T7:0:9Z</time></trkpt>
<trkpt lat="48.439067" lon="2.723415"><ele></ele><time>2017-9-19T7:0:12Z</time></trkpt>
<trkpt lat="48.439067" lon="2.723410"><ele></ele><time>2017-9-19T7:0:15Z</time></trkpt>
<trkpt lat="48.439062" lon="2.723408"><ele></ele><time>2017-9-19T7:0:18Z</time></trkpt>
<trkpt lat="48.439058" lon="2.723410"><ele></ele><time>2017-9-19T7:0:21Z</time></trkpt>
<trkpt lat="48.439052" lon="2.723407"><ele></ele><time>2017-9-19T7:0:24Z</time></trkpt>
<trkpt lat="48.439050" lon="2.723405"><ele></ele><time>2017-9-19T7:0:27Z</time></trkpt>
<trkpt lat="48.439043" lon="2.723405"><ele></ele><time>2017-9-19T7:0:30Z</time></trkpt>
<trkpt lat="48.439040" lon="2.723405"><ele></ele><time>2017-9-19T7:0:33Z</time></trkpt>
<trkpt lat="48.439038" lon="2.723403"><ele></ele><time>2017-9-19T7:0:36Z</time></trkpt>
<trkpt lat="48.439035" lon="2.723403"><ele></ele><time>2017-9-19T7:0:39Z</time></trkpt>
<trkpt lat="48.439033" lon="2.723403"><ele></ele><time>2017-9-19T7:0:42Z</time></trkpt>
<trkpt lat="48.439030" lon="2.723400"><ele></ele><time>2017-9-19T7:0:45Z</time></trkpt>
<trkpt lat="48.439027" lon="2.723400"><ele></ele><time>2017-9-19T7:0:48Z</time></trkpt>
<trkpt lat="48.439023" lon="2.723402"><ele></ele><time>2017-9-19T7:0:51Z</time></trkpt>
<trkpt lat="48.439023" lon="2.723403"><ele></ele><time>2017-9-19T7:0:54Z</time></trkpt>
<trkpt lat="48.439022" lon="2.723405"><ele></ele><time>2017-9-19T7:0:57Z</time></trkpt>
<trkpt lat="48.439020" lon="2.723408"><ele></ele><time>2017-9-19T7:1:0Z</time></trkpt>
<trkpt lat="48.439020" lon="2.723410"><ele></ele><time>2017-9-19T7:1:3Z</time></trkpt>
<trkpt lat="48.439027" lon="2.723408"><ele></ele><time>2017-9-19T7:1:6Z</time></trkpt>
<trkpt lat="48.439037" lon="2.723407"><ele></ele><time>2017-9-19T7:1:9Z</time></trkpt>
<trkpt lat="48.439045" lon="2.723403"><ele></ele><time>2017-9-19T7:1:12Z</time></trkpt>
<trkpt lat="48.439048" lon="2.723403"><ele></ele><time>2017-9-19T7:1:15Z</time></trkpt>
<trkpt lat="48.439057" lon="2.723400"><ele></ele><time>2017-9-19T7:1:18Z</time></trkpt>
<trkpt lat="48.439067" lon="2.723395"><ele></ele><time>2017-9-19T7:1:21Z</time></trkpt>
<trkpt lat="48.439073" lon="2.723392"><ele></ele><time>2017-9-19T7:1:24Z</time></trkpt>
<trkpt lat="48.439070" lon="2.723390"><ele></ele><time>2017-9-19T7:1:27Z</time></trkpt>
<trkpt lat="48.439073" lon="2.723385"><ele></ele><time>2017-9-19T7:1:30Z</time></trkpt>
<trkpt lat="48.439070" lon="2.723387"><ele></ele><time>2017-9-19T7:1:33Z</time></trkpt>
<trkpt lat="48.439073" lon="2.723385"><ele></ele><time>2017-9-19T7:1:36Z</time></trkpt>
<trkpt lat="48.439071" lon="2.723385"><ele></ele><time>2017-9-19T7:1:39Z</time></trkpt>
<trkpt lat="48.439071" lon="2.723385"><ele></ele><time>2017-9-19T7:1:42Z</time></trkpt>
<trkpt lat="48.439073" lon="2.723385"><ele></ele><time>2017-9-19T7:1:45Z</time></trkpt>
<trkpt lat="48.439080" lon="2.723380"><ele></ele><time>2017-9-19T7:1:48Z</time></trkpt>
<trkpt lat="48.439076" lon="2.723380"><ele></ele><time>2017-9-19T7:1:51Z</time></trkpt>
<trkpt lat="48.439076" lon="2.723380"><ele></ele><time>2017-9-19T7:1:54Z</time></trkpt>
<trkpt lat="48.439078" lon="2.723378"><ele></ele><time>2017-9-19T7:1:57Z</time></trkpt>
<trkpt lat="48.439082" lon="2.723377"><ele></ele><time>2017-9-19T7:2:0Z</time></trkpt>
<trkpt lat="48.439083" lon="2.723375"><ele></ele><time>2017-9-19T7:2:3Z</time></trkpt>
<trkpt lat="48.439083" lon="2.723373"><ele></ele><time>2017-9-19T7:2:6Z</time></trkpt>
<trkpt lat="48.439083" lon="2.723373"><ele></ele><time>2017-9-19T7:2:9Z</time></trkpt>
<trkpt lat="48.439080" lon="2.723375"><ele></ele><time>2017-9-19T7:2:12Z</time></trkpt>
<trkpt lat="48.439078" lon="2.723375"><ele></ele><time>2017-9-19T7:2:15Z</time></trkpt>
<trkpt lat="48.439076" lon="2.723375"><ele></ele><time>2017-9-19T7:2:18Z</time></trkpt>
<trkpt lat="48.439075" lon="2.723375"><ele></ele><time>2017-9-19T7:2:21Z</time></trkpt>
<trkpt lat="48.439070" lon="2.723377"><ele></ele><time>2017-9-19T7:2:24Z</time></trkpt>
<trkpt lat="48.439068" lon="2.723377"><ele></ele><time>2017-9-19T7:2:27Z</time></trkpt>
<trkpt lat="48.439067" lon="2.723377"><ele></ele><time>2017-9-19T7:2:30Z</time></trkpt>
<trkpt lat="48.439065" lon="2.723378"><ele></ele><time>2017-9-19T7:2:33Z</time></trkpt>
<trkpt lat="48.439060" lon="2.723380"><ele></ele><time>2017-9-19T7:2:36Z</time></trkpt>
<trkpt lat="48.439057" lon="2.723382"><ele></ele><time>2017-9-19T7:2:39Z</time></trkpt>
<trkpt lat="48.439053" lon="2.723383"><ele></ele><time>2017-9-19T7:2:42Z</time></trkpt>
<trkpt lat="48.439048" lon="2.723385"><ele></ele><time>2017-9-19T7:2:45Z</time></trkpt>
<trkpt lat="48.439045" lon="2.723388"><ele></ele><time>2017-9-19T7:2:48Z</time></trkpt>
<trkpt lat="48.439037" lon="2.723392"><ele></ele><time>2017-9-19T7:2:51Z</time></trkpt>
<trkpt lat="48.439035" lon="2.723393"><ele></ele><time>2017-9-19T7:2:54Z</time></trkpt>
<trkpt lat="48.439031" lon="2.723395"><ele></ele><time>2017-9-19T7:2:57Z</time></trkpt>
<trkpt lat="48.439031" lon="2.723395"><ele></ele><time>2017-9-19T7:3:0Z</time></trkpt>
<trkpt lat="48.439040" lon="2.723392"><ele></ele><time>2017-9-19T7:3:3Z</time></trkpt>
<trkpt lat="48.439057" lon="2.723392"><ele></ele><time>2017-9-19T7:3:6Z</time></trkpt>
<trkpt lat="48.439073" lon="2.723393"><ele></ele><time>2017-9-19T7:3:9Z</time></trkpt>
<trkpt lat="48.439080" lon="2.723395"><ele></ele><time>2017-9-19T7:3:12Z</time></trkpt>
<trkpt lat="48.439083" lon="2.723398"><ele></ele><time>2017-9-19T7:3:15Z</time></trkpt>
<trkpt lat="48.439093" lon="2.723400"><ele></ele><time>2017-9-19T7:3:18Z</time></trkpt>
<trkpt lat="48.439100" lon="2.723402"><ele></ele><time>2017-9-19T7:3:21Z</time></trkpt>
<trkpt lat="48.439100" lon="2.723405"><ele></ele><time>2017-9-19T7:3:24Z</time></trkpt>
<trkpt lat="48.439101" lon="2.723407"><ele></ele><time>2017-9-19T7:3:27Z</time></trkpt>
<trkpt lat="48.439101" lon="2.723410"><ele></ele><time>2017-9-19T7:3:30Z</time></trkpt>
<trkpt lat="48.439103" lon="2.723420"><ele></ele><time>2017-9-19T7:3:33Z</time></trkpt>
<trkpt lat="48.439105" lon="2.723422"><ele></ele><time>2017-9-19T7:3:36Z</time></trkpt>
<trkpt lat="48.439107" lon="2.723422"><ele></ele><time>2017-9-19T7:3:39Z</time></trkpt>
<trkpt lat="48.439108" lon="2.723422"><ele></ele><time>2017-9-19T7:3:42Z</time></trkpt>
<trkpt lat="48.439110" lon="2.723422"><ele></ele><time>2017-9-19T7:3:45Z</time></trkpt>
<trkpt lat="48.439113" lon="2.723422"><ele></ele><time>2017-9-19T7:3:48Z</time></trkpt>
<trkpt lat="48.439115" lon="2.723423"><ele></ele><time>2017-9-19T7:3:51Z</time></trkpt>
<trkpt lat="48.439117" lon="2.723425"><ele></ele><time>2017-9-19T7:3:54Z</time></trkpt>
<trkpt lat="48.439118" lon="2.723427"><ele></ele><time>2017-9-19T7:3:57Z</time></trkpt>
<trkpt lat="48.439118" lon="2.723427"><ele></ele><time>2017-9-19T7:4:0Z</time></trkpt>
<trkpt lat="48.439118" lon="2.723428"><ele></ele><time>2017-9-19T7:4:3Z</time></trkpt>
<trkpt lat="48.439118" lon="2.723428"><ele></ele><time>2017-9-19T7:4:6Z</time></trkpt>
<trkpt lat="48.439120" lon="2.723430"><ele></ele><time>2017-9-19T7:4:9Z</time></trkpt>
<trkpt lat="48.439120" lon="2.723430"><ele></ele><time>2017-9-19T7:4:12Z</time></trkpt>
<trkpt lat="48.439120" lon="2.723432"><ele></ele><time>2017-9-19T7:4:15Z</time></trkpt>
<trkpt lat="48.439121" lon="2.723432"><ele></ele><time>2017-9-19T7:4:18Z</time></trkpt>
<trkpt lat="48.439121" lon="2.723432"><ele></ele><time>2017-9-19T7:4:21Z</time></trkpt>
<trkpt lat="48.439121" lon="2.723432"><ele></ele><time>2017-9-19T7:4:24Z</time></trkpt>
<trkpt lat="48.439120" lon="2.723432"><ele></ele><time>2017-9-19T7:4:27Z</time></trkpt>
<trkpt lat="48.439120" lon="2.723432"><ele></ele><time>2017-9-19T7:4:30Z</time></trkpt>
<trkpt lat="48.439108" lon="2.723433"><ele></ele><time>2017-9-19T7:4:33Z</time></trkpt>
<trkpt lat="48.439098" lon="2.723437"><ele></ele><time>2017-9-19T7:4:36Z</time></trkpt>
<trkpt lat="48.439090" lon="2.723438"><ele></ele><time>2017-9-19T7:4:39Z</time></trkpt>
<trkpt lat="48.439076" lon="2.723443"><ele></ele><time>2017-9-19T7:4:42Z</time></trkpt>
<trkpt lat="48.439076" lon="2.723447"><ele></ele><time>2017-9-19T7:4:45Z</time></trkpt>
<trkpt lat="48.439075" lon="2.723450"><ele></ele><time>2017-9-19T7:4:48Z</time></trkpt>
<trkpt lat="48.439071" lon="2.723452"><ele></ele><time>2017-9-19T7:4:51Z</time></trkpt>
<trkpt lat="48.439073" lon="2.723453"><ele></ele><time>2017-9-19T7:4:54Z</time></trkpt>
<trkpt lat="48.439075" lon="2.723452"><ele></ele><time>2017-9-19T7:4:57Z</time></trkpt>
<trkpt lat="48.439076" lon="2.723450"><ele></ele><time>2017-9-19T7:5:0Z</time></trkpt>
<trkpt lat="48.439078" lon="2.723450"><ele></ele><time>2017-9-19T7:5:3Z</time></trkpt>
<trkpt lat="48.439083" lon="2.723447"><ele></ele><time>2017-9-19T7:5:6Z</time></trkpt>
<trkpt lat="48.439087" lon="2.723445"><ele></ele><time>2017-9-19T7:5:9Z</time></trkpt>
<trkpt lat="48.439088" lon="2.723442"><ele></ele><time>2017-9-19T7:5:12Z</time></trkpt>
<trkpt lat="48.439092" lon="2.723440"><ele></ele><time>2017-9-19T7:5:15Z</time></trkpt>
<trkpt lat="48.439078" lon="2.723437"><ele></ele><time>2017-9-19T7:5:18Z</time></trkpt>
<trkpt lat="48.439070" lon="2.723435"><ele></ele><time>2017-9-19T7:5:21Z</time></trkpt>
<trkpt lat="48.439067" lon="2.723438"><ele></ele><time>2017-9-19T7:5:24Z</time></trkpt>
<trkpt lat="48.439065" lon="2.723442"><ele></ele><time>2017-9-19T7:5:27Z</time></trkpt>
<trkpt lat="48.439063" lon="2.723443"><ele></ele><time>2017-9-19T7:5:30Z</time></trkpt>
<trkpt lat="48.439062" lon="2.723445"><ele></ele><time>2017-9-19T7:5:33Z</time></trkpt>
<trkpt lat="48.439060" lon="2.723447"><ele></ele><time>2017-9-19T7:5:36Z</time></trkpt>
<trkpt lat="48.439060" lon="2.723450"><ele></ele><time>2017-9-19T7:5:39Z</time></trkpt>
<trkpt lat="48.439060" lon="2.723452"><ele></ele><time>2017-9-19T7:5:42Z</time></trkpt>
<trkpt lat="48.439062" lon="2.723453"><ele></ele><time>2017-9-19T7:5:45Z</time></trkpt>
<trkpt lat="48.439062" lon="2.723455"><ele></ele><time>2017-9-19T7:5:48Z</time></trkpt>
<trkpt lat="48.439062" lon="2.723457"><ele></ele><time>2017-9-19T7:5:51Z</time></trkpt>
<trkpt lat="48.439062" lon="2.723457"><ele></ele><time>2017-9-19T7:5:54Z</time></trkpt>
<trkpt lat="48.439062" lon="2.723458"><ele></ele><time>2017-9-19T7:5:57Z</time></trkpt>
<trkpt lat="48.439062" lon="2.723458"><ele></ele><time>2017-9-19T7:6:0Z</time></trkpt>
<trkpt lat="48.439060" lon="2.723458"><ele></ele><time>2017-9-19T7:6:3Z</time></trkpt>
<trkpt lat="48.439060" lon="2.723458"><ele></ele><time>2017-9-19T7:6:6Z</time></trkpt>
<trkpt lat="48.439060" lon="2.723457"><ele></ele><time>2017-9-19T7:6:9Z</time></trkpt>
<trkpt lat="48.439058" lon="2.723457"><ele></ele><time>2017-9-19T7:6:12Z</time></trkpt>
<trkpt lat="48.439058" lon="2.723457"><ele></ele><time>2017-9-19T7:6:15Z</time></trkpt>
<trkpt lat="48.439057" lon="2.723457"><ele></ele><time>2017-9-19T7:6:18Z</time></trkpt>
<trkpt lat="48.439055" lon="2.723457"><ele></ele><time>2017-9-19T7:6:21Z</time></trkpt>
<trkpt lat="48.439053" lon="2.723457"><ele></ele><time>2017-9-19T7:6:24Z</time></trkpt>
<trkpt lat="48.439055" lon="2.723457"><ele></ele><time>2017-9-19T7:6:27Z</time></trkpt>
<trkpt lat="48.439053" lon="2.723457"><ele></ele><time>2017-9-19T7:6:30Z</time></trkpt>
<trkpt lat="48.439052" lon="2.723458"><ele></ele><time>2017-9-19T7:6:33Z</time></trkpt>
<trkpt lat="48.439050" lon="2.723460"><ele></ele><time>2017-9-19T7:6:36Z</time></trkpt>
<trkpt lat="48.439043" lon="2.723470"><ele></ele><time>2017-9-19T7:6:39Z</time></trkpt>
<trkpt lat="48.439038" lon="2.723475"><ele></ele><time>2017-9-19T7:6:42Z</time></trkpt>
<trkpt lat="48.439035" lon="2.723483"><ele></ele><time>2017-9-19T7:6:45Z</time></trkpt>
<trkpt lat="48.439028" lon="2.723495"><ele></ele><time>2017-9-19T7:6:48Z</time></trkpt>
<trkpt lat="48.439025" lon="2.723507"><ele></ele><time>2017-9-19T7:6:51Z</time></trkpt>
<trkpt lat="48.439006" lon="2.723548"><ele></ele><time>2017-9-19T7:6:54Z</time></trkpt>
<trkpt lat="48.438992" lon="2.723570"><ele></ele><time>2017-9-19T7:6:57Z</time></trkpt>
<trkpt lat="48.438975" lon="2.723587"><ele></ele><time>2017-9-19T7:7:0Z</time></trkpt>
<trkpt lat="48.438960" lon="2.723593"><ele></ele><time>2017-9-19T7:7:3Z</time></trkpt>
<trkpt lat="48.438940" lon="2.723608"><ele></ele><time>2017-9-19T7:7:6Z</time></trkpt>
<trkpt lat="48.438862" lon="2.723660"><ele></ele><time>2017-9-19T7:7:9Z</time></trkpt>
<trkpt lat="48.438831" lon="2.723660"><ele></ele><time>2017-9-19T7:7:12Z</time></trkpt>
<trkpt lat="48.438805" lon="2.723648"><ele></ele><time>2017-9-19T7:7:15Z</time></trkpt>
<trkpt lat="48.438760" lon="2.723635"><ele></ele><time>2017-9-19T7:7:18Z</time></trkpt>
<trkpt lat="48.438740" lon="2.723645"><ele></ele><time>2017-9-19T7:7:21Z</time></trkpt>
<trkpt lat="48.438720" lon="2.723660"><ele></ele><time>2017-9-19T7:7:24Z</time></trkpt>
<trkpt lat="48.438698" lon="2.723670"><ele></ele><time>2017-9-19T7:7:27Z</time></trkpt>
<trkpt lat="48.438677" lon="2.723675"><ele></ele><time>2017-9-19T7:7:30Z</time></trkpt>
<trkpt lat="48.438653" lon="2.723675"><ele></ele><time>2017-9-19T7:7:33Z</time></trkpt>
<trkpt lat="48.438630" lon="2.723672"><ele></ele><time>2017-9-19T7:7:36Z</time></trkpt>
<trkpt lat="48.438556" lon="2.723657"><ele></ele><time>2017-9-19T7:7:39Z</time></trkpt>
<trkpt lat="48.438537" lon="2.723642"><ele></ele><time>2017-9-19T7:7:42Z</time></trkpt>
<trkpt lat="48.438518" lon="2.723622"><ele></ele><time>2017-9-19T7:7:45Z</time></trkpt>
<trkpt lat="48.438496" lon="2.723612"><ele></ele><time>2017-9-19T7:7:48Z</time></trkpt>
<trkpt lat="48.438477" lon="2.723610"><ele></ele><time>2017-9-19T7:7:51Z</time></trkpt>
<trkpt lat="48.438462" lon="2.723610"><ele></ele><time>2017-9-19T7:7:54Z</time></trkpt>
<trkpt lat="48.438450" lon="2.723607"><ele></ele><time>2017-9-19T7:7:57Z</time></trkpt>
<trkpt lat="48.438437" lon="2.723602"><ele></ele><time>2017-9-19T7:8:0Z</time></trkpt>
<trkpt lat="48.438420" lon="2.723598"><ele></ele><time>2017-9-19T7:8:3Z</time></trkpt>
<trkpt lat="48.438405" lon="2.723592"><ele></ele><time>2017-9-19T7:8:6Z</time></trkpt>
<trkpt lat="48.438388" lon="2.723575"><ele></ele><time>2017-9-19T7:8:9Z</time></trkpt>
<trkpt lat="48.438373" lon="2.723562"><ele></ele><time>2017-9-19T7:8:12Z</time></trkpt>
<trkpt lat="48.438352" lon="2.723548"><ele></ele><time>2017-9-19T7:8:15Z</time></trkpt>
<trkpt lat="48.438330" lon="2.723540"><ele></ele><time>2017-9-19T7:8:18Z</time></trkpt>
<trkpt lat="48.438245" lon="2.723482"><ele></ele><time>2017-9-19T7:8:21Z</time></trkpt>
<trkpt lat="48.438223" lon="2.723472"><ele></ele><time>2017-9-19T7:8:24Z</time></trkpt>
<trkpt lat="48.438197" lon="2.723468"><ele></ele><time>2017-9-19T7:8:27Z</time></trkpt>
<trkpt lat="48.438178" lon="2.723470"><ele></ele><time>2017-9-19T7:8:30Z</time></trkpt>
<trkpt lat="48.438142" lon="2.723470"><ele></ele><time>2017-9-19T7:8:33Z</time></trkpt>
<trkpt lat="48.438123" lon="2.723465"><ele></ele><time>2017-9-19T7:8:36Z</time></trkpt>
<trkpt lat="48.438110" lon="2.723457"><ele></ele><time>2017-9-19T7:8:39Z</time></trkpt>
<trkpt lat="48.438038" lon="2.723405"><ele></ele><time>2017-9-19T7:8:42Z</time></trkpt>
<trkpt lat="48.438023" lon="2.723402"><ele></ele><time>2017-9-19T7:8:45Z</time></trkpt>
<trkpt lat="48.437995" lon="2.723395"><ele></ele><time>2017-9-19T7:8:48Z</time></trkpt>
<trkpt lat="48.437985" lon="2.723388"><ele></ele><time>2017-9-19T7:8:51Z</time></trkpt>
<trkpt lat="48.437966" lon="2.723367"><ele></ele><time>2017-9-19T7:8:54Z</time></trkpt>
<trkpt lat="48.437960" lon="2.723358"><ele></ele><time>2017-9-19T7:8:57Z</time></trkpt>
<trkpt lat="48.437955" lon="2.723347"><ele></ele><time>2017-9-19T7:9:0Z</time></trkpt>
<trkpt lat="48.437942" lon="2.723325"><ele></ele><time>2017-9-19T7:9:3Z</time></trkpt>
<trkpt lat="48.437932" lon="2.723318"><ele></ele><time>2017-9-19T7:9:6Z</time></trkpt>
<trkpt lat="48.437922" lon="2.723315"><ele></ele><time>2017-9-19T7:9:9Z</time></trkpt>
<trkpt lat="48.437908" lon="2.723310"><ele></ele><time>2017-9-19T7:9:12Z</time></trkpt>
<trkpt lat="48.437893" lon="2.723308"><ele></ele><time>2017-9-19T7:9:15Z</time></trkpt>
<trkpt lat="48.437880" lon="2.723307"><ele></ele><time>2017-9-19T7:9:18Z</time></trkpt>
<trkpt lat="48.437872" lon="2.723310"><ele></ele><time>2017-9-19T7:9:21Z</time></trkpt>
<trkpt lat="48.437855" lon="2.723317"><ele></ele><time>2017-9-19T7:9:24Z</time></trkpt>
<trkpt lat="48.437845" lon="2.723320"><ele></ele><time>2017-9-19T7:9:27Z</time></trkpt>
<trkpt lat="48.437832" lon="2.723320"><ele></ele><time>2017-9-19T7:9:30Z</time></trkpt>
<trkpt lat="48.437818" lon="2.723317"><ele></ele><time>2017-9-19T7:9:33Z</time></trkpt>
<trkpt lat="48.437793" lon="2.723303"><ele></ele><time>2017-9-19T7:9:36Z</time></trkpt>
<trkpt lat="48.437781" lon="2.723293"><ele></ele><time>2017-9-19T7:9:39Z</time></trkpt>
<trkpt lat="48.437758" lon="2.723273"><ele></ele><time>2017-9-19T7:9:42Z</time></trkpt>
<trkpt lat="48.437743" lon="2.723275"><ele></ele><time>2017-9-19T7:9:45Z</time></trkpt>
<trkpt lat="48.437730" lon="2.723282"><ele></ele><time>2017-9-19T7:9:48Z</time></trkpt>
<trkpt lat="48.437713" lon="2.723287"><ele></ele><time>2017-9-19T7:9:51Z</time></trkpt>
<trkpt lat="48.437672" lon="2.723302"><ele></ele><time>2017-9-19T7:9:54Z</time></trkpt>
<trkpt lat="48.437652" lon="2.723323"><ele></ele><time>2017-9-19T7:9:57Z</time></trkpt>
<trkpt lat="48.437640" lon="2.723350"><ele></ele><time>2017-9-19T7:10:0Z</time></trkpt>
<trkpt lat="48.437598" lon="2.723423"><ele></ele><time>2017-9-19T7:10:3Z</time></trkpt>
<trkpt lat="48.437585" lon="2.723442"><ele></ele><time>2017-9-19T7:10:6Z</time></trkpt>
<trkpt lat="48.437568" lon="2.723473"><ele></ele><time>2017-9-19T7:10:9Z</time></trkpt>
<trkpt lat="48.437558" lon="2.723508"><ele></ele><time>2017-9-19T7:10:12Z</time></trkpt>
<trkpt lat="48.437548" lon="2.723547"><ele></ele><time>2017-9-19T7:10:15Z</time></trkpt>
<trkpt lat="48.437530" lon="2.723618"><ele></ele><time>2017-9-19T7:10:18Z</time></trkpt>
<trkpt lat="48.437522" lon="2.723655"><ele></ele><time>2017-9-19T7:10:21Z</time></trkpt>
<trkpt lat="48.437523" lon="2.723683"><ele></ele><time>2017-9-19T7:10:24Z</time></trkpt>
<trkpt lat="48.437528" lon="2.723707"><ele></ele><time>2017-9-19T7:10:27Z</time></trkpt>
<trkpt lat="48.437537" lon="2.723733"><ele></ele><time>2017-9-19T7:10:30Z</time></trkpt>
<trkpt lat="48.437553" lon="2.723748"><ele></ele><time>2017-9-19T7:10:33Z</time></trkpt>
<trkpt lat="48.437568" lon="2.723760"><ele></ele><time>2017-9-19T7:10:36Z</time></trkpt>
<trkpt lat="48.437587" lon="2.723768"><ele></ele><time>2017-9-19T7:10:39Z</time></trkpt>
<trkpt lat="48.437607" lon="2.723772"><ele></ele><time>2017-9-19T7:10:42Z</time></trkpt>
<trkpt lat="48.437625" lon="2.723770"><ele></ele><time>2017-9-19T7:10:45Z</time></trkpt>
<trkpt lat="48.437640" lon="2.723772"><ele></ele><time>2017-9-19T7:10:48Z</time></trkpt>
<trkpt lat="48.437652" lon="2.723775"><ele></ele><time>2017-9-19T7:10:51Z</time></trkpt>
<trkpt lat="48.437691" lon="2.723780"><ele></ele><time>2017-9-19T7:10:54Z</time></trkpt>
<trkpt lat="48.437698" lon="2.723785"><ele></ele><time>2017-9-19T7:10:57Z</time></trkpt>
<trkpt lat="48.437707" lon="2.723798"><ele></ele><time>2017-9-19T7:11:0Z</time></trkpt>
<trkpt lat="48.437708" lon="2.723807"><ele></ele><time>2017-9-19T7:11:3Z</time></trkpt>
<trkpt lat="48.437703" lon="2.723808"><ele></ele><time>2017-9-19T7:11:6Z</time></trkpt>
<trkpt lat="48.437703" lon="2.723815"><ele></ele><time>2017-9-19T7:11:9Z</time></trkpt>
<trkpt lat="48.437708" lon="2.723908"><ele></ele><time>2017-9-19T7:11:12Z</time></trkpt>
<trkpt lat="48.437711" lon="2.723948"><ele></ele><time>2017-9-19T7:11:15Z</time></trkpt>
<trkpt lat="48.437710" lon="2.723985"><ele></ele><time>2017-9-19T7:11:18Z</time></trkpt>
<trkpt lat="48.437705" lon="2.724023"><ele></ele><time>2017-9-19T7:11:21Z</time></trkpt>
<trkpt lat="48.437703" lon="2.724055"><ele></ele><time>2017-9-19T7:11:24Z</time></trkpt>
<trkpt lat="48.437707" lon="2.724085"><ele></ele><time>2017-9-19T7:11:27Z</time></trkpt>
<trkpt lat="48.437718" lon="2.724140"><ele></ele><time>2017-9-19T7:11:30Z</time></trkpt>
<trkpt lat="48.437728" lon="2.724170"><ele></ele><time>2017-9-19T7:11:33Z</time></trkpt>
<trkpt lat="48.437736" lon="2.724200"><ele></ele><time>2017-9-19T7:11:36Z</time></trkpt>
<trkpt lat="48.437735" lon="2.724232"><ele></ele><time>2017-9-19T7:11:39Z</time></trkpt>
<trkpt lat="48.437725" lon="2.724340"><ele></ele><time>2017-9-19T7:11:42Z</time></trkpt>
<trkpt lat="48.437725" lon="2.724388"><ele></ele><time>2017-9-19T7:11:45Z</time></trkpt>
<trkpt lat="48.437732" lon="2.724410"><ele></ele><time>2017-9-19T7:11:48Z</time></trkpt>
<trkpt lat="48.437742" lon="2.724455"><ele></ele><time>2017-9-19T7:11:51Z</time></trkpt>
<trkpt lat="48.437743" lon="2.724477"><ele></ele><time>2017-9-19T7:11:54Z</time></trkpt>
<trkpt lat="48.437745" lon="2.724525"><ele></ele><time>2017-9-19T7:11:57Z</time></trkpt>
<trkpt lat="48.437742" lon="2.724552"><ele></ele><time>2017-9-19T7:12:0Z</time></trkpt>
<trkpt lat="48.437730" lon="2.724622"><ele></ele><time>2017-9-19T7:12:3Z</time></trkpt>
<trkpt lat="48.437735" lon="2.724645"><ele></ele><time>2017-9-19T7:12:6Z</time></trkpt>
<trkpt lat="48.437743" lon="2.724658"><ele></ele><time>2017-9-19T7:12:9Z</time></trkpt>
<trkpt lat="48.437751" lon="2.724673"><ele></ele><time>2017-9-19T7:12:12Z</time></trkpt>
<trkpt lat="48.437763" lon="2.724692"><ele></ele><time>2017-9-19T7:12:15Z</time></trkpt>
<trkpt lat="48.437768" lon="2.724710"><ele></ele><time>2017-9-19T7:12:18Z</time></trkpt>
<trkpt lat="48.437770" lon="2.724735"><ele></ele><time>2017-9-19T7:12:21Z</time></trkpt>
<trkpt lat="48.437776" lon="2.724812"><ele></ele><time>2017-9-19T7:12:24Z</time></trkpt>
<trkpt lat="48.437775" lon="2.724828"><ele></ele><time>2017-9-19T7:12:27Z</time></trkpt>
<trkpt lat="48.437776" lon="2.724843"><ele></ele><time>2017-9-19T7:12:30Z</time></trkpt>
<trkpt lat="48.437776" lon="2.724847"><ele></ele><time>2017-9-19T7:12:33Z</time></trkpt>
<trkpt lat="48.437775" lon="2.724850"><ele></ele><time>2017-9-19T7:12:36Z</time></trkpt>
<trkpt lat="48.437771" lon="2.724850"><ele></ele><time>2017-9-19T7:12:39Z</time></trkpt>
<trkpt lat="48.437767" lon="2.724853"><ele></ele><time>2017-9-19T7:12:42Z</time></trkpt>
<trkpt lat="48.437765" lon="2.724855"><ele></ele><time>2017-9-19T7:12:45Z</time></trkpt>
<trkpt lat="48.437765" lon="2.724855"><ele></ele><time>2017-9-19T7:12:48Z</time></trkpt>
<trkpt lat="48.437765" lon="2.724857"><ele></ele><time>2017-9-19T7:12:51Z</time></trkpt>
<trkpt lat="48.437763" lon="2.724857"><ele></ele><time>2017-9-19T7:12:54Z</time></trkpt>
<trkpt lat="48.437757" lon="2.724853"><ele></ele><time>2017-9-19T7:12:57Z</time></trkpt>
<trkpt lat="48.437747" lon="2.724845"><ele></ele><time>2017-9-19T7:13:0Z</time></trkpt>
<trkpt lat="48.437733" lon="2.724840"><ele></ele><time>2017-9-19T7:13:3Z</time></trkpt>
<trkpt lat="48.437722" lon="2.724838"><ele></ele><time>2017-9-19T7:13:6Z</time></trkpt>
<trkpt lat="48.437710" lon="2.724842"><ele></ele><time>2017-9-19T7:13:9Z</time></trkpt>
<trkpt lat="48.437703" lon="2.724847"><ele></ele><time>2017-9-19T7:13:12Z</time></trkpt>
<trkpt lat="48.437695" lon="2.724857"><ele></ele><time>2017-9-19T7:13:15Z</time></trkpt>
<trkpt lat="48.437675" lon="2.724893"><ele></ele><time>2017-9-19T7:13:18Z</time></trkpt>
<trkpt lat="48.437670" lon="2.724912"><ele></ele><time>2017-9-19T7:13:21Z</time></trkpt>
<trkpt lat="48.437668" lon="2.724930"><ele></ele><time>2017-9-19T7:13:24Z</time></trkpt>
<trkpt lat="48.437668" lon="2.724950"><ele></ele><time>2017-9-19T7:13:27Z</time></trkpt>
<trkpt lat="48.437665" lon="2.725008"><ele></ele><time>2017-9-19T7:13:30Z</time></trkpt>
<trkpt lat="48.437658" lon="2.725027"><ele></ele><time>2017-9-19T7:13:33Z</time></trkpt>
<trkpt lat="48.437650" lon="2.725042"><ele></ele><time>2017-9-19T7:13:36Z</time></trkpt>
<trkpt lat="48.437643" lon="2.725063"><ele></ele><time>2017-9-19T7:13:39Z</time></trkpt>
<trkpt lat="48.437642" lon="2.725090"><ele></ele><time>2017-9-19T7:13:42Z</time></trkpt>
<trkpt lat="48.437643" lon="2.725177"><ele></ele><time>2017-9-19T7:13:45Z</time></trkpt>
<trkpt lat="48.437648" lon="2.725198"><ele></ele><time>2017-9-19T7:13:48Z</time></trkpt>
<trkpt lat="48.437650" lon="2.725222"><ele></ele><time>2017-9-19T7:13:51Z</time></trkpt>
<trkpt lat="48.437645" lon="2.725255"><ele></ele><time>2017-9-19T7:13:54Z</time></trkpt>
<trkpt lat="48.437633" lon="2.725293"><ele></ele><time>2017-9-19T7:13:57Z</time></trkpt>
<trkpt lat="48.437617" lon="2.725317"><ele></ele><time>2017-9-19T7:14:0Z</time></trkpt>
<trkpt lat="48.437596" lon="2.725335"><ele></ele><time>2017-9-19T7:14:3Z</time></trkpt>
<trkpt lat="48.437557" lon="2.725375"><ele></ele><time>2017-9-19T7:14:6Z</time></trkpt>
<trkpt lat="48.437525" lon="2.725392"><ele></ele><time>2017-9-19T7:14:9Z</time></trkpt>
<trkpt lat="48.437500" lon="2.725398"><ele></ele><time>2017-9-19T7:14:12Z</time></trkpt>
<trkpt lat="48.437472" lon="2.725403"><ele></ele><time>2017-9-19T7:14:15Z</time></trkpt>
<trkpt lat="48.437455" lon="2.725420"><ele></ele><time>2017-9-19T7:14:18Z</time></trkpt>
<trkpt lat="48.437440" lon="2.725442"><ele></ele><time>2017-9-19T7:14:21Z</time></trkpt>
<trkpt lat="48.437428" lon="2.725458"><ele></ele><time>2017-9-19T7:14:24Z</time></trkpt>
<trkpt lat="48.437400" lon="2.725493"><ele></ele><time>2017-9-19T7:14:27Z</time></trkpt>
<trkpt lat="48.437383" lon="2.725502"><ele></ele><time>2017-9-19T7:14:30Z</time></trkpt>
<trkpt lat="48.437375" lon="2.725503"><ele></ele><time>2017-9-19T7:14:33Z</time></trkpt>
<trkpt lat="48.437367" lon="2.725512"><ele></ele><time>2017-9-19T7:14:36Z</time></trkpt>
<trkpt lat="48.437350" lon="2.725530"><ele></ele><time>2017-9-19T7:14:39Z</time></trkpt>
<trkpt lat="48.437338" lon="2.725530"><ele></ele><time>2017-9-19T7:14:42Z</time></trkpt>
<trkpt lat="48.437327" lon="2.725525"><ele></ele><time>2017-9-19T7:14:45Z</time></trkpt>
<trkpt lat="48.437320" lon="2.725520"><ele></ele><time>2017-9-19T7:14:48Z</time></trkpt>
<trkpt lat="48.437313" lon="2.725523"><ele></ele><time>2017-9-19T7:14:51Z</time></trkpt>
<trkpt lat="48.437310" lon="2.725535"><ele></ele><time>2017-9-19T7:14:54Z</time></trkpt>
<trkpt lat="48.437300" lon="2.725570"><ele></ele><time>2017-9-19T7:14:57Z</time></trkpt>
<trkpt lat="48.437288" lon="2.725588"><ele></ele><time>2017-9-19T7:15:0Z</time></trkpt>
<trkpt lat="48.437268" lon="2.725625"><ele></ele><time>2017-9-19T7:15:3Z</time></trkpt>
<trkpt lat="48.437270" lon="2.725647"><ele></ele><time>2017-9-19T7:15:6Z</time></trkpt>
<trkpt lat="48.437270" lon="2.725702"><ele></ele><time>2017-9-19T7:15:9Z</time></trkpt>
<trkpt lat="48.437260" lon="2.725717"><ele></ele><time>2017-9-19T7:15:12Z</time></trkpt>
<trkpt lat="48.437253" lon="2.725727"><ele></ele><time>2017-9-19T7:15:15Z</time></trkpt>
<trkpt lat="48.437245" lon="2.725735"><ele></ele><time>2017-9-19T7:15:18Z</time></trkpt>
<trkpt lat="48.437235" lon="2.725752"><ele></ele><time>2017-9-19T7:15:21Z</time></trkpt>
<trkpt lat="48.437227" lon="2.725773"><ele></ele><time>2017-9-19T7:15:24Z</time></trkpt>
<trkpt lat="48.437220" lon="2.725793"><ele></ele><time>2017-9-19T7:15:27Z</time></trkpt>
<trkpt lat="48.437198" lon="2.725828"><ele></ele><time>2017-9-19T7:15:30Z</time></trkpt>
<trkpt lat="48.437188" lon="2.725842"><ele></ele><time>2017-9-19T7:15:33Z</time></trkpt>
<trkpt lat="48.437178" lon="2.725867"><ele></ele><time>2017-9-19T7:15:36Z</time></trkpt>
<trkpt lat="48.437166" lon="2.725900"><ele></ele><time>2017-9-19T7:15:39Z</time></trkpt>
<trkpt lat="48.437158" lon="2.725932"><ele></ele><time>2017-9-19T7:15:42Z</time></trkpt>
<trkpt lat="48.437153" lon="2.725967"><ele></ele><time>2017-9-19T7:15:45Z</time></trkpt>
<trkpt lat="48.437155" lon="2.726005"><ele></ele><time>2017-9-19T7:15:48Z</time></trkpt>
<trkpt lat="48.437153" lon="2.726058"><ele></ele><time>2017-9-19T7:15:51Z</time></trkpt>
<trkpt lat="48.437152" lon="2.726123"><ele></ele><time>2017-9-19T7:15:54Z</time></trkpt>
<trkpt lat="48.437155" lon="2.726158"><ele></ele><time>2017-9-19T7:15:57Z</time></trkpt>
<trkpt lat="48.437158" lon="2.726212"><ele></ele><time>2017-9-19T7:16:0Z</time></trkpt>
<trkpt lat="48.437150" lon="2.726247"><ele></ele><time>2017-9-19T7:16:3Z</time></trkpt>
<trkpt lat="48.437145" lon="2.726287"><ele></ele><time>2017-9-19T7:16:6Z</time></trkpt>
<trkpt lat="48.437138" lon="2.726333"><ele></ele><time>2017-9-19T7:16:9Z</time></trkpt>
<trkpt lat="48.437142" lon="2.726375"><ele></ele><time>2017-9-19T7:16:12Z</time></trkpt>
<trkpt lat="48.437150" lon="2.726407"><ele></ele><time>2017-9-19T7:16:15Z</time></trkpt>
<trkpt lat="48.437160" lon="2.726473"><ele></ele><time>2017-9-19T7:16:18Z</time></trkpt>
<trkpt lat="48.437160" lon="2.726498"><ele></ele><time>2017-9-19T7:16:21Z</time></trkpt>
<trkpt lat="48.437162" lon="2.726520"><ele></ele><time>2017-9-19T7:16:24Z</time></trkpt>
<trkpt lat="48.437168" lon="2.726543"><ele></ele><time>2017-9-19T7:16:27Z</time></trkpt>
<trkpt lat="48.437180" lon="2.726595"><ele></ele><time>2017-9-19T7:16:30Z</time></trkpt>
<trkpt lat="48.437196" lon="2.726618"><ele></ele><time>2017-9-19T7:16:33Z</time></trkpt>
<trkpt lat="48.437217" lon="2.726637"><ele></ele><time>2017-9-19T7:16:36Z</time></trkpt>
<trkpt lat="48.437235" lon="2.726655"><ele></ele><time>2017-9-19T7:16:39Z</time></trkpt>
<trkpt lat="48.437250" lon="2.726680"><ele></ele><time>2017-9-19T7:16:42Z</time></trkpt>
<trkpt lat="48.437258" lon="2.726713"><ele></ele><time>2017-9-19T7:16:45Z</time></trkpt>
<trkpt lat="48.437258" lon="2.726747"><ele></ele><time>2017-9-19T7:16:48Z</time></trkpt>
<trkpt lat="48.437243" lon="2.726772"><ele></ele><time>2017-9-19T7:16:51Z</time></trkpt>
<trkpt lat="48.437227" lon="2.726787"><ele></ele><time>2017-9-19T7:16:54Z</time></trkpt>
<trkpt lat="48.437217" lon="2.726788"><ele></ele><time>2017-9-19T7:16:57Z</time></trkpt>
<trkpt lat="48.437208" lon="2.726790"><ele></ele><time>2017-9-19T7:17:0Z</time></trkpt>
<trkpt lat="48.437203" lon="2.726795"><ele></ele><time>2017-9-19T7:17:3Z</time></trkpt>
<trkpt lat="48.437196" lon="2.726805"><ele></ele><time>2017-9-19T7:17:6Z</time></trkpt>
<trkpt lat="48.437185" lon="2.726807"><ele></ele><time>2017-9-19T7:17:9Z</time></trkpt>
<trkpt lat="48.437182" lon="2.726813"><ele></ele><time>2017-9-19T7:17:12Z</time></trkpt>
<trkpt lat="48.437180" lon="2.726828"><ele></ele><time>2017-9-19T7:17:15Z</time></trkpt>
<trkpt lat="48.437173" lon="2.726850"><ele></ele><time>2017-9-19T7:17:18Z</time></trkpt>
<trkpt lat="48.437163" lon="2.726903"><ele></ele><time>2017-9-19T7:17:21Z</time></trkpt>
<trkpt lat="48.437165" lon="2.726938"><ele></ele><time>2017-9-19T7:17:24Z</time></trkpt>
<trkpt lat="48.437173" lon="2.726967"><ele></ele><time>2017-9-19T7:17:27Z</time></trkpt>
<trkpt lat="48.437178" lon="2.726992"><ele></ele><time>2017-9-19T7:17:30Z</time></trkpt>
<trkpt lat="48.437175" lon="2.727013"><ele></ele><time>2017-9-19T7:17:33Z</time></trkpt>
<trkpt lat="48.437168" lon="2.727022"><ele></ele><time>2017-9-19T7:17:36Z</time></trkpt>
<trkpt lat="48.437158" lon="2.727027"><ele></ele><time>2017-9-19T7:17:39Z</time></trkpt>
<trkpt lat="48.437152" lon="2.727033"><ele></ele><time>2017-9-19T7:17:42Z</time></trkpt>
<trkpt lat="48.437146" lon="2.727040"><ele></ele><time>2017-9-19T7:17:45Z</time></trkpt>
<trkpt lat="48.437137" lon="2.727057"><ele></ele><time>2017-9-19T7:17:48Z</time></trkpt>
<trkpt lat="48.437117" lon="2.727090"><ele></ele><time>2017-9-19T7:17:51Z</time></trkpt>
<trkpt lat="48.437093" lon="2.727128"><ele></ele><time>2017-9-19T7:17:54Z</time></trkpt>
<trkpt lat="48.437081" lon="2.727153"><ele></ele><time>2017-9-19T7:17:57Z</time></trkpt>
<trkpt lat="48.437042" lon="2.727233"><ele></ele><time>2017-9-19T7:18:0Z</time></trkpt>
<trkpt lat="48.437023" lon="2.727253"><ele></ele><time>2017-9-19T7:18:3Z</time></trkpt>
<trkpt lat="48.437013" lon="2.727282"><ele></ele><time>2017-9-19T7:18:6Z</time></trkpt>
<trkpt lat="48.437008" lon="2.727317"><ele></ele><time>2017-9-19T7:18:9Z</time></trkpt>
<trkpt lat="48.437012" lon="2.727352"><ele></ele><time>2017-9-19T7:18:12Z</time></trkpt>
<trkpt lat="48.437022" lon="2.727395"><ele></ele><time>2017-9-19T7:18:15Z</time></trkpt>
<trkpt lat="48.437038" lon="2.727427"><ele></ele><time>2017-9-19T7:18:18Z</time></trkpt>
<trkpt lat="48.437052" lon="2.727457"><ele></ele><time>2017-9-19T7:18:21Z</time></trkpt>
<trkpt lat="48.437055" lon="2.727488"><ele></ele><time>2017-9-19T7:18:24Z</time></trkpt>
<trkpt lat="48.437047" lon="2.727528"><ele></ele><time>2017-9-19T7:18:27Z</time></trkpt>
<trkpt lat="48.437005" lon="2.727665"><ele></ele><time>2017-9-19T7:18:30Z</time></trkpt>
<trkpt lat="48.436923" lon="2.727887"><ele></ele><time>2017-9-19T7:18:33Z</time></trkpt>
<trkpt lat="48.436897" lon="2.727907"><ele></ele><time>2017-9-19T7:18:36Z</time></trkpt>
<trkpt lat="48.436867" lon="2.727917"><ele></ele><time>2017-9-19T7:18:39Z</time></trkpt>
<trkpt lat="48.436840" lon="2.727920"><ele></ele><time>2017-9-19T7:18:42Z</time></trkpt>
<trkpt lat="48.436773" lon="2.727918"><ele></ele><time>2017-9-19T7:18:45Z</time></trkpt>
<trkpt lat="48.436735" lon="2.727907"><ele></ele><time>2017-9-19T7:18:48Z</time></trkpt>
<trkpt lat="48.436652" lon="2.727860"><ele></ele><time>2017-9-19T7:18:51Z</time></trkpt>
<trkpt lat="48.436433" lon="2.727742"><ele></ele><time>2017-9-19T7:18:54Z</time></trkpt>
<trkpt lat="48.436140" lon="2.727612"><ele></ele><time>2017-9-19T7:18:57Z</time></trkpt>
<trkpt lat="48.436092" lon="2.727595"><ele></ele><time>2017-9-19T7:19:0Z</time></trkpt>
<trkpt lat="48.436051" lon="2.727588"><ele></ele><time>2017-9-19T7:19:3Z</time></trkpt>
<trkpt lat="48.436022" lon="2.727592"><ele></ele><time>2017-9-19T7:19:6Z</time></trkpt>
<trkpt lat="48.436000" lon="2.727600"><ele></ele><time>2017-9-19T7:19:9Z</time></trkpt>
<trkpt lat="48.435986" lon="2.727607"><ele></ele><time>2017-9-19T7:19:12Z</time></trkpt>
<trkpt lat="48.435940" lon="2.727615"><ele></ele><time>2017-9-19T7:19:15Z</time></trkpt>
<trkpt lat="48.435915" lon="2.727605"><ele></ele><time>2017-9-19T7:19:18Z</time></trkpt>
<trkpt lat="48.435860" lon="2.727575"><ele></ele><time>2017-9-19T7:19:21Z</time></trkpt>
<trkpt lat="48.435828" lon="2.727552"><ele></ele><time>2017-9-19T7:19:24Z</time></trkpt>
<trkpt lat="48.435805" lon="2.727523"><ele></ele><time>2017-9-19T7:19:27Z</time></trkpt>
<trkpt lat="48.435797" lon="2.727518"><ele></ele><time>2017-9-19T7:19:30Z</time></trkpt>
<trkpt lat="48.435788" lon="2.727515"><ele></ele><time>2017-9-19T7:19:33Z</time></trkpt>
<trkpt lat="48.435761" lon="2.727503"><ele></ele><time>2017-9-19T7:19:36Z</time></trkpt>
<trkpt lat="48.435742" lon="2.727495"><ele></ele><time>2017-9-19T7:19:39Z</time></trkpt>
<trkpt lat="48.435730" lon="2.727480"><ele></ele><time>2017-9-19T7:19:42Z</time></trkpt>
<trkpt lat="48.435722" lon="2.727472"><ele></ele><time>2017-9-19T7:19:45Z</time></trkpt>
<trkpt lat="48.435700" lon="2.727450"><ele></ele><time>2017-9-19T7:19:48Z</time></trkpt>
<trkpt lat="48.435690" lon="2.727445"><ele></ele><time>2017-9-19T7:19:51Z</time></trkpt>
<trkpt lat="48.435682" lon="2.727442"><ele></ele><time>2017-9-19T7:19:54Z</time></trkpt>
<trkpt lat="48.435671" lon="2.727442"><ele></ele><time>2017-9-19T7:19:57Z</time></trkpt>
<trkpt lat="48.435663" lon="2.727443"><ele></ele><time>2017-9-19T7:20:0Z</time></trkpt>
<trkpt lat="48.435640" lon="2.727450"><ele></ele><time>2017-9-19T7:20:3Z</time></trkpt>
<trkpt lat="48.435630" lon="2.727448"><ele></ele><time>2017-9-19T7:20:6Z</time></trkpt>
<trkpt lat="48.435622" lon="2.727442"><ele></ele><time>2017-9-19T7:20:9Z</time></trkpt>
<trkpt lat="48.435618" lon="2.727438"><ele></ele><time>2017-9-19T7:20:12Z</time></trkpt>
<trkpt lat="48.435613" lon="2.727437"><ele></ele><time>2017-9-19T7:20:15Z</time></trkpt>
<trkpt lat="48.435612" lon="2.727430"><ele></ele><time>2017-9-19T7:20:18Z</time></trkpt>
<trkpt lat="48.435610" lon="2.727423"><ele></ele><time>2017-9-19T7:20:21Z</time></trkpt>
<trkpt lat="48.435608" lon="2.727415"><ele></ele><time>2017-9-19T7:20:24Z</time></trkpt>
<trkpt lat="48.435605" lon="2.727412"><ele></ele><time>2017-9-19T7:20:27Z</time></trkpt>
<trkpt lat="48.435598" lon="2.727413"><ele></ele><time>2017-9-19T7:20:30Z</time></trkpt>
<trkpt lat="48.435593" lon="2.727415"><ele></ele><time>2017-9-19T7:20:33Z</time></trkpt>
<trkpt lat="48.435588" lon="2.727415"><ele></ele><time>2017-9-19T7:20:36Z</time></trkpt>
<trkpt lat="48.435585" lon="2.727407"><ele></ele><time>2017-9-19T7:20:39Z</time></trkpt>
<trkpt lat="48.435583" lon="2.727403"><ele></ele><time>2017-9-19T7:20:42Z</time></trkpt>
<trkpt lat="48.435583" lon="2.727398"><ele></ele><time>2017-9-19T7:20:45Z</time></trkpt>
<trkpt lat="48.435583" lon="2.727392"><ele></ele><time>2017-9-19T7:20:48Z</time></trkpt>
<trkpt lat="48.435583" lon="2.727387"><ele></ele><time>2017-9-19T7:20:51Z</time></trkpt>
<trkpt lat="48.435581" lon="2.727382"><ele></ele><time>2017-9-19T7:20:54Z</time></trkpt>
<trkpt lat="48.435578" lon="2.727375"><ele></ele><time>2017-9-19T7:20:57Z</time></trkpt>
<trkpt lat="48.435572" lon="2.727370"><ele></ele><time>2017-9-19T7:21:0Z</time></trkpt>
<trkpt lat="48.435573" lon="2.727358"><ele></ele><time>2017-9-19T7:21:3Z</time></trkpt>
<trkpt lat="48.435573" lon="2.727350"><ele></ele><time>2017-9-19T7:21:6Z</time></trkpt>
<trkpt lat="48.435575" lon="2.727342"><ele></ele><time>2017-9-19T7:21:9Z</time></trkpt>
<trkpt lat="48.435575" lon="2.727333"><ele></ele><time>2017-9-19T7:21:12Z</time></trkpt>
<trkpt lat="48.435573" lon="2.727322"><ele></ele><time>2017-9-19T7:21:15Z</time></trkpt>
<trkpt lat="48.435573" lon="2.727310"><ele></ele><time>2017-9-19T7:21:18Z</time></trkpt>
<trkpt lat="48.435570" lon="2.727297"><ele></ele><time>2017-9-19T7:21:21Z</time></trkpt>
<trkpt lat="48.435563" lon="2.727287"><ele></ele><time>2017-9-19T7:21:24Z</time></trkpt>
<trkpt lat="48.435556" lon="2.727278"><ele></ele><time>2017-9-19T7:21:27Z</time></trkpt>
<trkpt lat="48.435552" lon="2.727272"><ele></ele><time>2017-9-19T7:21:30Z</time></trkpt>
<trkpt lat="48.435548" lon="2.727262"><ele></ele><time>2017-9-19T7:21:33Z</time></trkpt>
<trkpt lat="48.435545" lon="2.727247"><ele></ele><time>2017-9-19T7:21:36Z</time></trkpt>
<trkpt lat="48.435545" lon="2.727232"><ele></ele><time>2017-9-19T7:21:39Z</time></trkpt>
<trkpt lat="48.435545" lon="2.727222"><ele></ele><time>2017-9-19T7:21:42Z</time></trkpt>
<trkpt lat="48.435545" lon="2.727202"><ele></ele><time>2017-9-19T7:21:45Z</time></trkpt>
<trkpt lat="48.435543" lon="2.727197"><ele></ele><time>2017-9-19T7:21:48Z</time></trkpt>
<trkpt lat="48.435542" lon="2.727195"><ele></ele><time>2017-9-19T7:21:51Z</time></trkpt>
<trkpt lat="48.435542" lon="2.727191"><ele></ele><time>2017-9-19T7:21:54Z</time></trkpt>
<trkpt lat="48.435540" lon="2.727185"><ele></ele><time>2017-9-19T7:21:57Z</time></trkpt>
<trkpt lat="48.435536" lon="2.727178"><ele></ele><time>2017-9-19T7:22:0Z</time></trkpt>
<trkpt lat="48.435532" lon="2.727177"><ele></ele><time>2017-9-19T7:22:3Z</time></trkpt>
<trkpt lat="48.435525" lon="2.727177"><ele></ele><time>2017-9-19T7:22:6Z</time></trkpt>
<trkpt lat="48.435520" lon="2.727178"><ele></ele><time>2017-9-19T7:22:9Z</time></trkpt>
<trkpt lat="48.435517" lon="2.727182"><ele></ele><time>2017-9-19T7:22:12Z</time></trkpt>
<trkpt lat="48.435517" lon="2.727183"><ele></ele><time>2017-9-19T7:22:15Z</time></trkpt>
<trkpt lat="48.435517" lon="2.727183"><ele></ele><time>2017-9-19T7:22:18Z</time></trkpt>
<trkpt lat="48.435517" lon="2.727183"><ele></ele><time>2017-9-19T7:22:21Z</time></trkpt>
<trkpt lat="48.435515" lon="2.727182"><ele></ele><time>2017-9-19T7:22:24Z</time></trkpt>
<trkpt lat="48.435513" lon="2.727183"><ele></ele><time>2017-9-19T7:22:27Z</time></trkpt>
<trkpt lat="48.435513" lon="2.727185"><ele></ele><time>2017-9-19T7:22:30Z</time></trkpt>
<trkpt lat="48.435515" lon="2.727185"><ele></ele><time>2017-9-19T7:22:33Z</time></trkpt>
<trkpt lat="48.435513" lon="2.727183"><ele></ele><time>2017-9-19T7:22:36Z</time></trkpt>
<trkpt lat="48.435513" lon="2.727180"><ele></ele><time>2017-9-19T7:22:39Z</time></trkpt>
<trkpt lat="48.435510" lon="2.727178"><ele></ele><time>2017-9-19T7:22:42Z</time></trkpt>
<trkpt lat="48.435505" lon="2.727182"><ele></ele><time>2017-9-19T7:22:45Z</time></trkpt>
<trkpt lat="48.435502" lon="2.727183"><ele></ele><time>2017-9-19T7:22:48Z</time></trkpt>
<trkpt lat="48.435496" lon="2.727183"><ele></ele><time>2017-9-19T7:22:51Z</time></trkpt>
<trkpt lat="48.435495" lon="2.727182"><ele></ele><time>2017-9-19T7:22:54Z</time></trkpt>
<trkpt lat="48.435493" lon="2.727185"><ele></ele><time>2017-9-19T7:22:57Z</time></trkpt>
<trkpt lat="48.435488" lon="2.727182"><ele></ele><time>2017-9-19T7:23:0Z</time></trkpt>
<trkpt lat="48.435480" lon="2.727177"><ele></ele><time>2017-9-19T7:23:3Z</time></trkpt>
<trkpt lat="48.435470" lon="2.727173"><ele></ele><time>2017-9-19T7:23:6Z</time></trkpt>
<trkpt lat="48.435460" lon="2.727183"><ele></ele><time>2017-9-19T7:23:9Z</time></trkpt>
<trkpt lat="48.435450" lon="2.727193"><ele></ele><time>2017-9-19T7:23:12Z</time></trkpt>
<trkpt lat="48.435438" lon="2.727213"><ele></ele><time>2017-9-19T7:23:15Z</time></trkpt>
<trkpt lat="48.435386" lon="2.727293"><ele></ele><time>2017-9-19T7:23:18Z</time></trkpt>
<trkpt lat="48.435385" lon="2.727302"><ele></ele><time>2017-9-19T7:23:21Z</time></trkpt>
<trkpt lat="48.435383" lon="2.727307"><ele></ele><time>2017-9-19T7:23:24Z</time></trkpt>
<trkpt lat="48.435383" lon="2.727308"><ele></ele><time>2017-9-19T7:23:27Z</time></trkpt>
<trkpt lat="48.435385" lon="2.727305"><ele></ele><time>2017-9-19T7:23:30Z</time></trkpt>
<trkpt lat="48.435385" lon="2.727303"><ele></ele><time>2017-9-19T7:23:33Z</time></trkpt>
<trkpt lat="48.435381" lon="2.727300"><ele></ele><time>2017-9-19T7:23:36Z</time></trkpt>
<trkpt lat="48.435383" lon="2.727297"><ele></ele><time>2017-9-19T7:23:39Z</time></trkpt>
<trkpt lat="48.435390" lon="2.727302"><ele></ele><time>2017-9-19T7:23:42Z</time></trkpt>
<trkpt lat="48.435395" lon="2.727295"><ele></ele><time>2017-9-19T7:23:45Z</time></trkpt>
<trkpt lat="48.435421" lon="2.727260"><ele></ele><time>2017-9-19T7:23:48Z</time></trkpt>
<trkpt lat="48.435428" lon="2.727247"><ele></ele><time>2017-9-19T7:23:51Z</time></trkpt>
<trkpt lat="48.435428" lon="2.727227"><ele></ele><time>2017-9-19T7:23:54Z</time></trkpt>
<trkpt lat="48.435423" lon="2.727208"><ele></ele><time>2017-9-19T7:23:57Z</time></trkpt>
<trkpt lat="48.435420" lon="2.727200"><ele></ele><time>2017-9-19T7:24:0Z</time></trkpt>
<trkpt lat="48.435418" lon="2.727188"><ele></ele><time>2017-9-19T7:24:3Z</time></trkpt>
<trkpt lat="48.435418" lon="2.727177"><ele></ele><time>2017-9-19T7:24:6Z</time></trkpt>
<trkpt lat="48.435420" lon="2.727170"><ele></ele><time>2017-9-19T7:24:9Z</time></trkpt>
<trkpt lat="48.435420" lon="2.727172"><ele></ele><time>2017-9-19T7:24:12Z</time></trkpt>
<trkpt lat="48.435413" lon="2.727167"><ele></ele><time>2017-9-19T7:24:15Z</time></trkpt>
<trkpt lat="48.435412" lon="2.727160"><ele></ele><time>2017-9-19T7:24:18Z</time></trkpt>
<trkpt lat="48.435405" lon="2.727138"><ele></ele><time>2017-9-19T7:24:21Z</time></trkpt>
<trkpt lat="48.435400" lon="2.727135"><ele></ele><time>2017-9-19T7:24:24Z</time></trkpt>
<trkpt lat="48.435395" lon="2.727127"><ele></ele><time>2017-9-19T7:24:27Z</time></trkpt>
<trkpt lat="48.435388" lon="2.727103"><ele></ele><time>2017-9-19T7:24:30Z</time></trkpt>
<trkpt lat="48.435386" lon="2.727092"><ele></ele><time>2017-9-19T7:24:33Z</time></trkpt>
<trkpt lat="48.435386" lon="2.727082"><ele></ele><time>2017-9-19T7:24:36Z</time></trkpt>
<trkpt lat="48.435385" lon="2.727070"><ele></ele><time>2017-9-19T7:24:39Z</time></trkpt>
<trkpt lat="48.435381" lon="2.727062"><ele></ele><time>2017-9-19T7:24:42Z</time></trkpt>
<trkpt lat="48.435378" lon="2.727053"><ele></ele><time>2017-9-19T7:24:45Z</time></trkpt>
<trkpt lat="48.435378" lon="2.727045"><ele></ele><time>2017-9-19T7:24:48Z</time></trkpt>
<trkpt lat="48.435377" lon="2.727040"><ele></ele><time>2017-9-19T7:24:51Z</time></trkpt>
<trkpt lat="48.435377" lon="2.727035"><ele></ele><time>2017-9-19T7:24:54Z</time></trkpt>
<trkpt lat="48.435377" lon="2.727022"><ele></ele><time>2017-9-19T7:24:57Z</time></trkpt>
<trkpt lat="48.435373" lon="2.727007"><ele></ele><time>2017-9-19T7:25:0Z</time></trkpt>
<trkpt lat="48.435365" lon="2.726993"><ele></ele><time>2017-9-19T7:25:3Z</time></trkpt>
<trkpt lat="48.435353" lon="2.726980"><ele></ele><time>2017-9-19T7:25:6Z</time></trkpt>
<trkpt lat="48.435338" lon="2.726970"><ele></ele><time>2017-9-19T7:25:9Z</time></trkpt>
<trkpt lat="48.435320" lon="2.726952"><ele></ele><time>2017-9-19T7:25:12Z</time></trkpt>
<trkpt lat="48.435305" lon="2.726928"><ele></ele><time>2017-9-19T7:25:15Z</time></trkpt>
<trkpt lat="48.435283" lon="2.726888"><ele></ele><time>2017-9-19T7:25:18Z</time></trkpt>
<trkpt lat="48.435250" lon="2.726835"><ele></ele><time>2017-9-19T7:25:21Z</time></trkpt>
<trkpt lat="48.435237" lon="2.726830"><ele></ele><time>2017-9-19T7:25:24Z</time></trkpt>
<trkpt lat="48.435220" lon="2.726823"><ele></ele><time>2017-9-19T7:25:27Z</time></trkpt>
<trkpt lat="48.435188" lon="2.726807"><ele></ele><time>2017-9-19T7:25:30Z</time></trkpt>
<trkpt lat="48.435137" lon="2.726757"><ele></ele><time>2017-9-19T7:25:33Z</time></trkpt>
<trkpt lat="48.435112" lon="2.726723"><ele></ele><time>2017-9-19T7:25:36Z</time></trkpt>
<trkpt lat="48.435102" lon="2.726713"><ele></ele><time>2017-9-19T7:25:39Z</time></trkpt>
<trkpt lat="48.435091" lon="2.726707"><ele></ele><time>2017-9-19T7:25:42Z</time></trkpt>
<trkpt lat="48.435027" lon="2.726667"><ele></ele><time>2017-9-19T7:25:45Z</time></trkpt>
<trkpt lat="48.435018" lon="2.726662"><ele></ele><time>2017-9-19T7:25:48Z</time></trkpt>
<trkpt lat="48.435013" lon="2.726655"><ele></ele><time>2017-9-19T7:25:51Z</time></trkpt>
<trkpt lat="48.435003" lon="2.726650"><ele></ele><time>2017-9-19T7:25:54Z</time></trkpt>
<trkpt lat="48.434973" lon="2.726623"><ele></ele><time>2017-9-19T7:25:57Z</time></trkpt>
<trkpt lat="48.434967" lon="2.726612"><ele></ele><time>2017-9-19T7:26:0Z</time></trkpt>
<trkpt lat="48.434963" lon="2.726597"><ele></ele><time>2017-9-19T7:26:3Z</time></trkpt>
<trkpt lat="48.434956" lon="2.726587"><ele></ele><time>2017-9-19T7:26:6Z</time></trkpt>
<trkpt lat="48.434951" lon="2.726580"><ele></ele><time>2017-9-19T7:26:9Z</time></trkpt>
<trkpt lat="48.434948" lon="2.726580"><ele></ele><time>2017-9-19T7:26:12Z</time></trkpt>
<trkpt lat="48.434948" lon="2.726582"><ele></ele><time>2017-9-19T7:26:15Z</time></trkpt>
<trkpt lat="48.434948" lon="2.726577"><ele></ele><time>2017-9-19T7:26:18Z</time></trkpt>
<trkpt lat="48.434951" lon="2.726573"><ele></ele><time>2017-9-19T7:26:21Z</time></trkpt>
<trkpt lat="48.434953" lon="2.726577"><ele></ele><time>2017-9-19T7:26:24Z</time></trkpt>
<trkpt lat="48.434956" lon="2.726582"><ele></ele><time>2017-9-19T7:26:27Z</time></trkpt>
<trkpt lat="48.434963" lon="2.726595"><ele></ele><time>2017-9-19T7:26:30Z</time></trkpt>
<trkpt lat="48.434965" lon="2.726613"><ele></ele><time>2017-9-19T7:26:33Z</time></trkpt>
<trkpt lat="48.434975" lon="2.726632"><ele></ele><time>2017-9-19T7:26:36Z</time></trkpt>
<trkpt lat="48.434992" lon="2.726650"><ele></ele><time>2017-9-19T7:26:39Z</time></trkpt>
<trkpt lat="48.435018" lon="2.726685"><ele></ele><time>2017-9-19T7:26:42Z</time></trkpt>
<trkpt lat="48.435037" lon="2.726700"><ele></ele><time>2017-9-19T7:26:45Z</time></trkpt>
<trkpt lat="48.435057" lon="2.726712"><ele></ele><time>2017-9-19T7:26:48Z</time></trkpt>
<trkpt lat="48.435193" lon="2.726813"><ele></ele><time>2017-9-19T7:26:51Z</time></trkpt>
<trkpt lat="48.435223" lon="2.726825"><ele></ele><time>2017-9-19T7:26:54Z</time></trkpt>
<trkpt lat="48.435265" lon="2.726838"><ele></ele><time>2017-9-19T7:26:57Z</time></trkpt>
<trkpt lat="48.435275" lon="2.726853"><ele></ele><time>2017-9-19T7:27:0Z</time></trkpt>
<trkpt lat="48.435282" lon="2.726875"><ele></ele><time>2017-9-19T7:27:3Z</time></trkpt>
<trkpt lat="48.435315" lon="2.726932"><ele></ele><time>2017-9-19T7:27:6Z</time></trkpt>
<trkpt lat="48.435328" lon="2.726945"><ele></ele><time>2017-9-19T7:27:9Z</time></trkpt>
<trkpt lat="48.435355" lon="2.726972"><ele></ele><time>2017-9-19T7:27:12Z</time></trkpt>
<trkpt lat="48.435367" lon="2.726988"><ele></ele><time>2017-9-19T7:27:15Z</time></trkpt>
<trkpt lat="48.435370" lon="2.727007"><ele></ele><time>2017-9-19T7:27:18Z</time></trkpt>
<trkpt lat="48.435400" lon="2.727102"><ele></ele><time>2017-9-19T7:27:21Z</time></trkpt>
<trkpt lat="48.435412" lon="2.727130"><ele></ele><time>2017-9-19T7:27:24Z</time></trkpt>
<trkpt lat="48.435421" lon="2.727143"><ele></ele><time>2017-9-19T7:27:27Z</time></trkpt>
<trkpt lat="48.435445" lon="2.727158"><ele></ele><time>2017-9-19T7:27:30Z</time></trkpt>
<trkpt lat="48.435466" lon="2.727167"><ele></ele><time>2017-9-19T7:27:33Z</time></trkpt>
<trkpt lat="48.435477" lon="2.727165"><ele></ele><time>2017-9-19T7:27:36Z</time></trkpt>
<trkpt lat="48.435490" lon="2.727158"><ele></ele><time>2017-9-19T7:27:39Z</time></trkpt>
<trkpt lat="48.435503" lon="2.727153"><ele></ele><time>2017-9-19T7:27:42Z</time></trkpt>
<trkpt lat="48.435517" lon="2.727160"><ele></ele><time>2017-9-19T7:27:45Z</time></trkpt>
<trkpt lat="48.435523" lon="2.727173"><ele></ele><time>2017-9-19T7:27:48Z</time></trkpt>
<trkpt lat="48.435527" lon="2.727185"><ele></ele><time>2017-9-19T7:27:51Z</time></trkpt>
<trkpt lat="48.435523" lon="2.727188"><ele></ele><time>2017-9-19T7:27:54Z</time></trkpt>
<trkpt lat="48.435513" lon="2.727205"><ele></ele><time>2017-9-19T7:27:57Z</time></trkpt>
<trkpt lat="48.435505" lon="2.727233"><ele></ele><time>2017-9-19T7:28:0Z</time></trkpt>
<trkpt lat="48.435505" lon="2.727255"><ele></ele><time>2017-9-19T7:28:3Z</time></trkpt>
<trkpt lat="48.435515" lon="2.727280"><ele></ele><time>2017-9-19T7:28:6Z</time></trkpt>
<trkpt lat="48.435536" lon="2.727332"><ele></ele><time>2017-9-19T7:28:9Z</time></trkpt>
<trkpt lat="48.435533" lon="2.727363"><ele></ele><time>2017-9-19T7:28:12Z</time></trkpt>
<trkpt lat="48.435533" lon="2.727403"><ele></ele><time>2017-9-19T7:28:15Z</time></trkpt>
<trkpt lat="48.435533" lon="2.727410"><ele></ele><time>2017-9-19T7:28:18Z</time></trkpt>
<trkpt lat="48.435547" lon="2.727443"><ele></ele><time>2017-9-19T7:28:21Z</time></trkpt>
<trkpt lat="48.435552" lon="2.727447"><ele></ele><time>2017-9-19T7:28:24Z</time></trkpt>
<trkpt lat="48.435555" lon="2.727455"><ele></ele><time>2017-9-19T7:28:27Z</time></trkpt>
<trkpt lat="48.435563" lon="2.727458"><ele></ele><time>2017-9-19T7:28:30Z</time></trkpt>
<trkpt lat="48.435577" lon="2.727460"><ele></ele><time>2017-9-19T7:28:33Z</time></trkpt>
<trkpt lat="48.435586" lon="2.727465"><ele></ele><time>2017-9-19T7:28:36Z</time></trkpt>
<trkpt lat="48.435593" lon="2.727470"><ele></ele><time>2017-9-19T7:28:39Z</time></trkpt>
<trkpt lat="48.435598" lon="2.727473"><ele></ele><time>2017-9-19T7:28:42Z</time></trkpt>
<trkpt lat="48.435602" lon="2.727473"><ele></ele><time>2017-9-19T7:28:45Z</time></trkpt>
<trkpt lat="48.435605" lon="2.727477"><ele></ele><time>2017-9-19T7:28:48Z</time></trkpt>
<trkpt lat="48.435613" lon="2.727490"><ele></ele><time>2017-9-19T7:28:51Z</time></trkpt>
<trkpt lat="48.435632" lon="2.727505"><ele></ele><time>2017-9-19T7:28:54Z</time></trkpt>
<trkpt lat="48.435651" lon="2.727505"><ele></ele><time>2017-9-19T7:28:57Z</time></trkpt>
<trkpt lat="48.435680" lon="2.727505"><ele></ele><time>2017-9-19T7:29:0Z</time></trkpt>
<trkpt lat="48.435705" lon="2.727517"><ele></ele><time>2017-9-19T7:29:3Z</time></trkpt>
<trkpt lat="48.435732" lon="2.727533"><ele></ele><time>2017-9-19T7:29:6Z</time></trkpt>
<trkpt lat="48.435790" lon="2.727582"><ele></ele><time>2017-9-19T7:29:9Z</time></trkpt>
<trkpt lat="48.435817" lon="2.727598"><ele></ele><time>2017-9-19T7:29:12Z</time></trkpt>
<trkpt lat="48.435910" lon="2.727645"><ele></ele><time>2017-9-19T7:29:15Z</time></trkpt>
<trkpt lat="48.435917" lon="2.727630"><ele></ele><time>2017-9-19T7:29:18Z</time></trkpt>
<trkpt lat="48.435920" lon="2.727615"><ele></ele><time>2017-9-19T7:29:21Z</time></trkpt>
<trkpt lat="48.435920" lon="2.727597"><ele></ele><time>2017-9-19T7:29:24Z</time></trkpt>
<trkpt lat="48.435918" lon="2.727557"><ele></ele><time>2017-9-19T7:29:27Z</time></trkpt>
<trkpt lat="48.435918" lon="2.727536"><ele></ele><time>2017-9-19T7:29:30Z</time></trkpt>
<trkpt lat="48.435920" lon="2.727522"><ele></ele><time>2017-9-19T7:29:33Z</time></trkpt>
<trkpt lat="48.435927" lon="2.727478"><ele></ele><time>2017-9-19T7:29:36Z</time></trkpt>
<trkpt lat="48.435968" lon="2.727120"><ele></ele><time>2017-9-19T7:29:39Z</time></trkpt>
<trkpt lat="48.435970" lon="2.727083"><ele></ele><time>2017-9-19T7:29:42Z</time></trkpt>
<trkpt lat="48.435960" lon="2.726955"><ele></ele><time>2017-9-19T7:29:45Z</time></trkpt>
<trkpt lat="48.435960" lon="2.726822"><ele></ele><time>2017-9-19T7:29:48Z</time></trkpt>
<trkpt lat="48.435988" lon="2.726048"><ele></ele><time>2017-9-19T7:29:51Z</time></trkpt>
<trkpt lat="48.436053" lon="2.725267"><ele></ele><time>2017-9-19T7:29:54Z</time></trkpt>
<trkpt lat="48.436056" lon="2.725202"><ele></ele><time>2017-9-19T7:29:57Z</time></trkpt>
<trkpt lat="48.436271" lon="2.723900"><ele></ele><time>2017-9-19T7:30:0Z</time></trkpt>
<trkpt lat="48.436285" lon="2.723837"><ele></ele><time>2017-9-19T7:30:3Z</time></trkpt>
<trkpt lat="48.436368" lon="2.723495"><ele></ele><time>2017-9-19T7:30:6Z</time></trkpt>
<trkpt lat="48.436476" lon="2.723070"><ele></ele><time>2017-9-19T7:30:9Z</time></trkpt>
<trkpt lat="48.436490" lon="2.722977"><ele></ele><time>2017-9-19T7:30:12Z</time></trkpt>
<trkpt lat="48.436497" lon="2.722812"><ele></ele><time>2017-9-19T7:30:15Z</time></trkpt>
<trkpt lat="48.436483" lon="2.722773"><ele></ele><time>2017-9-19T7:30:18Z</time></trkpt>
<trkpt lat="48.436463" lon="2.722742"><ele></ele><time>2017-9-19T7:30:21Z</time></trkpt>
<trkpt lat="48.436438" lon="2.722712"><ele></ele><time>2017-9-19T7:30:24Z</time></trkpt>
<trkpt lat="48.436408" lon="2.722683"><ele></ele><time>2017-9-19T7:30:27Z</time></trkpt>
<trkpt lat="48.436375" lon="2.722665"><ele></ele><time>2017-9-19T7:30:30Z</time></trkpt>
<trkpt lat="48.436340" lon="2.722658"><ele></ele><time>2017-9-19T7:30:33Z</time></trkpt>
<trkpt lat="48.436305" lon="2.722657"><ele></ele><time>2017-9-19T7:30:36Z</time></trkpt>
<trkpt lat="48.436228" lon="2.722638"><ele></ele><time>2017-9-19T7:30:39Z</time></trkpt>
<trkpt lat="48.436200" lon="2.722602"><ele></ele><time>2017-9-19T7:30:42Z</time></trkpt>
<trkpt lat="48.436078" lon="2.722418"><ele></ele><time>2017-9-19T7:30:45Z</time></trkpt>
<trkpt lat="48.436058" lon="2.722370"><ele></ele><time>2017-9-19T7:30:48Z</time></trkpt>
<trkpt lat="48.436040" lon="2.722315"><ele></ele><time>2017-9-19T7:30:51Z</time></trkpt>
<trkpt lat="48.435952" lon="2.721917"><ele></ele><time>2017-9-19T7:30:54Z</time></trkpt>
<trkpt lat="48.435948" lon="2.721865"><ele></ele><time>2017-9-19T7:30:57Z</time></trkpt>
<trkpt lat="48.435941" lon="2.721815"><ele></ele><time>2017-9-19T7:31:0Z</time></trkpt>
<trkpt lat="48.435945" lon="2.721783"><ele></ele><time>2017-9-19T7:31:3Z</time></trkpt>
<trkpt lat="48.435953" lon="2.721692"><ele></ele><time>2017-9-19T7:31:6Z</time></trkpt>
<trkpt lat="48.435945" lon="2.721665"><ele></ele><time>2017-9-19T7:31:9Z</time></trkpt>
<trkpt lat="48.435933" lon="2.721640"><ele></ele><time>2017-9-19T7:31:12Z</time></trkpt>
<trkpt lat="48.435913" lon="2.721607"><ele></ele><time>2017-9-19T7:31:15Z</time></trkpt>
<trkpt lat="48.435905" lon="2.721583"><ele></ele><time>2017-9-19T7:31:18Z</time></trkpt>
<trkpt lat="48.435901" lon="2.721555"><ele></ele><time>2017-9-19T7:31:21Z</time></trkpt>
<trkpt lat="48.435887" lon="2.721382"><ele></ele><time>2017-9-19T7:31:24Z</time></trkpt>
<trkpt lat="48.435893" lon="2.721355"><ele></ele><time>2017-9-19T7:31:27Z</time></trkpt>
<trkpt lat="48.435978" lon="2.721123"><ele></ele><time>2017-9-19T7:31:30Z</time></trkpt>
<trkpt lat="48.435977" lon="2.721085"><ele></ele><time>2017-9-19T7:31:33Z</time></trkpt>
<trkpt lat="48.435970" lon="2.721065"><ele></ele><time>2017-9-19T7:31:36Z</time></trkpt>
<trkpt lat="48.435958" lon="2.721030"><ele></ele><time>2017-9-19T7:31:39Z</time></trkpt>
<trkpt lat="48.435950" lon="2.720982"><ele></ele><time>2017-9-19T7:31:42Z</time></trkpt>
<trkpt lat="48.435945" lon="2.720960"><ele></ele><time>2017-9-19T7:31:45Z</time></trkpt>
<trkpt lat="48.435938" lon="2.720938"><ele></ele><time>2017-9-19T7:31:48Z</time></trkpt>
<trkpt lat="48.435922" lon="2.720875"><ele></ele><time>2017-9-19T7:31:51Z</time></trkpt>
<trkpt lat="48.435928" lon="2.720857"><ele></ele><time>2017-9-19T7:31:54Z</time></trkpt>
<trkpt lat="48.435941" lon="2.720838"><ele></ele><time>2017-9-19T7:31:57Z</time></trkpt>
<trkpt lat="48.435958" lon="2.720808"><ele></ele><time>2017-9-19T7:32:0Z</time></trkpt>
<trkpt lat="48.435992" lon="2.720758"><ele></ele><time>2017-9-19T7:32:3Z</time></trkpt>
<trkpt lat="48.436068" lon="2.720605"><ele></ele><time>2017-9-19T7:32:6Z</time></trkpt>
<trkpt lat="48.436105" lon="2.720508"><ele></ele><time>2017-9-19T7:32:9Z</time></trkpt>
<trkpt lat="48.436110" lon="2.720472"><ele></ele><time>2017-9-19T7:32:12Z</time></trkpt>
<trkpt lat="48.436120" lon="2.720428"><ele></ele><time>2017-9-19T7:32:15Z</time></trkpt>
<trkpt lat="48.436133" lon="2.720385"><ele></ele><time>2017-9-19T7:32:18Z</time></trkpt>
<trkpt lat="48.436166" lon="2.720312"><ele></ele><time>2017-9-19T7:32:21Z</time></trkpt>
<trkpt lat="48.436195" lon="2.720228"><ele></ele><time>2017-9-19T7:32:24Z</time></trkpt>
<trkpt lat="48.436202" lon="2.720187"><ele></ele><time>2017-9-19T7:32:27Z</time></trkpt>
<trkpt lat="48.436212" lon="2.720147"><ele></ele><time>2017-9-19T7:32:30Z</time></trkpt>
<trkpt lat="48.436222" lon="2.720112"><ele></ele><time>2017-9-19T7:32:33Z</time></trkpt>
<trkpt lat="48.436245" lon="2.719980"><ele></ele><time>2017-9-19T7:32:36Z</time></trkpt>
<trkpt lat="48.436267" lon="2.719838"><ele></ele><time>2017-9-19T7:32:39Z</time></trkpt>
<trkpt lat="48.436290" lon="2.719815"><ele></ele><time>2017-9-19T7:32:42Z</time></trkpt>
<trkpt lat="48.436313" lon="2.719808"><ele></ele><time>2017-9-19T7:32:45Z</time></trkpt>
<trkpt lat="48.436335" lon="2.719812"><ele></ele><time>2017-9-19T7:32:48Z</time></trkpt>
<trkpt lat="48.436352" lon="2.719812"><ele></ele><time>2017-9-19T7:32:51Z</time></trkpt>
<trkpt lat="48.436373" lon="2.719788"><ele></ele><time>2017-9-19T7:32:54Z</time></trkpt>
<trkpt lat="48.436385" lon="2.719747"><ele></ele><time>2017-9-19T7:32:57Z</time></trkpt>
<trkpt lat="48.436386" lon="2.719697"><ele></ele><time>2017-9-19T7:33:0Z</time></trkpt>
<trkpt lat="48.436388" lon="2.719643"><ele></ele><time>2017-9-19T7:33:3Z</time></trkpt>
<trkpt lat="48.436405" lon="2.719540"><ele></ele><time>2017-9-19T7:33:6Z</time></trkpt>
<trkpt lat="48.436433" lon="2.719452"><ele></ele><time>2017-9-19T7:33:9Z</time></trkpt>
<trkpt lat="48.436462" lon="2.719347"><ele></ele><time>2017-9-19T7:33:12Z</time></trkpt>
<trkpt lat="48.436503" lon="2.719213"><ele></ele><time>2017-9-19T7:33:15Z</time></trkpt>
<trkpt lat="48.436527" lon="2.719182"><ele></ele><time>2017-9-19T7:33:18Z</time></trkpt>
<trkpt lat="48.436557" lon="2.719158"><ele></ele><time>2017-9-19T7:33:21Z</time></trkpt>
<trkpt lat="48.436622" lon="2.719110"><ele></ele><time>2017-9-19T7:33:24Z</time></trkpt>
<trkpt lat="48.436653" lon="2.719083"><ele></ele><time>2017-9-19T7:33:27Z</time></trkpt>
<trkpt lat="48.436676" lon="2.719051"><ele></ele><time>2017-9-19T7:33:30Z</time></trkpt>
<trkpt lat="48.436698" lon="2.719012"><ele></ele><time>2017-9-19T7:33:33Z</time></trkpt>
<trkpt lat="48.436728" lon="2.718975"><ele></ele><time>2017-9-19T7:33:36Z</time></trkpt>
<trkpt lat="48.436760" lon="2.718957"><ele></ele><time>2017-9-19T7:33:39Z</time></trkpt>
<trkpt lat="48.436790" lon="2.718940"><ele></ele><time>2017-9-19T7:33:42Z</time></trkpt>
<trkpt lat="48.436815" lon="2.718917"><ele></ele><time>2017-9-19T7:33:45Z</time></trkpt>
<trkpt lat="48.436840" lon="2.718885"><ele></ele><time>2017-9-19T7:33:48Z</time></trkpt>
<trkpt lat="48.436875" lon="2.718832"><ele></ele><time>2017-9-19T7:33:51Z</time></trkpt>
<trkpt lat="48.436892" lon="2.718818"><ele></ele><time>2017-9-19T7:33:54Z</time></trkpt>
<trkpt lat="48.436928" lon="2.718798"><ele></ele><time>2017-9-19T7:33:57Z</time></trkpt>
<trkpt lat="48.436980" lon="2.718780"><ele></ele><time>2017-9-19T7:34:0Z</time></trkpt>
<trkpt lat="48.437012" lon="2.718777"><ele></ele><time>2017-9-19T7:34:3Z</time></trkpt>
<trkpt lat="48.437043" lon="2.718785"><ele></ele><time>2017-9-19T7:34:6Z</time></trkpt>
<trkpt lat="48.437106" lon="2.718792"><ele></ele><time>2017-9-19T7:34:9Z</time></trkpt>
<trkpt lat="48.437137" lon="2.718785"><ele></ele><time>2017-9-19T7:34:12Z</time></trkpt>
<trkpt lat="48.437165" lon="2.718765"><ele></ele><time>2017-9-19T7:34:15Z</time></trkpt>
<trkpt lat="48.437191" lon="2.718742"><ele></ele><time>2017-9-19T7:34:18Z</time></trkpt>
<trkpt lat="48.437238" lon="2.718710"><ele></ele><time>2017-9-19T7:34:21Z</time></trkpt>
<trkpt lat="48.437270" lon="2.718677"><ele></ele><time>2017-9-19T7:34:24Z</time></trkpt>
<trkpt lat="48.437293" lon="2.718632"><ele></ele><time>2017-9-19T7:34:27Z</time></trkpt>
<trkpt lat="48.437373" lon="2.718500"><ele></ele><time>2017-9-19T7:34:30Z</time></trkpt>
<trkpt lat="48.437403" lon="2.718455"><ele></ele><time>2017-9-19T7:34:33Z</time></trkpt>
<trkpt lat="48.437486" lon="2.718303"><ele></ele><time>2017-9-19T7:34:36Z</time></trkpt>
<trkpt lat="48.437508" lon="2.718250"><ele></ele><time>2017-9-19T7:34:39Z</time></trkpt>
<trkpt lat="48.437525" lon="2.718193"><ele></ele><time>2017-9-19T7:34:42Z</time></trkpt>
<trkpt lat="48.437570" lon="2.718088"><ele></ele><time>2017-9-19T7:34:45Z</time></trkpt>
<trkpt lat="48.437627" lon="2.717990"><ele></ele><time>2017-9-19T7:34:48Z</time></trkpt>
<trkpt lat="48.437663" lon="2.717958"><ele></ele><time>2017-9-19T7:34:51Z</time></trkpt>
<trkpt lat="48.437702" lon="2.717922"><ele></ele><time>2017-9-19T7:34:54Z</time></trkpt>
<trkpt lat="48.437733" lon="2.717882"><ele></ele><time>2017-9-19T7:34:57Z</time></trkpt>
<trkpt lat="48.437800" lon="2.717817"><ele></ele><time>2017-9-19T7:35:0Z</time></trkpt>
<trkpt lat="48.437976" lon="2.717642"><ele></ele><time>2017-9-19T7:35:3Z</time></trkpt>
<trkpt lat="48.437995" lon="2.717587"><ele></ele><time>2017-9-19T7:35:6Z</time></trkpt>
<trkpt lat="48.438023" lon="2.717483"><ele></ele><time>2017-9-19T7:35:9Z</time></trkpt>
<trkpt lat="48.438052" lon="2.717382"><ele></ele><time>2017-9-19T7:35:12Z</time></trkpt>
<trkpt lat="48.438072" lon="2.717335"><ele></ele><time>2017-9-19T7:35:15Z</time></trkpt>
<trkpt lat="48.438115" lon="2.717172"><ele></ele><time>2017-9-19T7:35:18Z</time></trkpt>
<trkpt lat="48.438113" lon="2.717112"><ele></ele><time>2017-9-19T7:35:21Z</time></trkpt>
<trkpt lat="48.438110" lon="2.717050"><ele></ele><time>2017-9-19T7:35:24Z</time></trkpt>
<trkpt lat="48.438120" lon="2.716857"><ele></ele><time>2017-9-19T7:35:27Z</time></trkpt>
<trkpt lat="48.438130" lon="2.716808"><ele></ele><time>2017-9-19T7:35:30Z</time></trkpt>
<trkpt lat="48.438150" lon="2.716770"><ele></ele><time>2017-9-19T7:35:33Z</time></trkpt>
<trkpt lat="48.438167" lon="2.716727"><ele></ele><time>2017-9-19T7:35:36Z</time></trkpt>
<trkpt lat="48.438181" lon="2.716682"><ele></ele><time>2017-9-19T7:35:39Z</time></trkpt>
<trkpt lat="48.438243" lon="2.716542"><ele></ele><time>2017-9-19T7:35:42Z</time></trkpt>
<trkpt lat="48.438270" lon="2.716503"><ele></ele><time>2017-9-19T7:35:45Z</time></trkpt>
<trkpt lat="48.438291" lon="2.716460"><ele></ele><time>2017-9-19T7:35:48Z</time></trkpt>
<trkpt lat="48.438305" lon="2.716417"><ele></ele><time>2017-9-19T7:35:51Z</time></trkpt>
<trkpt lat="48.438310" lon="2.716370"><ele></ele><time>2017-9-19T7:35:54Z</time></trkpt>
<trkpt lat="48.438313" lon="2.716268"><ele></ele><time>2017-9-19T7:35:57Z</time></trkpt>
<trkpt lat="48.438373" lon="2.715973"><ele></ele><time>2017-9-19T7:36:0Z</time></trkpt>
<trkpt lat="48.438400" lon="2.715945"><ele></ele><time>2017-9-19T7:36:3Z</time></trkpt>
<trkpt lat="48.438425" lon="2.715920"><ele></ele><time>2017-9-19T7:36:6Z</time></trkpt>
<trkpt lat="48.438445" lon="2.715890"><ele></ele><time>2017-9-19T7:36:9Z</time></trkpt>
<trkpt lat="48.438453" lon="2.715855"><ele></ele><time>2017-9-19T7:36:12Z</time></trkpt>
<trkpt lat="48.438457" lon="2.715827"><ele></ele><time>2017-9-19T7:36:15Z</time></trkpt>
<trkpt lat="48.438466" lon="2.715790"><ele></ele><time>2017-9-19T7:36:18Z</time></trkpt>
<trkpt lat="48.438465" lon="2.715783"><ele></ele><time>2017-9-19T7:36:21Z</time></trkpt>
<trkpt lat="48.438463" lon="2.715782"><ele></ele><time>2017-9-19T7:36:24Z</time></trkpt>
<trkpt lat="48.438465" lon="2.715782"><ele></ele><time>2017-9-19T7:36:27Z</time></trkpt>
<trkpt lat="48.438465" lon="2.715780"><ele></ele><time>2017-9-19T7:36:30Z</time></trkpt>
<trkpt lat="48.438470" lon="2.715782"><ele></ele><time>2017-9-19T7:36:33Z</time></trkpt>
<trkpt lat="48.438470" lon="2.715778"><ele></ele><time>2017-9-19T7:36:36Z</time></trkpt>
<trkpt lat="48.438470" lon="2.715773"><ele></ele><time>2017-9-19T7:36:39Z</time></trkpt>
<trkpt lat="48.438470" lon="2.715768"><ele></ele><time>2017-9-19T7:36:42Z</time></trkpt>
<trkpt lat="48.438475" lon="2.715767"><ele></ele><time>2017-9-19T7:36:45Z</time></trkpt>
<trkpt lat="48.438478" lon="2.715753"><ele></ele><time>2017-9-19T7:36:48Z</time></trkpt>
<trkpt lat="48.438485" lon="2.715737"><ele></ele><time>2017-9-19T7:36:51Z</time></trkpt>
<trkpt lat="48.438495" lon="2.715725"><ele></ele><time>2017-9-19T7:36:54Z</time></trkpt>
<trkpt lat="48.438522" lon="2.715683"><ele></ele><time>2017-9-19T7:36:57Z</time></trkpt>
<trkpt lat="48.438535" lon="2.715648"><ele></ele><time>2017-9-19T7:37:0Z</time></trkpt>
<trkpt lat="48.438592" lon="2.715538"><ele></ele><time>2017-9-19T7:37:3Z</time></trkpt>
<trkpt lat="48.438617" lon="2.715515"><ele></ele><time>2017-9-19T7:37:6Z</time></trkpt>
<trkpt lat="48.438643" lon="2.715507"><ele></ele><time>2017-9-19T7:37:9Z</time></trkpt>
<trkpt lat="48.438700" lon="2.715488"><ele></ele><time>2017-9-19T7:37:12Z</time></trkpt>
<trkpt lat="48.438763" lon="2.715472"><ele></ele><time>2017-9-19T7:37:15Z</time></trkpt>
<trkpt lat="48.438800" lon="2.715470"><ele></ele><time>2017-9-19T7:37:18Z</time></trkpt>
<trkpt lat="48.438835" lon="2.715475"><ele></ele><time>2017-9-19T7:37:21Z</time></trkpt>
<trkpt lat="48.438862" lon="2.715493"><ele></ele><time>2017-9-19T7:37:24Z</time></trkpt>
<trkpt lat="48.438883" lon="2.715518"><ele></ele><time>2017-9-19T7:37:27Z</time></trkpt>
<trkpt lat="48.438908" lon="2.715535"><ele></ele><time>2017-9-19T7:37:30Z</time></trkpt>
<trkpt lat="48.438933" lon="2.715545"><ele></ele><time>2017-9-19T7:37:33Z</time></trkpt>
<trkpt lat="48.438958" lon="2.715545"><ele></ele><time>2017-9-19T7:37:36Z</time></trkpt>
<trkpt lat="48.438988" lon="2.715535"><ele></ele><time>2017-9-19T7:37:39Z</time></trkpt>
<trkpt lat="48.439013" lon="2.715517"><ele></ele><time>2017-9-19T7:37:42Z</time></trkpt>
<trkpt lat="48.439038" lon="2.715490"><ele></ele><time>2017-9-19T7:37:45Z</time></trkpt>
<trkpt lat="48.439060" lon="2.715460"><ele></ele><time>2017-9-19T7:37:48Z</time></trkpt>
<trkpt lat="48.439191" lon="2.715226"><ele></ele><time>2017-9-19T7:37:51Z</time></trkpt>
<trkpt lat="48.439195" lon="2.715187"><ele></ele><time>2017-9-19T7:37:54Z</time></trkpt>
<trkpt lat="48.439198" lon="2.715153"><ele></ele><time>2017-9-19T7:37:57Z</time></trkpt>
<trkpt lat="48.439206" lon="2.715123"><ele></ele><time>2017-9-19T7:38:0Z</time></trkpt>
<trkpt lat="48.439220" lon="2.715102"><ele></ele><time>2017-9-19T7:38:3Z</time></trkpt>
<trkpt lat="48.439233" lon="2.715068"><ele></ele><time>2017-9-19T7:38:6Z</time></trkpt>
<trkpt lat="48.439240" lon="2.715048"><ele></ele><time>2017-9-19T7:38:9Z</time></trkpt>
<trkpt lat="48.439253" lon="2.715007"><ele></ele><time>2017-9-19T7:38:12Z</time></trkpt>
<trkpt lat="48.439275" lon="2.714972"><ele></ele><time>2017-9-19T7:38:15Z</time></trkpt>
<trkpt lat="48.439285" lon="2.714960"><ele></ele><time>2017-9-19T7:38:18Z</time></trkpt>
<trkpt lat="48.439296" lon="2.714957"><ele></ele><time>2017-9-19T7:38:21Z</time></trkpt>
<trkpt lat="48.439315" lon="2.714945"><ele></ele><time>2017-9-19T7:38:24Z</time></trkpt>
<trkpt lat="48.439328" lon="2.714930"><ele></ele><time>2017-9-19T7:38:27Z</time></trkpt>
<trkpt lat="48.439343" lon="2.714913"><ele></ele><time>2017-9-19T7:38:30Z</time></trkpt>
<trkpt lat="48.439353" lon="2.714893"><ele></ele><time>2017-9-19T7:38:33Z</time></trkpt>
<trkpt lat="48.439377" lon="2.714827"><ele></ele><time>2017-9-19T7:38:36Z</time></trkpt>
<trkpt lat="48.439385" lon="2.714807"><ele></ele><time>2017-9-19T7:38:39Z</time></trkpt>
<trkpt lat="48.439390" lon="2.714785"><ele></ele><time>2017-9-19T7:38:42Z</time></trkpt>
<trkpt lat="48.439391" lon="2.714760"><ele></ele><time>2017-9-19T7:38:45Z</time></trkpt>
<trkpt lat="48.439388" lon="2.714732"><ele></ele><time>2017-9-19T7:38:48Z</time></trkpt>
<trkpt lat="48.439382" lon="2.714708"><ele></ele><time>2017-9-19T7:38:51Z</time></trkpt>
<trkpt lat="48.439373" lon="2.714695"><ele></ele><time>2017-9-19T7:38:54Z</time></trkpt>
<trkpt lat="48.439363" lon="2.714665"><ele></ele><time>2017-9-19T7:38:57Z</time></trkpt>
<trkpt lat="48.439353" lon="2.714635"><ele></ele><time>2017-9-19T7:39:0Z</time></trkpt>
<trkpt lat="48.439350" lon="2.714623"><ele></ele><time>2017-9-19T7:39:3Z</time></trkpt>
<trkpt lat="48.439360" lon="2.714618"><ele></ele><time>2017-9-19T7:39:6Z</time></trkpt>
<trkpt lat="48.439365" lon="2.714612"><ele></ele><time>2017-9-19T7:39:9Z</time></trkpt>
<trkpt lat="48.439368" lon="2.714603"><ele></ele><time>2017-9-19T7:39:12Z</time></trkpt>
<trkpt lat="48.439365" lon="2.714593"><ele></ele><time>2017-9-19T7:39:15Z</time></trkpt>
<trkpt lat="48.439361" lon="2.714582"><ele></ele><time>2017-9-19T7:39:18Z</time></trkpt>
<trkpt lat="48.439345" lon="2.714513"><ele></ele><time>2017-9-19T7:39:21Z</time></trkpt>
<trkpt lat="48.439340" lon="2.714506"><ele></ele><time>2017-9-19T7:39:24Z</time></trkpt>
<trkpt lat="48.439330" lon="2.714482"><ele></ele><time>2017-9-19T7:39:27Z</time></trkpt>
<trkpt lat="48.439328" lon="2.714480"><ele></ele><time>2017-9-19T7:39:30Z</time></trkpt>
<trkpt lat="48.439330" lon="2.714483"><ele></ele><time>2017-9-19T7:39:33Z</time></trkpt>
<trkpt lat="48.439328" lon="2.714483"><ele></ele><time>2017-9-19T7:39:36Z</time></trkpt>
<trkpt lat="48.439321" lon="2.714468"><ele></ele><time>2017-9-19T7:39:39Z</time></trkpt>
<trkpt lat="48.439305" lon="2.714427"><ele></ele><time>2017-9-19T7:39:42Z</time></trkpt>
<trkpt lat="48.439300" lon="2.714417"><ele></ele><time>2017-9-19T7:39:45Z</time></trkpt>
<trkpt lat="48.439287" lon="2.714387"><ele></ele><time>2017-9-19T7:39:48Z</time></trkpt>
<trkpt lat="48.439278" lon="2.714362"><ele></ele><time>2017-9-19T7:39:51Z</time></trkpt>
<trkpt lat="48.439276" lon="2.714357"><ele></ele><time>2017-9-19T7:39:54Z</time></trkpt>
<trkpt lat="48.439276" lon="2.714338"><ele></ele><time>2017-9-19T7:39:57Z</time></trkpt>
<trkpt lat="48.439278" lon="2.714335"><ele></ele><time>2017-9-19T7:40:0Z</time></trkpt>
<trkpt lat="48.439275" lon="2.714328"><ele></ele><time>2017-9-19T7:40:3Z</time></trkpt>
<trkpt lat="48.439278" lon="2.714327"><ele></ele><time>2017-9-19T7:40:6Z</time></trkpt>
<trkpt lat="48.439283" lon="2.714325"><ele></ele><time>2017-9-19T7:40:9Z</time></trkpt>
<trkpt lat="48.439285" lon="2.714325"><ele></ele><time>2017-9-19T7:40:12Z</time></trkpt>
<trkpt lat="48.439288" lon="2.714313"><ele></ele><time>2017-9-19T7:40:15Z</time></trkpt>
<trkpt lat="48.439296" lon="2.714292"><ele></ele><time>2017-9-19T7:40:18Z</time></trkpt>
<trkpt lat="48.439296" lon="2.714283"><ele></ele><time>2017-9-19T7:40:21Z</time></trkpt>
<trkpt lat="48.439298" lon="2.714278"><ele></ele><time>2017-9-19T7:40:24Z</time></trkpt>
<trkpt lat="48.439300" lon="2.714273"><ele></ele><time>2017-9-19T7:40:27Z</time></trkpt>
<trkpt lat="48.439301" lon="2.714270"><ele></ele><time>2017-9-19T7:40:30Z</time></trkpt>
<trkpt lat="48.439305" lon="2.714265"><ele></ele><time>2017-9-19T7:40:33Z</time></trkpt>
<trkpt lat="48.439300" lon="2.714252"><ele></ele><time>2017-9-19T7:40:36Z</time></trkpt>
<trkpt lat="48.439300" lon="2.714238"><ele></ele><time>2017-9-19T7:40:39Z</time></trkpt>
<trkpt lat="48.439303" lon="2.714233"><ele></ele><time>2017-9-19T7:40:42Z</time></trkpt>
<trkpt lat="48.439312" lon="2.714188"><ele></ele><time>2017-9-19T7:40:45Z</time></trkpt>
<trkpt lat="48.439317" lon="2.714182"><ele></ele><time>2017-9-19T7:40:48Z</time></trkpt>
<trkpt lat="48.439323" lon="2.714175"><ele></ele><time>2017-9-19T7:40:51Z</time></trkpt>
<trkpt lat="48.439325" lon="2.714170"><ele></ele><time>2017-9-19T7:40:54Z</time></trkpt>
<trkpt lat="48.439328" lon="2.714167"><ele></ele><time>2017-9-19T7:40:57Z</time></trkpt>
<trkpt lat="48.439330" lon="2.714161"><ele></ele><time>2017-9-19T7:41:0Z</time></trkpt>
<trkpt lat="48.439332" lon="2.714157"><ele></ele><time>2017-9-19T7:41:3Z</time></trkpt>
<trkpt lat="48.439323" lon="2.714142"><ele></ele><time>2017-9-19T7:41:6Z</time></trkpt>
<trkpt lat="48.439315" lon="2.714130"><ele></ele><time>2017-9-19T7:41:9Z</time></trkpt>
<trkpt lat="48.439303" lon="2.714107"><ele></ele><time>2017-9-19T7:41:12Z</time></trkpt>
<trkpt lat="48.439301" lon="2.714098"><ele></ele><time>2017-9-19T7:41:15Z</time></trkpt>
<trkpt lat="48.439296" lon="2.714087"><ele></ele><time>2017-9-19T7:41:18Z</time></trkpt>
<trkpt lat="48.439292" lon="2.714082"><ele></ele><time>2017-9-19T7:41:21Z</time></trkpt>
<trkpt lat="48.439296" lon="2.714078"><ele></ele><time>2017-9-19T7:41:24Z</time></trkpt>
<trkpt lat="48.439295" lon="2.714063"><ele></ele><time>2017-9-19T7:41:27Z</time></trkpt>
<trkpt lat="48.439292" lon="2.714046"><ele></ele><time>2017-9-19T7:41:30Z</time></trkpt>
<trkpt lat="48.439288" lon="2.714037"><ele></ele><time>2017-9-19T7:41:33Z</time></trkpt>
<trkpt lat="48.439278" lon="2.714032"><ele></ele><time>2017-9-19T7:41:36Z</time></trkpt>
<trkpt lat="48.439268" lon="2.714030"><ele></ele><time>2017-9-19T7:41:39Z</time></trkpt>
<trkpt lat="48.439253" lon="2.714032"><ele></ele><time>2017-9-19T7:41:42Z</time></trkpt>
<trkpt lat="48.439245" lon="2.714032"><ele></ele><time>2017-9-19T7:41:45Z</time></trkpt>
<trkpt lat="48.439236" lon="2.714030"><ele></ele><time>2017-9-19T7:41:48Z</time></trkpt>
<trkpt lat="48.439218" lon="2.714030"><ele></ele><time>2017-9-19T7:41:51Z</time></trkpt>
<trkpt lat="48.439210" lon="2.714027"><ele></ele><time>2017-9-19T7:41:54Z</time></trkpt>
<trkpt lat="48.439202" lon="2.714027"><ele></ele><time>2017-9-19T7:41:57Z</time></trkpt>
<trkpt lat="48.439188" lon="2.714038"><ele></ele><time>2017-9-19T7:42:0Z</time></trkpt>
<trkpt lat="48.439181" lon="2.714045"><ele></ele><time>2017-9-19T7:42:3Z</time></trkpt>
<trkpt lat="48.439173" lon="2.714053"><ele></ele><time>2017-9-19T7:42:6Z</time></trkpt>
<trkpt lat="48.439167" lon="2.714058"><ele></ele><time>2017-9-19T7:42:9Z</time></trkpt>
<trkpt lat="48.439158" lon="2.714055"><ele></ele><time>2017-9-19T7:42:12Z</time></trkpt>
<trkpt lat="48.439150" lon="2.714052"><ele></ele><time>2017-9-19T7:42:15Z</time></trkpt>
<trkpt lat="48.439140" lon="2.714057"><ele></ele><time>2017-9-19T7:42:18Z</time></trkpt>
<trkpt lat="48.439137" lon="2.714062"><ele></ele><time>2017-9-19T7:42:21Z</time></trkpt>
<trkpt lat="48.439133" lon="2.714062"><ele></ele><time>2017-9-19T7:42:24Z</time></trkpt>
<trkpt lat="48.439133" lon="2.714057"><ele></ele><time>2017-9-19T7:42:27Z</time></trkpt>
<trkpt lat="48.439137" lon="2.714046"><ele></ele><time>2017-9-19T7:42:30Z</time></trkpt>
<trkpt lat="48.439133" lon="2.714042"><ele></ele><time>2017-9-19T7:42:33Z</time></trkpt>
<trkpt lat="48.439123" lon="2.714030"><ele></ele><time>2017-9-19T7:42:36Z</time></trkpt>
<trkpt lat="48.439115" lon="2.714027"><ele></ele><time>2017-9-19T7:42:39Z</time></trkpt>
<trkpt lat="48.439112" lon="2.714020"><ele></ele><time>2017-9-19T7:42:42Z</time></trkpt>
<trkpt lat="48.439110" lon="2.714012"><ele></ele><time>2017-9-19T7:42:45Z</time></trkpt>
<trkpt lat="48.439110" lon="2.714003"><ele></ele><time>2017-9-19T7:42:48Z</time></trkpt>
<trkpt lat="48.439113" lon="2.713978"><ele></ele><time>2017-9-19T7:42:51Z</time></trkpt>
<trkpt lat="48.439120" lon="2.713965"><ele></ele><time>2017-9-19T7:42:54Z</time></trkpt>
<trkpt lat="48.439125" lon="2.713948"><ele></ele><time>2017-9-19T7:42:57Z</time></trkpt>
<trkpt lat="48.439127" lon="2.713937"><ele></ele><time>2017-9-19T7:43:0Z</time></trkpt>
<trkpt lat="48.439123" lon="2.713928"><ele></ele><time>2017-9-19T7:43:3Z</time></trkpt>
<trkpt lat="48.439118" lon="2.713928"><ele></ele><time>2017-9-19T7:43:6Z</time></trkpt>
<trkpt lat="48.439113" lon="2.713927"><ele></ele><time>2017-9-19T7:43:9Z</time></trkpt>
<trkpt lat="48.439110" lon="2.713925"><ele></ele><time>2017-9-19T7:43:12Z</time></trkpt>
<trkpt lat="48.439105" lon="2.713917"><ele></ele><time>2017-9-19T7:43:15Z</time></trkpt>
<trkpt lat="48.439101" lon="2.713907"><ele></ele><time>2017-9-19T7:43:18Z</time></trkpt>
<trkpt lat="48.439098" lon="2.713897"><ele></ele><time>2017-9-19T7:43:21Z</time></trkpt>
<trkpt lat="48.439095" lon="2.713877"><ele></ele><time>2017-9-19T7:43:24Z</time></trkpt>
<trkpt lat="48.439092" lon="2.713872"><ele></ele><time>2017-9-19T7:43:27Z</time></trkpt>
<trkpt lat="48.439087" lon="2.713862"><ele></ele><time>2017-9-19T7:43:30Z</time></trkpt>
<trkpt lat="48.439090" lon="2.713855"><ele></ele><time>2017-9-19T7:43:33Z</time></trkpt>
<trkpt lat="48.439092" lon="2.713846"><ele></ele><time>2017-9-19T7:43:36Z</time></trkpt>
<trkpt lat="48.439090" lon="2.713842"><ele></ele><time>2017-9-19T7:43:39Z</time></trkpt>
<trkpt lat="48.439090" lon="2.713837"><ele></ele><time>2017-9-19T7:43:42Z</time></trkpt>
<trkpt lat="48.439083" lon="2.713833"><ele></ele><time>2017-9-19T7:43:45Z</time></trkpt>
<trkpt lat="48.439078" lon="2.713823"><ele></ele><time>2017-9-19T7:43:48Z</time></trkpt>
<trkpt lat="48.439076" lon="2.713813"><ele></ele><time>2017-9-19T7:43:51Z</time></trkpt>
<trkpt lat="48.439076" lon="2.713800"><ele></ele><time>2017-9-19T7:43:54Z</time></trkpt>
<trkpt lat="48.439080" lon="2.713785"><ele></ele><time>2017-9-19T7:43:57Z</time></trkpt>
<trkpt lat="48.439078" lon="2.713782"><ele></ele><time>2017-9-19T7:44:0Z</time></trkpt>
<trkpt lat="48.439076" lon="2.713777"><ele></ele><time>2017-9-19T7:44:3Z</time></trkpt>
<trkpt lat="48.439078" lon="2.713763"><ele></ele><time>2017-9-19T7:44:6Z</time></trkpt>
<trkpt lat="48.439085" lon="2.713747"><ele></ele><time>2017-9-19T7:44:9Z</time></trkpt>
<trkpt lat="48.439090" lon="2.713727"><ele></ele><time>2017-9-19T7:44:12Z</time></trkpt>
<trkpt lat="48.439090" lon="2.713713"><ele></ele><time>2017-9-19T7:44:15Z</time></trkpt>
<trkpt lat="48.439090" lon="2.713701"><ele></ele><time>2017-9-19T7:44:18Z</time></trkpt>
<trkpt lat="48.439092" lon="2.713698"><ele></ele><time>2017-9-19T7:44:21Z</time></trkpt>
<trkpt lat="48.439101" lon="2.713697"><ele></ele><time>2017-9-19T7:44:24Z</time></trkpt>
<trkpt lat="48.439115" lon="2.713692"><ele></ele><time>2017-9-19T7:44:27Z</time></trkpt>
<trkpt lat="48.439125" lon="2.713683"><ele></ele><time>2017-9-19T7:44:30Z</time></trkpt>
<trkpt lat="48.439137" lon="2.713677"><ele></ele><time>2017-9-19T7:44:33Z</time></trkpt>
<trkpt lat="48.439143" lon="2.713667"><ele></ele><time>2017-9-19T7:44:36Z</time></trkpt>
<trkpt lat="48.439148" lon="2.713657"><ele></ele><time>2017-9-19T7:44:39Z</time></trkpt>
<trkpt lat="48.439152" lon="2.713638"><ele></ele><time>2017-9-19T7:44:42Z</time></trkpt>
<trkpt lat="48.439157" lon="2.713623"><ele></ele><time>2017-9-19T7:44:45Z</time></trkpt>
<trkpt lat="48.439158" lon="2.713605"><ele></ele><time>2017-9-19T7:44:48Z</time></trkpt>
<trkpt lat="48.439157" lon="2.713595"><ele></ele><time>2017-9-19T7:44:51Z</time></trkpt>
<trkpt lat="48.439157" lon="2.713583"><ele></ele><time>2017-9-19T7:44:54Z</time></trkpt>
<trkpt lat="48.439157" lon="2.713580"><ele></ele><time>2017-9-19T7:44:57Z</time></trkpt>
<trkpt lat="48.439155" lon="2.713578"><ele></ele><time>2017-9-19T7:45:0Z</time></trkpt>
<trkpt lat="48.439153" lon="2.713575"><ele></ele><time>2017-9-19T7:45:3Z</time></trkpt>
<trkpt lat="48.439150" lon="2.713577"><ele></ele><time>2017-9-19T7:45:6Z</time></trkpt>
<trkpt lat="48.439145" lon="2.713583"><ele></ele><time>2017-9-19T7:45:9Z</time></trkpt>
<trkpt lat="48.439142" lon="2.713588"><ele></ele><time>2017-9-19T7:45:12Z</time></trkpt>
<trkpt lat="48.439135" lon="2.713586"><ele></ele><time>2017-9-19T7:45:15Z</time></trkpt>
<trkpt lat="48.439127" lon="2.713578"><ele></ele><time>2017-9-19T7:45:18Z</time></trkpt>
<trkpt lat="48.439123" lon="2.713575"><ele></ele><time>2017-9-19T7:45:21Z</time></trkpt>
<trkpt lat="48.439121" lon="2.713570"><ele></ele><time>2017-9-19T7:45:24Z</time></trkpt>
<trkpt lat="48.439115" lon="2.713567"><ele></ele><time>2017-9-19T7:45:27Z</time></trkpt>
<trkpt lat="48.439110" lon="2.713568"><ele></ele><time>2017-9-19T7:45:30Z</time></trkpt>
<trkpt lat="48.439107" lon="2.713568"><ele></ele><time>2017-9-19T7:45:33Z</time></trkpt>
<trkpt lat="48.439103" lon="2.713563"><ele></ele><time>2017-9-19T7:45:36Z</time></trkpt>
<trkpt lat="48.439100" lon="2.713557"><ele></ele><time>2017-9-19T7:45:39Z</time></trkpt>
<trkpt lat="48.439096" lon="2.713548"><ele></ele><time>2017-9-19T7:45:42Z</time></trkpt>
<trkpt lat="48.439093" lon="2.713545"><ele></ele><time>2017-9-19T7:45:45Z</time></trkpt>
<trkpt lat="48.439088" lon="2.713543"><ele></ele><time>2017-9-19T7:45:48Z</time></trkpt>
<trkpt lat="48.439083" lon="2.713538"><ele></ele><time>2017-9-19T7:45:51Z</time></trkpt>
<trkpt lat="48.439076" lon="2.713532"><ele></ele><time>2017-9-19T7:45:54Z</time></trkpt>
<trkpt lat="48.439075" lon="2.713528"><ele></ele><time>2017-9-19T7:45:57Z</time></trkpt>
<trkpt lat="48.439071" lon="2.713523"><ele></ele><time>2017-9-19T7:46:0Z</time></trkpt>
<trkpt lat="48.439071" lon="2.713523"><ele></ele><time>2017-9-19T7:46:3Z</time></trkpt>
<trkpt lat="48.439071" lon="2.713522"><ele></ele><time>2017-9-19T7:46:6Z</time></trkpt>
<trkpt lat="48.439070" lon="2.713520"><ele></ele><time>2017-9-19T7:46:9Z</time></trkpt>
<trkpt lat="48.439070" lon="2.713518"><ele></ele><time>2017-9-19T7:46:12Z</time></trkpt>
<trkpt lat="48.439068" lon="2.713517"><ele></ele><time>2017-9-19T7:46:15Z</time></trkpt>
<trkpt lat="48.439070" lon="2.713517"><ele></ele><time>2017-9-19T7:46:18Z</time></trkpt>
<trkpt lat="48.439070" lon="2.713517"><ele></ele><time>2017-9-19T7:46:21Z</time></trkpt>
<trkpt lat="48.439068" lon="2.713517"><ele></ele><time>2017-9-19T7:46:24Z</time></trkpt>
<trkpt lat="48.439065" lon="2.713513"><ele></ele><time>2017-9-19T7:46:27Z</time></trkpt>
<trkpt lat="48.439060" lon="2.713512"><ele></ele><time>2017-9-19T7:46:30Z</time></trkpt>
<trkpt lat="48.439057" lon="2.713503"><ele></ele><time>2017-9-19T7:46:33Z</time></trkpt>
<trkpt lat="48.439060" lon="2.713518"><ele></ele><time>2017-9-19T7:46:36Z</time></trkpt>
<trkpt lat="48.439047" lon="2.713498"><ele></ele><time>2017-9-19T7:46:39Z</time></trkpt>
<trkpt lat="48.439047" lon="2.713462"><ele></ele><time>2017-9-19T7:46:42Z</time></trkpt>
<trkpt lat="48.439048" lon="2.713448"><ele></ele><time>2017-9-19T7:46:45Z</time></trkpt>
<trkpt lat="48.439052" lon="2.713447"><ele></ele><time>2017-9-19T7:46:48Z</time></trkpt>
<trkpt lat="48.439055" lon="2.713448"><ele></ele><time>2017-9-19T7:46:51Z</time></trkpt>
<trkpt lat="48.439057" lon="2.713453"><ele></ele><time>2017-9-19T7:46:54Z</time></trkpt>
<trkpt lat="48.439057" lon="2.713453"><ele></ele><time>2017-9-19T7:46:57Z</time></trkpt>
<trkpt lat="48.439053" lon="2.713443"><ele></ele><time>2017-9-19T7:47:0Z</time></trkpt>
<trkpt lat="48.439055" lon="2.713445"><ele></ele><time>2017-9-19T7:47:3Z</time></trkpt>
<trkpt lat="48.439057" lon="2.713443"><ele></ele><time>2017-9-19T7:47:6Z</time></trkpt>
<trkpt lat="48.439057" lon="2.713442"><ele></ele><time>2017-9-19T7:47:9Z</time></trkpt>
<trkpt lat="48.439057" lon="2.713440"><ele></ele><time>2017-9-19T7:47:12Z</time></trkpt>
<trkpt lat="48.439055" lon="2.713435"><ele></ele><time>2017-9-19T7:47:15Z</time></trkpt>
<trkpt lat="48.439055" lon="2.713435"><ele></ele><time>2017-9-19T7:47:18Z</time></trkpt>
<trkpt lat="48.439055" lon="2.713435"><ele></ele><time>2017-9-19T7:47:21Z</time></trkpt>
<trkpt lat="48.439060" lon="2.713430"><ele></ele><time>2017-9-19T7:47:24Z</time></trkpt>
<trkpt lat="48.439060" lon="2.713430"><ele></ele><time>2017-9-19T7:47:27Z</time></trkpt>
<trkpt lat="48.439058" lon="2.713427"><ele></ele><time>2017-9-19T7:47:30Z</time></trkpt>
<trkpt lat="48.439060" lon="2.713423"><ele></ele><time>2017-9-19T7:47:33Z</time></trkpt>
<trkpt lat="48.439055" lon="2.713403"><ele></ele><time>2017-9-19T7:47:36Z</time></trkpt>
<trkpt lat="48.439055" lon="2.713380"><ele></ele><time>2017-9-19T7:47:39Z</time></trkpt>
<trkpt lat="48.439060" lon="2.713363"><ele></ele><time>2017-9-19T7:47:42Z</time></trkpt>
<trkpt lat="48.439085" lon="2.713292"><ele></ele><time>2017-9-19T7:47:45Z</time></trkpt>
<trkpt lat="48.439087" lon="2.713245"><ele></ele><time>2017-9-19T7:47:48Z</time></trkpt>
<trkpt lat="48.439085" lon="2.713197"><ele></ele><time>2017-9-19T7:47:51Z</time></trkpt>
<trkpt lat="48.439076" lon="2.713157"><ele></ele><time>2017-9-19T7:47:54Z</time></trkpt>
<trkpt lat="48.439057" lon="2.713060"><ele></ele><time>2017-9-19T7:47:57Z</time></trkpt>
<trkpt lat="48.439057" lon="2.713010"><ele></ele><time>2017-9-19T7:48:0Z</time></trkpt>
<trkpt lat="48.439065" lon="2.712960"><ele></ele><time>2017-9-19T7:48:3Z</time></trkpt>
<trkpt lat="48.439123" lon="2.712553"><ele></ele><time>2017-9-19T7:48:6Z</time></trkpt>
<trkpt lat="48.439142" lon="2.712500"><ele></ele><time>2017-9-19T7:48:9Z</time></trkpt>
<trkpt lat="48.439155" lon="2.712492"><ele></ele><time>2017-9-19T7:48:12Z</time></trkpt>
<trkpt lat="48.439168" lon="2.712473"><ele></ele><time>2017-9-19T7:48:15Z</time></trkpt>
<trkpt lat="48.439177" lon="2.712448"><ele></ele><time>2017-9-19T7:48:18Z</time></trkpt>
<trkpt lat="48.439183" lon="2.712422"><ele></ele><time>2017-9-19T7:48:21Z</time></trkpt>
<trkpt lat="48.439183" lon="2.712392"><ele></ele><time>2017-9-19T7:48:24Z</time></trkpt>
<trkpt lat="48.439180" lon="2.712368"><ele></ele><time>2017-9-19T7:48:27Z</time></trkpt>
<trkpt lat="48.439173" lon="2.712342"><ele></ele><time>2017-9-19T7:48:30Z</time></trkpt>
<trkpt lat="48.439148" lon="2.712237"><ele></ele><time>2017-9-19T7:48:33Z</time></trkpt>
<trkpt lat="48.439137" lon="2.712177"><ele></ele><time>2017-9-19T7:48:36Z</time></trkpt>
<trkpt lat="48.439125" lon="2.712147"><ele></ele><time>2017-9-19T7:48:39Z</time></trkpt>
<trkpt lat="48.439083" lon="2.712062"><ele></ele><time>2017-9-19T7:48:42Z</time></trkpt>
<trkpt lat="48.439065" lon="2.712002"><ele></ele><time>2017-9-19T7:48:45Z</time></trkpt>
<trkpt lat="48.439008" lon="2.711800"><ele></ele><time>2017-9-19T7:48:48Z</time></trkpt>
<trkpt lat="48.438958" lon="2.711643"><ele></ele><time>2017-9-19T7:48:51Z</time></trkpt>
<trkpt lat="48.438948" lon="2.711580"><ele></ele><time>2017-9-19T7:48:54Z</time></trkpt>
<trkpt lat="48.438950" lon="2.711532"><ele></ele><time>2017-9-19T7:48:57Z</time></trkpt>
<trkpt lat="48.438957" lon="2.711513"><ele></ele><time>2017-9-19T7:49:0Z</time></trkpt>
<trkpt lat="48.438961" lon="2.711492"><ele></ele><time>2017-9-19T7:49:3Z</time></trkpt>
<trkpt lat="48.438990" lon="2.711433"><ele></ele><time>2017-9-19T7:49:6Z</time></trkpt>
<trkpt lat="48.438998" lon="2.711417"><ele></ele><time>2017-9-19T7:49:9Z</time></trkpt>
<trkpt lat="48.439013" lon="2.711383"><ele></ele><time>2017-9-19T7:49:12Z</time></trkpt>
<trkpt lat="48.439028" lon="2.711350"><ele></ele><time>2017-9-19T7:49:15Z</time></trkpt>
<trkpt lat="48.439025" lon="2.711332"><ele></ele><time>2017-9-19T7:49:18Z</time></trkpt>
<trkpt lat="48.439023" lon="2.711310"><ele></ele><time>2017-9-19T7:49:21Z</time></trkpt>
<trkpt lat="48.439025" lon="2.711285"><ele></ele><time>2017-9-19T7:49:24Z</time></trkpt>
<trkpt lat="48.439025" lon="2.711280"><ele></ele><time>2017-9-19T7:49:27Z</time></trkpt>
<trkpt lat="48.439025" lon="2.711278"><ele></ele><time>2017-9-19T7:49:30Z</time></trkpt>
<trkpt lat="48.439027" lon="2.711277"><ele></ele><time>2017-9-19T7:49:33Z</time></trkpt>
<trkpt lat="48.439027" lon="2.711275"><ele></ele><time>2017-9-19T7:49:36Z</time></trkpt>
<trkpt lat="48.439027" lon="2.711272"><ele></ele><time>2017-9-19T7:49:39Z</time></trkpt>
<trkpt lat="48.439028" lon="2.711268"><ele></ele><time>2017-9-19T7:49:42Z</time></trkpt>
<trkpt lat="48.439028" lon="2.711265"><ele></ele><time>2017-9-19T7:49:45Z</time></trkpt>
<trkpt lat="48.439028" lon="2.711262"><ele></ele><time>2017-9-19T7:49:48Z</time></trkpt>
<trkpt lat="48.439025" lon="2.711252"><ele></ele><time>2017-9-19T7:49:51Z</time></trkpt>
<trkpt lat="48.439023" lon="2.711248"><ele></ele><time>2017-9-19T7:49:54Z</time></trkpt>
<trkpt lat="48.439023" lon="2.711247"><ele></ele><time>2017-9-19T7:49:57Z</time></trkpt>
<trkpt lat="48.439022" lon="2.711243"><ele></ele><time>2017-9-19T7:50:0Z</time></trkpt>
<trkpt lat="48.439022" lon="2.711240"><ele></ele><time>2017-9-19T7:50:3Z</time></trkpt>
<trkpt lat="48.439020" lon="2.711237"><ele></ele><time>2017-9-19T7:50:6Z</time></trkpt>
<trkpt lat="48.438998" lon="2.711198"><ele></ele><time>2017-9-19T7:50:9Z</time></trkpt>
<trkpt lat="48.438980" lon="2.711185"><ele></ele><time>2017-9-19T7:50:12Z</time></trkpt>
<trkpt lat="48.438957" lon="2.711175"><ele></ele><time>2017-9-19T7:50:15Z</time></trkpt>
<trkpt lat="48.438828" lon="2.711125"><ele></ele><time>2017-9-19T7:50:18Z</time></trkpt>
<trkpt lat="48.438798" lon="2.711110"><ele></ele><time>2017-9-19T7:50:21Z</time></trkpt>
<trkpt lat="48.438768" lon="2.711073"><ele></ele><time>2017-9-19T7:50:24Z</time></trkpt>
<trkpt lat="48.438745" lon="2.711027"><ele></ele><time>2017-9-19T7:50:27Z</time></trkpt>
<trkpt lat="48.438671" lon="2.710835"><ele></ele><time>2017-9-19T7:50:30Z</time></trkpt>
<trkpt lat="48.438595" lon="2.710652"><ele></ele><time>2017-9-19T7:50:33Z</time></trkpt>
<trkpt lat="48.438560" lon="2.710605"><ele></ele><time>2017-9-19T7:50:36Z</time></trkpt>
<trkpt lat="48.438522" lon="2.710575"><ele></ele><time>2017-9-19T7:50:39Z</time></trkpt>
<trkpt lat="48.438420" lon="2.710488"><ele></ele><time>2017-9-19T7:50:42Z</time></trkpt>
<trkpt lat="48.438406" lon="2.710443"><ele></ele><time>2017-9-19T7:50:45Z</time></trkpt>
<trkpt lat="48.438398" lon="2.710410"><ele></ele><time>2017-9-19T7:50:48Z</time></trkpt>
<trkpt lat="48.438387" lon="2.710363"><ele></ele><time>2017-9-19T7:50:51Z</time></trkpt>
<trkpt lat="48.438376" lon="2.710352"><ele></ele><time>2017-9-19T7:50:54Z</time></trkpt>
<trkpt lat="48.438370" lon="2.710343"><ele></ele><time>2017-9-19T7:50:57Z</time></trkpt>
<trkpt lat="48.438356" lon="2.710322"><ele></ele><time>2017-9-19T7:51:0Z</time></trkpt>
<trkpt lat="48.438348" lon="2.710300"><ele></ele><time>2017-9-19T7:51:3Z</time></trkpt>
<trkpt lat="48.438337" lon="2.710277"><ele></ele><time>2017-9-19T7:51:6Z</time></trkpt>
<trkpt lat="48.438330" lon="2.710272"><ele></ele><time>2017-9-19T7:51:9Z</time></trkpt>
<trkpt lat="48.438327" lon="2.710272"><ele></ele><time>2017-9-19T7:51:12Z</time></trkpt>
<trkpt lat="48.438325" lon="2.710273"><ele></ele><time>2017-9-19T7:51:15Z</time></trkpt>
<trkpt lat="48.438322" lon="2.710272"><ele></ele><time>2017-9-19T7:51:18Z</time></trkpt>
<trkpt lat="48.438318" lon="2.710270"><ele></ele><time>2017-9-19T7:51:21Z</time></trkpt>
<trkpt lat="48.438315" lon="2.710267"><ele></ele><time>2017-9-19T7:51:24Z</time></trkpt>
<trkpt lat="48.438312" lon="2.710263"><ele></ele><time>2017-9-19T7:51:27Z</time></trkpt>
<trkpt lat="48.438307" lon="2.710260"><ele></ele><time>2017-9-19T7:51:30Z</time></trkpt>
<trkpt lat="48.438303" lon="2.710257"><ele></ele><time>2017-9-19T7:51:33Z</time></trkpt>
<trkpt lat="48.438300" lon="2.710255"><ele></ele><time>2017-9-19T7:51:36Z</time></trkpt>
<trkpt lat="48.438296" lon="2.710253"><ele></ele><time>2017-9-19T7:51:39Z</time></trkpt>
<trkpt lat="48.438293" lon="2.710252"><ele></ele><time>2017-9-19T7:51:42Z</time></trkpt>
<trkpt lat="48.438290" lon="2.710250"><ele></ele><time>2017-9-19T7:51:45Z</time></trkpt>
<trkpt lat="48.438288" lon="2.710248"><ele></ele><time>2017-9-19T7:51:48Z</time></trkpt>
<trkpt lat="48.438285" lon="2.710247"><ele></ele><time>2017-9-19T7:51:51Z</time></trkpt>
<trkpt lat="48.438282" lon="2.710247"><ele></ele><time>2017-9-19T7:51:54Z</time></trkpt>
<trkpt lat="48.438280" lon="2.710245"><ele></ele><time>2017-9-19T7:51:57Z</time></trkpt>
<trkpt lat="48.438278" lon="2.710245"><ele></ele><time>2017-9-19T7:52:0Z</time></trkpt>
<trkpt lat="48.438277" lon="2.710245"><ele></ele><time>2017-9-19T7:52:3Z</time></trkpt>
<trkpt lat="48.438273" lon="2.710247"><ele></ele><time>2017-9-19T7:52:6Z</time></trkpt>
<trkpt lat="48.438266" lon="2.710250"><ele></ele><time>2017-9-19T7:52:9Z</time></trkpt>
<trkpt lat="48.438263" lon="2.710248"><ele></ele><time>2017-9-19T7:52:12Z</time></trkpt>
<trkpt lat="48.438262" lon="2.710247"><ele></ele><time>2017-9-19T7:52:15Z</time></trkpt>
<trkpt lat="48.438260" lon="2.710247"><ele></ele><time>2017-9-19T7:52:18Z</time></trkpt>
<trkpt lat="48.438253" lon="2.710242"><ele></ele><time>2017-9-19T7:52:21Z</time></trkpt>
<trkpt lat="48.438245" lon="2.710238"><ele></ele><time>2017-9-19T7:52:24Z</time></trkpt>
<trkpt lat="48.438223" lon="2.710218"><ele></ele><time>2017-9-19T7:52:27Z</time></trkpt>
<trkpt lat="48.438217" lon="2.710213"><ele></ele><time>2017-9-19T7:52:30Z</time></trkpt>
<trkpt lat="48.438210" lon="2.710207"><ele></ele><time>2017-9-19T7:52:33Z</time></trkpt>
<trkpt lat="48.438205" lon="2.710202"><ele></ele><time>2017-9-19T7:52:36Z</time></trkpt>
<trkpt lat="48.438203" lon="2.710198"><ele></ele><time>2017-9-19T7:52:39Z</time></trkpt>
<trkpt lat="48.438201" lon="2.710192"><ele></ele><time>2017-9-19T7:52:42Z</time></trkpt>
<trkpt lat="48.438193" lon="2.710170"><ele></ele><time>2017-9-19T7:52:45Z</time></trkpt>
<trkpt lat="48.438192" lon="2.710160"><ele></ele><time>2017-9-19T7:52:48Z</time></trkpt>
<trkpt lat="48.438197" lon="2.710155"><ele></ele><time>2017-9-19T7:52:51Z</time></trkpt>
<trkpt lat="48.438203" lon="2.710140"><ele></ele><time>2017-9-19T7:52:54Z</time></trkpt>
<trkpt lat="48.438206" lon="2.710122"><ele></ele><time>2017-9-19T7:52:57Z</time></trkpt>
<trkpt lat="48.438300" lon="2.709893"><ele></ele><time>2017-9-19T7:53:0Z</time></trkpt>
<trkpt lat="48.438308" lon="2.709870"><ele></ele><time>2017-9-19T7:53:3Z</time></trkpt>
<trkpt lat="48.438320" lon="2.709840"><ele></ele><time>2017-9-19T7:53:6Z</time></trkpt>
<trkpt lat="48.438338" lon="2.709777"><ele></ele><time>2017-9-19T7:53:9Z</time></trkpt>
<trkpt lat="48.438345" lon="2.709750"><ele></ele><time>2017-9-19T7:53:12Z</time></trkpt>
<trkpt lat="48.438350" lon="2.709722"><ele></ele><time>2017-9-19T7:53:15Z</time></trkpt>
<trkpt lat="48.438631" lon="2.708593"><ele></ele><time>2017-9-19T7:53:18Z</time></trkpt>
<trkpt lat="48.438645" lon="2.708553"><ele></ele><time>2017-9-19T7:53:21Z</time></trkpt>
<trkpt lat="48.438775" lon="2.707927"><ele></ele><time>2017-9-19T7:53:24Z</time></trkpt>
<trkpt lat="48.438780" lon="2.707857"><ele></ele><time>2017-9-19T7:53:27Z</time></trkpt>
<trkpt lat="48.438822" lon="2.707383"><ele></ele><time>2017-9-19T7:53:30Z</time></trkpt>
<trkpt lat="48.438848" lon="2.707252"><ele></ele><time>2017-9-19T7:53:33Z</time></trkpt>
<trkpt lat="48.438846" lon="2.707197"><ele></ele><time>2017-9-19T7:53:36Z</time></trkpt>
<trkpt lat="48.438838" lon="2.707148"><ele></ele><time>2017-9-19T7:53:39Z</time></trkpt>
<trkpt lat="48.438822" lon="2.707110"><ele></ele><time>2017-9-19T7:53:42Z</time></trkpt>
<trkpt lat="48.438778" lon="2.706998"><ele></ele><time>2017-9-19T7:53:45Z</time></trkpt>
<trkpt lat="48.438760" lon="2.706960"><ele></ele><time>2017-9-19T7:53:48Z</time></trkpt>
<trkpt lat="48.438747" lon="2.706943"><ele></ele><time>2017-9-19T7:53:51Z</time></trkpt>
<trkpt lat="48.438730" lon="2.706925"><ele></ele><time>2017-9-19T7:53:54Z</time></trkpt>
<trkpt lat="48.438715" lon="2.706912"><ele></ele><time>2017-9-19T7:53:57Z</time></trkpt>
<trkpt lat="48.438642" lon="2.706852"><ele></ele><time>2017-9-19T7:54:0Z</time></trkpt>
<trkpt lat="48.438631" lon="2.706848"><ele></ele><time>2017-9-19T7:54:3Z</time></trkpt>
<trkpt lat="48.438623" lon="2.706847"><ele></ele><time>2017-9-19T7:54:6Z</time></trkpt>
<trkpt lat="48.438613" lon="2.706850"><ele></ele><time>2017-9-19T7:54:9Z</time></trkpt>
<trkpt lat="48.438585" lon="2.706860"><ele></ele><time>2017-9-19T7:54:12Z</time></trkpt>
<trkpt lat="48.438570" lon="2.706868"><ele></ele><time>2017-9-19T7:54:15Z</time></trkpt>
<trkpt lat="48.438555" lon="2.706880"><ele></ele><time>2017-9-19T7:54:18Z</time></trkpt>
<trkpt lat="48.438542" lon="2.706888"><ele></ele><time>2017-9-19T7:54:21Z</time></trkpt>
<trkpt lat="48.438510" lon="2.706903"><ele></ele><time>2017-9-19T7:54:24Z</time></trkpt>
<trkpt lat="48.438480" lon="2.706920"><ele></ele><time>2017-9-19T7:54:27Z</time></trkpt>
<trkpt lat="48.438462" lon="2.706923"><ele></ele><time>2017-9-19T7:54:30Z</time></trkpt>
<trkpt lat="48.438447" lon="2.706925"><ele></ele><time>2017-9-19T7:54:33Z</time></trkpt>
<trkpt lat="48.438432" lon="2.706920"><ele></ele><time>2017-9-19T7:54:36Z</time></trkpt>
<trkpt lat="48.438422" lon="2.706915"><ele></ele><time>2017-9-19T7:54:39Z</time></trkpt>
<trkpt lat="48.438401" lon="2.706905"><ele></ele><time>2017-9-19T7:54:42Z</time></trkpt>
<trkpt lat="48.438393" lon="2.706902"><ele></ele><time>2017-9-19T7:54:45Z</time></trkpt>
<trkpt lat="48.438380" lon="2.706898"><ele></ele><time>2017-9-19T7:54:48Z</time></trkpt>
<trkpt lat="48.438372" lon="2.706895"><ele></ele><time>2017-9-19T7:54:51Z</time></trkpt>
<trkpt lat="48.438363" lon="2.706888"><ele></ele><time>2017-9-19T7:54:54Z</time></trkpt>
<trkpt lat="48.438348" lon="2.706877"><ele></ele><time>2017-9-19T7:54:57Z</time></trkpt>
<trkpt lat="48.438320" lon="2.706858"><ele></ele><time>2017-9-19T7:55:0Z</time></trkpt>
<trkpt lat="48.438296" lon="2.706847"><ele></ele><time>2017-9-19T7:55:3Z</time></trkpt>
<trkpt lat="48.438286" lon="2.706838"><ele></ele><time>2017-9-19T7:55:6Z</time></trkpt>
<trkpt lat="48.438235" lon="2.706802"><ele></ele><time>2017-9-19T7:55:9Z</time></trkpt>
<trkpt lat="48.438222" lon="2.706803"><ele></ele><time>2017-9-19T7:55:12Z</time></trkpt>
<trkpt lat="48.438212" lon="2.706797"><ele></ele><time>2017-9-19T7:55:15Z</time></trkpt>
<trkpt lat="48.438206" lon="2.706792"><ele></ele><time>2017-9-19T7:55:18Z</time></trkpt>
<trkpt lat="48.438203" lon="2.706787"><ele></ele><time>2017-9-19T7:55:21Z</time></trkpt>
<trkpt lat="48.438200" lon="2.706782"><ele></ele><time>2017-9-19T7:55:24Z</time></trkpt>
<trkpt lat="48.438198" lon="2.706777"><ele></ele><time>2017-9-19T7:55:27Z</time></trkpt>
<trkpt lat="48.438197" lon="2.706772"><ele></ele><time>2017-9-19T7:55:30Z</time></trkpt>
<trkpt lat="48.438195" lon="2.706767"><ele></ele><time>2017-9-19T7:55:33Z</time></trkpt>
<trkpt lat="48.438192" lon="2.706762"><ele></ele><time>2017-9-19T7:55:36Z</time></trkpt>
<trkpt lat="48.438187" lon="2.706758"><ele></ele><time>2017-9-19T7:55:39Z</time></trkpt>
<trkpt lat="48.438185" lon="2.706755"><ele></ele><time>2017-9-19T7:55:42Z</time></trkpt>
<trkpt lat="48.438176" lon="2.706758"><ele></ele><time>2017-9-19T7:55:45Z</time></trkpt>
<trkpt lat="48.438168" lon="2.706767"><ele></ele><time>2017-9-19T7:55:48Z</time></trkpt>
<trkpt lat="48.438167" lon="2.706780"><ele></ele><time>2017-9-19T7:55:51Z</time></trkpt>
<trkpt lat="48.438163" lon="2.706785"><ele></ele><time>2017-9-19T7:55:54Z</time></trkpt>
<trkpt lat="48.438158" lon="2.706785"><ele></ele><time>2017-9-19T7:55:57Z</time></trkpt>
<trkpt lat="48.438155" lon="2.706792"><ele></ele><time>2017-9-19T7:56:0Z</time></trkpt>
<trkpt lat="48.438148" lon="2.706792"><ele></ele><time>2017-9-19T7:56:3Z</time></trkpt>
<trkpt lat="48.438140" lon="2.706790"><ele></ele><time>2017-9-19T7:56:6Z</time></trkpt>
<trkpt lat="48.438127" lon="2.706792"><ele></ele><time>2017-9-19T7:56:9Z</time></trkpt>
<trkpt lat="48.438093" lon="2.706792"><ele></ele><time>2017-9-19T7:56:12Z</time></trkpt>
<trkpt lat="48.438088" lon="2.706800"><ele></ele><time>2017-9-19T7:56:15Z</time></trkpt>
<trkpt lat="48.438080" lon="2.706795"><ele></ele><time>2017-9-19T7:56:18Z</time></trkpt>
<trkpt lat="48.438057" lon="2.706782"><ele></ele><time>2017-9-19T7:56:21Z</time></trkpt>
<trkpt lat="48.438053" lon="2.706783"><ele></ele><time>2017-9-19T7:56:24Z</time></trkpt>
<trkpt lat="48.438050" lon="2.706785"><ele></ele><time>2017-9-19T7:56:27Z</time></trkpt>
<trkpt lat="48.438033" lon="2.706790"><ele></ele><time>2017-9-19T7:56:30Z</time></trkpt>
<trkpt lat="48.438026" lon="2.706792"><ele></ele><time>2017-9-19T7:56:33Z</time></trkpt>
<trkpt lat="48.438023" lon="2.706788"><ele></ele><time>2017-9-19T7:56:36Z</time></trkpt>
<trkpt lat="48.438025" lon="2.706788"><ele></ele><time>2017-9-19T7:56:39Z</time></trkpt>
<trkpt lat="48.438025" lon="2.706787"><ele></ele><time>2017-9-19T7:56:42Z</time></trkpt>
<trkpt lat="48.438023" lon="2.706787"><ele></ele><time>2017-9-19T7:56:45Z</time></trkpt>
<trkpt lat="48.438022" lon="2.706785"><ele></ele><time>2017-9-19T7:56:48Z</time></trkpt>
<trkpt lat="48.438018" lon="2.706780"><ele></ele><time>2017-9-19T7:56:51Z</time></trkpt>
<trkpt lat="48.438017" lon="2.706775"><ele></ele><time>2017-9-19T7:56:54Z</time></trkpt>
<trkpt lat="48.438015" lon="2.706772"><ele></ele><time>2017-9-19T7:56:57Z</time></trkpt>
<trkpt lat="48.438015" lon="2.706770"><ele></ele><time>2017-9-19T7:57:0Z</time></trkpt>
<trkpt lat="48.438010" lon="2.706770"><ele></ele><time>2017-9-19T7:57:3Z</time></trkpt>
<trkpt lat="48.438005" lon="2.706770"><ele></ele><time>2017-9-19T7:57:6Z</time></trkpt>
<trkpt lat="48.438005" lon="2.706768"><ele></ele><time>2017-9-19T7:57:9Z</time></trkpt>
<trkpt lat="48.438003" lon="2.706768"><ele></ele><time>2017-9-19T7:57:12Z</time></trkpt>
<trkpt lat="48.438003" lon="2.706768"><ele></ele><time>2017-9-19T7:57:15Z</time></trkpt>
<trkpt lat="48.438001" lon="2.706767"><ele></ele><time>2017-9-19T7:57:18Z</time></trkpt>
<trkpt lat="48.437996" lon="2.706755"><ele></ele><time>2017-9-19T7:57:21Z</time></trkpt>
<trkpt lat="48.437995" lon="2.706750"><ele></ele><time>2017-9-19T7:57:24Z</time></trkpt>
<trkpt lat="48.437996" lon="2.706752"><ele></ele><time>2017-9-19T7:57:27Z</time></trkpt>
<trkpt lat="48.437993" lon="2.706758"><ele></ele><time>2017-9-19T7:57:30Z</time></trkpt>
<trkpt lat="48.437993" lon="2.706768"><ele></ele><time>2017-9-19T7:57:33Z</time></trkpt>
<trkpt lat="48.437992" lon="2.706770"><ele></ele><time>2017-9-19T7:57:36Z</time></trkpt>
<trkpt lat="48.437995" lon="2.706778"><ele></ele><time>2017-9-19T7:57:39Z</time></trkpt>
<trkpt lat="48.437996" lon="2.706783"><ele></ele><time>2017-9-19T7:57:42Z</time></trkpt>
<trkpt lat="48.437998" lon="2.706790"><ele></ele><time>2017-9-19T7:57:45Z</time></trkpt>
<trkpt lat="48.438001" lon="2.706798"><ele></ele><time>2017-9-19T7:57:48Z</time></trkpt>
<trkpt lat="48.438001" lon="2.706807"><ele></ele><time>2017-9-19T7:57:51Z</time></trkpt>
<trkpt lat="48.438005" lon="2.706817"><ele></ele><time>2017-9-19T7:57:54Z</time></trkpt>
<trkpt lat="48.438007" lon="2.706823"><ele></ele><time>2017-9-19T7:57:57Z</time></trkpt>
<trkpt lat="48.438003" lon="2.706825"><ele></ele><time>2017-9-19T7:58:0Z</time></trkpt>
<trkpt lat="48.438003" lon="2.706827"><ele></ele><time>2017-9-19T7:58:3Z</time></trkpt>
<trkpt lat="48.438003" lon="2.706827"><ele></ele><time>2017-9-19T7:58:6Z</time></trkpt>
<trkpt lat="48.438003" lon="2.706828"><ele></ele><time>2017-9-19T7:58:9Z</time></trkpt>
<trkpt lat="48.438003" lon="2.706830"><ele></ele><time>2017-9-19T7:58:12Z</time></trkpt>
<trkpt lat="48.438003" lon="2.706832"><ele></ele><time>2017-9-19T7:58:15Z</time></trkpt>
<trkpt lat="48.438003" lon="2.706833"><ele></ele><time>2017-9-19T7:58:18Z</time></trkpt>
<trkpt lat="48.438001" lon="2.706833"><ele></ele><time>2017-9-19T7:58:21Z</time></trkpt>
<trkpt lat="48.438001" lon="2.706833"><ele></ele><time>2017-9-19T7:58:24Z</time></trkpt>
<trkpt lat="48.437996" lon="2.706832"><ele></ele><time>2017-9-19T7:58:27Z</time></trkpt>
<trkpt lat="48.437992" lon="2.706830"><ele></ele><time>2017-9-19T7:58:30Z</time></trkpt>
<trkpt lat="48.437988" lon="2.706832"><ele></ele><time>2017-9-19T7:58:33Z</time></trkpt>
<trkpt lat="48.437990" lon="2.706830"><ele></ele><time>2017-9-19T7:58:36Z</time></trkpt>
<trkpt lat="48.437987" lon="2.706828"><ele></ele><time>2017-9-19T7:58:39Z</time></trkpt>
<trkpt lat="48.437980" lon="2.706827"><ele></ele><time>2017-9-19T7:58:42Z</time></trkpt>
<trkpt lat="48.437973" lon="2.706827"><ele></ele><time>2017-9-19T7:58:45Z</time></trkpt>
<trkpt lat="48.437966" lon="2.706822"><ele></ele><time>2017-9-19T7:58:48Z</time></trkpt>
<trkpt lat="48.437965" lon="2.706818"><ele></ele><time>2017-9-19T7:58:51Z</time></trkpt>
<trkpt lat="48.437963" lon="2.706817"><ele></ele><time>2017-9-19T7:58:54Z</time></trkpt>
<trkpt lat="48.437960" lon="2.706815"><ele></ele><time>2017-9-19T7:58:57Z</time></trkpt>
<trkpt lat="48.437953" lon="2.706815"><ele></ele><time>2017-9-19T7:59:0Z</time></trkpt>
<trkpt lat="48.437948" lon="2.706817"><ele></ele><time>2017-9-19T7:59:3Z</time></trkpt>
<trkpt lat="48.437943" lon="2.706822"><ele></ele><time>2017-9-19T7:59:6Z</time></trkpt>
<trkpt lat="48.437938" lon="2.706827"><ele></ele><time>2017-9-19T7:59:9Z</time></trkpt>
<trkpt lat="48.437937" lon="2.706827"><ele></ele><time>2017-9-19T7:59:12Z</time></trkpt>
<trkpt lat="48.437933" lon="2.706825"><ele></ele><time>2017-9-19T7:59:15Z</time></trkpt>
<trkpt lat="48.437930" lon="2.706825"><ele></ele><time>2017-9-19T7:59:18Z</time></trkpt>
<trkpt lat="48.437925" lon="2.706825"><ele></ele><time>2017-9-19T7:59:21Z</time></trkpt>
<trkpt lat="48.437913" lon="2.706822"><ele></ele><time>2017-9-19T7:59:24Z</time></trkpt>
<trkpt lat="48.437905" lon="2.706820"><ele></ele><time>2017-9-19T7:59:27Z</time></trkpt>
<trkpt lat="48.437890" lon="2.706815"><ele></ele><time>2017-9-19T7:59:30Z</time></trkpt>
<trkpt lat="48.437886" lon="2.706815"><ele></ele><time>2017-9-19T7:59:33Z</time></trkpt>
<trkpt lat="48.437882" lon="2.706817"><ele></ele><time>2017-9-19T7:59:36Z</time></trkpt>
<trkpt lat="48.437878" lon="2.706813"><ele></ele><time>2017-9-19T7:59:39Z</time></trkpt>
<trkpt lat="48.437873" lon="2.706810"><ele></ele><time>2017-9-19T7:59:42Z</time></trkpt>
<trkpt lat="48.437857" lon="2.706808"><ele></ele><time>2017-9-19T7:59:45Z</time></trkpt>
<trkpt lat="48.437837" lon="2.706807"><ele></ele><time>2017-9-19T7:59:48Z</time></trkpt>
<trkpt lat="48.437812" lon="2.706807"><ele></ele><time>2017-9-19T7:59:51Z</time></trkpt>
<trkpt lat="48.437807" lon="2.706817"><ele></ele><time>2017-9-19T7:59:54Z</time></trkpt>
<trkpt lat="48.437798" lon="2.706815"><ele></ele><time>2017-9-19T7:59:57Z</time></trkpt>
<trkpt lat="48.437790" lon="2.706817"><ele></ele><time>2017-9-19T8:0:0Z</time></trkpt>
<trkpt lat="48.437781" lon="2.706818"><ele></ele><time>2017-9-19T8:0:3Z</time></trkpt>
<trkpt lat="48.437771" lon="2.706813"><ele></ele><time>2017-9-19T8:0:6Z</time></trkpt>
<trkpt lat="48.437763" lon="2.706802"><ele></ele><time>2017-9-19T8:0:9Z</time></trkpt>
<trkpt lat="48.437758" lon="2.706800"><ele></ele><time>2017-9-19T8:0:12Z</time></trkpt>
<trkpt lat="48.437753" lon="2.706802"><ele></ele><time>2017-9-19T8:0:15Z</time></trkpt>
<trkpt lat="48.437745" lon="2.706797"><ele></ele><time>2017-9-19T8:0:18Z</time></trkpt>
<trkpt lat="48.437738" lon="2.706785"><ele></ele><time>2017-9-19T8:0:21Z</time></trkpt>
<trkpt lat="48.437728" lon="2.706768"><ele></ele><time>2017-9-19T8:0:24Z</time></trkpt>
<trkpt lat="48.437720" lon="2.706757"><ele></ele><time>2017-9-19T8:0:27Z</time></trkpt>
<trkpt lat="48.437711" lon="2.706750"><ele></ele><time>2017-9-19T8:0:30Z</time></trkpt>
<trkpt lat="48.437703" lon="2.706738"><ele></ele><time>2017-9-19T8:0:33Z</time></trkpt>
<trkpt lat="48.437693" lon="2.706723"><ele></ele><time>2017-9-19T8:0:36Z</time></trkpt>
<trkpt lat="48.437688" lon="2.706713"><ele></ele><time>2017-9-19T8:0:39Z</time></trkpt>
<trkpt lat="48.437685" lon="2.706708"><ele></ele><time>2017-9-19T8:0:42Z</time></trkpt>
<trkpt lat="48.437683" lon="2.706698"><ele></ele><time>2017-9-19T8:0:45Z</time></trkpt>
<trkpt lat="48.437678" lon="2.706685"><ele></ele><time>2017-9-19T8:0:48Z</time></trkpt>
<trkpt lat="48.437642" lon="2.706607"><ele></ele><time>2017-9-19T8:0:51Z</time></trkpt>
<trkpt lat="48.437625" lon="2.706563"><ele></ele><time>2017-9-19T8:0:54Z</time></trkpt>
<trkpt lat="48.437621" lon="2.706545"><ele></ele><time>2017-9-19T8:0:57Z</time></trkpt>
<trkpt lat="48.437615" lon="2.706528"><ele></ele><time>2017-9-19T8:1:0Z</time></trkpt>
<trkpt lat="48.437582" lon="2.706437"><ele></ele><time>2017-9-19T8:1:3Z</time></trkpt>
<trkpt lat="48.437575" lon="2.706427"><ele></ele><time>2017-9-19T8:1:6Z</time></trkpt>
<trkpt lat="48.437560" lon="2.706398"><ele></ele><time>2017-9-19T8:1:9Z</time></trkpt>
<trkpt lat="48.437562" lon="2.706383"><ele></ele><time>2017-9-19T8:1:12Z</time></trkpt>
<trkpt lat="48.437553" lon="2.706372"><ele></ele><time>2017-9-19T8:1:15Z</time></trkpt>
<trkpt lat="48.437505" lon="2.706312"><ele></ele><time>2017-9-19T8:1:18Z</time></trkpt>
<trkpt lat="48.437493" lon="2.706302"><ele></ele><time>2017-9-19T8:1:21Z</time></trkpt>
<trkpt lat="48.437472" lon="2.706293"><ele></ele><time>2017-9-19T8:1:24Z</time></trkpt>
<trkpt lat="48.437438" lon="2.706290"><ele></ele><time>2017-9-19T8:1:27Z</time></trkpt>
<trkpt lat="48.437435" lon="2.706281"><ele></ele><time>2017-9-19T8:1:30Z</time></trkpt>
<trkpt lat="48.437423" lon="2.706270"><ele></ele><time>2017-9-19T8:1:33Z</time></trkpt>
<trkpt lat="48.437402" lon="2.706255"><ele></ele><time>2017-9-19T8:1:36Z</time></trkpt>
<trkpt lat="48.437400" lon="2.706263"><ele></ele><time>2017-9-19T8:1:39Z</time></trkpt>
<trkpt lat="48.437387" lon="2.706257"><ele></ele><time>2017-9-19T8:1:42Z</time></trkpt>
<trkpt lat="48.437378" lon="2.706250"><ele></ele><time>2017-9-19T8:1:45Z</time></trkpt>
<trkpt lat="48.437373" lon="2.706248"><ele></ele><time>2017-9-19T8:1:48Z</time></trkpt>
<trkpt lat="48.437371" lon="2.706248"><ele></ele><time>2017-9-19T8:1:51Z</time></trkpt>
<trkpt lat="48.437368" lon="2.706247"><ele></ele><time>2017-9-19T8:1:54Z</time></trkpt>
<trkpt lat="48.437362" lon="2.706243"><ele></ele><time>2017-9-19T8:1:57Z</time></trkpt>
<trkpt lat="48.437357" lon="2.706238"><ele></ele><time>2017-9-19T8:2:0Z</time></trkpt>
<trkpt lat="48.437352" lon="2.706233"><ele></ele><time>2017-9-19T8:2:3Z</time></trkpt>
<trkpt lat="48.437346" lon="2.706233"><ele></ele><time>2017-9-19T8:2:6Z</time></trkpt>
<trkpt lat="48.437342" lon="2.706233"><ele></ele><time>2017-9-19T8:2:9Z</time></trkpt>
<trkpt lat="48.437335" lon="2.706233"><ele></ele><time>2017-9-19T8:2:12Z</time></trkpt>
<trkpt lat="48.437328" lon="2.706235"><ele></ele><time>2017-9-19T8:2:15Z</time></trkpt>
<trkpt lat="48.437323" lon="2.706237"><ele></ele><time>2017-9-19T8:2:18Z</time></trkpt>
<trkpt lat="48.437318" lon="2.706238"><ele></ele><time>2017-9-19T8:2:21Z</time></trkpt>
<trkpt lat="48.437311" lon="2.706238"><ele></ele><time>2017-9-19T8:2:24Z</time></trkpt>
<trkpt lat="48.437305" lon="2.706232"><ele></ele><time>2017-9-19T8:2:27Z</time></trkpt>
<trkpt lat="48.437298" lon="2.706228"><ele></ele><time>2017-9-19T8:2:30Z</time></trkpt>
<trkpt lat="48.437280" lon="2.706215"><ele></ele><time>2017-9-19T8:2:33Z</time></trkpt>
<trkpt lat="48.437270" lon="2.706207"><ele></ele><time>2017-9-19T8:2:36Z</time></trkpt>
<trkpt lat="48.437252" lon="2.706195"><ele></ele><time>2017-9-19T8:2:39Z</time></trkpt>
<trkpt lat="48.437247" lon="2.706170"><ele></ele><time>2017-9-19T8:2:42Z</time></trkpt>
<trkpt lat="48.437240" lon="2.706148"><ele></ele><time>2017-9-19T8:2:45Z</time></trkpt>
<trkpt lat="48.437237" lon="2.706135"><ele></ele><time>2017-9-19T8:2:48Z</time></trkpt>
<trkpt lat="48.437230" lon="2.706015"><ele></ele><time>2017-9-19T8:2:51Z</time></trkpt>
<trkpt lat="48.437240" lon="2.705985"><ele></ele><time>2017-9-19T8:2:54Z</time></trkpt>
<trkpt lat="48.437243" lon="2.705970"><ele></ele><time>2017-9-19T8:2:57Z</time></trkpt>
<trkpt lat="48.437247" lon="2.705920"><ele></ele><time>2017-9-19T8:3:0Z</time></trkpt>
<trkpt lat="48.437253" lon="2.705863"><ele></ele><time>2017-9-19T8:3:3Z</time></trkpt>
<trkpt lat="48.437260" lon="2.705853"><ele></ele><time>2017-9-19T8:3:6Z</time></trkpt>
<trkpt lat="48.437268" lon="2.705845"><ele></ele><time>2017-9-19T8:3:9Z</time></trkpt>
<trkpt lat="48.437278" lon="2.705830"><ele></ele><time>2017-9-19T8:3:12Z</time></trkpt>
<trkpt lat="48.437290" lon="2.705793"><ele></ele><time>2017-9-19T8:3:15Z</time></trkpt>
<trkpt lat="48.437283" lon="2.705775"><ele></ele><time>2017-9-19T8:3:18Z</time></trkpt>
<trkpt lat="48.437280" lon="2.705765"><ele></ele><time>2017-9-19T8:3:21Z</time></trkpt>
<trkpt lat="48.437285" lon="2.705753"><ele></ele><time>2017-9-19T8:3:24Z</time></trkpt>
<trkpt lat="48.437295" lon="2.705743"><ele></ele><time>2017-9-19T8:3:27Z</time></trkpt>
<trkpt lat="48.437315" lon="2.705733"><ele></ele><time>2017-9-19T8:3:30Z</time></trkpt>
<trkpt lat="48.437323" lon="2.705735"><ele></ele><time>2017-9-19T8:3:33Z</time></trkpt>
<trkpt lat="48.437335" lon="2.705745"><ele></ele><time>2017-9-19T8:3:36Z</time></trkpt>
<trkpt lat="48.437348" lon="2.705748"><ele></ele><time>2017-9-19T8:3:39Z</time></trkpt>
<trkpt lat="48.437382" lon="2.705750"><ele></ele><time>2017-9-19T8:3:42Z</time></trkpt>
<trkpt lat="48.437390" lon="2.705755"><ele></ele><time>2017-9-19T8:3:45Z</time></trkpt>
<trkpt lat="48.437407" lon="2.705757"><ele></ele><time>2017-9-19T8:3:48Z</time></trkpt>
<trkpt lat="48.437425" lon="2.705767"><ele></ele><time>2017-9-19T8:3:51Z</time></trkpt>
<trkpt lat="48.437440" lon="2.705765"><ele></ele><time>2017-9-19T8:3:54Z</time></trkpt>
<trkpt lat="48.437450" lon="2.705763"><ele></ele><time>2017-9-19T8:3:57Z</time></trkpt>
<trkpt lat="48.437465" lon="2.705768"><ele></ele><time>2017-9-19T8:4:0Z</time></trkpt>
<trkpt lat="48.437470" lon="2.705772"><ele></ele><time>2017-9-19T8:4:3Z</time></trkpt>
<trkpt lat="48.437477" lon="2.705775"><ele></ele><time>2017-9-19T8:4:6Z</time></trkpt>
<trkpt lat="48.437483" lon="2.705780"><ele></ele><time>2017-9-19T8:4:9Z</time></trkpt>
<trkpt lat="48.437525" lon="2.705808"><ele></ele><time>2017-9-19T8:4:12Z</time></trkpt>
<trkpt lat="48.437537" lon="2.705817"><ele></ele><time>2017-9-19T8:4:15Z</time></trkpt>
<trkpt lat="48.437545" lon="2.705818"><ele></ele><time>2017-9-19T8:4:18Z</time></trkpt>
<trkpt lat="48.437550" lon="2.705821"><ele></ele><time>2017-9-19T8:4:21Z</time></trkpt>
<trkpt lat="48.437555" lon="2.705828"><ele></ele><time>2017-9-19T8:4:24Z</time></trkpt>
<trkpt lat="48.437567" lon="2.705835"><ele></ele><time>2017-9-19T8:4:27Z</time></trkpt>
<trkpt lat="48.437593" lon="2.705842"><ele></ele><time>2017-9-19T8:4:30Z</time></trkpt>
<trkpt lat="48.437635" lon="2.705845"><ele></ele><time>2017-9-19T8:4:33Z</time></trkpt>
<trkpt lat="48.437683" lon="2.705862"><ele></ele><time>2017-9-19T8:4:36Z</time></trkpt>
<trkpt lat="48.437708" lon="2.705875"><ele></ele><time>2017-9-19T8:4:39Z</time></trkpt>
<trkpt lat="48.437732" lon="2.705872"><ele></ele><time>2017-9-19T8:4:42Z</time></trkpt>
<trkpt lat="48.437748" lon="2.705870"><ele></ele><time>2017-9-19T8:4:45Z</time></trkpt>
<trkpt lat="48.437760" lon="2.705868"><ele></ele><time>2017-9-19T8:4:48Z</time></trkpt>
<trkpt lat="48.437770" lon="2.705868"><ele></ele><time>2017-9-19T8:4:51Z</time></trkpt>
<trkpt lat="48.437776" lon="2.705868"><ele></ele><time>2017-9-19T8:4:54Z</time></trkpt>
<trkpt lat="48.437781" lon="2.705867"><ele></ele><time>2017-9-19T8:4:57Z</time></trkpt>
<trkpt lat="48.437783" lon="2.705867"><ele></ele><time>2017-9-19T8:5:0Z</time></trkpt>
<trkpt lat="48.437775" lon="2.705868"><ele></ele><time>2017-9-19T8:5:3Z</time></trkpt>
<trkpt lat="48.437771" lon="2.705868"><ele></ele><time>2017-9-19T8:5:6Z</time></trkpt>
<trkpt lat="48.437767" lon="2.705868"><ele></ele><time>2017-9-19T8:5:9Z</time></trkpt>
<trkpt lat="48.437767" lon="2.705868"><ele></ele><time>2017-9-19T8:5:12Z</time></trkpt>
<trkpt lat="48.437770" lon="2.705868"><ele></ele><time>2017-9-19T8:5:15Z</time></trkpt>
<trkpt lat="48.437771" lon="2.705863"><ele></ele><time>2017-9-19T8:5:18Z</time></trkpt>
<trkpt lat="48.437771" lon="2.705860"><ele></ele><time>2017-9-19T8:5:21Z</time></trkpt>
<trkpt lat="48.437778" lon="2.705858"><ele></ele><time>2017-9-19T8:5:24Z</time></trkpt>
<trkpt lat="48.437783" lon="2.705855"><ele></ele><time>2017-9-19T8:5:27Z</time></trkpt>
<trkpt lat="48.437793" lon="2.705845"><ele></ele><time>2017-9-19T8:5:30Z</time></trkpt>
<trkpt lat="48.437793" lon="2.705837"><ele></ele><time>2017-9-19T8:5:33Z</time></trkpt>
<trkpt lat="48.437792" lon="2.705830"><ele></ele><time>2017-9-19T8:5:36Z</time></trkpt>
<trkpt lat="48.437785" lon="2.705815"><ele></ele><time>2017-9-19T8:5:39Z</time></trkpt>
<trkpt lat="48.437775" lon="2.705800"><ele></ele><time>2017-9-19T8:5:42Z</time></trkpt>
<trkpt lat="48.437763" lon="2.705793"><ele></ele><time>2017-9-19T8:5:45Z</time></trkpt>
<trkpt lat="48.437750" lon="2.705788"><ele></ele><time>2017-9-19T8:5:48Z</time></trkpt>
<trkpt lat="48.437735" lon="2.705782"><ele></ele><time>2017-9-19T8:5:51Z</time></trkpt>
<trkpt lat="48.437717" lon="2.705777"><ele></ele><time>2017-9-19T8:5:54Z</time></trkpt>
<trkpt lat="48.437680" lon="2.705762"><ele></ele><time>2017-9-19T8:5:57Z</time></trkpt>
<trkpt lat="48.437663" lon="2.705757"><ele></ele><time>2017-9-19T8:6:0Z</time></trkpt>
<trkpt lat="48.437647" lon="2.705758"><ele></ele><time>2017-9-19T8:6:3Z</time></trkpt>
<trkpt lat="48.437632" lon="2.705763"><ele></ele><time>2017-9-19T8:6:6Z</time></trkpt>
<trkpt lat="48.437620" lon="2.705765"><ele></ele><time>2017-9-19T8:6:9Z</time></trkpt>
<trkpt lat="48.437613" lon="2.705762"><ele></ele><time>2017-9-19T8:6:12Z</time></trkpt>
<trkpt lat="48.437598" lon="2.705752"><ele></ele><time>2017-9-19T8:6:15Z</time></trkpt>
<trkpt lat="48.437593" lon="2.705747"><ele></ele><time>2017-9-19T8:6:18Z</time></trkpt>
<trkpt lat="48.437590" lon="2.705745"><ele></ele><time>2017-9-19T8:6:21Z</time></trkpt>
<trkpt lat="48.437590" lon="2.705747"><ele></ele><time>2017-9-19T8:6:24Z</time></trkpt>
<trkpt lat="48.437592" lon="2.705745"><ele></ele><time>2017-9-19T8:6:27Z</time></trkpt>
<trkpt lat="48.437592" lon="2.705745"><ele></ele><time>2017-9-19T8:6:30Z</time></trkpt>
<trkpt lat="48.437592" lon="2.705745"><ele></ele><time>2017-9-19T8:6:33Z</time></trkpt>
<trkpt lat="48.437592" lon="2.705743"><ele></ele><time>2017-9-19T8:6:36Z</time></trkpt>
<trkpt lat="48.437593" lon="2.705743"><ele></ele><time>2017-9-19T8:6:39Z</time></trkpt>
<trkpt lat="48.437593" lon="2.705743"><ele></ele><time>2017-9-19T8:6:42Z</time></trkpt>
<trkpt lat="48.437593" lon="2.705740"><ele></ele><time>2017-9-19T8:6:45Z</time></trkpt>
<trkpt lat="48.437592" lon="2.705735"><ele></ele><time>2017-9-19T8:6:48Z</time></trkpt>
<trkpt lat="48.437592" lon="2.705732"><ele></ele><time>2017-9-19T8:6:51Z</time></trkpt>
<trkpt lat="48.437590" lon="2.705728"><ele></ele><time>2017-9-19T8:6:54Z</time></trkpt>
<trkpt lat="48.437590" lon="2.705727"><ele></ele><time>2017-9-19T8:6:57Z</time></trkpt>
<trkpt lat="48.437590" lon="2.705727"><ele></ele><time>2017-9-19T8:7:0Z</time></trkpt>
<trkpt lat="48.437588" lon="2.705723"><ele></ele><time>2017-9-19T8:7:3Z</time></trkpt>
<trkpt lat="48.437588" lon="2.705725"><ele></ele><time>2017-9-19T8:7:6Z</time></trkpt>
<trkpt lat="48.437587" lon="2.705720"><ele></ele><time>2017-9-19T8:7:9Z</time></trkpt>
<trkpt lat="48.437573" lon="2.705720"><ele></ele><time>2017-9-19T8:7:12Z</time></trkpt>
<trkpt lat="48.437505" lon="2.705722"><ele></ele><time>2017-9-19T8:7:15Z</time></trkpt>
<trkpt lat="48.437483" lon="2.705717"><ele></ele><time>2017-9-19T8:7:18Z</time></trkpt>
<trkpt lat="48.437391" lon="2.705708"><ele></ele><time>2017-9-19T8:7:21Z</time></trkpt>
<trkpt lat="48.437360" lon="2.705710"><ele></ele><time>2017-9-19T8:7:24Z</time></trkpt>
<trkpt lat="48.437325" lon="2.705727"><ele></ele><time>2017-9-19T8:7:27Z</time></trkpt>
<trkpt lat="48.437298" lon="2.705755"><ele></ele><time>2017-9-19T8:7:30Z</time></trkpt>
<trkpt lat="48.437277" lon="2.705797"><ele></ele><time>2017-9-19T8:7:33Z</time></trkpt>
<trkpt lat="48.437247" lon="2.705878"><ele></ele><time>2017-9-19T8:7:36Z</time></trkpt>
<trkpt lat="48.437208" lon="2.705963"><ele></ele><time>2017-9-19T8:7:39Z</time></trkpt>
<trkpt lat="48.437055" lon="2.706325"><ele></ele><time>2017-9-19T8:7:42Z</time></trkpt>
<trkpt lat="48.437053" lon="2.706363"><ele></ele><time>2017-9-19T8:7:45Z</time></trkpt>
<trkpt lat="48.437038" lon="2.706418"><ele></ele><time>2017-9-19T8:7:48Z</time></trkpt>
<trkpt lat="48.437020" lon="2.706480"><ele></ele><time>2017-9-19T8:7:51Z</time></trkpt>
<trkpt lat="48.437007" lon="2.706540"><ele></ele><time>2017-9-19T8:7:54Z</time></trkpt>
<trkpt lat="48.437000" lon="2.706595"><ele></ele><time>2017-9-19T8:7:57Z</time></trkpt>
<trkpt lat="48.436991" lon="2.706653"><ele></ele><time>2017-9-19T8:8:0Z</time></trkpt>
<trkpt lat="48.436927" lon="2.707060"><ele></ele><time>2017-9-19T8:8:3Z</time></trkpt>
<trkpt lat="48.436938" lon="2.707120"><ele></ele><time>2017-9-19T8:8:6Z</time></trkpt>
<trkpt lat="48.436982" lon="2.707255"><ele></ele><time>2017-9-19T8:8:9Z</time></trkpt>
<trkpt lat="48.437002" lon="2.707293"><ele></ele><time>2017-9-19T8:8:12Z</time></trkpt>
<trkpt lat="48.437018" lon="2.707333"><ele></ele><time>2017-9-19T8:8:15Z</time></trkpt>
<trkpt lat="48.437058" lon="2.707363"><ele></ele><time>2017-9-19T8:8:18Z</time></trkpt>
<trkpt lat="48.437148" lon="2.707412"><ele></ele><time>2017-9-19T8:8:21Z</time></trkpt>
<trkpt lat="48.437281" lon="2.707498"><ele></ele><time>2017-9-19T8:8:24Z</time></trkpt>
<trkpt lat="48.437403" lon="2.707568"><ele></ele><time>2017-9-19T8:8:27Z</time></trkpt>
<trkpt lat="48.437643" lon="2.707680"><ele></ele><time>2017-9-19T8:8:30Z</time></trkpt>
<trkpt lat="48.437677" lon="2.707718"><ele></ele><time>2017-9-19T8:8:33Z</time></trkpt>
<trkpt lat="48.437703" lon="2.707763"><ele></ele><time>2017-9-19T8:8:36Z</time></trkpt>
<trkpt lat="48.437723" lon="2.707813"><ele></ele><time>2017-9-19T8:8:39Z</time></trkpt>
<trkpt lat="48.437738" lon="2.707865"><ele></ele><time>2017-9-19T8:8:42Z</time></trkpt>
<trkpt lat="48.437785" lon="2.708060"><ele></ele><time>2017-9-19T8:8:45Z</time></trkpt>
<trkpt lat="48.437780" lon="2.708110"><ele></ele><time>2017-9-19T8:8:48Z</time></trkpt>
<trkpt lat="48.437753" lon="2.708207"><ele></ele><time>2017-9-19T8:8:51Z</time></trkpt>
<trkpt lat="48.437732" lon="2.708247"><ele></ele><time>2017-9-19T8:8:54Z</time></trkpt>
<trkpt lat="48.437702" lon="2.708283"><ele></ele><time>2017-9-19T8:8:57Z</time></trkpt>
<trkpt lat="48.437670" lon="2.708312"><ele></ele><time>2017-9-19T8:9:0Z</time></trkpt>
<trkpt lat="48.437633" lon="2.708333"><ele></ele><time>2017-9-19T8:9:3Z</time></trkpt>
<trkpt lat="48.437588" lon="2.708347"><ele></ele><time>2017-9-19T8:9:6Z</time></trkpt>
<trkpt lat="48.437547" lon="2.708340"><ele></ele><time>2017-9-19T8:9:9Z</time></trkpt>
<trkpt lat="48.437502" lon="2.708325"><ele></ele><time>2017-9-19T8:9:12Z</time></trkpt>
<trkpt lat="48.437320" lon="2.708257"><ele></ele><time>2017-9-19T8:9:15Z</time></trkpt>
<trkpt lat="48.437285" lon="2.708252"><ele></ele><time>2017-9-19T8:9:18Z</time></trkpt>
<trkpt lat="48.437258" lon="2.708250"><ele></ele><time>2017-9-19T8:9:21Z</time></trkpt>
<trkpt lat="48.437227" lon="2.708253"><ele></ele><time>2017-9-19T8:9:24Z</time></trkpt>
<trkpt lat="48.437193" lon="2.708263"><ele></ele><time>2017-9-19T8:9:27Z</time></trkpt>
<trkpt lat="48.437093" lon="2.708310"><ele></ele><time>2017-9-19T8:9:30Z</time></trkpt>
<trkpt lat="48.437052" lon="2.708333"><ele></ele><time>2017-9-19T8:9:33Z</time></trkpt>
<trkpt lat="48.437015" lon="2.708365"><ele></ele><time>2017-9-19T8:9:36Z</time></trkpt>
<trkpt lat="48.436940" lon="2.708438"><ele></ele><time>2017-9-19T8:9:39Z</time></trkpt>
<trkpt lat="48.436913" lon="2.708488"><ele></ele><time>2017-9-19T8:9:42Z</time></trkpt>
<trkpt lat="48.436566" lon="2.709175"><ele></ele><time>2017-9-19T8:9:45Z</time></trkpt>
<trkpt lat="48.436541" lon="2.709205"><ele></ele><time>2017-9-19T8:9:48Z</time></trkpt>
<trkpt lat="48.436483" lon="2.709295"><ele></ele><time>2017-9-19T8:9:51Z</time></trkpt>
<trkpt lat="48.436455" lon="2.709350"><ele></ele><time>2017-9-19T8:9:54Z</time></trkpt>
<trkpt lat="48.435923" lon="2.710370"><ele></ele><time>2017-9-19T8:9:57Z</time></trkpt>
<trkpt lat="48.435873" lon="2.710410"><ele></ele><time>2017-9-19T8:10:0Z</time></trkpt>
<trkpt lat="48.435398" lon="2.710737"><ele></ele><time>2017-9-19T8:10:3Z</time></trkpt>
<trkpt lat="48.435345" lon="2.710757"><ele></ele><time>2017-9-19T8:10:6Z</time></trkpt>
<trkpt lat="48.435300" lon="2.710768"><ele></ele><time>2017-9-19T8:10:9Z</time></trkpt>
<trkpt lat="48.435253" lon="2.710767"><ele></ele><time>2017-9-19T8:10:12Z</time></trkpt>
<trkpt lat="48.435200" lon="2.710752"><ele></ele><time>2017-9-19T8:10:15Z</time></trkpt>
<trkpt lat="48.435155" lon="2.710720"><ele></ele><time>2017-9-19T8:10:18Z</time></trkpt>
<trkpt lat="48.435108" lon="2.710683"><ele></ele><time>2017-9-19T8:10:21Z</time></trkpt>
<trkpt lat="48.435013" lon="2.710593"><ele></ele><time>2017-9-19T8:10:24Z</time></trkpt>
<trkpt lat="48.434937" lon="2.710497"><ele></ele><time>2017-9-19T8:10:27Z</time></trkpt>
<trkpt lat="48.434846" lon="2.710372"><ele></ele><time>2017-9-19T8:10:30Z</time></trkpt>
<trkpt lat="48.434823" lon="2.710355"><ele></ele><time>2017-9-19T8:10:33Z</time></trkpt>
<trkpt lat="48.434803" lon="2.710353"><ele></ele><time>2017-9-19T8:10:36Z</time></trkpt>
<trkpt lat="48.434792" lon="2.710360"><ele></ele><time>2017-9-19T8:10:39Z</time></trkpt>
<trkpt lat="48.434788" lon="2.710368"><ele></ele><time>2017-9-19T8:10:42Z</time></trkpt>
<trkpt lat="48.434788" lon="2.710372"><ele></ele><time>2017-9-19T8:10:45Z</time></trkpt>
<trkpt lat="48.434788" lon="2.710380"><ele></ele><time>2017-9-19T8:10:48Z</time></trkpt>
<trkpt lat="48.434788" lon="2.710388"><ele></ele><time>2017-9-19T8:10:51Z</time></trkpt>
<trkpt lat="48.434793" lon="2.710385"><ele></ele><time>2017-9-19T8:10:54Z</time></trkpt>
<trkpt lat="48.434795" lon="2.710388"><ele></ele><time>2017-9-19T8:10:57Z</time></trkpt>
<trkpt lat="48.434793" lon="2.710392"><ele></ele><time>2017-9-19T8:11:0Z</time></trkpt>
<trkpt lat="48.434795" lon="2.710392"><ele></ele><time>2017-9-19T8:11:3Z</time></trkpt>
<trkpt lat="48.434793" lon="2.710397"><ele></ele><time>2017-9-19T8:11:6Z</time></trkpt>
<trkpt lat="48.434793" lon="2.710402"><ele></ele><time>2017-9-19T8:11:9Z</time></trkpt>
<trkpt lat="48.434790" lon="2.710412"><ele></ele><time>2017-9-19T8:11:12Z</time></trkpt>
<trkpt lat="48.434783" lon="2.710427"><ele></ele><time>2017-9-19T8:11:15Z</time></trkpt>
<trkpt lat="48.434783" lon="2.710437"><ele></ele><time>2017-9-19T8:11:18Z</time></trkpt>
<trkpt lat="48.434781" lon="2.710455"><ele></ele><time>2017-9-19T8:11:21Z</time></trkpt>
<trkpt lat="48.434780" lon="2.710482"><ele></ele><time>2017-9-19T8:11:24Z</time></trkpt>
<trkpt lat="48.434781" lon="2.710538"><ele></ele><time>2017-9-19T8:11:27Z</time></trkpt>
<trkpt lat="48.434773" lon="2.710578"><ele></ele><time>2017-9-19T8:11:30Z</time></trkpt>
<trkpt lat="48.434753" lon="2.710662"><ele></ele><time>2017-9-19T8:11:33Z</time></trkpt>
<trkpt lat="48.434747" lon="2.710710"><ele></ele><time>2017-9-19T8:11:36Z</time></trkpt>
<trkpt lat="48.434742" lon="2.710758"><ele></ele><time>2017-9-19T8:11:39Z</time></trkpt>
<trkpt lat="48.434720" lon="2.710907"><ele></ele><time>2017-9-19T8:11:42Z</time></trkpt>
<trkpt lat="48.434695" lon="2.711007"><ele></ele><time>2017-9-19T8:11:45Z</time></trkpt>
<trkpt lat="48.434683" lon="2.711060"><ele></ele><time>2017-9-19T8:11:48Z</time></trkpt>
<trkpt lat="48.434677" lon="2.711120"><ele></ele><time>2017-9-19T8:11:51Z</time></trkpt>
<trkpt lat="48.434495" lon="2.712067"><ele></ele><time>2017-9-19T8:11:54Z</time></trkpt>
<trkpt lat="48.434461" lon="2.712312"><ele></ele><time>2017-9-19T8:11:57Z</time></trkpt>
<trkpt lat="48.434455" lon="2.712370"><ele></ele><time>2017-9-19T8:12:0Z</time></trkpt>
<trkpt lat="48.434420" lon="2.712728"><ele></ele><time>2017-9-19T8:12:3Z</time></trkpt>
<trkpt lat="48.434422" lon="2.712762"><ele></ele><time>2017-9-19T8:12:6Z</time></trkpt>
<trkpt lat="48.434416" lon="2.712803"><ele></ele><time>2017-9-19T8:12:9Z</time></trkpt>
<trkpt lat="48.434412" lon="2.712883"><ele></ele><time>2017-9-19T8:12:12Z</time></trkpt>
<trkpt lat="48.434407" lon="2.712933"><ele></ele><time>2017-9-19T8:12:15Z</time></trkpt>
<trkpt lat="48.434405" lon="2.712982"><ele></ele><time>2017-9-19T8:12:18Z</time></trkpt>
<trkpt lat="48.434410" lon="2.713032"><ele></ele><time>2017-9-19T8:12:21Z</time></trkpt>
<trkpt lat="48.434418" lon="2.713077"><ele></ele><time>2017-9-19T8:12:24Z</time></trkpt>
<trkpt lat="48.434432" lon="2.713112"><ele></ele><time>2017-9-19T8:12:27Z</time></trkpt>
<trkpt lat="48.434448" lon="2.713128"><ele></ele><time>2017-9-19T8:12:30Z</time></trkpt>
<trkpt lat="48.434458" lon="2.713123"><ele></ele><time>2017-9-19T8:12:33Z</time></trkpt>
<trkpt lat="48.434558" lon="2.713067"><ele></ele><time>2017-9-19T8:12:36Z</time></trkpt>
<trkpt lat="48.434646" lon="2.713030"><ele></ele><time>2017-9-19T8:12:39Z</time></trkpt>
<trkpt lat="48.434670" lon="2.713045"><ele></ele><time>2017-9-19T8:12:42Z</time></trkpt>
<trkpt lat="48.434707" lon="2.713070"><ele></ele><time>2017-9-19T8:12:45Z</time></trkpt>
<trkpt lat="48.434750" lon="2.713115"><ele></ele><time>2017-9-19T8:12:48Z</time></trkpt>
<trkpt lat="48.434776" lon="2.713150"><ele></ele><time>2017-9-19T8:12:51Z</time></trkpt>
<trkpt lat="48.434848" lon="2.713217"><ele></ele><time>2017-9-19T8:12:54Z</time></trkpt>
<trkpt lat="48.434887" lon="2.713257"><ele></ele><time>2017-9-19T8:12:57Z</time></trkpt>
<trkpt lat="48.435022" lon="2.713378"><ele></ele><time>2017-9-19T8:13:0Z</time></trkpt>
<trkpt lat="48.435075" lon="2.713458"><ele></ele><time>2017-9-19T8:13:3Z</time></trkpt>
<trkpt lat="48.435260" lon="2.713675"><ele></ele><time>2017-9-19T8:13:6Z</time></trkpt>
<trkpt lat="48.435320" lon="2.713707"><ele></ele><time>2017-9-19T8:13:9Z</time></trkpt>
<trkpt lat="48.435415" lon="2.713760"><ele></ele><time>2017-9-19T8:13:12Z</time></trkpt>
<trkpt lat="48.435908" lon="2.714088"><ele></ele><time>2017-9-19T8:13:15Z</time></trkpt>
<trkpt lat="48.436076" lon="2.714195"><ele></ele><time>2017-9-19T8:13:18Z</time></trkpt>
<trkpt lat="48.436107" lon="2.714200"><ele></ele><time>2017-9-19T8:13:21Z</time></trkpt>
<trkpt lat="48.436143" lon="2.714200"><ele></ele><time>2017-9-19T8:13:24Z</time></trkpt>
<trkpt lat="48.436220" lon="2.714207"><ele></ele><time>2017-9-19T8:13:27Z</time></trkpt>
<trkpt lat="48.436255" lon="2.714222"><ele></ele><time>2017-9-19T8:13:30Z</time></trkpt>
<trkpt lat="48.436288" lon="2.714228"><ele></ele><time>2017-9-19T8:13:33Z</time></trkpt>
<trkpt lat="48.436395" lon="2.714240"><ele></ele><time>2017-9-19T8:13:36Z</time></trkpt>
<trkpt lat="48.436430" lon="2.714233"><ele></ele><time>2017-9-19T8:13:39Z</time></trkpt>
<trkpt lat="48.436462" lon="2.714222"><ele></ele><time>2017-9-19T8:13:42Z</time></trkpt>
<trkpt lat="48.436518" lon="2.714192"><ele></ele><time>2017-9-19T8:13:45Z</time></trkpt>
<trkpt lat="48.436548" lon="2.714190"><ele></ele><time>2017-9-19T8:13:48Z</time></trkpt>
<trkpt lat="48.436603" lon="2.714188"><ele></ele><time>2017-9-19T8:13:51Z</time></trkpt>
<trkpt lat="48.436625" lon="2.714178"><ele></ele><time>2017-9-19T8:13:54Z</time></trkpt>
<trkpt lat="48.436638" lon="2.714155"><ele></ele><time>2017-9-19T8:13:57Z</time></trkpt>
<trkpt lat="48.436645" lon="2.714130"><ele></ele><time>2017-9-19T8:14:0Z</time></trkpt>
<trkpt lat="48.436650" lon="2.714098"><ele></ele><time>2017-9-19T8:14:3Z</time></trkpt>
<trkpt lat="48.436673" lon="2.713835"><ele></ele><time>2017-9-19T8:14:6Z</time></trkpt>
<trkpt lat="48.436798" lon="2.712685"><ele></ele><time>2017-9-19T8:14:9Z</time></trkpt>
<trkpt lat="48.436830" lon="2.712393"><ele></ele><time>2017-9-19T8:14:12Z</time></trkpt>
<trkpt lat="48.436898" lon="2.711952"><ele></ele><time>2017-9-19T8:14:15Z</time></trkpt>
<trkpt lat="48.436912" lon="2.711897"><ele></ele><time>2017-9-19T8:14:18Z</time></trkpt>
<trkpt lat="48.436917" lon="2.711867"><ele></ele><time>2017-9-19T8:14:21Z</time></trkpt>
<trkpt lat="48.436925" lon="2.711838"><ele></ele><time>2017-9-19T8:14:24Z</time></trkpt>
<trkpt lat="48.436930" lon="2.711800"><ele></ele><time>2017-9-19T8:14:27Z</time></trkpt>
<trkpt lat="48.436932" lon="2.711765"><ele></ele><time>2017-9-19T8:14:30Z</time></trkpt>
<trkpt lat="48.436945" lon="2.711702"><ele></ele><time>2017-9-19T8:14:33Z</time></trkpt>
<trkpt lat="48.436946" lon="2.711673"><ele></ele><time>2017-9-19T8:14:36Z</time></trkpt>
<trkpt lat="48.436952" lon="2.711642"><ele></ele><time>2017-9-19T8:14:39Z</time></trkpt>
<trkpt lat="48.436963" lon="2.711610"><ele></ele><time>2017-9-19T8:14:42Z</time></trkpt>
<trkpt lat="48.436977" lon="2.711543"><ele></ele><time>2017-9-19T8:14:45Z</time></trkpt>
<trkpt lat="48.436988" lon="2.711475"><ele></ele><time>2017-9-19T8:14:48Z</time></trkpt>
<trkpt lat="48.436988" lon="2.711408"><ele></ele><time>2017-9-19T8:14:51Z</time></trkpt>
<trkpt lat="48.436987" lon="2.711277"><ele></ele><time>2017-9-19T8:14:54Z</time></trkpt>
<trkpt lat="48.436990" lon="2.711245"><ele></ele><time>2017-9-19T8:14:57Z</time></trkpt>
<trkpt lat="48.437010" lon="2.711162"><ele></ele><time>2017-9-19T8:15:0Z</time></trkpt>
<trkpt lat="48.437020" lon="2.711140"><ele></ele><time>2017-9-19T8:15:3Z</time></trkpt>
<trkpt lat="48.437032" lon="2.711092"><ele></ele><time>2017-9-19T8:15:6Z</time></trkpt>
<trkpt lat="48.437037" lon="2.711042"><ele></ele><time>2017-9-19T8:15:9Z</time></trkpt>
<trkpt lat="48.437052" lon="2.710952"><ele></ele><time>2017-9-19T8:15:12Z</time></trkpt>
<trkpt lat="48.437060" lon="2.710933"><ele></ele><time>2017-9-19T8:15:15Z</time></trkpt>
<trkpt lat="48.437068" lon="2.710913"><ele></ele><time>2017-9-19T8:15:18Z</time></trkpt>
<trkpt lat="48.437078" lon="2.710895"><ele></ele><time>2017-9-19T8:15:21Z</time></trkpt>
<trkpt lat="48.437168" lon="2.710780"><ele></ele><time>2017-9-19T8:15:24Z</time></trkpt>
<trkpt lat="48.437275" lon="2.710642"><ele></ele><time>2017-9-19T8:15:27Z</time></trkpt>
<trkpt lat="48.437285" lon="2.710637"><ele></ele><time>2017-9-19T8:15:30Z</time></trkpt>
<trkpt lat="48.437297" lon="2.710625"><ele></ele><time>2017-9-19T8:15:33Z</time></trkpt>
<trkpt lat="48.437308" lon="2.710613"><ele></ele><time>2017-9-19T8:15:36Z</time></trkpt>
<trkpt lat="48.437370" lon="2.710542"><ele></ele><time>2017-9-19T8:15:39Z</time></trkpt>
<trkpt lat="48.437371" lon="2.710525"><ele></ele><time>2017-9-19T8:15:42Z</time></trkpt>
<trkpt lat="48.437370" lon="2.710510"><ele></ele><time>2017-9-19T8:15:45Z</time></trkpt>
<trkpt lat="48.437376" lon="2.710488"><ele></ele><time>2017-9-19T8:15:48Z</time></trkpt>
<trkpt lat="48.437388" lon="2.710410"><ele></ele><time>2017-9-19T8:15:51Z</time></trkpt>
<trkpt lat="48.437396" lon="2.710390"><ele></ele><time>2017-9-19T8:15:54Z</time></trkpt>
<trkpt lat="48.437407" lon="2.710360"><ele></ele><time>2017-9-19T8:15:57Z</time></trkpt>
<trkpt lat="48.437403" lon="2.710338"><ele></ele><time>2017-9-19T8:16:0Z</time></trkpt>
<trkpt lat="48.437405" lon="2.710318"><ele></ele><time>2017-9-19T8:16:3Z</time></trkpt>
<trkpt lat="48.437408" lon="2.710297"><ele></ele><time>2017-9-19T8:16:6Z</time></trkpt>
<trkpt lat="48.437412" lon="2.710280"><ele></ele><time>2017-9-19T8:16:9Z</time></trkpt>
<trkpt lat="48.437410" lon="2.710267"><ele></ele><time>2017-9-19T8:16:12Z</time></trkpt>
<trkpt lat="48.437403" lon="2.710237"><ele></ele><time>2017-9-19T8:16:15Z</time></trkpt>
<trkpt lat="48.437407" lon="2.710217"><ele></ele><time>2017-9-19T8:16:18Z</time></trkpt>
<trkpt lat="48.437421" lon="2.710180"><ele></ele><time>2017-9-19T8:16:21Z</time></trkpt>
<trkpt lat="48.437432" lon="2.710167"><ele></ele><time>2017-9-19T8:16:24Z</time></trkpt>
<trkpt lat="48.437435" lon="2.710157"><ele></ele><time>2017-9-19T8:16:27Z</time></trkpt>
<trkpt lat="48.437432" lon="2.710148"><ele></ele><time>2017-9-19T8:16:30Z</time></trkpt>
<trkpt lat="48.437430" lon="2.710143"><ele></ele><time>2017-9-19T8:16:33Z</time></trkpt>
<trkpt lat="48.437428" lon="2.710140"><ele></ele><time>2017-9-19T8:16:36Z</time></trkpt>
<trkpt lat="48.437421" lon="2.710135"><ele></ele><time>2017-9-19T8:16:39Z</time></trkpt>
<trkpt lat="48.437413" lon="2.710128"><ele></ele><time>2017-9-19T8:16:42Z</time></trkpt>
<trkpt lat="48.437412" lon="2.710123"><ele></ele><time>2017-9-19T8:16:45Z</time></trkpt>
<trkpt lat="48.437418" lon="2.710120"><ele></ele><time>2017-9-19T8:16:48Z</time></trkpt>
<trkpt lat="48.437425" lon="2.710118"><ele></ele><time>2017-9-19T8:16:51Z</time></trkpt>
<trkpt lat="48.437428" lon="2.710115"><ele></ele><time>2017-9-19T8:16:54Z</time></trkpt>
<trkpt lat="48.437430" lon="2.710105"><ele></ele><time>2017-9-19T8:16:57Z</time></trkpt>
<trkpt lat="48.437430" lon="2.710102"><ele></ele><time>2017-9-19T8:17:0Z</time></trkpt>
<trkpt lat="48.437423" lon="2.710090"><ele></ele><time>2017-9-19T8:17:3Z</time></trkpt>
<trkpt lat="48.437412" lon="2.710082"><ele></ele><time>2017-9-19T8:17:6Z</time></trkpt>
<trkpt lat="48.437393" lon="2.710063"><ele></ele><time>2017-9-19T8:17:9Z</time></trkpt>
<trkpt lat="48.437387" lon="2.710048"><ele></ele><time>2017-9-19T8:17:12Z</time></trkpt>
<trkpt lat="48.437387" lon="2.710035"><ele></ele><time>2017-9-19T8:17:15Z</time></trkpt>
<trkpt lat="48.437387" lon="2.710032"><ele></ele><time>2017-9-19T8:17:18Z</time></trkpt>
<trkpt lat="48.437387" lon="2.710028"><ele></ele><time>2017-9-19T8:17:21Z</time></trkpt>
<trkpt lat="48.437387" lon="2.710027"><ele></ele><time>2017-9-19T8:17:24Z</time></trkpt>
<trkpt lat="48.437385" lon="2.710022"><ele></ele><time>2017-9-19T8:17:27Z</time></trkpt>
<trkpt lat="48.437383" lon="2.710020"><ele></ele><time>2017-9-19T8:17:30Z</time></trkpt>
<trkpt lat="48.437383" lon="2.710020"><ele></ele><time>2017-9-19T8:17:33Z</time></trkpt>
<trkpt lat="48.437383" lon="2.710017"><ele></ele><time>2017-9-19T8:17:36Z</time></trkpt>
<trkpt lat="48.437378" lon="2.710015"><ele></ele><time>2017-9-19T8:17:39Z</time></trkpt>
<trkpt lat="48.437380" lon="2.710013"><ele></ele><time>2017-9-19T8:17:42Z</time></trkpt>
<trkpt lat="48.437380" lon="2.710015"><ele></ele><time>2017-9-19T8:17:45Z</time></trkpt>
<trkpt lat="48.437375" lon="2.710015"><ele></ele><time>2017-9-19T8:17:48Z</time></trkpt>
<trkpt lat="48.437380" lon="2.710012"><ele></ele><time>2017-9-19T8:17:51Z</time></trkpt>
<trkpt lat="48.437388" lon="2.710008"><ele></ele><time>2017-9-19T8:17:54Z</time></trkpt>
<trkpt lat="48.437393" lon="2.710007"><ele></ele><time>2017-9-19T8:17:57Z</time></trkpt>
<trkpt lat="48.437400" lon="2.710003"><ele></ele><time>2017-9-19T8:18:0Z</time></trkpt>
<trkpt lat="48.437405" lon="2.709995"><ele></ele><time>2017-9-19T8:18:3Z</time></trkpt>
<trkpt lat="48.437407" lon="2.709983"><ele></ele><time>2017-9-19T8:18:6Z</time></trkpt>
<trkpt lat="48.437415" lon="2.709915"><ele></ele><time>2017-9-19T8:18:9Z</time></trkpt>
<trkpt lat="48.437423" lon="2.709902"><ele></ele><time>2017-9-19T8:18:12Z</time></trkpt>
<trkpt lat="48.437435" lon="2.709890"><ele></ele><time>2017-9-19T8:18:15Z</time></trkpt>
<trkpt lat="48.437433" lon="2.709877"><ele></ele><time>2017-9-19T8:18:18Z</time></trkpt>
<trkpt lat="48.437442" lon="2.709863"><ele></ele><time>2017-9-19T8:18:21Z</time></trkpt>
<trkpt lat="48.437448" lon="2.709850"><ele></ele><time>2017-9-19T8:18:24Z</time></trkpt>
<trkpt lat="48.437453" lon="2.709835"><ele></ele><time>2017-9-19T8:18:27Z</time></trkpt>
<trkpt lat="48.437477" lon="2.709807"><ele></ele><time>2017-9-19T8:18:30Z</time></trkpt>
<trkpt lat="48.437478" lon="2.709813"><ele></ele><time>2017-9-19T8:18:33Z</time></trkpt>
<trkpt lat="48.437486" lon="2.709820"><ele></ele><time>2017-9-19T8:18:36Z</time></trkpt>
<trkpt lat="48.437532" lon="2.709848"><ele></ele><time>2017-9-19T8:18:39Z</time></trkpt>
<trkpt lat="48.437562" lon="2.709853"><ele></ele><time>2017-9-19T8:18:42Z</time></trkpt>
<trkpt lat="48.437582" lon="2.709862"><ele></ele><time>2017-9-19T8:18:45Z</time></trkpt>
<trkpt lat="48.437603" lon="2.709865"><ele></ele><time>2017-9-19T8:18:48Z</time></trkpt>
<trkpt lat="48.437610" lon="2.709875"><ele></ele><time>2017-9-19T8:18:51Z</time></trkpt>
<trkpt lat="48.437628" lon="2.709887"><ele></ele><time>2017-9-19T8:18:54Z</time></trkpt>
<trkpt lat="48.437638" lon="2.709898"><ele></ele><time>2017-9-19T8:18:57Z</time></trkpt>
<trkpt lat="48.437670" lon="2.709913"><ele></ele><time>2017-9-19T8:19:0Z</time></trkpt>
<trkpt lat="48.437768" lon="2.709953"><ele></ele><time>2017-9-19T8:19:3Z</time></trkpt>
<trkpt lat="48.437850" lon="2.709997"><ele></ele><time>2017-9-19T8:19:6Z</time></trkpt>
<trkpt lat="48.437866" lon="2.710005"><ele></ele><time>2017-9-19T8:19:9Z</time></trkpt>
<trkpt lat="48.437882" lon="2.710012"><ele></ele><time>2017-9-19T8:19:12Z</time></trkpt>
<trkpt lat="48.437900" lon="2.710010"><ele></ele><time>2017-9-19T8:19:15Z</time></trkpt>
<trkpt lat="48.437927" lon="2.710015"><ele></ele><time>2017-9-19T8:19:18Z</time></trkpt>
<trkpt lat="48.437930" lon="2.710015"><ele></ele><time>2017-9-19T8:19:21Z</time></trkpt>
<trkpt lat="48.437932" lon="2.710017"><ele></ele><time>2017-9-19T8:19:24Z</time></trkpt>
<trkpt lat="48.437935" lon="2.710025"><ele></ele><time>2017-9-19T8:19:27Z</time></trkpt>
<trkpt lat="48.437945" lon="2.710033"><ele></ele><time>2017-9-19T8:19:30Z</time></trkpt>
<trkpt lat="48.438001" lon="2.710058"><ele></ele><time>2017-9-19T8:19:33Z</time></trkpt>
<trkpt lat="48.438018" lon="2.710082"><ele></ele><time>2017-9-19T8:19:36Z</time></trkpt>
<trkpt lat="48.438035" lon="2.710105"><ele></ele><time>2017-9-19T8:19:39Z</time></trkpt>
<trkpt lat="48.438062" lon="2.710123"><ele></ele><time>2017-9-19T8:19:42Z</time></trkpt>
<trkpt lat="48.438240" lon="2.710217"><ele></ele><time>2017-9-19T8:19:45Z</time></trkpt>
<trkpt lat="48.438305" lon="2.710235"><ele></ele><time>2017-9-19T8:19:48Z</time></trkpt>
<trkpt lat="48.438325" lon="2.710228"><ele></ele><time>2017-9-19T8:19:51Z</time></trkpt>
<trkpt lat="48.438333" lon="2.710208"><ele></ele><time>2017-9-19T8:19:54Z</time></trkpt>
<trkpt lat="48.438332" lon="2.710187"><ele></ele><time>2017-9-19T8:19:57Z</time></trkpt>
<trkpt lat="48.438328" lon="2.710163"><ele></ele><time>2017-9-19T8:20:0Z</time></trkpt>
<trkpt lat="48.438327" lon="2.710140"><ele></ele><time>2017-9-19T8:20:3Z</time></trkpt>
<trkpt lat="48.438325" lon="2.710117"><ele></ele><time>2017-9-19T8:20:6Z</time></trkpt>
<trkpt lat="48.438332" lon="2.710063"><ele></ele><time>2017-9-19T8:20:9Z</time></trkpt>
<trkpt lat="48.438363" lon="2.709963"><ele></ele><time>2017-9-19T8:20:12Z</time></trkpt>
<trkpt lat="48.438412" lon="2.709818"><ele></ele><time>2017-9-19T8:20:15Z</time></trkpt>
<trkpt lat="48.438412" lon="2.709795"><ele></ele><time>2017-9-19T8:20:18Z</time></trkpt>
<trkpt lat="48.438413" lon="2.709770"><ele></ele><time>2017-9-19T8:20:21Z</time></trkpt>
<trkpt lat="48.438415" lon="2.709718"><ele></ele><time>2017-9-19T8:20:24Z</time></trkpt>
<trkpt lat="48.438420" lon="2.709697"><ele></ele><time>2017-9-19T8:20:27Z</time></trkpt>
<trkpt lat="48.438450" lon="2.709568"><ele></ele><time>2017-9-19T8:20:30Z</time></trkpt>
<trkpt lat="48.438455" lon="2.709538"><ele></ele><time>2017-9-19T8:20:33Z</time></trkpt>
<trkpt lat="48.438475" lon="2.709400"><ele></ele><time>2017-9-19T8:20:36Z</time></trkpt>
<trkpt lat="48.438487" lon="2.709265"><ele></ele><time>2017-9-19T8:20:39Z</time></trkpt>
<trkpt lat="48.438581" lon="2.708838"><ele></ele><time>2017-9-19T8:20:42Z</time></trkpt>
<trkpt lat="48.438795" lon="2.707825"><ele></ele><time>2017-9-19T8:20:45Z</time></trkpt>
<trkpt lat="48.438800" lon="2.707765"><ele></ele><time>2017-9-19T8:20:48Z</time></trkpt>
<trkpt lat="48.438843" lon="2.707322"><ele></ele><time>2017-9-19T8:20:51Z</time></trkpt>
<trkpt lat="48.438862" lon="2.707258"><ele></ele><time>2017-9-19T8:20:54Z</time></trkpt>
<trkpt lat="48.438948" lon="2.707015"><ele></ele><time>2017-9-19T8:20:57Z</time></trkpt>
<trkpt lat="48.438973" lon="2.706960"><ele></ele><time>2017-9-19T8:21:0Z</time></trkpt>
<trkpt lat="48.439048" lon="2.706715"><ele></ele><time>2017-9-19T8:21:3Z</time></trkpt>
<trkpt lat="48.439058" lon="2.706650"><ele></ele><time>2017-9-19T8:21:6Z</time></trkpt>
<trkpt lat="48.439068" lon="2.706582"><ele></ele><time>2017-9-19T8:21:9Z</time></trkpt>
<trkpt lat="48.439076" lon="2.706511"><ele></ele><time>2017-9-19T8:21:12Z</time></trkpt>
<trkpt lat="48.439098" lon="2.706210"><ele></ele><time>2017-9-19T8:21:15Z</time></trkpt>
<trkpt lat="48.439158" lon="2.705695"><ele></ele><time>2017-9-19T8:21:18Z</time></trkpt>
<trkpt lat="48.439247" lon="2.705207"><ele></ele><time>2017-9-19T8:21:21Z</time></trkpt>
<trkpt lat="48.439312" lon="2.704873"><ele></ele><time>2017-9-19T8:21:24Z</time></trkpt>
<trkpt lat="48.439313" lon="2.704803"><ele></ele><time>2017-9-19T8:21:27Z</time></trkpt>
<trkpt lat="48.439315" lon="2.704665"><ele></ele><time>2017-9-19T8:21:30Z</time></trkpt>
<trkpt lat="48.439303" lon="2.704600"><ele></ele><time>2017-9-19T8:21:33Z</time></trkpt>
<trkpt lat="48.439282" lon="2.704538"><ele></ele><time>2017-9-19T8:21:36Z</time></trkpt>
<trkpt lat="48.439227" lon="2.704363"><ele></ele><time>2017-9-19T8:21:39Z</time></trkpt>
<trkpt lat="48.439215" lon="2.704302"><ele></ele><time>2017-9-19T8:21:42Z</time></trkpt>
<trkpt lat="48.439202" lon="2.704175"><ele></ele><time>2017-9-19T8:21:45Z</time></trkpt>
<trkpt lat="48.439198" lon="2.703872"><ele></ele><time>2017-9-19T8:21:48Z</time></trkpt>
<trkpt lat="48.439238" lon="2.703510"><ele></ele><time>2017-9-19T8:21:51Z</time></trkpt>
<trkpt lat="48.439255" lon="2.703448"><ele></ele><time>2017-9-19T8:21:54Z</time></trkpt>
<trkpt lat="48.439275" lon="2.703387"><ele></ele><time>2017-9-19T8:21:57Z</time></trkpt>
<trkpt lat="48.439300" lon="2.703332"><ele></ele><time>2017-9-19T8:22:0Z</time></trkpt>
<trkpt lat="48.439328" lon="2.703287"><ele></ele><time>2017-9-19T8:22:3Z</time></trkpt>
<trkpt lat="48.439363" lon="2.703253"><ele></ele><time>2017-9-19T8:22:6Z</time></trkpt>
<trkpt lat="48.439398" lon="2.703227"><ele></ele><time>2017-9-19T8:22:9Z</time></trkpt>
<trkpt lat="48.439438" lon="2.703207"><ele></ele><time>2017-9-19T8:22:12Z</time></trkpt>
<trkpt lat="48.439785" lon="2.703003"><ele></ele><time>2017-9-19T8:22:15Z</time></trkpt>
<trkpt lat="48.439847" lon="2.703022"><ele></ele><time>2017-9-19T8:22:18Z</time></trkpt>
<trkpt lat="48.439895" lon="2.703037"><ele></ele><time>2017-9-19T8:22:21Z</time></trkpt>
<trkpt lat="48.439906" lon="2.703037"><ele></ele><time>2017-9-19T8:22:24Z</time></trkpt>
<trkpt lat="48.439920" lon="2.703042"><ele></ele><time>2017-9-19T8:22:27Z</time></trkpt>
<trkpt lat="48.439937" lon="2.703050"><ele></ele><time>2017-9-19T8:22:30Z</time></trkpt>
<trkpt lat="48.439951" lon="2.703060"><ele></ele><time>2017-9-19T8:22:33Z</time></trkpt>
<trkpt lat="48.439965" lon="2.703072"><ele></ele><time>2017-9-19T8:22:36Z</time></trkpt>
<trkpt lat="48.439998" lon="2.703093"><ele></ele><time>2017-9-19T8:22:39Z</time></trkpt>
<trkpt lat="48.440018" lon="2.703097"><ele></ele><time>2017-9-19T8:22:42Z</time></trkpt>
<trkpt lat="48.440028" lon="2.703100"><ele></ele><time>2017-9-19T8:22:45Z</time></trkpt>
<trkpt lat="48.440038" lon="2.703107"><ele></ele><time>2017-9-19T8:22:48Z</time></trkpt>
<trkpt lat="48.440057" lon="2.703112"><ele></ele><time>2017-9-19T8:22:51Z</time></trkpt>
<trkpt lat="48.440073" lon="2.703120"><ele></ele><time>2017-9-19T8:22:54Z</time></trkpt>
<trkpt lat="48.440083" lon="2.703132"><ele></ele><time>2017-9-19T8:22:57Z</time></trkpt>
<trkpt lat="48.440095" lon="2.703145"><ele></ele><time>2017-9-19T8:23:0Z</time></trkpt>
<trkpt lat="48.440122" lon="2.703167"><ele></ele><time>2017-9-19T8:23:3Z</time></trkpt>
<trkpt lat="48.440147" lon="2.703177"><ele></ele><time>2017-9-19T8:23:6Z</time></trkpt>
<trkpt lat="48.440298" lon="2.703228"><ele></ele><time>2017-9-19T8:23:9Z</time></trkpt>
<trkpt lat="48.440317" lon="2.703237"><ele></ele><time>2017-9-19T8:23:12Z</time></trkpt>
<trkpt lat="48.440340" lon="2.703248"><ele></ele><time>2017-9-19T8:23:15Z</time></trkpt>
<trkpt lat="48.440353" lon="2.703265"><ele></ele><time>2017-9-19T8:23:18Z</time></trkpt>
<trkpt lat="48.440377" lon="2.703302"><ele></ele><time>2017-9-19T8:23:21Z</time></trkpt>
<trkpt lat="48.440391" lon="2.703317"><ele></ele><time>2017-9-19T8:23:24Z</time></trkpt>
<trkpt lat="48.440407" lon="2.703325"><ele></ele><time>2017-9-19T8:23:27Z</time></trkpt>
<trkpt lat="48.440420" lon="2.703333"><ele></ele><time>2017-9-19T8:23:30Z</time></trkpt>
<trkpt lat="48.440435" lon="2.703340"><ele></ele><time>2017-9-19T8:23:33Z</time></trkpt>
<trkpt lat="48.440470" lon="2.703373"><ele></ele><time>2017-9-19T8:23:36Z</time></trkpt>
<trkpt lat="48.440481" lon="2.703382"><ele></ele><time>2017-9-19T8:23:39Z</time></trkpt>
<trkpt lat="48.440545" lon="2.703410"><ele></ele><time>2017-9-19T8:23:42Z</time></trkpt>
<trkpt lat="48.440560" lon="2.703428"><ele></ele><time>2017-9-19T8:23:45Z</time></trkpt>
<trkpt lat="48.440588" lon="2.703458"><ele></ele><time>2017-9-19T8:23:48Z</time></trkpt>
<trkpt lat="48.440596" lon="2.703477"><ele></ele><time>2017-9-19T8:23:51Z</time></trkpt>
<trkpt lat="48.440610" lon="2.703495"><ele></ele><time>2017-9-19T8:23:54Z</time></trkpt>
<trkpt lat="48.440658" lon="2.703540"><ele></ele><time>2017-9-19T8:23:57Z</time></trkpt>
<trkpt lat="48.440677" lon="2.703552"><ele></ele><time>2017-9-19T8:24:0Z</time></trkpt>
<trkpt lat="48.440723" lon="2.703572"><ele></ele><time>2017-9-19T8:24:3Z</time></trkpt>
<trkpt lat="48.440736" lon="2.703573"><ele></ele><time>2017-9-19T8:24:6Z</time></trkpt>
<trkpt lat="48.440748" lon="2.703570"><ele></ele><time>2017-9-19T8:24:9Z</time></trkpt>
<trkpt lat="48.440752" lon="2.703558"><ele></ele><time>2017-9-19T8:24:12Z</time></trkpt>
<trkpt lat="48.440750" lon="2.703545"><ele></ele><time>2017-9-19T8:24:15Z</time></trkpt>
<trkpt lat="48.440752" lon="2.703532"><ele></ele><time>2017-9-19T8:24:18Z</time></trkpt>
<trkpt lat="48.440758" lon="2.703517"><ele></ele><time>2017-9-19T8:24:21Z</time></trkpt>
<trkpt lat="48.440767" lon="2.703507"><ele></ele><time>2017-9-19T8:24:24Z</time></trkpt>
<trkpt lat="48.440775" lon="2.703498"><ele></ele><time>2017-9-19T8:24:27Z</time></trkpt>
<trkpt lat="48.440783" lon="2.703483"><ele></ele><time>2017-9-19T8:24:30Z</time></trkpt>
<trkpt lat="48.440785" lon="2.703460"><ele></ele><time>2017-9-19T8:24:33Z</time></trkpt>
<trkpt lat="48.440792" lon="2.703433"><ele></ele><time>2017-9-19T8:24:36Z</time></trkpt>
<trkpt lat="48.440801" lon="2.703408"><ele></ele><time>2017-9-19T8:24:39Z</time></trkpt>
<trkpt lat="48.440812" lon="2.703387"><ele></ele><time>2017-9-19T8:24:42Z</time></trkpt>
<trkpt lat="48.440823" lon="2.703367"><ele></ele><time>2017-9-19T8:24:45Z</time></trkpt>
<trkpt lat="48.440832" lon="2.703343"><ele></ele><time>2017-9-19T8:24:48Z</time></trkpt>
<trkpt lat="48.440852" lon="2.703308"><ele></ele><time>2017-9-19T8:24:51Z</time></trkpt>
<trkpt lat="48.440865" lon="2.703287"><ele></ele><time>2017-9-19T8:24:54Z</time></trkpt>
<trkpt lat="48.440897" lon="2.703237"><ele></ele><time>2017-9-19T8:24:57Z</time></trkpt>
<trkpt lat="48.440902" lon="2.703218"><ele></ele><time>2017-9-19T8:25:0Z</time></trkpt>
<trkpt lat="48.440911" lon="2.703195"><ele></ele><time>2017-9-19T8:25:3Z</time></trkpt>
<trkpt lat="48.440935" lon="2.703135"><ele></ele><time>2017-9-19T8:25:6Z</time></trkpt>
<trkpt lat="48.440940" lon="2.703103"><ele></ele><time>2017-9-19T8:25:9Z</time></trkpt>
<trkpt lat="48.440947" lon="2.703077"><ele></ele><time>2017-9-19T8:25:12Z</time></trkpt>
<trkpt lat="48.440945" lon="2.703055"><ele></ele><time>2017-9-19T8:25:15Z</time></trkpt>
<trkpt lat="48.440948" lon="2.703033"><ele></ele><time>2017-9-19T8:25:18Z</time></trkpt>
<trkpt lat="48.440943" lon="2.703010"><ele></ele><time>2017-9-19T8:25:21Z</time></trkpt>
<trkpt lat="48.440931" lon="2.702973"><ele></ele><time>2017-9-19T8:25:24Z</time></trkpt>
<trkpt lat="48.440933" lon="2.702955"><ele></ele><time>2017-9-19T8:25:27Z</time></trkpt>
<trkpt lat="48.440936" lon="2.702943"><ele></ele><time>2017-9-19T8:25:30Z</time></trkpt>
<trkpt lat="48.440943" lon="2.702923"><ele></ele><time>2017-9-19T8:25:33Z</time></trkpt>
<trkpt lat="48.440943" lon="2.702915"><ele></ele><time>2017-9-19T8:25:36Z</time></trkpt>
<trkpt lat="48.440942" lon="2.702908"><ele></ele><time>2017-9-19T8:25:39Z</time></trkpt>
<trkpt lat="48.440936" lon="2.702900"><ele></ele><time>2017-9-19T8:25:42Z</time></trkpt>
<trkpt lat="48.440938" lon="2.702888"><ele></ele><time>2017-9-19T8:25:45Z</time></trkpt>
<trkpt lat="48.440943" lon="2.702877"><ele></ele><time>2017-9-19T8:25:48Z</time></trkpt>
<trkpt lat="48.440948" lon="2.702838"><ele></ele><time>2017-9-19T8:25:51Z</time></trkpt>
<trkpt lat="48.440942" lon="2.702825"><ele></ele><time>2017-9-19T8:25:54Z</time></trkpt>
<trkpt lat="48.440942" lon="2.702815"><ele></ele><time>2017-9-19T8:25:57Z</time></trkpt>
<trkpt lat="48.440940" lon="2.702807"><ele></ele><time>2017-9-19T8:26:0Z</time></trkpt>
<trkpt lat="48.440940" lon="2.702802"><ele></ele><time>2017-9-19T8:26:3Z</time></trkpt>
<trkpt lat="48.440942" lon="2.702798"><ele></ele><time>2017-9-19T8:26:6Z</time></trkpt>
<trkpt lat="48.440950" lon="2.702783"><ele></ele><time>2017-9-19T8:26:9Z</time></trkpt>
<trkpt lat="48.440948" lon="2.702782"><ele></ele><time>2017-9-19T8:26:12Z</time></trkpt>
<trkpt lat="48.440948" lon="2.702777"><ele></ele><time>2017-9-19T8:26:15Z</time></trkpt>
<trkpt lat="48.440947" lon="2.702775"><ele></ele><time>2017-9-19T8:26:18Z</time></trkpt>
<trkpt lat="48.440948" lon="2.702773"><ele></ele><time>2017-9-19T8:26:21Z</time></trkpt>
<trkpt lat="48.440952" lon="2.702773"><ele></ele><time>2017-9-19T8:26:24Z</time></trkpt>
<trkpt lat="48.440952" lon="2.702768"><ele></ele><time>2017-9-19T8:26:27Z</time></trkpt>
<trkpt lat="48.440952" lon="2.702767"><ele></ele><time>2017-9-19T8:26:30Z</time></trkpt>
<trkpt lat="48.440952" lon="2.702763"><ele></ele><time>2017-9-19T8:26:33Z</time></trkpt>
<trkpt lat="48.440950" lon="2.702762"><ele></ele><time>2017-9-19T8:26:36Z</time></trkpt>
<trkpt lat="48.440952" lon="2.702760"><ele></ele><time>2017-9-19T8:26:39Z</time></trkpt>
<trkpt lat="48.440950" lon="2.702760"><ele></ele><time>2017-9-19T8:26:42Z</time></trkpt>
<trkpt lat="48.440948" lon="2.702757"><ele></ele><time>2017-9-19T8:26:45Z</time></trkpt>
<trkpt lat="48.440948" lon="2.702753"><ele></ele><time>2017-9-19T8:26:48Z</time></trkpt>
<trkpt lat="48.440952" lon="2.702745"><ele></ele><time>2017-9-19T8:26:51Z</time></trkpt>
<trkpt lat="48.440948" lon="2.702737"><ele></ele><time>2017-9-19T8:26:54Z</time></trkpt>
<trkpt lat="48.440925" lon="2.702697"><ele></ele><time>2017-9-19T8:26:57Z</time></trkpt>
<trkpt lat="48.440925" lon="2.702685"><ele></ele><time>2017-9-19T8:27:0Z</time></trkpt>
<trkpt lat="48.440922" lon="2.702673"><ele></ele><time>2017-9-19T8:27:3Z</time></trkpt>
<trkpt lat="48.440917" lon="2.702660"><ele></ele><time>2017-9-19T8:27:6Z</time></trkpt>
<trkpt lat="48.440915" lon="2.702647"><ele></ele><time>2017-9-19T8:27:9Z</time></trkpt>
<trkpt lat="48.440920" lon="2.702630"><ele></ele><time>2017-9-19T8:27:12Z</time></trkpt>
<trkpt lat="48.440927" lon="2.702618"><ele></ele><time>2017-9-19T8:27:15Z</time></trkpt>
<trkpt lat="48.440938" lon="2.702587"><ele></ele><time>2017-9-19T8:27:18Z</time></trkpt>
<trkpt lat="48.440942" lon="2.702570"><ele></ele><time>2017-9-19T8:27:21Z</time></trkpt>
<trkpt lat="48.440943" lon="2.702552"><ele></ele><time>2017-9-19T8:27:24Z</time></trkpt>
<trkpt lat="48.440947" lon="2.702503"><ele></ele><time>2017-9-19T8:27:27Z</time></trkpt>
<trkpt lat="48.440943" lon="2.702482"><ele></ele><time>2017-9-19T8:27:30Z</time></trkpt>
<trkpt lat="48.440940" lon="2.702442"><ele></ele><time>2017-9-19T8:27:33Z</time></trkpt>
<trkpt lat="48.440940" lon="2.702420"><ele></ele><time>2017-9-19T8:27:36Z</time></trkpt>
<trkpt lat="48.440950" lon="2.702373"><ele></ele><time>2017-9-19T8:27:39Z</time></trkpt>
<trkpt lat="48.440962" lon="2.702311"><ele></ele><time>2017-9-19T8:27:42Z</time></trkpt>
<trkpt lat="48.440978" lon="2.702208"><ele></ele><time>2017-9-19T8:27:45Z</time></trkpt>
<trkpt lat="48.440993" lon="2.702175"><ele></ele><time>2017-9-19T8:27:48Z</time></trkpt>
<trkpt lat="48.441000" lon="2.702142"><ele></ele><time>2017-9-19T8:27:51Z</time></trkpt>
<trkpt lat="48.441003" lon="2.702110"><ele></ele><time>2017-9-19T8:27:54Z</time></trkpt>
<trkpt lat="48.441003" lon="2.702100"><ele></ele><time>2017-9-19T8:27:57Z</time></trkpt>
<trkpt lat="48.441003" lon="2.702088"><ele></ele><time>2017-9-19T8:28:0Z</time></trkpt>
<trkpt lat="48.441007" lon="2.702078"><ele></ele><time>2017-9-19T8:28:3Z</time></trkpt>
<trkpt lat="48.441008" lon="2.702067"><ele></ele><time>2017-9-19T8:28:6Z</time></trkpt>
<trkpt lat="48.441007" lon="2.702053"><ele></ele><time>2017-9-19T8:28:9Z</time></trkpt>
<trkpt lat="48.441012" lon="2.702017"><ele></ele><time>2017-9-19T8:28:12Z</time></trkpt>
<trkpt lat="48.441020" lon="2.702002"><ele></ele><time>2017-9-19T8:28:15Z</time></trkpt>
<trkpt lat="48.441023" lon="2.701992"><ele></ele><time>2017-9-19T8:28:18Z</time></trkpt>
<trkpt lat="48.441026" lon="2.701983"><ele></ele><time>2017-9-19T8:28:21Z</time></trkpt>
<trkpt lat="48.441038" lon="2.701973"><ele></ele><time>2017-9-19T8:28:24Z</time></trkpt>
<trkpt lat="48.441053" lon="2.701963"><ele></ele><time>2017-9-19T8:28:27Z</time></trkpt>
<trkpt lat="48.441070" lon="2.701953"><ele></ele><time>2017-9-19T8:28:30Z</time></trkpt>
<trkpt lat="48.441083" lon="2.701945"><ele></ele><time>2017-9-19T8:28:33Z</time></trkpt>
<trkpt lat="48.441092" lon="2.701940"><ele></ele><time>2017-9-19T8:28:36Z</time></trkpt>
<trkpt lat="48.441103" lon="2.701940"><ele></ele><time>2017-9-19T8:28:39Z</time></trkpt>
<trkpt lat="48.441113" lon="2.701948"><ele></ele><time>2017-9-19T8:28:42Z</time></trkpt>
<trkpt lat="48.441128" lon="2.701943"><ele></ele><time>2017-9-19T8:28:45Z</time></trkpt>
<trkpt lat="48.441143" lon="2.701933"><ele></ele><time>2017-9-19T8:28:48Z</time></trkpt>
<trkpt lat="48.441167" lon="2.701908"><ele></ele><time>2017-9-19T8:28:51Z</time></trkpt>
<trkpt lat="48.441173" lon="2.701897"><ele></ele><time>2017-9-19T8:28:54Z</time></trkpt>
<trkpt lat="48.441178" lon="2.701888"><ele></ele><time>2017-9-19T8:28:57Z</time></trkpt>
<trkpt lat="48.441188" lon="2.701887"><ele></ele><time>2017-9-19T8:29:0Z</time></trkpt>
<trkpt lat="48.441208" lon="2.701880"><ele></ele><time>2017-9-19T8:29:3Z</time></trkpt>
<trkpt lat="48.441213" lon="2.701875"><ele></ele><time>2017-9-19T8:29:6Z</time></trkpt>
<trkpt lat="48.441215" lon="2.701873"><ele></ele><time>2017-9-19T8:29:9Z</time></trkpt>
<trkpt lat="48.441217" lon="2.701872"><ele></ele><time>2017-9-19T8:29:12Z</time></trkpt>
<trkpt lat="48.441218" lon="2.701867"><ele></ele><time>2017-9-19T8:29:15Z</time></trkpt>
<trkpt lat="48.441221" lon="2.701857"><ele></ele><time>2017-9-19T8:29:18Z</time></trkpt>
<trkpt lat="48.441220" lon="2.701847"><ele></ele><time>2017-9-19T8:29:21Z</time></trkpt>
<trkpt lat="48.441218" lon="2.701835"><ele></ele><time>2017-9-19T8:29:24Z</time></trkpt>
<trkpt lat="48.441217" lon="2.701825"><ele></ele><time>2017-9-19T8:29:27Z</time></trkpt>
<trkpt lat="48.441217" lon="2.701818"><ele></ele><time>2017-9-19T8:29:30Z</time></trkpt>
<trkpt lat="48.441218" lon="2.701815"><ele></ele><time>2017-9-19T8:29:33Z</time></trkpt>
<trkpt lat="48.441220" lon="2.701810"><ele></ele><time>2017-9-19T8:29:36Z</time></trkpt>
<trkpt lat="48.441226" lon="2.701805"><ele></ele><time>2017-9-19T8:29:39Z</time></trkpt>
<trkpt lat="48.441228" lon="2.701803"><ele></ele><time>2017-9-19T8:29:42Z</time></trkpt>
<trkpt lat="48.441230" lon="2.701802"><ele></ele><time>2017-9-19T8:29:45Z</time></trkpt>
<trkpt lat="48.441230" lon="2.701800"><ele></ele><time>2017-9-19T8:29:48Z</time></trkpt>
<trkpt lat="48.441232" lon="2.701800"><ele></ele><time>2017-9-19T8:29:51Z</time></trkpt>
<trkpt lat="48.441232" lon="2.701797"><ele></ele><time>2017-9-19T8:29:54Z</time></trkpt>
<trkpt lat="48.441235" lon="2.701792"><ele></ele><time>2017-9-19T8:29:57Z</time></trkpt>
<trkpt lat="48.441235" lon="2.701790"><ele></ele><time>2017-9-19T8:30:0Z</time></trkpt>
<trkpt lat="48.441235" lon="2.701790"><ele></ele><time>2017-9-19T8:30:3Z</time></trkpt>
<trkpt lat="48.441238" lon="2.701797"><ele></ele><time>2017-9-19T8:30:6Z</time></trkpt>
<trkpt lat="48.441240" lon="2.701797"><ele></ele><time>2017-9-19T8:30:9Z</time></trkpt>
<trkpt lat="48.441242" lon="2.701797"><ele></ele><time>2017-9-19T8:30:12Z</time></trkpt>
<trkpt lat="48.441242" lon="2.701795"><ele></ele><time>2017-9-19T8:30:15Z</time></trkpt>
<trkpt lat="48.441235" lon="2.701758"><ele></ele><time>2017-9-19T8:30:18Z</time></trkpt>
<trkpt lat="48.441228" lon="2.701745"><ele></ele><time>2017-9-19T8:30:21Z</time></trkpt>
<trkpt lat="48.441226" lon="2.701702"><ele></ele><time>2017-9-19T8:30:24Z</time></trkpt>
<trkpt lat="48.441235" lon="2.701687"><ele></ele><time>2017-9-19T8:30:27Z</time></trkpt>
<trkpt lat="48.441242" lon="2.701670"><ele></ele><time>2017-9-19T8:30:30Z</time></trkpt>
<trkpt lat="48.441250" lon="2.701655"><ele></ele><time>2017-9-19T8:30:33Z</time></trkpt>
<trkpt lat="48.441257" lon="2.701635"><ele></ele><time>2017-9-19T8:30:36Z</time></trkpt>
<trkpt lat="48.441260" lon="2.701617"><ele></ele><time>2017-9-19T8:30:39Z</time></trkpt>
<trkpt lat="48.441253" lon="2.701592"><ele></ele><time>2017-9-19T8:30:42Z</time></trkpt>
<trkpt lat="48.441243" lon="2.701572"><ele></ele><time>2017-9-19T8:30:45Z</time></trkpt>
<trkpt lat="48.441230" lon="2.701552"><ele></ele><time>2017-9-19T8:30:48Z</time></trkpt>
<trkpt lat="48.441218" lon="2.701528"><ele></ele><time>2017-9-19T8:30:51Z</time></trkpt>
<trkpt lat="48.441210" lon="2.701498"><ele></ele><time>2017-9-19T8:30:54Z</time></trkpt>
<trkpt lat="48.441193" lon="2.701415"><ele></ele><time>2017-9-19T8:30:57Z</time></trkpt>
<trkpt lat="48.441187" lon="2.701342"><ele></ele><time>2017-9-19T8:31:0Z</time></trkpt>
<trkpt lat="48.441192" lon="2.701310"><ele></ele><time>2017-9-19T8:31:3Z</time></trkpt>
<trkpt lat="48.441192" lon="2.701282"><ele></ele><time>2017-9-19T8:31:6Z</time></trkpt>
<trkpt lat="48.441192" lon="2.701257"><ele></ele><time>2017-9-19T8:31:9Z</time></trkpt>
<trkpt lat="48.441188" lon="2.701230"><ele></ele><time>2017-9-19T8:31:12Z</time></trkpt>
<trkpt lat="48.441190" lon="2.701163"><ele></ele><time>2017-9-19T8:31:15Z</time></trkpt>
<trkpt lat="48.441193" lon="2.701138"><ele></ele><time>2017-9-19T8:31:18Z</time></trkpt>
<trkpt lat="48.441195" lon="2.701115"><ele></ele><time>2017-9-19T8:31:21Z</time></trkpt>
<trkpt lat="48.441198" lon="2.701097"><ele></ele><time>2017-9-19T8:31:24Z</time></trkpt>
<trkpt lat="48.441203" lon="2.701077"><ele></ele><time>2017-9-19T8:31:27Z</time></trkpt>
<trkpt lat="48.441213" lon="2.701058"><ele></ele><time>2017-9-19T8:31:30Z</time></trkpt>
<trkpt lat="48.441228" lon="2.701038"><ele></ele><time>2017-9-19T8:31:33Z</time></trkpt>
<trkpt lat="48.441243" lon="2.701007"><ele></ele><time>2017-9-19T8:31:36Z</time></trkpt>
<trkpt lat="48.441250" lon="2.700985"><ele></ele><time>2017-9-19T8:31:39Z</time></trkpt>
<trkpt lat="48.441248" lon="2.700963"><ele></ele><time>2017-9-19T8:31:42Z</time></trkpt>
<trkpt lat="48.441250" lon="2.700947"><ele></ele><time>2017-9-19T8:31:45Z</time></trkpt>
<trkpt lat="48.441257" lon="2.700937"><ele></ele><time>2017-9-19T8:31:48Z</time></trkpt>
<trkpt lat="48.441270" lon="2.700922"><ele></ele><time>2017-9-19T8:31:51Z</time></trkpt>
<trkpt lat="48.441286" lon="2.700907"><ele></ele><time>2017-9-19T8:31:54Z</time></trkpt>
<trkpt lat="48.441298" lon="2.700903"><ele></ele><time>2017-9-19T8:31:57Z</time></trkpt>
<trkpt lat="48.441313" lon="2.700905"><ele></ele><time>2017-9-19T8:32:0Z</time></trkpt>
<trkpt lat="48.441348" lon="2.700907"><ele></ele><time>2017-9-19T8:32:3Z</time></trkpt>
<trkpt lat="48.441363" lon="2.700903"><ele></ele><time>2017-9-19T8:32:6Z</time></trkpt>
<trkpt lat="48.441383" lon="2.700907"><ele></ele><time>2017-9-19T8:32:9Z</time></trkpt>
<trkpt lat="48.441407" lon="2.700915"><ele></ele><time>2017-9-19T8:32:12Z</time></trkpt>
<trkpt lat="48.441426" lon="2.700927"><ele></ele><time>2017-9-19T8:32:15Z</time></trkpt>
<trkpt lat="48.441442" lon="2.700925"><ele></ele><time>2017-9-19T8:32:18Z</time></trkpt>
<trkpt lat="48.441458" lon="2.700915"><ele></ele><time>2017-9-19T8:32:21Z</time></trkpt>
<trkpt lat="48.441468" lon="2.700892"><ele></ele><time>2017-9-19T8:32:24Z</time></trkpt>
<trkpt lat="48.441473" lon="2.700858"><ele></ele><time>2017-9-19T8:32:27Z</time></trkpt>
<trkpt lat="48.441473" lon="2.700817"><ele></ele><time>2017-9-19T8:32:30Z</time></trkpt>
<trkpt lat="48.441472" lon="2.700768"><ele></ele><time>2017-9-19T8:32:33Z</time></trkpt>
<trkpt lat="48.441462" lon="2.700718"><ele></ele><time>2017-9-19T8:32:36Z</time></trkpt>
<trkpt lat="48.441447" lon="2.700620"><ele></ele><time>2017-9-19T8:32:39Z</time></trkpt>
<trkpt lat="48.441437" lon="2.700578"><ele></ele><time>2017-9-19T8:32:42Z</time></trkpt>
<trkpt lat="48.441408" lon="2.700480"><ele></ele><time>2017-9-19T8:32:45Z</time></trkpt>
<trkpt lat="48.441393" lon="2.700458"><ele></ele><time>2017-9-19T8:32:48Z</time></trkpt>
<trkpt lat="48.441378" lon="2.700437"><ele></ele><time>2017-9-19T8:32:51Z</time></trkpt>
<trkpt lat="48.441363" lon="2.700430"><ele></ele><time>2017-9-19T8:32:54Z</time></trkpt>
<trkpt lat="48.441348" lon="2.700418"><ele></ele><time>2017-9-19T8:32:57Z</time></trkpt>
<trkpt lat="48.441330" lon="2.700407"><ele></ele><time>2017-9-19T8:33:0Z</time></trkpt>
<trkpt lat="48.441292" lon="2.700382"><ele></ele><time>2017-9-19T8:33:3Z</time></trkpt>
<trkpt lat="48.441258" lon="2.700362"><ele></ele><time>2017-9-19T8:33:6Z</time></trkpt>
<trkpt lat="48.441182" lon="2.700312"><ele></ele><time>2017-9-19T8:33:9Z</time></trkpt>
<trkpt lat="48.441163" lon="2.700295"><ele></ele><time>2017-9-19T8:33:12Z</time></trkpt>
<trkpt lat="48.441048" lon="2.700183"><ele></ele><time>2017-9-19T8:33:15Z</time></trkpt>
<trkpt lat="48.440955" lon="2.700062"><ele></ele><time>2017-9-19T8:33:18Z</time></trkpt>
<trkpt lat="48.440915" lon="2.700030"><ele></ele><time>2017-9-19T8:33:21Z</time></trkpt>
<trkpt lat="48.440875" lon="2.700008"><ele></ele><time>2017-9-19T8:33:24Z</time></trkpt>
<trkpt lat="48.440810" lon="2.699968"><ele></ele><time>2017-9-19T8:33:27Z</time></trkpt>
<trkpt lat="48.440787" lon="2.699947"><ele></ele><time>2017-9-19T8:33:30Z</time></trkpt>
<trkpt lat="48.440673" lon="2.699870"><ele></ele><time>2017-9-19T8:33:33Z</time></trkpt>
<trkpt lat="48.440646" lon="2.699860"><ele></ele><time>2017-9-19T8:33:36Z</time></trkpt>
<trkpt lat="48.440582" lon="2.699818"><ele></ele><time>2017-9-19T8:33:39Z</time></trkpt>
<trkpt lat="48.440550" lon="2.699783"><ele></ele><time>2017-9-19T8:33:42Z</time></trkpt>
<trkpt lat="48.440517" lon="2.699737"><ele></ele><time>2017-9-19T8:33:45Z</time></trkpt>
<trkpt lat="48.440318" lon="2.699432"><ele></ele><time>2017-9-19T8:33:48Z</time></trkpt>
<trkpt lat="48.440263" lon="2.699328"><ele></ele><time>2017-9-19T8:33:51Z</time></trkpt>
<trkpt lat="48.440238" lon="2.699272"><ele></ele><time>2017-9-19T8:33:54Z</time></trkpt>
<trkpt lat="48.439983" lon="2.698720"><ele></ele><time>2017-9-19T8:33:57Z</time></trkpt>
<trkpt lat="48.439955" lon="2.698642"><ele></ele><time>2017-9-19T8:34:0Z</time></trkpt>
<trkpt lat="48.439948" lon="2.698598"><ele></ele><time>2017-9-19T8:34:3Z</time></trkpt>
<trkpt lat="48.439950" lon="2.698567"><ele></ele><time>2017-9-19T8:34:6Z</time></trkpt>
<trkpt lat="48.439960" lon="2.698532"><ele></ele><time>2017-9-19T8:34:9Z</time></trkpt>
<trkpt lat="48.439975" lon="2.698505"><ele></ele><time>2017-9-19T8:34:12Z</time></trkpt>
<trkpt lat="48.439982" lon="2.698465"><ele></ele><time>2017-9-19T8:34:15Z</time></trkpt>
<trkpt lat="48.439982" lon="2.698440"><ele></ele><time>2017-9-19T8:34:18Z</time></trkpt>
<trkpt lat="48.439982" lon="2.698413"><ele></ele><time>2017-9-19T8:34:21Z</time></trkpt>
<trkpt lat="48.439975" lon="2.698380"><ele></ele><time>2017-9-19T8:34:24Z</time></trkpt>
<trkpt lat="48.439951" lon="2.698323"><ele></ele><time>2017-9-19T8:34:27Z</time></trkpt>
<trkpt lat="48.439932" lon="2.698312"><ele></ele><time>2017-9-19T8:34:30Z</time></trkpt>
<trkpt lat="48.439910" lon="2.698313"><ele></ele><time>2017-9-19T8:34:33Z</time></trkpt>
<trkpt lat="48.439880" lon="2.698320"><ele></ele><time>2017-9-19T8:34:36Z</time></trkpt>
<trkpt lat="48.439848" lon="2.698317"><ele></ele><time>2017-9-19T8:34:39Z</time></trkpt>
<trkpt lat="48.439823" lon="2.698303"><ele></ele><time>2017-9-19T8:34:42Z</time></trkpt>
<trkpt lat="48.439818" lon="2.698283"><ele></ele><time>2017-9-19T8:34:45Z</time></trkpt>
<trkpt lat="48.439807" lon="2.698262"><ele></ele><time>2017-9-19T8:34:48Z</time></trkpt>
<trkpt lat="48.439795" lon="2.698233"><ele></ele><time>2017-9-19T8:34:51Z</time></trkpt>
<trkpt lat="48.439782" lon="2.698210"><ele></ele><time>2017-9-19T8:34:54Z</time></trkpt>
<trkpt lat="48.439772" lon="2.698183"><ele></ele><time>2017-9-19T8:34:57Z</time></trkpt>
<trkpt lat="48.439770" lon="2.698150"><ele></ele><time>2017-9-19T8:35:0Z</time></trkpt>
<trkpt lat="48.439778" lon="2.698125"><ele></ele><time>2017-9-19T8:35:3Z</time></trkpt>
<trkpt lat="48.439811" lon="2.698023"><ele></ele><time>2017-9-19T8:35:6Z</time></trkpt>
<trkpt lat="48.439816" lon="2.697988"><ele></ele><time>2017-9-19T8:35:9Z</time></trkpt>
<trkpt lat="48.439813" lon="2.697955"><ele></ele><time>2017-9-19T8:35:12Z</time></trkpt>
<trkpt lat="48.439813" lon="2.697927"><ele></ele><time>2017-9-19T8:35:15Z</time></trkpt>
<trkpt lat="48.439816" lon="2.697895"><ele></ele><time>2017-9-19T8:35:18Z</time></trkpt>
<trkpt lat="48.439822" lon="2.697867"><ele></ele><time>2017-9-19T8:35:21Z</time></trkpt>
<trkpt lat="48.439827" lon="2.697840"><ele></ele><time>2017-9-19T8:35:24Z</time></trkpt>
<trkpt lat="48.439833" lon="2.697820"><ele></ele><time>2017-9-19T8:35:27Z</time></trkpt>
<trkpt lat="48.439840" lon="2.697800"><ele></ele><time>2017-9-19T8:35:30Z</time></trkpt>
<trkpt lat="48.439835" lon="2.697783"><ele></ele><time>2017-9-19T8:35:33Z</time></trkpt>
<trkpt lat="48.439820" lon="2.697768"><ele></ele><time>2017-9-19T8:35:36Z</time></trkpt>
<trkpt lat="48.439805" lon="2.697760"><ele></ele><time>2017-9-19T8:35:39Z</time></trkpt>
<trkpt lat="48.439790" lon="2.697757"><ele></ele><time>2017-9-19T8:35:42Z</time></trkpt>
<trkpt lat="48.439763" lon="2.697753"><ele></ele><time>2017-9-19T8:35:45Z</time></trkpt>
<trkpt lat="48.439747" lon="2.697748"><ele></ele><time>2017-9-19T8:35:48Z</time></trkpt>
<trkpt lat="48.439728" lon="2.697743"><ele></ele><time>2017-9-19T8:35:51Z</time></trkpt>
<trkpt lat="48.439712" lon="2.697743"><ele></ele><time>2017-9-19T8:35:54Z</time></trkpt>
<trkpt lat="48.439657" lon="2.697732"><ele></ele><time>2017-9-19T8:35:57Z</time></trkpt>
<trkpt lat="48.439590" lon="2.697705"><ele></ele><time>2017-9-19T8:36:0Z</time></trkpt>
<trkpt lat="48.439575" lon="2.697705"><ele></ele><time>2017-9-19T8:36:3Z</time></trkpt>
<trkpt lat="48.439520" lon="2.697703"><ele></ele><time>2017-9-19T8:36:6Z</time></trkpt>
<trkpt lat="48.439508" lon="2.697698"><ele></ele><time>2017-9-19T8:36:9Z</time></trkpt>
<trkpt lat="48.439495" lon="2.697695"><ele></ele><time>2017-9-19T8:36:12Z</time></trkpt>
<trkpt lat="48.439483" lon="2.697693"><ele></ele><time>2017-9-19T8:36:15Z</time></trkpt>
<trkpt lat="48.439472" lon="2.697693"><ele></ele><time>2017-9-19T8:36:18Z</time></trkpt>
<trkpt lat="48.439422" lon="2.697688"><ele></ele><time>2017-9-19T8:36:21Z</time></trkpt>
<trkpt lat="48.439398" lon="2.697685"><ele></ele><time>2017-9-19T8:36:24Z</time></trkpt>
<trkpt lat="48.439295" lon="2.697680"><ele></ele><time>2017-9-19T8:36:27Z</time></trkpt>
<trkpt lat="48.439253" lon="2.697675"><ele></ele><time>2017-9-19T8:36:30Z</time></trkpt>
<trkpt lat="48.439245" lon="2.697668"><ele></ele><time>2017-9-19T8:36:33Z</time></trkpt>
<trkpt lat="48.439218" lon="2.697653"><ele></ele><time>2017-9-19T8:36:36Z</time></trkpt>
<trkpt lat="48.439206" lon="2.697645"><ele></ele><time>2017-9-19T8:36:39Z</time></trkpt>
<trkpt lat="48.439197" lon="2.697642"><ele></ele><time>2017-9-19T8:36:42Z</time></trkpt>
<trkpt lat="48.439185" lon="2.697638"><ele></ele><time>2017-9-19T8:36:45Z</time></trkpt>
<trkpt lat="48.439146" lon="2.697623"><ele></ele><time>2017-9-19T8:36:48Z</time></trkpt>
<trkpt lat="48.439137" lon="2.697622"><ele></ele><time>2017-9-19T8:36:51Z</time></trkpt>
<trkpt lat="48.439062" lon="2.697610"><ele></ele><time>2017-9-19T8:36:54Z</time></trkpt>
<trkpt lat="48.439048" lon="2.697612"><ele></ele><time>2017-9-19T8:36:57Z</time></trkpt>
<trkpt lat="48.439018" lon="2.697612"><ele></ele><time>2017-9-19T8:37:0Z</time></trkpt>
<trkpt lat="48.439015" lon="2.697607"><ele></ele><time>2017-9-19T8:37:3Z</time></trkpt>
<trkpt lat="48.439008" lon="2.697600"><ele></ele><time>2017-9-19T8:37:6Z</time></trkpt>
<trkpt lat="48.438993" lon="2.697602"><ele></ele><time>2017-9-19T8:37:9Z</time></trkpt>
<trkpt lat="48.438958" lon="2.697607"><ele></ele><time>2017-9-19T8:37:12Z</time></trkpt>
<trkpt lat="48.438950" lon="2.697605"><ele></ele><time>2017-9-19T8:37:15Z</time></trkpt>
<trkpt lat="48.438903" lon="2.697602"><ele></ele><time>2017-9-19T8:37:18Z</time></trkpt>
<trkpt lat="48.438895" lon="2.697600"><ele></ele><time>2017-9-19T8:37:21Z</time></trkpt>
<trkpt lat="48.438888" lon="2.697597"><ele></ele><time>2017-9-19T8:37:24Z</time></trkpt>
<trkpt lat="48.438882" lon="2.697592"><ele></ele><time>2017-9-19T8:37:27Z</time></trkpt>
<trkpt lat="48.438875" lon="2.697592"><ele></ele><time>2017-9-19T8:37:30Z</time></trkpt>
<trkpt lat="48.438862" lon="2.697595"><ele></ele><time>2017-9-19T8:37:33Z</time></trkpt>
<trkpt lat="48.438857" lon="2.697595"><ele></ele><time>2017-9-19T8:37:36Z</time></trkpt>
<trkpt lat="48.438853" lon="2.697597"><ele></ele><time>2017-9-19T8:37:39Z</time></trkpt>
<trkpt lat="48.438846" lon="2.697595"><ele></ele><time>2017-9-19T8:37:42Z</time></trkpt>
<trkpt lat="48.438842" lon="2.697592"><ele></ele><time>2017-9-19T8:37:45Z</time></trkpt>
<trkpt lat="48.438833" lon="2.697588"><ele></ele><time>2017-9-19T8:37:48Z</time></trkpt>
<trkpt lat="48.438827" lon="2.697590"><ele></ele><time>2017-9-19T8:37:51Z</time></trkpt>
<trkpt lat="48.438822" lon="2.697588"><ele></ele><time>2017-9-19T8:37:54Z</time></trkpt>
<trkpt lat="48.438815" lon="2.697587"><ele></ele><time>2017-9-19T8:37:57Z</time></trkpt>
<trkpt lat="48.438808" lon="2.697588"><ele></ele><time>2017-9-19T8:38:0Z</time></trkpt>
<trkpt lat="48.438800" lon="2.697592"><ele></ele><time>2017-9-19T8:38:3Z</time></trkpt>
<trkpt lat="48.438795" lon="2.697597"><ele></ele><time>2017-9-19T8:38:6Z</time></trkpt>
<trkpt lat="48.438783" lon="2.697625"><ele></ele><time>2017-9-19T8:38:9Z</time></trkpt>
<trkpt lat="48.438763" lon="2.697642"><ele></ele><time>2017-9-19T8:38:12Z</time></trkpt>
<trkpt lat="48.438747" lon="2.697648"><ele></ele><time>2017-9-19T8:38:15Z</time></trkpt>
<trkpt lat="48.438721" lon="2.697653"><ele></ele><time>2017-9-19T8:38:18Z</time></trkpt>
<trkpt lat="48.438713" lon="2.697655"><ele></ele><time>2017-9-19T8:38:21Z</time></trkpt>
<trkpt lat="48.438702" lon="2.697660"><ele></ele><time>2017-9-19T8:38:24Z</time></trkpt>
<trkpt lat="48.438688" lon="2.697667"><ele></ele><time>2017-9-19T8:38:27Z</time></trkpt>
<trkpt lat="48.438680" lon="2.697672"><ele></ele><time>2017-9-19T8:38:30Z</time></trkpt>
<trkpt lat="48.438637" lon="2.697695"><ele></ele><time>2017-9-19T8:38:33Z</time></trkpt>
<trkpt lat="48.438631" lon="2.697700"><ele></ele><time>2017-9-19T8:38:36Z</time></trkpt>
<trkpt lat="48.438627" lon="2.697710"><ele></ele><time>2017-9-19T8:38:39Z</time></trkpt>
<trkpt lat="48.438618" lon="2.697715"><ele></ele><time>2017-9-19T8:38:42Z</time></trkpt>
<trkpt lat="48.438612" lon="2.697722"><ele></ele><time>2017-9-19T8:38:45Z</time></trkpt>
<trkpt lat="48.438603" lon="2.697728"><ele></ele><time>2017-9-19T8:38:48Z</time></trkpt>
<trkpt lat="48.438597" lon="2.697738"><ele></ele><time>2017-9-19T8:38:51Z</time></trkpt>
<trkpt lat="48.438585" lon="2.697765"><ele></ele><time>2017-9-19T8:38:54Z</time></trkpt>
<trkpt lat="48.438580" lon="2.697777"><ele></ele><time>2017-9-19T8:38:57Z</time></trkpt>
<trkpt lat="48.438577" lon="2.697785"><ele></ele><time>2017-9-19T8:39:0Z</time></trkpt>
<trkpt lat="48.438573" lon="2.697790"><ele></ele><time>2017-9-19T8:39:3Z</time></trkpt>
<trkpt lat="48.438570" lon="2.697796"><ele></ele><time>2017-9-19T8:39:6Z</time></trkpt>
<trkpt lat="48.438565" lon="2.697803"><ele></ele><time>2017-9-19T8:39:9Z</time></trkpt>
<trkpt lat="48.438552" lon="2.697810"><ele></ele><time>2017-9-19T8:39:12Z</time></trkpt>
<trkpt lat="48.438550" lon="2.697813"><ele></ele><time>2017-9-19T8:39:15Z</time></trkpt>
<trkpt lat="48.438527" lon="2.697833"><ele></ele><time>2017-9-19T8:39:18Z</time></trkpt>
<trkpt lat="48.438518" lon="2.697835"><ele></ele><time>2017-9-19T8:39:21Z</time></trkpt>
<trkpt lat="48.438508" lon="2.697838"><ele></ele><time>2017-9-19T8:39:24Z</time></trkpt>
<trkpt lat="48.438505" lon="2.697847"><ele></ele><time>2017-9-19T8:39:27Z</time></trkpt>
<trkpt lat="48.438503" lon="2.697855"><ele></ele><time>2017-9-19T8:39:30Z</time></trkpt>
<trkpt lat="48.438500" lon="2.697860"><ele></ele><time>2017-9-19T8:39:33Z</time></trkpt>
<trkpt lat="48.438493" lon="2.697865"><ele></ele><time>2017-9-19T8:39:36Z</time></trkpt>
<trkpt lat="48.438487" lon="2.697867"><ele></ele><time>2017-9-19T8:39:39Z</time></trkpt>
<trkpt lat="48.438482" lon="2.697870"><ele></ele><time>2017-9-19T8:39:42Z</time></trkpt>
<trkpt lat="48.438477" lon="2.697873"><ele></ele><time>2017-9-19T8:39:45Z</time></trkpt>
<trkpt lat="48.438471" lon="2.697880"><ele></ele><time>2017-9-19T8:39:48Z</time></trkpt>
<trkpt lat="48.438466" lon="2.697890"><ele></ele><time>2017-9-19T8:39:51Z</time></trkpt>
<trkpt lat="48.438448" lon="2.697918"><ele></ele><time>2017-9-19T8:39:54Z</time></trkpt>
<trkpt lat="48.438443" lon="2.697932"><ele></ele><time>2017-9-19T8:39:57Z</time></trkpt>
<trkpt lat="48.438437" lon="2.697943"><ele></ele><time>2017-9-19T8:40:0Z</time></trkpt>
<trkpt lat="48.438423" lon="2.697947"><ele></ele><time>2017-9-19T8:40:3Z</time></trkpt>
<trkpt lat="48.438415" lon="2.697958"><ele></ele><time>2017-9-19T8:40:6Z</time></trkpt>
<trkpt lat="48.438397" lon="2.697965"><ele></ele><time>2017-9-19T8:40:9Z</time></trkpt>
<trkpt lat="48.438385" lon="2.697973"><ele></ele><time>2017-9-19T8:40:12Z</time></trkpt>
<trkpt lat="48.438367" lon="2.697980"><ele></ele><time>2017-9-19T8:40:15Z</time></trkpt>
<trkpt lat="48.438338" lon="2.697992"><ele></ele><time>2017-9-19T8:40:18Z</time></trkpt>
<trkpt lat="48.438337" lon="2.698007"><ele></ele><time>2017-9-19T8:40:21Z</time></trkpt>
<trkpt lat="48.438328" lon="2.698015"><ele></ele><time>2017-9-19T8:40:24Z</time></trkpt>
<trkpt lat="48.438313" lon="2.698053"><ele></ele><time>2017-9-19T8:40:27Z</time></trkpt>
<trkpt lat="48.438295" lon="2.698073"><ele></ele><time>2017-9-19T8:40:30Z</time></trkpt>
<trkpt lat="48.438232" lon="2.698187"><ele></ele><time>2017-9-19T8:40:33Z</time></trkpt>
<trkpt lat="48.438195" lon="2.698200"><ele></ele><time>2017-9-19T8:40:36Z</time></trkpt>
<trkpt lat="48.438157" lon="2.698193"><ele></ele><time>2017-9-19T8:40:39Z</time></trkpt>
<trkpt lat="48.438017" lon="2.698152"><ele></ele><time>2017-9-19T8:40:42Z</time></trkpt>
<trkpt lat="48.437975" lon="2.698125"><ele></ele><time>2017-9-19T8:40:45Z</time></trkpt>
<trkpt lat="48.437923" lon="2.698080"><ele></ele><time>2017-9-19T8:40:48Z</time></trkpt>
<trkpt lat="48.437877" lon="2.698033"><ele></ele><time>2017-9-19T8:40:51Z</time></trkpt>
<trkpt lat="48.437503" lon="2.697685"><ele></ele><time>2017-9-19T8:40:54Z</time></trkpt>
<trkpt lat="48.437450" lon="2.697663"><ele></ele><time>2017-9-19T8:40:57Z</time></trkpt>
<trkpt lat="48.437343" lon="2.697608"><ele></ele><time>2017-9-19T8:41:0Z</time></trkpt>
<trkpt lat="48.437290" lon="2.697578"><ele></ele><time>2017-9-19T8:41:3Z</time></trkpt>
<trkpt lat="48.436483" lon="2.697217"><ele></ele><time>2017-9-19T8:41:6Z</time></trkpt>
<trkpt lat="48.436458" lon="2.697218"><ele></ele><time>2017-9-19T8:41:9Z</time></trkpt>
<trkpt lat="48.436442" lon="2.697212"><ele></ele><time>2017-9-19T8:41:12Z</time></trkpt>
<trkpt lat="48.436432" lon="2.697195"><ele></ele><time>2017-9-19T8:41:15Z</time></trkpt>
<trkpt lat="48.436427" lon="2.697173"><ele></ele><time>2017-9-19T8:41:18Z</time></trkpt>
<trkpt lat="48.436420" lon="2.697143"><ele></ele><time>2017-9-19T8:41:21Z</time></trkpt>
<trkpt lat="48.436417" lon="2.697140"><ele></ele><time>2017-9-19T8:41:24Z</time></trkpt>
<trkpt lat="48.436410" lon="2.697135"><ele></ele><time>2017-9-19T8:41:27Z</time></trkpt>
<trkpt lat="48.436407" lon="2.697133"><ele></ele><time>2017-9-19T8:41:30Z</time></trkpt>
<trkpt lat="48.436405" lon="2.697132"><ele></ele><time>2017-9-19T8:41:33Z</time></trkpt>
<trkpt lat="48.436405" lon="2.697130"><ele></ele><time>2017-9-19T8:41:36Z</time></trkpt>
<trkpt lat="48.436403" lon="2.697128"><ele></ele><time>2017-9-19T8:41:39Z</time></trkpt>
<trkpt lat="48.436403" lon="2.697125"><ele></ele><time>2017-9-19T8:41:42Z</time></trkpt>
<trkpt lat="48.436402" lon="2.697123"><ele></ele><time>2017-9-19T8:41:45Z</time></trkpt>
<trkpt lat="48.436402" lon="2.697120"><ele></ele><time>2017-9-19T8:41:48Z</time></trkpt>
<trkpt lat="48.436402" lon="2.697118"><ele></ele><time>2017-9-19T8:41:51Z</time></trkpt>
<trkpt lat="48.436400" lon="2.697115"><ele></ele><time>2017-9-19T8:41:54Z</time></trkpt>
<trkpt lat="48.436398" lon="2.697113"><ele></ele><time>2017-9-19T8:41:57Z</time></trkpt>
<trkpt lat="48.436397" lon="2.697112"><ele></ele><time>2017-9-19T8:42:0Z</time></trkpt>
<trkpt lat="48.436397" lon="2.697112"><ele></ele><time>2017-9-19T8:42:3Z</time></trkpt>
<trkpt lat="48.436398" lon="2.697105"><ele></ele><time>2017-9-19T8:42:6Z</time></trkpt>
<trkpt lat="48.436407" lon="2.697072"><ele></ele><time>2017-9-19T8:42:9Z</time></trkpt>
<trkpt lat="48.436508" lon="2.696547"><ele></ele><time>2017-9-19T8:42:12Z</time></trkpt>
<trkpt lat="48.436593" lon="2.696028"><ele></ele><time>2017-9-19T8:42:15Z</time></trkpt>
<trkpt lat="48.436602" lon="2.695997"><ele></ele><time>2017-9-19T8:42:18Z</time></trkpt>
<trkpt lat="48.436643" lon="2.695780"><ele></ele><time>2017-9-19T8:42:21Z</time></trkpt>
<trkpt lat="48.436642" lon="2.695785"><ele></ele><time>2017-9-19T8:42:24Z</time></trkpt>
<trkpt lat="48.436638" lon="2.695788"><ele></ele><time>2017-9-19T8:42:27Z</time></trkpt>
<trkpt lat="48.436638" lon="2.695797"><ele></ele><time>2017-9-19T8:42:30Z</time></trkpt>
<trkpt lat="48.436633" lon="2.695892"><ele></ele><time>2017-9-19T8:42:33Z</time></trkpt>
<trkpt lat="48.436620" lon="2.695955"><ele></ele><time>2017-9-19T8:42:36Z</time></trkpt>
<trkpt lat="48.436615" lon="2.695990"><ele></ele><time>2017-9-19T8:42:39Z</time></trkpt>
<trkpt lat="48.436613" lon="2.696018"><ele></ele><time>2017-9-19T8:42:42Z</time></trkpt>
<trkpt lat="48.436603" lon="2.696078"><ele></ele><time>2017-9-19T8:42:45Z</time></trkpt>
<trkpt lat="48.436053" lon="2.699115"><ele></ele><time>2017-9-19T8:42:48Z</time></trkpt>
<trkpt lat="48.436048" lon="2.699157"><ele></ele><time>2017-9-19T8:42:51Z</time></trkpt>
<trkpt lat="48.436000" lon="2.699452"><ele></ele><time>2017-9-19T8:42:54Z</time></trkpt>
<trkpt lat="48.435977" lon="2.699532"><ele></ele><time>2017-9-19T8:42:57Z</time></trkpt>
<trkpt lat="48.435968" lon="2.699570"><ele></ele><time>2017-9-19T8:43:0Z</time></trkpt>
<trkpt lat="48.435965" lon="2.699615"><ele></ele><time>2017-9-19T8:43:3Z</time></trkpt>
<trkpt lat="48.435947" lon="2.699758"><ele></ele><time>2017-9-19T8:43:6Z</time></trkpt>
<trkpt lat="48.435932" lon="2.699822"><ele></ele><time>2017-9-19T8:43:9Z</time></trkpt>
<trkpt lat="48.435922" lon="2.699855"><ele></ele><time>2017-9-19T8:43:12Z</time></trkpt>
<trkpt lat="48.435915" lon="2.699892"><ele></ele><time>2017-9-19T8:43:15Z</time></trkpt>
<trkpt lat="48.435908" lon="2.699928"><ele></ele><time>2017-9-19T8:43:18Z</time></trkpt>
<trkpt lat="48.435905" lon="2.699965"><ele></ele><time>2017-9-19T8:43:21Z</time></trkpt>
<trkpt lat="48.435837" lon="2.700327"><ele></ele><time>2017-9-19T8:43:24Z</time></trkpt>
<trkpt lat="48.435822" lon="2.700392"><ele></ele><time>2017-9-19T8:43:27Z</time></trkpt>
<trkpt lat="48.435808" lon="2.700415"><ele></ele><time>2017-9-19T8:43:30Z</time></trkpt>
<trkpt lat="48.435793" lon="2.700433"><ele></ele><time>2017-9-19T8:43:33Z</time></trkpt>
<trkpt lat="48.435775" lon="2.700443"><ele></ele><time>2017-9-19T8:43:36Z</time></trkpt>
<trkpt lat="48.435756" lon="2.700443"><ele></ele><time>2017-9-19T8:43:39Z</time></trkpt>
<trkpt lat="48.435743" lon="2.700437"><ele></ele><time>2017-9-19T8:43:42Z</time></trkpt>
<trkpt lat="48.435728" lon="2.700427"><ele></ele><time>2017-9-19T8:43:45Z</time></trkpt>
<trkpt lat="48.435710" lon="2.700415"><ele></ele><time>2017-9-19T8:43:48Z</time></trkpt>
<trkpt lat="48.435693" lon="2.700395"><ele></ele><time>2017-9-19T8:43:51Z</time></trkpt>
<trkpt lat="48.435598" lon="2.700248"><ele></ele><time>2017-9-19T8:43:54Z</time></trkpt>
<trkpt lat="48.435555" lon="2.700173"><ele></ele><time>2017-9-19T8:43:57Z</time></trkpt>
<trkpt lat="48.434948" lon="2.699120"><ele></ele><time>2017-9-19T8:44:0Z</time></trkpt>
<trkpt lat="48.434927" lon="2.699075"><ele></ele><time>2017-9-19T8:44:3Z</time></trkpt>
<trkpt lat="48.433917" lon="2.697221"><ele></ele><time>2017-9-19T8:44:6Z</time></trkpt>
<trkpt lat="48.433907" lon="2.697213"><ele></ele><time>2017-9-19T8:44:9Z</time></trkpt>
<trkpt lat="48.433895" lon="2.697200"><ele></ele><time>2017-9-19T8:44:12Z</time></trkpt>
<trkpt lat="48.433886" lon="2.697187"><ele></ele><time>2017-9-19T8:44:15Z</time></trkpt>
<trkpt lat="48.433867" lon="2.697143"><ele></ele><time>2017-9-19T8:44:18Z</time></trkpt>
<trkpt lat="48.433860" lon="2.697113"><ele></ele><time>2017-9-19T8:44:21Z</time></trkpt>
<trkpt lat="48.433856" lon="2.697075"><ele></ele><time>2017-9-19T8:44:24Z</time></trkpt>
<trkpt lat="48.433856" lon="2.697040"><ele></ele><time>2017-9-19T8:44:27Z</time></trkpt>
<trkpt lat="48.433863" lon="2.697010"><ele></ele><time>2017-9-19T8:44:30Z</time></trkpt>
<trkpt lat="48.433873" lon="2.696978"><ele></ele><time>2017-9-19T8:44:33Z</time></trkpt>
<trkpt lat="48.433888" lon="2.696953"><ele></ele><time>2017-9-19T8:44:36Z</time></trkpt>
<trkpt lat="48.434342" lon="2.696280"><ele></ele><time>2017-9-19T8:44:39Z</time></trkpt>
<trkpt lat="48.434363" lon="2.696255"><ele></ele><time>2017-9-19T8:44:42Z</time></trkpt>
<trkpt lat="48.434403" lon="2.696140"><ele></ele><time>2017-9-19T8:44:45Z</time></trkpt>
<trkpt lat="48.434398" lon="2.696090"><ele></ele><time>2017-9-19T8:44:48Z</time></trkpt>
<trkpt lat="48.434385" lon="2.696042"><ele></ele><time>2017-9-19T8:44:51Z</time></trkpt>
<trkpt lat="48.434351" lon="2.695958"><ele></ele><time>2017-9-19T8:44:54Z</time></trkpt>
<trkpt lat="48.434330" lon="2.695923"><ele></ele><time>2017-9-19T8:44:57Z</time></trkpt>
<trkpt lat="48.433340" lon="2.694220"><ele></ele><time>2017-9-19T8:45:0Z</time></trkpt>
<trkpt lat="48.433313" lon="2.694205"><ele></ele><time>2017-9-19T8:45:3Z</time></trkpt>
<trkpt lat="48.433288" lon="2.694203"><ele></ele><time>2017-9-19T8:45:6Z</time></trkpt>
<trkpt lat="48.433268" lon="2.694208"><ele></ele><time>2017-9-19T8:45:9Z</time></trkpt>
<trkpt lat="48.433137" lon="2.694238"><ele></ele><time>2017-9-19T8:45:12Z</time></trkpt>
<trkpt lat="48.433123" lon="2.694245"><ele></ele><time>2017-9-19T8:45:15Z</time></trkpt>
<trkpt lat="48.433095" lon="2.694255"><ele></ele><time>2017-9-19T8:45:18Z</time></trkpt>
<trkpt lat="48.433082" lon="2.694257"><ele></ele><time>2017-9-19T8:45:21Z</time></trkpt>
<trkpt lat="48.432910" lon="2.694292"><ele></ele><time>2017-9-19T8:45:24Z</time></trkpt>
<trkpt lat="48.432872" lon="2.694300"><ele></ele><time>2017-9-19T8:45:27Z</time></trkpt>
<trkpt lat="48.432856" lon="2.694303"><ele></ele><time>2017-9-19T8:45:30Z</time></trkpt>
<trkpt lat="48.432826" lon="2.694316"><ele></ele><time>2017-9-19T8:45:33Z</time></trkpt>
<trkpt lat="48.432790" lon="2.694337"><ele></ele><time>2017-9-19T8:45:36Z</time></trkpt>
<trkpt lat="48.432772" lon="2.694343"><ele></ele><time>2017-9-19T8:45:39Z</time></trkpt>
<trkpt lat="48.432753" lon="2.694347"><ele></ele><time>2017-9-19T8:45:42Z</time></trkpt>
<trkpt lat="48.432665" lon="2.694373"><ele></ele><time>2017-9-19T8:45:45Z</time></trkpt>
<trkpt lat="48.432623" lon="2.694387"><ele></ele><time>2017-9-19T8:45:48Z</time></trkpt>
<trkpt lat="48.432603" lon="2.694400"><ele></ele><time>2017-9-19T8:45:51Z</time></trkpt>
<trkpt lat="48.432583" lon="2.694410"><ele></ele><time>2017-9-19T8:45:54Z</time></trkpt>
<trkpt lat="48.432567" lon="2.694417"><ele></ele><time>2017-9-19T8:45:57Z</time></trkpt>
<trkpt lat="48.432358" lon="2.694492"><ele></ele><time>2017-9-19T8:46:0Z</time></trkpt>
<trkpt lat="48.432341" lon="2.694493"><ele></ele><time>2017-9-19T8:46:3Z</time></trkpt>
<trkpt lat="48.432311" lon="2.694490"><ele></ele><time>2017-9-19T8:46:6Z</time></trkpt>
<trkpt lat="48.432300" lon="2.694490"><ele></ele><time>2017-9-19T8:46:9Z</time></trkpt>
<trkpt lat="48.432297" lon="2.694492"><ele></ele><time>2017-9-19T8:46:12Z</time></trkpt>
<trkpt lat="48.432295" lon="2.694487"><ele></ele><time>2017-9-19T8:46:15Z</time></trkpt>
<trkpt lat="48.432300" lon="2.694483"><ele></ele><time>2017-9-19T8:46:18Z</time></trkpt>
<trkpt lat="48.432297" lon="2.694482"><ele></ele><time>2017-9-19T8:46:21Z</time></trkpt>
<trkpt lat="48.432292" lon="2.694482"><ele></ele><time>2017-9-19T8:46:24Z</time></trkpt>
<trkpt lat="48.432285" lon="2.694482"><ele></ele><time>2017-9-19T8:46:27Z</time></trkpt>
<trkpt lat="48.432280" lon="2.694483"><ele></ele><time>2017-9-19T8:46:30Z</time></trkpt>
<trkpt lat="48.432275" lon="2.694488"><ele></ele><time>2017-9-19T8:46:33Z</time></trkpt>
<trkpt lat="48.432268" lon="2.694492"><ele></ele><time>2017-9-19T8:46:36Z</time></trkpt>
<trkpt lat="48.432262" lon="2.694493"><ele></ele><time>2017-9-19T8:46:39Z</time></trkpt>
<trkpt lat="48.432255" lon="2.694498"><ele></ele><time>2017-9-19T8:46:42Z</time></trkpt>
<trkpt lat="48.432248" lon="2.694502"><ele></ele><time>2017-9-19T8:46:45Z</time></trkpt>
<trkpt lat="48.432243" lon="2.694507"><ele></ele><time>2017-9-19T8:46:48Z</time></trkpt>
<trkpt lat="48.432240" lon="2.694507"><ele></ele><time>2017-9-19T8:46:51Z</time></trkpt>
<trkpt lat="48.432235" lon="2.694510"><ele></ele><time>2017-9-19T8:46:54Z</time></trkpt>
<trkpt lat="48.432233" lon="2.694512"><ele></ele><time>2017-9-19T8:46:57Z</time></trkpt>
<trkpt lat="48.432232" lon="2.694515"><ele></ele><time>2017-9-19T8:47:0Z</time></trkpt>
<trkpt lat="48.432228" lon="2.694515"><ele></ele><time>2017-9-19T8:47:3Z</time></trkpt>
<trkpt lat="48.432225" lon="2.694515"><ele></ele><time>2017-9-19T8:47:6Z</time></trkpt>
<trkpt lat="48.432221" lon="2.694517"><ele></ele><time>2017-9-19T8:47:9Z</time></trkpt>
<trkpt lat="48.432218" lon="2.694517"><ele></ele><time>2017-9-19T8:47:12Z</time></trkpt>
<trkpt lat="48.432215" lon="2.694515"><ele></ele><time>2017-9-19T8:47:15Z</time></trkpt>
<trkpt lat="48.432208" lon="2.694515"><ele></ele><time>2017-9-19T8:47:18Z</time></trkpt>
<trkpt lat="48.432205" lon="2.694513"><ele></ele><time>2017-9-19T8:47:21Z</time></trkpt>
<trkpt lat="48.432198" lon="2.694507"><ele></ele><time>2017-9-19T8:47:24Z</time></trkpt>
<trkpt lat="48.432190" lon="2.694495"><ele></ele><time>2017-9-19T8:47:27Z</time></trkpt>
<trkpt lat="48.432175" lon="2.694463"><ele></ele><time>2017-9-19T8:47:30Z</time></trkpt>
<trkpt lat="48.432165" lon="2.694443"><ele></ele><time>2017-9-19T8:47:33Z</time></trkpt>
<trkpt lat="48.432153" lon="2.694425"><ele></ele><time>2017-9-19T8:47:36Z</time></trkpt>
<trkpt lat="48.432138" lon="2.694408"><ele></ele><time>2017-9-19T8:47:39Z</time></trkpt>
<trkpt lat="48.432123" lon="2.694393"><ele></ele><time>2017-9-19T8:47:42Z</time></trkpt>
<trkpt lat="48.432095" lon="2.694368"><ele></ele><time>2017-9-19T8:47:45Z</time></trkpt>
<trkpt lat="48.432043" lon="2.694320"><ele></ele><time>2017-9-19T8:47:48Z</time></trkpt>
<trkpt lat="48.432032" lon="2.694315"><ele></ele><time>2017-9-19T8:47:51Z</time></trkpt>
<trkpt lat="48.432012" lon="2.694305"><ele></ele><time>2017-9-19T8:47:54Z</time></trkpt>
<trkpt lat="48.432003" lon="2.694302"><ele></ele><time>2017-9-19T8:47:57Z</time></trkpt>
<trkpt lat="48.431995" lon="2.694295"><ele></ele><time>2017-9-19T8:48:0Z</time></trkpt>
<trkpt lat="48.431988" lon="2.694285"><ele></ele><time>2017-9-19T8:48:3Z</time></trkpt>
<trkpt lat="48.431983" lon="2.694270"><ele></ele><time>2017-9-19T8:48:6Z</time></trkpt>
<trkpt lat="48.431985" lon="2.694258"><ele></ele><time>2017-9-19T8:48:9Z</time></trkpt>
<trkpt lat="48.431990" lon="2.694247"><ele></ele><time>2017-9-19T8:48:12Z</time></trkpt>
<trkpt lat="48.431995" lon="2.694232"><ele></ele><time>2017-9-19T8:48:15Z</time></trkpt>
<trkpt lat="48.432008" lon="2.694178"><ele></ele><time>2017-9-19T8:48:18Z</time></trkpt>
<trkpt lat="48.432008" lon="2.694145"><ele></ele><time>2017-9-19T8:48:21Z</time></trkpt>
<trkpt lat="48.432003" lon="2.694108"><ele></ele><time>2017-9-19T8:48:24Z</time></trkpt>
<trkpt lat="48.431993" lon="2.694072"><ele></ele><time>2017-9-19T8:48:27Z</time></trkpt>
<trkpt lat="48.431982" lon="2.694037"><ele></ele><time>2017-9-19T8:48:30Z</time></trkpt>
<trkpt lat="48.431967" lon="2.694007"><ele></ele><time>2017-9-19T8:48:33Z</time></trkpt>
<trkpt lat="48.431953" lon="2.693982"><ele></ele><time>2017-9-19T8:48:36Z</time></trkpt>
<trkpt lat="48.431938" lon="2.693963"><ele></ele><time>2017-9-19T8:48:39Z</time></trkpt>
<trkpt lat="48.431867" lon="2.693883"><ele></ele><time>2017-9-19T8:48:42Z</time></trkpt>
<trkpt lat="48.431788" lon="2.693818"><ele></ele><time>2017-9-19T8:48:45Z</time></trkpt>
<trkpt lat="48.431760" lon="2.693807"><ele></ele><time>2017-9-19T8:48:48Z</time></trkpt>
<trkpt lat="48.431646" lon="2.693757"><ele></ele><time>2017-9-19T8:48:51Z</time></trkpt>
<trkpt lat="48.431628" lon="2.693753"><ele></ele><time>2017-9-19T8:48:54Z</time></trkpt>
<trkpt lat="48.431610" lon="2.693753"><ele></ele><time>2017-9-19T8:48:57Z</time></trkpt>
<trkpt lat="48.431577" lon="2.693743"><ele></ele><time>2017-9-19T8:49:0Z</time></trkpt>
<trkpt lat="48.431558" lon="2.693740"><ele></ele><time>2017-9-19T8:49:3Z</time></trkpt>
<trkpt lat="48.431477" lon="2.693730"><ele></ele><time>2017-9-19T8:49:6Z</time></trkpt>
<trkpt lat="48.431448" lon="2.693730"><ele></ele><time>2017-9-19T8:49:9Z</time></trkpt>
<trkpt lat="48.431428" lon="2.693725"><ele></ele><time>2017-9-19T8:49:12Z</time></trkpt>
<trkpt lat="48.431350" lon="2.693708"><ele></ele><time>2017-9-19T8:49:15Z</time></trkpt>
<trkpt lat="48.431323" lon="2.693698"><ele></ele><time>2017-9-19T8:49:18Z</time></trkpt>
<trkpt lat="48.431313" lon="2.693682"><ele></ele><time>2017-9-19T8:49:21Z</time></trkpt>
<trkpt lat="48.431306" lon="2.693660"><ele></ele><time>2017-9-19T8:49:24Z</time></trkpt>
<trkpt lat="48.431285" lon="2.693607"><ele></ele><time>2017-9-19T8:49:27Z</time></trkpt>
<trkpt lat="48.431275" lon="2.693575"><ele></ele><time>2017-9-19T8:49:30Z</time></trkpt>
<trkpt lat="48.431266" lon="2.693535"><ele></ele><time>2017-9-19T8:49:33Z</time></trkpt>
<trkpt lat="48.431243" lon="2.693402"><ele></ele><time>2017-9-19T8:49:36Z</time></trkpt>
<trkpt lat="48.431243" lon="2.693327"><ele></ele><time>2017-9-19T8:49:39Z</time></trkpt>
<trkpt lat="48.431257" lon="2.693298"><ele></ele><time>2017-9-19T8:49:42Z</time></trkpt>
<trkpt lat="48.431273" lon="2.693268"><ele></ele><time>2017-9-19T8:49:45Z</time></trkpt>
<trkpt lat="48.431287" lon="2.693228"><ele></ele><time>2017-9-19T8:49:48Z</time></trkpt>
<trkpt lat="48.431295" lon="2.693180"><ele></ele><time>2017-9-19T8:49:51Z</time></trkpt>
<trkpt lat="48.431297" lon="2.693075"><ele></ele><time>2017-9-19T8:49:54Z</time></trkpt>
<trkpt lat="48.431288" lon="2.692947"><ele></ele><time>2017-9-19T8:49:57Z</time></trkpt>
<trkpt lat="48.431268" lon="2.692715"><ele></ele><time>2017-9-19T8:50:0Z</time></trkpt>
<trkpt lat="48.431263" lon="2.692675"><ele></ele><time>2017-9-19T8:50:3Z</time></trkpt>
<trkpt lat="48.431243" lon="2.692453"><ele></ele><time>2017-9-19T8:50:6Z</time></trkpt>
<trkpt lat="48.431240" lon="2.692368"><ele></ele><time>2017-9-19T8:50:9Z</time></trkpt>
<trkpt lat="48.431233" lon="2.692218"><ele></ele><time>2017-9-19T8:50:12Z</time></trkpt>
<trkpt lat="48.431218" lon="2.692155"><ele></ele><time>2017-9-19T8:50:15Z</time></trkpt>
<trkpt lat="48.431158" lon="2.691920"><ele></ele><time>2017-9-19T8:50:18Z</time></trkpt>
<trkpt lat="48.431143" lon="2.691893"><ele></ele><time>2017-9-19T8:50:21Z</time></trkpt>
<trkpt lat="48.431135" lon="2.691875"><ele></ele><time>2017-9-19T8:50:24Z</time></trkpt>
<trkpt lat="48.431095" lon="2.691812"><ele></ele><time>2017-9-19T8:50:27Z</time></trkpt>
<trkpt lat="48.430995" lon="2.691693"><ele></ele><time>2017-9-19T8:50:30Z</time></trkpt>
<trkpt lat="48.430972" lon="2.691673"><ele></ele><time>2017-9-19T8:50:33Z</time></trkpt>
<trkpt lat="48.430955" lon="2.691645"><ele></ele><time>2017-9-19T8:50:36Z</time></trkpt>
<trkpt lat="48.430947" lon="2.691618"><ele></ele><time>2017-9-19T8:50:39Z</time></trkpt>
<trkpt lat="48.430938" lon="2.691585"><ele></ele><time>2017-9-19T8:50:42Z</time></trkpt>
<trkpt lat="48.430900" lon="2.691493"><ele></ele><time>2017-9-19T8:50:45Z</time></trkpt>
<trkpt lat="48.430875" lon="2.691445"><ele></ele><time>2017-9-19T8:50:48Z</time></trkpt>
<trkpt lat="48.430862" lon="2.691422"><ele></ele><time>2017-9-19T8:50:51Z</time></trkpt>
<trkpt lat="48.430852" lon="2.691402"><ele></ele><time>2017-9-19T8:50:54Z</time></trkpt>
<trkpt lat="48.430788" lon="2.691287"><ele></ele><time>2017-9-19T8:50:57Z</time></trkpt>
<trkpt lat="48.430782" lon="2.691255"><ele></ele><time>2017-9-19T8:51:0Z</time></trkpt>
<trkpt lat="48.430773" lon="2.691230"><ele></ele><time>2017-9-19T8:51:3Z</time></trkpt>
<trkpt lat="48.430760" lon="2.691207"><ele></ele><time>2017-9-19T8:51:6Z</time></trkpt>
<trkpt lat="48.430747" lon="2.691187"><ele></ele><time>2017-9-19T8:51:9Z</time></trkpt>
<trkpt lat="48.430708" lon="2.691103"><ele></ele><time>2017-9-19T8:51:12Z</time></trkpt>
<trkpt lat="48.430635" lon="2.690937"><ele></ele><time>2017-9-19T8:51:15Z</time></trkpt>
<trkpt lat="48.430625" lon="2.690903"><ele></ele><time>2017-9-19T8:51:18Z</time></trkpt>
<trkpt lat="48.430597" lon="2.690806"><ele></ele><time>2017-9-19T8:51:21Z</time></trkpt>
<trkpt lat="48.430575" lon="2.690767"><ele></ele><time>2017-9-19T8:51:24Z</time></trkpt>
<trkpt lat="48.430553" lon="2.690717"><ele></ele><time>2017-9-19T8:51:27Z</time></trkpt>
<trkpt lat="48.430532" lon="2.690640"><ele></ele><time>2017-9-19T8:51:30Z</time></trkpt>
<trkpt lat="48.430532" lon="2.690603"><ele></ele><time>2017-9-19T8:51:33Z</time></trkpt>
<trkpt lat="48.430543" lon="2.690575"><ele></ele><time>2017-9-19T8:51:36Z</time></trkpt>
<trkpt lat="48.430560" lon="2.690552"><ele></ele><time>2017-9-19T8:51:39Z</time></trkpt>
<trkpt lat="48.430578" lon="2.690528"><ele></ele><time>2017-9-19T8:51:42Z</time></trkpt>
<trkpt lat="48.430598" lon="2.690512"><ele></ele><time>2017-9-19T8:51:45Z</time></trkpt>
<trkpt lat="48.430668" lon="2.690453"><ele></ele><time>2017-9-19T8:51:48Z</time></trkpt>
<trkpt lat="48.430688" lon="2.690437"><ele></ele><time>2017-9-19T8:51:51Z</time></trkpt>
<trkpt lat="48.430770" lon="2.690375"><ele></ele><time>2017-9-19T8:51:54Z</time></trkpt>
<trkpt lat="48.430798" lon="2.690362"><ele></ele><time>2017-9-19T8:51:57Z</time></trkpt>
<trkpt lat="48.430830" lon="2.690343"><ele></ele><time>2017-9-19T8:52:0Z</time></trkpt>
<trkpt lat="48.431020" lon="2.690193"><ele></ele><time>2017-9-19T8:52:3Z</time></trkpt>
<trkpt lat="48.431172" lon="2.690060"><ele></ele><time>2017-9-19T8:52:6Z</time></trkpt>
<trkpt lat="48.431188" lon="2.690023"><ele></ele><time>2017-9-19T8:52:9Z</time></trkpt>
<trkpt lat="48.431193" lon="2.689980"><ele></ele><time>2017-9-19T8:52:12Z</time></trkpt>
<trkpt lat="48.431193" lon="2.689937"><ele></ele><time>2017-9-19T8:52:15Z</time></trkpt>
<trkpt lat="48.431190" lon="2.689895"><ele></ele><time>2017-9-19T8:52:18Z</time></trkpt>
<trkpt lat="48.431187" lon="2.689857"><ele></ele><time>2017-9-19T8:52:21Z</time></trkpt>
<trkpt lat="48.431178" lon="2.689775"><ele></ele><time>2017-9-19T8:52:24Z</time></trkpt>
<trkpt lat="48.431175" lon="2.689732"><ele></ele><time>2017-9-19T8:52:27Z</time></trkpt>
<trkpt lat="48.431185" lon="2.689250"><ele></ele><time>2017-9-19T8:52:30Z</time></trkpt>
<trkpt lat="48.431190" lon="2.689198"><ele></ele><time>2017-9-19T8:52:33Z</time></trkpt>
<trkpt lat="48.431197" lon="2.689143"><ele></ele><time>2017-9-19T8:52:36Z</time></trkpt>
<trkpt lat="48.431200" lon="2.689025"><ele></ele><time>2017-9-19T8:52:39Z</time></trkpt>
<trkpt lat="48.431202" lon="2.688968"><ele></ele><time>2017-9-19T8:52:42Z</time></trkpt>
<trkpt lat="48.431205" lon="2.688910"><ele></ele><time>2017-9-19T8:52:45Z</time></trkpt>
<trkpt lat="48.431210" lon="2.688855"><ele></ele><time>2017-9-19T8:52:48Z</time></trkpt>
<trkpt lat="48.431218" lon="2.688752"><ele></ele><time>2017-9-19T8:52:51Z</time></trkpt>
<trkpt lat="48.431228" lon="2.688645"><ele></ele><time>2017-9-19T8:52:54Z</time></trkpt>
<trkpt lat="48.431241" lon="2.688558"><ele></ele><time>2017-9-19T8:52:57Z</time></trkpt>
<trkpt lat="48.431235" lon="2.688518"><ele></ele><time>2017-9-19T8:53:0Z</time></trkpt>
<trkpt lat="48.431227" lon="2.688482"><ele></ele><time>2017-9-19T8:53:3Z</time></trkpt>
<trkpt lat="48.431212" lon="2.688438"><ele></ele><time>2017-9-19T8:53:6Z</time></trkpt>
<trkpt lat="48.431195" lon="2.688398"><ele></ele><time>2017-9-19T8:53:9Z</time></trkpt>
<trkpt lat="48.431183" lon="2.688372"><ele></ele><time>2017-9-19T8:53:12Z</time></trkpt>
<trkpt lat="48.431177" lon="2.688357"><ele></ele><time>2017-9-19T8:53:15Z</time></trkpt>
<trkpt lat="48.431173" lon="2.688350"><ele></ele><time>2017-9-19T8:53:18Z</time></trkpt>
<trkpt lat="48.431177" lon="2.688345"><ele></ele><time>2017-9-19T8:53:21Z</time></trkpt>
<trkpt lat="48.431173" lon="2.688332"><ele></ele><time>2017-9-19T8:53:24Z</time></trkpt>
<trkpt lat="48.431173" lon="2.688320"><ele></ele><time>2017-9-19T8:53:27Z</time></trkpt>
<trkpt lat="48.431173" lon="2.688312"><ele></ele><time>2017-9-19T8:53:30Z</time></trkpt>
<trkpt lat="48.431173" lon="2.688305"><ele></ele><time>2017-9-19T8:53:33Z</time></trkpt>
<trkpt lat="48.431173" lon="2.688277"><ele></ele><time>2017-9-19T8:53:36Z</time></trkpt>
<trkpt lat="48.431170" lon="2.688272"><ele></ele><time>2017-9-19T8:53:39Z</time></trkpt>
<trkpt lat="48.431167" lon="2.688263"><ele></ele><time>2017-9-19T8:53:42Z</time></trkpt>
<trkpt lat="48.431163" lon="2.688258"><ele></ele><time>2017-9-19T8:53:45Z</time></trkpt>
<trkpt lat="48.431157" lon="2.688250"><ele></ele><time>2017-9-19T8:53:48Z</time></trkpt>
<trkpt lat="48.431153" lon="2.688243"><ele></ele><time>2017-9-19T8:53:51Z</time></trkpt>
<trkpt lat="48.431151" lon="2.688237"><ele></ele><time>2017-9-19T8:53:54Z</time></trkpt>
<trkpt lat="48.431150" lon="2.688233"><ele></ele><time>2017-9-19T8:53:57Z</time></trkpt>
<trkpt lat="48.431148" lon="2.688230"><ele></ele><time>2017-9-19T8:54:0Z</time></trkpt>
<trkpt lat="48.431147" lon="2.688232"><ele></ele><time>2017-9-19T8:54:3Z</time></trkpt>
<trkpt lat="48.431150" lon="2.688230"><ele></ele><time>2017-9-19T8:54:6Z</time></trkpt>
<trkpt lat="48.431147" lon="2.688227"><ele></ele><time>2017-9-19T8:54:9Z</time></trkpt>
<trkpt lat="48.431147" lon="2.688222"><ele></ele><time>2017-9-19T8:54:12Z</time></trkpt>
<trkpt lat="48.431143" lon="2.688218"><ele></ele><time>2017-9-19T8:54:15Z</time></trkpt>
<trkpt lat="48.431142" lon="2.688200"><ele></ele><time>2017-9-19T8:54:18Z</time></trkpt>
<trkpt lat="48.431140" lon="2.688193"><ele></ele><time>2017-9-19T8:54:21Z</time></trkpt>
<trkpt lat="48.431140" lon="2.688188"><ele></ele><time>2017-9-19T8:54:24Z</time></trkpt>
<trkpt lat="48.431138" lon="2.688178"><ele></ele><time>2017-9-19T8:54:27Z</time></trkpt>
<trkpt lat="48.431131" lon="2.688167"><ele></ele><time>2017-9-19T8:54:30Z</time></trkpt>
<trkpt lat="48.431082" lon="2.688097"><ele></ele><time>2017-9-19T8:54:33Z</time></trkpt>
<trkpt lat="48.431067" lon="2.688082"><ele></ele><time>2017-9-19T8:54:36Z</time></trkpt>
<trkpt lat="48.431016" lon="2.688038"><ele></ele><time>2017-9-19T8:54:39Z</time></trkpt>
<trkpt lat="48.431003" lon="2.688013"><ele></ele><time>2017-9-19T8:54:42Z</time></trkpt>
<trkpt lat="48.430926" lon="2.687842"><ele></ele><time>2017-9-19T8:54:45Z</time></trkpt>
<trkpt lat="48.430917" lon="2.687803"><ele></ele><time>2017-9-19T8:54:48Z</time></trkpt>
<trkpt lat="48.430900" lon="2.687765"><ele></ele><time>2017-9-19T8:54:51Z</time></trkpt>
<trkpt lat="48.430838" lon="2.687587"><ele></ele><time>2017-9-19T8:54:54Z</time></trkpt>
<trkpt lat="48.430833" lon="2.687550"><ele></ele><time>2017-9-19T8:54:57Z</time></trkpt>
<trkpt lat="48.430825" lon="2.687517"><ele></ele><time>2017-9-19T8:55:0Z</time></trkpt>
<trkpt lat="48.430808" lon="2.687427"><ele></ele><time>2017-9-19T8:55:3Z</time></trkpt>
<trkpt lat="48.430810" lon="2.687393"><ele></ele><time>2017-9-19T8:55:6Z</time></trkpt>
<trkpt lat="48.430815" lon="2.687308"><ele></ele><time>2017-9-19T8:55:9Z</time></trkpt>
<trkpt lat="48.430820" lon="2.687182"><ele></ele><time>2017-9-19T8:55:12Z</time></trkpt>
<trkpt lat="48.430833" lon="2.687090"><ele></ele><time>2017-9-19T8:55:15Z</time></trkpt>
<trkpt lat="48.430860" lon="2.686912"><ele></ele><time>2017-9-19T8:55:18Z</time></trkpt>
<trkpt lat="48.430862" lon="2.686866"><ele></ele><time>2017-9-19T8:55:21Z</time></trkpt>
<trkpt lat="48.430862" lon="2.686822"><ele></ele><time>2017-9-19T8:55:24Z</time></trkpt>
<trkpt lat="48.430858" lon="2.686778"><ele></ele><time>2017-9-19T8:55:27Z</time></trkpt>
<trkpt lat="48.430862" lon="2.686732"><ele></ele><time>2017-9-19T8:55:30Z</time></trkpt>
<trkpt lat="48.430875" lon="2.686687"><ele></ele><time>2017-9-19T8:55:33Z</time></trkpt>
<trkpt lat="48.430893" lon="2.686645"><ele></ele><time>2017-9-19T8:55:36Z</time></trkpt>
<trkpt lat="48.430918" lon="2.686610"><ele></ele><time>2017-9-19T8:55:39Z</time></trkpt>
<trkpt lat="48.430968" lon="2.686528"><ele></ele><time>2017-9-19T8:55:42Z</time></trkpt>
<trkpt lat="48.430988" lon="2.686480"><ele></ele><time>2017-9-19T8:55:45Z</time></trkpt>
<trkpt lat="48.431018" lon="2.686387"><ele></ele><time>2017-9-19T8:55:48Z</time></trkpt>
<trkpt lat="48.431055" lon="2.686262"><ele></ele><time>2017-9-19T8:55:51Z</time></trkpt>
<trkpt lat="48.431058" lon="2.686232"><ele></ele><time>2017-9-19T8:55:54Z</time></trkpt>
<trkpt lat="48.431058" lon="2.686203"><ele></ele><time>2017-9-19T8:55:57Z</time></trkpt>
<trkpt lat="48.431068" lon="2.686147"><ele></ele><time>2017-9-19T8:56:0Z</time></trkpt>
<trkpt lat="48.431073" lon="2.686083"><ele></ele><time>2017-9-19T8:56:3Z</time></trkpt>
<trkpt lat="48.431075" lon="2.686047"><ele></ele><time>2017-9-19T8:56:6Z</time></trkpt>
<trkpt lat="48.431085" lon="2.685983"><ele></ele><time>2017-9-19T8:56:9Z</time></trkpt>
<trkpt lat="48.431100" lon="2.685967"><ele></ele><time>2017-9-19T8:56:12Z</time></trkpt>
<trkpt lat="48.431120" lon="2.685955"><ele></ele><time>2017-9-19T8:56:15Z</time></trkpt>
<trkpt lat="48.431142" lon="2.685948"><ele></ele><time>2017-9-19T8:56:18Z</time></trkpt>
<trkpt lat="48.431167" lon="2.685943"><ele></ele><time>2017-9-19T8:56:21Z</time></trkpt>
<trkpt lat="48.431252" lon="2.685915"><ele></ele><time>2017-9-19T8:56:24Z</time></trkpt>
<trkpt lat="48.431265" lon="2.685885"><ele></ele><time>2017-9-19T8:56:27Z</time></trkpt>
<trkpt lat="48.431278" lon="2.685843"><ele></ele><time>2017-9-19T8:56:30Z</time></trkpt>
<trkpt lat="48.431288" lon="2.685800"><ele></ele><time>2017-9-19T8:56:33Z</time></trkpt>
<trkpt lat="48.431295" lon="2.685753"><ele></ele><time>2017-9-19T8:56:36Z</time></trkpt>
<trkpt lat="48.431317" lon="2.685662"><ele></ele><time>2017-9-19T8:56:39Z</time></trkpt>
<trkpt lat="48.431338" lon="2.685620"><ele></ele><time>2017-9-19T8:56:42Z</time></trkpt>
<trkpt lat="48.431375" lon="2.685587"><ele></ele><time>2017-9-19T8:56:45Z</time></trkpt>
<trkpt lat="48.431448" lon="2.685505"><ele></ele><time>2017-9-19T8:56:48Z</time></trkpt>
<trkpt lat="48.431470" lon="2.685452"><ele></ele><time>2017-9-19T8:56:51Z</time></trkpt>
<trkpt lat="48.431518" lon="2.685312"><ele></ele><time>2017-9-19T8:56:54Z</time></trkpt>
<trkpt lat="48.431530" lon="2.685267"><ele></ele><time>2017-9-19T8:56:57Z</time></trkpt>
<trkpt lat="48.431662" lon="2.684702"><ele></ele><time>2017-9-19T8:57:0Z</time></trkpt>
<trkpt lat="48.431695" lon="2.684547"><ele></ele><time>2017-9-19T8:57:3Z</time></trkpt>
<trkpt lat="48.431690" lon="2.684513"><ele></ele><time>2017-9-19T8:57:6Z</time></trkpt>
<trkpt lat="48.431680" lon="2.684482"><ele></ele><time>2017-9-19T8:57:9Z</time></trkpt>
<trkpt lat="48.431680" lon="2.684457"><ele></ele><time>2017-9-19T8:57:12Z</time></trkpt>
<trkpt lat="48.431680" lon="2.684438"><ele></ele><time>2017-9-19T8:57:15Z</time></trkpt>
<trkpt lat="48.431690" lon="2.684428"><ele></ele><time>2017-9-19T8:57:18Z</time></trkpt>
<trkpt lat="48.431705" lon="2.684410"><ele></ele><time>2017-9-19T8:57:21Z</time></trkpt>
<trkpt lat="48.431720" lon="2.684377"><ele></ele><time>2017-9-19T8:57:24Z</time></trkpt>
<trkpt lat="48.431747" lon="2.684270"><ele></ele><time>2017-9-19T8:57:27Z</time></trkpt>
<trkpt lat="48.431765" lon="2.684225"><ele></ele><time>2017-9-19T8:57:30Z</time></trkpt>
<trkpt lat="48.431818" lon="2.684112"><ele></ele><time>2017-9-19T8:57:33Z</time></trkpt>
<trkpt lat="48.431848" lon="2.684080"><ele></ele><time>2017-9-19T8:57:36Z</time></trkpt>
<trkpt lat="48.431931" lon="2.683992"><ele></ele><time>2017-9-19T8:57:39Z</time></trkpt>
<trkpt lat="48.431970" lon="2.683938"><ele></ele><time>2017-9-19T8:57:42Z</time></trkpt>
<trkpt lat="48.432102" lon="2.683800"><ele></ele><time>2017-9-19T8:57:45Z</time></trkpt>
<trkpt lat="48.432197" lon="2.683713"><ele></ele><time>2017-9-19T8:57:48Z</time></trkpt>
<trkpt lat="48.432230" lon="2.683653"><ele></ele><time>2017-9-19T8:57:51Z</time></trkpt>
<trkpt lat="48.432251" lon="2.683583"><ele></ele><time>2017-9-19T8:57:54Z</time></trkpt>
<trkpt lat="48.432286" lon="2.683447"><ele></ele><time>2017-9-19T8:57:57Z</time></trkpt>
<trkpt lat="48.432325" lon="2.683292"><ele></ele><time>2017-9-19T8:58:0Z</time></trkpt>
<trkpt lat="48.432480" lon="2.682622"><ele></ele><time>2017-9-19T8:58:3Z</time></trkpt>
<trkpt lat="48.432516" lon="2.682423"><ele></ele><time>2017-9-19T8:58:6Z</time></trkpt>
<trkpt lat="48.432522" lon="2.682373"><ele></ele><time>2017-9-19T8:58:9Z</time></trkpt>
<trkpt lat="48.432528" lon="2.682320"><ele></ele><time>2017-9-19T8:58:12Z</time></trkpt>
<trkpt lat="48.432587" lon="2.682100"><ele></ele><time>2017-9-19T8:58:15Z</time></trkpt>
<trkpt lat="48.432600" lon="2.682053"><ele></ele><time>2017-9-19T8:58:18Z</time></trkpt>
<trkpt lat="48.432608" lon="2.681997"><ele></ele><time>2017-9-19T8:58:21Z</time></trkpt>
<trkpt lat="48.432658" lon="2.681772"><ele></ele><time>2017-9-19T8:58:24Z</time></trkpt>
<trkpt lat="48.432678" lon="2.681725"><ele></ele><time>2017-9-19T8:58:27Z</time></trkpt>
<trkpt lat="48.432833" lon="2.681402"><ele></ele><time>2017-9-19T8:58:30Z</time></trkpt>
<trkpt lat="48.432845" lon="2.681343"><ele></ele><time>2017-9-19T8:58:33Z</time></trkpt>
<trkpt lat="48.432933" lon="2.680985"><ele></ele><time>2017-9-19T8:58:36Z</time></trkpt>
<trkpt lat="48.433073" lon="2.680475"><ele></ele><time>2017-9-19T8:58:39Z</time></trkpt>
<trkpt lat="48.433090" lon="2.680408"><ele></ele><time>2017-9-19T8:58:42Z</time></trkpt>
<trkpt lat="48.433153" lon="2.680172"><ele></ele><time>2017-9-19T8:58:45Z</time></trkpt>
<trkpt lat="48.433231" lon="2.679812"><ele></ele><time>2017-9-19T8:58:48Z</time></trkpt>
<trkpt lat="48.433473" lon="2.678770"><ele></ele><time>2017-9-19T8:58:51Z</time></trkpt>
<trkpt lat="48.433672" lon="2.678173"><ele></ele><time>2017-9-19T8:58:54Z</time></trkpt>
<trkpt lat="48.433962" lon="2.677433"><ele></ele><time>2017-9-19T8:58:57Z</time></trkpt>
<trkpt lat="48.433987" lon="2.677392"><ele></ele><time>2017-9-19T8:59:0Z</time></trkpt>
<trkpt lat="48.434105" lon="2.677237"><ele></ele><time>2017-9-19T8:59:3Z</time></trkpt>
<trkpt lat="48.434135" lon="2.677202"><ele></ele><time>2017-9-19T8:59:6Z</time></trkpt>
<trkpt lat="48.434853" lon="2.676227"><ele></ele><time>2017-9-19T8:59:9Z</time></trkpt>
<trkpt lat="48.434875" lon="2.676185"><ele></ele><time>2017-9-19T8:59:12Z</time></trkpt>
<trkpt lat="48.434895" lon="2.676145"><ele></ele><time>2017-9-19T8:59:15Z</time></trkpt>
<trkpt lat="48.434955" lon="2.675975"><ele></ele><time>2017-9-19T8:59:18Z</time></trkpt>
<trkpt lat="48.435193" lon="2.675280"><ele></ele><time>2017-9-19T8:59:21Z</time></trkpt>
<trkpt lat="48.435202" lon="2.675243"><ele></ele><time>2017-9-19T8:59:24Z</time></trkpt>
<trkpt lat="48.435212" lon="2.675163"><ele></ele><time>2017-9-19T8:59:27Z</time></trkpt>
<trkpt lat="48.435218" lon="2.675037"><ele></ele><time>2017-9-19T8:59:30Z</time></trkpt>
<trkpt lat="48.435217" lon="2.674993"><ele></ele><time>2017-9-19T8:59:33Z</time></trkpt>
<trkpt lat="48.435178" lon="2.673357"><ele></ele><time>2017-9-19T8:59:36Z</time></trkpt>
<trkpt lat="48.435185" lon="2.673315"><ele></ele><time>2017-9-19T8:59:39Z</time></trkpt>
<trkpt lat="48.435197" lon="2.673278"><ele></ele><time>2017-9-19T8:59:42Z</time></trkpt>
<trkpt lat="48.435208" lon="2.673238"><ele></ele><time>2017-9-19T8:59:45Z</time></trkpt>
<trkpt lat="48.435217" lon="2.673200"><ele></ele><time>2017-9-19T8:59:48Z</time></trkpt>
<trkpt lat="48.435248" lon="2.673057"><ele></ele><time>2017-9-19T8:59:51Z</time></trkpt>
<trkpt lat="48.435262" lon="2.672928"><ele></ele><time>2017-9-19T8:59:54Z</time></trkpt>
<trkpt lat="48.435270" lon="2.672763"><ele></ele><time>2017-9-19T8:59:57Z</time></trkpt>
<trkpt lat="48.435277" lon="2.672663"><ele></ele><time>2017-9-19T9:0:0Z</time></trkpt>
<trkpt lat="48.435295" lon="2.672510"><ele></ele><time>2017-9-19T9:0:3Z</time></trkpt>
<trkpt lat="48.435315" lon="2.672435"><ele></ele><time>2017-9-19T9:0:6Z</time></trkpt>
<trkpt lat="48.435328" lon="2.672395"><ele></ele><time>2017-9-19T9:0:9Z</time></trkpt>
<trkpt lat="48.435368" lon="2.672248"><ele></ele><time>2017-9-19T9:0:12Z</time></trkpt>
<trkpt lat="48.435373" lon="2.672210"><ele></ele><time>2017-9-19T9:0:15Z</time></trkpt>
<trkpt lat="48.435390" lon="2.672068"><ele></ele><time>2017-9-19T9:0:18Z</time></trkpt>
<trkpt lat="48.435397" lon="2.672028"><ele></ele><time>2017-9-19T9:0:21Z</time></trkpt>
<trkpt lat="48.435405" lon="2.671863"><ele></ele><time>2017-9-19T9:0:24Z</time></trkpt>
<trkpt lat="48.435415" lon="2.671773"><ele></ele><time>2017-9-19T9:0:27Z</time></trkpt>
<trkpt lat="48.435417" lon="2.671770"><ele></ele><time>2017-9-19T9:0:30Z</time></trkpt>
<trkpt lat="48.435417" lon="2.671765"><ele></ele><time>2017-9-19T9:0:33Z</time></trkpt>
<trkpt lat="48.435417" lon="2.671758"><ele></ele><time>2017-9-19T9:0:36Z</time></trkpt>
<trkpt lat="48.435418" lon="2.671753"><ele></ele><time>2017-9-19T9:0:39Z</time></trkpt>
<trkpt lat="48.435420" lon="2.671750"><ele></ele><time>2017-9-19T9:0:42Z</time></trkpt>
<trkpt lat="48.435421" lon="2.671747"><ele></ele><time>2017-9-19T9:0:45Z</time></trkpt>
<trkpt lat="48.435423" lon="2.671745"><ele></ele><time>2017-9-19T9:0:48Z</time></trkpt>
<trkpt lat="48.435425" lon="2.671745"><ele></ele><time>2017-9-19T9:0:51Z</time></trkpt>
<trkpt lat="48.435427" lon="2.671743"><ele></ele><time>2017-9-19T9:0:54Z</time></trkpt>
<trkpt lat="48.435427" lon="2.671742"><ele></ele><time>2017-9-19T9:0:57Z</time></trkpt>
<trkpt lat="48.435428" lon="2.671742"><ele></ele><time>2017-9-19T9:1:0Z</time></trkpt>
<trkpt lat="48.435428" lon="2.671742"><ele></ele><time>2017-9-19T9:1:3Z</time></trkpt>
<trkpt lat="48.435428" lon="2.671740"><ele></ele><time>2017-9-19T9:1:6Z</time></trkpt>
<trkpt lat="48.435428" lon="2.671740"><ele></ele><time>2017-9-19T9:1:9Z</time></trkpt>
<trkpt lat="48.435428" lon="2.671740"><ele></ele><time>2017-9-19T9:1:12Z</time></trkpt>
<trkpt lat="48.435430" lon="2.671740"><ele></ele><time>2017-9-19T9:1:15Z</time></trkpt>
<trkpt lat="48.435430" lon="2.671742"><ele></ele><time>2017-9-19T9:1:18Z</time></trkpt>
<trkpt lat="48.435430" lon="2.671742"><ele></ele><time>2017-9-19T9:1:21Z</time></trkpt>
<trkpt lat="48.435430" lon="2.671742"><ele></ele><time>2017-9-19T9:1:24Z</time></trkpt>
<trkpt lat="48.435428" lon="2.671740"><ele></ele><time>2017-9-19T9:1:27Z</time></trkpt>
<trkpt lat="48.435428" lon="2.671740"><ele></ele><time>2017-9-19T9:1:30Z</time></trkpt>
<trkpt lat="48.435427" lon="2.671740"><ele></ele><time>2017-9-19T9:1:33Z</time></trkpt>
<trkpt lat="48.435427" lon="2.671740"><ele></ele><time>2017-9-19T9:1:36Z</time></trkpt>
<trkpt lat="48.435425" lon="2.671740"><ele></ele><time>2017-9-19T9:1:39Z</time></trkpt>
<trkpt lat="48.435425" lon="2.671740"><ele></ele><time>2017-9-19T9:1:42Z</time></trkpt>
<trkpt lat="48.435425" lon="2.671740"><ele></ele><time>2017-9-19T9:1:45Z</time></trkpt>
<trkpt lat="48.435423" lon="2.671740"><ele></ele><time>2017-9-19T9:1:48Z</time></trkpt>
<trkpt lat="48.435423" lon="2.671740"><ele></ele><time>2017-9-19T9:1:51Z</time></trkpt>
<trkpt lat="48.435423" lon="2.671740"><ele></ele><time>2017-9-19T9:1:54Z</time></trkpt>
<trkpt lat="48.435421" lon="2.671740"><ele></ele><time>2017-9-19T9:1:57Z</time></trkpt>
<trkpt lat="48.435421" lon="2.671740"><ele></ele><time>2017-9-19T9:2:0Z</time></trkpt>
<trkpt lat="48.435420" lon="2.671740"><ele></ele><time>2017-9-19T9:2:3Z</time></trkpt>
<trkpt lat="48.435420" lon="2.671742"><ele></ele><time>2017-9-19T9:2:6Z</time></trkpt>
<trkpt lat="48.435418" lon="2.671742"><ele></ele><time>2017-9-19T9:2:9Z</time></trkpt>
<trkpt lat="48.435418" lon="2.671742"><ele></ele><time>2017-9-19T9:2:12Z</time></trkpt>
<trkpt lat="48.435418" lon="2.671743"><ele></ele><time>2017-9-19T9:2:15Z</time></trkpt>
<trkpt lat="48.435418" lon="2.671743"><ele></ele><time>2017-9-19T9:2:18Z</time></trkpt>
<trkpt lat="48.435418" lon="2.671743"><ele></ele><time>2017-9-19T9:2:21Z</time></trkpt>
<trkpt lat="48.435417" lon="2.671743"><ele></ele><time>2017-9-19T9:2:24Z</time></trkpt>
<trkpt lat="48.435417" lon="2.671745"><ele></ele><time>2017-9-19T9:2:27Z</time></trkpt>
<trkpt lat="48.435417" lon="2.671745"><ele></ele><time>2017-9-19T9:2:30Z</time></trkpt>
<trkpt lat="48.435417" lon="2.671745"><ele></ele><time>2017-9-19T9:2:33Z</time></trkpt>
<trkpt lat="48.435417" lon="2.671747"><ele></ele><time>2017-9-19T9:2:36Z</time></trkpt>
<trkpt lat="48.435417" lon="2.671747"><ele></ele><time>2017-9-19T9:2:39Z</time></trkpt>
<trkpt lat="48.435417" lon="2.671747"><ele></ele><time>2017-9-19T9:2:42Z</time></trkpt>
<trkpt lat="48.435415" lon="2.671748"><ele></ele><time>2017-9-19T9:2:45Z</time></trkpt>
<trkpt lat="48.435415" lon="2.671748"><ele></ele><time>2017-9-19T9:2:48Z</time></trkpt>
<trkpt lat="48.435415" lon="2.671750"><ele></ele><time>2017-9-19T9:2:51Z</time></trkpt>
<trkpt lat="48.435415" lon="2.671750"><ele></ele><time>2017-9-19T9:2:54Z</time></trkpt>
<trkpt lat="48.435415" lon="2.671752"><ele></ele><time>2017-9-19T9:2:57Z</time></trkpt>
<trkpt lat="48.435413" lon="2.671752"><ele></ele><time>2017-9-19T9:3:0Z</time></trkpt>
<trkpt lat="48.435413" lon="2.671753"><ele></ele><time>2017-9-19T9:3:3Z</time></trkpt>
<trkpt lat="48.435413" lon="2.671753"><ele></ele><time>2017-9-19T9:3:6Z</time></trkpt>
<trkpt lat="48.435412" lon="2.671755"><ele></ele><time>2017-9-19T9:3:9Z</time></trkpt>
<trkpt lat="48.435412" lon="2.671755"><ele></ele><time>2017-9-19T9:3:12Z</time></trkpt>
<trkpt lat="48.435412" lon="2.671757"><ele></ele><time>2017-9-19T9:3:15Z</time></trkpt>
<trkpt lat="48.435412" lon="2.671757"><ele></ele><time>2017-9-19T9:3:18Z</time></trkpt>
<trkpt lat="48.435412" lon="2.671758"><ele></ele><time>2017-9-19T9:3:21Z</time></trkpt>
<trkpt lat="48.435410" lon="2.671758"><ele></ele><time>2017-9-19T9:3:24Z</time></trkpt>
<trkpt lat="48.435410" lon="2.671758"><ele></ele><time>2017-9-19T9:3:27Z</time></trkpt>
<trkpt lat="48.435410" lon="2.671760"><ele></ele><time>2017-9-19T9:3:30Z</time></trkpt>
<trkpt lat="48.435410" lon="2.671760"><ele></ele><time>2017-9-19T9:3:33Z</time></trkpt>
<trkpt lat="48.435410" lon="2.671760"><ele></ele><time>2017-9-19T9:3:36Z</time></trkpt>
<trkpt lat="48.435410" lon="2.671760"><ele></ele><time>2017-9-19T9:3:39Z</time></trkpt>
<trkpt lat="48.435410" lon="2.671762"><ele></ele><time>2017-9-19T9:3:42Z</time></trkpt>
<trkpt lat="48.435410" lon="2.671762"><ele></ele><time>2017-9-19T9:3:45Z</time></trkpt>
<trkpt lat="48.435410" lon="2.671762"><ele></ele><time>2017-9-19T9:3:48Z</time></trkpt>
<trkpt lat="48.435410" lon="2.671762"><ele></ele><time>2017-9-19T9:3:51Z</time></trkpt>
<trkpt lat="48.435410" lon="2.671762"><ele></ele><time>2017-9-19T9:3:54Z</time></trkpt>
<trkpt lat="48.435410" lon="2.671762"><ele></ele><time>2017-9-19T9:3:57Z</time></trkpt>
<trkpt lat="48.435412" lon="2.671762"><ele></ele><time>2017-9-19T9:4:0Z</time></trkpt>
<trkpt lat="48.435413" lon="2.671760"><ele></ele><time>2017-9-19T9:4:3Z</time></trkpt>
<trkpt lat="48.435415" lon="2.671760"><ele></ele><time>2017-9-19T9:4:6Z</time></trkpt>
<trkpt lat="48.435417" lon="2.671760"><ele></ele><time>2017-9-19T9:4:9Z</time></trkpt>
<trkpt lat="48.435418" lon="2.671760"><ele></ele><time>2017-9-19T9:4:12Z</time></trkpt>
<trkpt lat="48.435420" lon="2.671758"><ele></ele><time>2017-9-19T9:4:15Z</time></trkpt>
<trkpt lat="48.435421" lon="2.671758"><ele></ele><time>2017-9-19T9:4:18Z</time></trkpt>
<trkpt lat="48.435423" lon="2.671758"><ele></ele><time>2017-9-19T9:4:21Z</time></trkpt>
<trkpt lat="48.435423" lon="2.671758"><ele></ele><time>2017-9-19T9:4:24Z</time></trkpt>
<trkpt lat="48.435425" lon="2.671757"><ele></ele><time>2017-9-19T9:4:27Z</time></trkpt>
<trkpt lat="48.435427" lon="2.671757"><ele></ele><time>2017-9-19T9:4:30Z</time></trkpt>
<trkpt lat="48.435427" lon="2.671757"><ele></ele><time>2017-9-19T9:4:33Z</time></trkpt>
<trkpt lat="48.435428" lon="2.671757"><ele></ele><time>2017-9-19T9:4:36Z</time></trkpt>
<trkpt lat="48.435428" lon="2.671755"><ele></ele><time>2017-9-19T9:4:39Z</time></trkpt>
<trkpt lat="48.435428" lon="2.671757"><ele></ele><time>2017-9-19T9:4:42Z</time></trkpt>
<trkpt lat="48.435428" lon="2.671757"><ele></ele><time>2017-9-19T9:4:45Z</time></trkpt>
<trkpt lat="48.435428" lon="2.671757"><ele></ele><time>2017-9-19T9:4:48Z</time></trkpt>
<trkpt lat="48.435428" lon="2.671757"><ele></ele><time>2017-9-19T9:4:51Z</time></trkpt>
<trkpt lat="48.435428" lon="2.671757"><ele></ele><time>2017-9-19T9:4:54Z</time></trkpt>
<trkpt lat="48.435428" lon="2.671757"><ele></ele><time>2017-9-19T9:4:57Z</time></trkpt>
<trkpt lat="48.435428" lon="2.671757"><ele></ele><time>2017-9-19T9:5:0Z</time></trkpt>
<trkpt lat="48.435427" lon="2.671757"><ele></ele><time>2017-9-19T9:5:3Z</time></trkpt>
<trkpt lat="48.435427" lon="2.671757"><ele></ele><time>2017-9-19T9:5:6Z</time></trkpt>
<trkpt lat="48.435427" lon="2.671757"><ele></ele><time>2017-9-19T9:5:9Z</time></trkpt>
<trkpt lat="48.435427" lon="2.671757"><ele></ele><time>2017-9-19T9:5:12Z</time></trkpt>
<trkpt lat="48.435427" lon="2.671757"><ele></ele><time>2017-9-19T9:5:15Z</time></trkpt>
<trkpt lat="48.435425" lon="2.671757"><ele></ele><time>2017-9-19T9:5:18Z</time></trkpt>
<trkpt lat="48.435425" lon="2.671757"><ele></ele><time>2017-9-19T9:5:21Z</time></trkpt>
<trkpt lat="48.435425" lon="2.671757"><ele></ele><time>2017-9-19T9:5:24Z</time></trkpt>
<trkpt lat="48.435425" lon="2.671758"><ele></ele><time>2017-9-19T9:5:27Z</time></trkpt>
<trkpt lat="48.435425" lon="2.671758"><ele></ele><time>2017-9-19T9:5:30Z</time></trkpt>
<trkpt lat="48.435423" lon="2.671758"><ele></ele><time>2017-9-19T9:5:33Z</time></trkpt>
<trkpt lat="48.435423" lon="2.671758"><ele></ele><time>2017-9-19T9:5:36Z</time></trkpt>
<trkpt lat="48.435423" lon="2.671758"><ele></ele><time>2017-9-19T9:5:39Z</time></trkpt>
<trkpt lat="48.435423" lon="2.671758"><ele></ele><time>2017-9-19T9:5:42Z</time></trkpt>
<trkpt lat="48.435423" lon="2.671758"><ele></ele><time>2017-9-19T9:5:45Z</time></trkpt>
<trkpt lat="48.435423" lon="2.671758"><ele></ele><time>2017-9-19T9:5:48Z</time></trkpt>
<trkpt lat="48.435423" lon="2.671758"><ele></ele><time>2017-9-19T9:5:51Z</time></trkpt>
<trkpt lat="48.435423" lon="2.671758"><ele></ele><time>2017-9-19T9:5:54Z</time></trkpt>
<trkpt lat="48.435423" lon="2.671758"><ele></ele><time>2017-9-19T9:5:57Z</time></trkpt>
<trkpt lat="48.435423" lon="2.671758"><ele></ele><time>2017-9-19T9:6:0Z</time></trkpt>
<trkpt lat="48.435423" lon="2.671758"><ele></ele><time>2017-9-19T9:6:3Z</time></trkpt>
<trkpt lat="48.435421" lon="2.671758"><ele></ele><time>2017-9-19T9:6:6Z</time></trkpt>
<trkpt lat="48.435417" lon="2.671762"><ele></ele><time>2017-9-19T9:6:9Z</time></trkpt>
<trkpt lat="48.435418" lon="2.671762"><ele></ele><time>2017-9-19T9:6:12Z</time></trkpt>
<trkpt lat="48.435415" lon="2.671763"><ele></ele><time>2017-9-19T9:6:15Z</time></trkpt>
<trkpt lat="48.435410" lon="2.671765"><ele></ele><time>2017-9-19T9:6:18Z</time></trkpt>
<trkpt lat="48.435412" lon="2.671765"><ele></ele><time>2017-9-19T9:6:21Z</time></trkpt>
<trkpt lat="48.435408" lon="2.671766"><ele></ele><time>2017-9-19T9:6:24Z</time></trkpt>
<trkpt lat="48.435405" lon="2.671768"><ele></ele><time>2017-9-19T9:6:27Z</time></trkpt>
<trkpt lat="48.435408" lon="2.671766"><ele></ele><time>2017-9-19T9:6:30Z</time></trkpt>
<trkpt lat="48.435410" lon="2.671766"><ele></ele><time>2017-9-19T9:6:33Z</time></trkpt>
<trkpt lat="48.435412" lon="2.671765"><ele></ele><time>2017-9-19T9:6:36Z</time></trkpt>
<trkpt lat="48.435412" lon="2.671763"><ele></ele><time>2017-9-19T9:6:39Z</time></trkpt>
<trkpt lat="48.435413" lon="2.671763"><ele></ele><time>2017-9-19T9:6:42Z</time></trkpt>
<trkpt lat="48.435415" lon="2.671762"><ele></ele><time>2017-9-19T9:6:45Z</time></trkpt>
<trkpt lat="48.435417" lon="2.671760"><ele></ele><time>2017-9-19T9:6:48Z</time></trkpt>
<trkpt lat="48.435417" lon="2.671760"><ele></ele><time>2017-9-19T9:6:51Z</time></trkpt>
<trkpt lat="48.435418" lon="2.671758"><ele></ele><time>2017-9-19T9:6:54Z</time></trkpt>
<trkpt lat="48.435418" lon="2.671757"><ele></ele><time>2017-9-19T9:6:57Z</time></trkpt>
<trkpt lat="48.435418" lon="2.671755"><ele></ele><time>2017-9-19T9:7:0Z</time></trkpt>
<trkpt lat="48.435420" lon="2.671753"><ele></ele><time>2017-9-19T9:7:3Z</time></trkpt>
<trkpt lat="48.435420" lon="2.671753"><ele></ele><time>2017-9-19T9:7:6Z</time></trkpt>
<trkpt lat="48.435420" lon="2.671752"><ele></ele><time>2017-9-19T9:7:9Z</time></trkpt>
<trkpt lat="48.435420" lon="2.671750"><ele></ele><time>2017-9-19T9:7:12Z</time></trkpt>
<trkpt lat="48.435421" lon="2.671750"><ele></ele><time>2017-9-19T9:7:15Z</time></trkpt>
<trkpt lat="48.435423" lon="2.671738"><ele></ele><time>2017-9-19T9:7:18Z</time></trkpt>
<trkpt lat="48.435427" lon="2.671737"><ele></ele><time>2017-9-19T9:7:21Z</time></trkpt>
<trkpt lat="48.435430" lon="2.671737"><ele></ele><time>2017-9-19T9:7:24Z</time></trkpt>
<trkpt lat="48.435433" lon="2.671735"><ele></ele><time>2017-9-19T9:7:27Z</time></trkpt>
<trkpt lat="48.435437" lon="2.671732"><ele></ele><time>2017-9-19T9:7:30Z</time></trkpt>
<trkpt lat="48.435438" lon="2.671725"><ele></ele><time>2017-9-19T9:7:33Z</time></trkpt>
<trkpt lat="48.435440" lon="2.671723"><ele></ele><time>2017-9-19T9:7:36Z</time></trkpt>
<trkpt lat="48.435448" lon="2.671718"><ele></ele><time>2017-9-19T9:7:39Z</time></trkpt>
<trkpt lat="48.435450" lon="2.671717"><ele></ele><time>2017-9-19T9:7:42Z</time></trkpt>
<trkpt lat="48.435451" lon="2.671717"><ele></ele><time>2017-9-19T9:7:45Z</time></trkpt>
<trkpt lat="48.435453" lon="2.671715"><ele></ele><time>2017-9-19T9:7:48Z</time></trkpt>
<trkpt lat="48.435458" lon="2.671710"><ele></ele><time>2017-9-19T9:7:51Z</time></trkpt>
<trkpt lat="48.435458" lon="2.671697"><ele></ele><time>2017-9-19T9:7:54Z</time></trkpt>
<trkpt lat="48.435460" lon="2.671667"><ele></ele><time>2017-9-19T9:7:57Z</time></trkpt>
<trkpt lat="48.435460" lon="2.671625"><ele></ele><time>2017-9-19T9:8:0Z</time></trkpt>
<trkpt lat="48.435463" lon="2.671598"><ele></ele><time>2017-9-19T9:8:3Z</time></trkpt>
<trkpt lat="48.435466" lon="2.671572"><ele></ele><time>2017-9-19T9:8:6Z</time></trkpt>
<trkpt lat="48.435492" lon="2.671360"><ele></ele><time>2017-9-19T9:8:9Z</time></trkpt>
<trkpt lat="48.435496" lon="2.671328"><ele></ele><time>2017-9-19T9:8:12Z</time></trkpt>
<trkpt lat="48.435503" lon="2.671295"><ele></ele><time>2017-9-19T9:8:15Z</time></trkpt>
<trkpt lat="48.435510" lon="2.671265"><ele></ele><time>2017-9-19T9:8:18Z</time></trkpt>
<trkpt lat="48.435518" lon="2.671232"><ele></ele><time>2017-9-19T9:8:21Z</time></trkpt>
<trkpt lat="48.435528" lon="2.671203"><ele></ele><time>2017-9-19T9:8:24Z</time></trkpt>
<trkpt lat="48.435553" lon="2.671127"><ele></ele><time>2017-9-19T9:8:27Z</time></trkpt>
<trkpt lat="48.435598" lon="2.671013"><ele></ele><time>2017-9-19T9:8:30Z</time></trkpt>
<trkpt lat="48.435598" lon="2.670992"><ele></ele><time>2017-9-19T9:8:33Z</time></trkpt>
<trkpt lat="48.435598" lon="2.670978"><ele></ele><time>2017-9-19T9:8:36Z</time></trkpt>
<trkpt lat="48.435600" lon="2.670975"><ele></ele><time>2017-9-19T9:8:39Z</time></trkpt>
<trkpt lat="48.435602" lon="2.670977"><ele></ele><time>2017-9-19T9:8:42Z</time></trkpt>
<trkpt lat="48.435603" lon="2.670978"><ele></ele><time>2017-9-19T9:8:45Z</time></trkpt>
<trkpt lat="48.435612" lon="2.670980"><ele></ele><time>2017-9-19T9:8:48Z</time></trkpt>
<trkpt lat="48.435615" lon="2.670980"><ele></ele><time>2017-9-19T9:8:51Z</time></trkpt>
<trkpt lat="48.435618" lon="2.670980"><ele></ele><time>2017-9-19T9:8:54Z</time></trkpt>
<trkpt lat="48.435620" lon="2.670978"><ele></ele><time>2017-9-19T9:8:57Z</time></trkpt>
<trkpt lat="48.435620" lon="2.670978"><ele></ele><time>2017-9-19T9:9:0Z</time></trkpt>
<trkpt lat="48.435622" lon="2.670977"><ele></ele><time>2017-9-19T9:9:3Z</time></trkpt>
<trkpt lat="48.435627" lon="2.670970"><ele></ele><time>2017-9-19T9:9:6Z</time></trkpt>
<trkpt lat="48.435627" lon="2.670955"><ele></ele><time>2017-9-19T9:9:9Z</time></trkpt>
<trkpt lat="48.435617" lon="2.670878"><ele></ele><time>2017-9-19T9:9:12Z</time></trkpt>
<trkpt lat="48.435613" lon="2.670870"><ele></ele><time>2017-9-19T9:9:15Z</time></trkpt>
<trkpt lat="48.435612" lon="2.670865"><ele></ele><time>2017-9-19T9:9:18Z</time></trkpt>
<trkpt lat="48.435610" lon="2.670862"><ele></ele><time>2017-9-19T9:9:21Z</time></trkpt>
<trkpt lat="48.435605" lon="2.670862"><ele></ele><time>2017-9-19T9:9:24Z</time></trkpt>
<trkpt lat="48.435600" lon="2.670862"><ele></ele><time>2017-9-19T9:9:27Z</time></trkpt>
<trkpt lat="48.435595" lon="2.670863"><ele></ele><time>2017-9-19T9:9:30Z</time></trkpt>
<trkpt lat="48.435590" lon="2.670863"><ele></ele><time>2017-9-19T9:9:33Z</time></trkpt>
<trkpt lat="48.435585" lon="2.670863"><ele></ele><time>2017-9-19T9:9:36Z</time></trkpt>
<trkpt lat="48.435581" lon="2.670863"><ele></ele><time>2017-9-19T9:9:39Z</time></trkpt>
<trkpt lat="48.435578" lon="2.670862"><ele></ele><time>2017-9-19T9:9:42Z</time></trkpt>
<trkpt lat="48.435577" lon="2.670862"><ele></ele><time>2017-9-19T9:9:45Z</time></trkpt>
<trkpt lat="48.435573" lon="2.670862"><ele></ele><time>2017-9-19T9:9:48Z</time></trkpt>
<trkpt lat="48.435572" lon="2.670862"><ele></ele><time>2017-9-19T9:9:51Z</time></trkpt>
<trkpt lat="48.435572" lon="2.670860"><ele></ele><time>2017-9-19T9:9:54Z</time></trkpt>
<trkpt lat="48.435567" lon="2.670838"><ele></ele><time>2017-9-19T9:9:57Z</time></trkpt>
<trkpt lat="48.435570" lon="2.670825"><ele></ele><time>2017-9-19T9:10:0Z</time></trkpt>
<trkpt lat="48.435572" lon="2.670805"><ele></ele><time>2017-9-19T9:10:3Z</time></trkpt>
<trkpt lat="48.435573" lon="2.670785"><ele></ele><time>2017-9-19T9:10:6Z</time></trkpt>
<trkpt lat="48.435575" lon="2.670712"><ele></ele><time>2017-9-19T9:10:9Z</time></trkpt>
<trkpt lat="48.435577" lon="2.670685"><ele></ele><time>2017-9-19T9:10:12Z</time></trkpt>
<trkpt lat="48.435588" lon="2.670660"><ele></ele><time>2017-9-19T9:10:15Z</time></trkpt>
<trkpt lat="48.435598" lon="2.670637"><ele></ele><time>2017-9-19T9:10:18Z</time></trkpt>
<trkpt lat="48.435605" lon="2.670613"><ele></ele><time>2017-9-19T9:10:21Z</time></trkpt>
<trkpt lat="48.435610" lon="2.670592"><ele></ele><time>2017-9-19T9:10:24Z</time></trkpt>
<trkpt lat="48.435615" lon="2.670565"><ele></ele><time>2017-9-19T9:10:27Z</time></trkpt>
<trkpt lat="48.435618" lon="2.670538"><ele></ele><time>2017-9-19T9:10:30Z</time></trkpt>
<trkpt lat="48.435637" lon="2.670425"><ele></ele><time>2017-9-19T9:10:33Z</time></trkpt>
<trkpt lat="48.435671" lon="2.670283"><ele></ele><time>2017-9-19T9:10:36Z</time></trkpt>
<trkpt lat="48.435675" lon="2.670257"><ele></ele><time>2017-9-19T9:10:39Z</time></trkpt>
<trkpt lat="48.435695" lon="2.670173"><ele></ele><time>2017-9-19T9:10:42Z</time></trkpt>
<trkpt lat="48.435696" lon="2.670145"><ele></ele><time>2017-9-19T9:10:45Z</time></trkpt>
<trkpt lat="48.435700" lon="2.670115"><ele></ele><time>2017-9-19T9:10:48Z</time></trkpt>
<trkpt lat="48.435742" lon="2.669878"><ele></ele><time>2017-9-19T9:10:51Z</time></trkpt>
<trkpt lat="48.435802" lon="2.669575"><ele></ele><time>2017-9-19T9:10:54Z</time></trkpt>
<trkpt lat="48.435833" lon="2.669450"><ele></ele><time>2017-9-19T9:10:57Z</time></trkpt>
<trkpt lat="48.435843" lon="2.669428"><ele></ele><time>2017-9-19T9:11:0Z</time></trkpt>
<trkpt lat="48.435846" lon="2.669400"><ele></ele><time>2017-9-19T9:11:3Z</time></trkpt>
<trkpt lat="48.435851" lon="2.669377"><ele></ele><time>2017-9-19T9:11:6Z</time></trkpt>
<trkpt lat="48.435858" lon="2.669353"><ele></ele><time>2017-9-19T9:11:9Z</time></trkpt>
<trkpt lat="48.435860" lon="2.669210"><ele></ele><time>2017-9-19T9:11:12Z</time></trkpt>
<trkpt lat="48.435858" lon="2.669182"><ele></ele><time>2017-9-19T9:11:15Z</time></trkpt>
<trkpt lat="48.435860" lon="2.669158"><ele></ele><time>2017-9-19T9:11:18Z</time></trkpt>
<trkpt lat="48.435858" lon="2.669132"><ele></ele><time>2017-9-19T9:11:21Z</time></trkpt>
<trkpt lat="48.435862" lon="2.669091"><ele></ele><time>2017-9-19T9:11:24Z</time></trkpt>
<trkpt lat="48.435867" lon="2.669077"><ele></ele><time>2017-9-19T9:11:27Z</time></trkpt>
<trkpt lat="48.435878" lon="2.669038"><ele></ele><time>2017-9-19T9:11:30Z</time></trkpt>
<trkpt lat="48.435918" lon="2.668935"><ele></ele><time>2017-9-19T9:11:33Z</time></trkpt>
<trkpt lat="48.435925" lon="2.668917"><ele></ele><time>2017-9-19T9:11:36Z</time></trkpt>
<trkpt lat="48.435927" lon="2.668898"><ele></ele><time>2017-9-19T9:11:39Z</time></trkpt>
<trkpt lat="48.435930" lon="2.668882"><ele></ele><time>2017-9-19T9:11:42Z</time></trkpt>
<trkpt lat="48.435938" lon="2.668820"><ele></ele><time>2017-9-19T9:11:45Z</time></trkpt>
<trkpt lat="48.435940" lon="2.668795"><ele></ele><time>2017-9-19T9:11:48Z</time></trkpt>
<trkpt lat="48.435943" lon="2.668773"><ele></ele><time>2017-9-19T9:11:51Z</time></trkpt>
<trkpt lat="48.435941" lon="2.668755"><ele></ele><time>2017-9-19T9:11:54Z</time></trkpt>
<trkpt lat="48.435917" lon="2.668682"><ele></ele><time>2017-9-19T9:11:57Z</time></trkpt>
<trkpt lat="48.435905" lon="2.668660"><ele></ele><time>2017-9-19T9:12:0Z</time></trkpt>
<trkpt lat="48.435896" lon="2.668637"><ele></ele><time>2017-9-19T9:12:3Z</time></trkpt>
<trkpt lat="48.435883" lon="2.668592"><ele></ele><time>2017-9-19T9:12:6Z</time></trkpt>
<trkpt lat="48.435878" lon="2.668570"><ele></ele><time>2017-9-19T9:12:9Z</time></trkpt>
<trkpt lat="48.435851" lon="2.668485"><ele></ele><time>2017-9-19T9:12:12Z</time></trkpt>
<trkpt lat="48.435843" lon="2.668447"><ele></ele><time>2017-9-19T9:12:15Z</time></trkpt>
<trkpt lat="48.435840" lon="2.668427"><ele></ele><time>2017-9-19T9:12:18Z</time></trkpt>
<trkpt lat="48.435840" lon="2.668407"><ele></ele><time>2017-9-19T9:12:21Z</time></trkpt>
<trkpt lat="48.435838" lon="2.668347"><ele></ele><time>2017-9-19T9:12:24Z</time></trkpt>
<trkpt lat="48.435837" lon="2.668327"><ele></ele><time>2017-9-19T9:12:27Z</time></trkpt>
<trkpt lat="48.435833" lon="2.668307"><ele></ele><time>2017-9-19T9:12:30Z</time></trkpt>
<trkpt lat="48.435797" lon="2.668172"><ele></ele><time>2017-9-19T9:12:33Z</time></trkpt>
<trkpt lat="48.435790" lon="2.668140"><ele></ele><time>2017-9-19T9:12:36Z</time></trkpt>
<trkpt lat="48.435790" lon="2.668123"><ele></ele><time>2017-9-19T9:12:39Z</time></trkpt>
<trkpt lat="48.435795" lon="2.668022"><ele></ele><time>2017-9-19T9:12:42Z</time></trkpt>
<trkpt lat="48.435793" lon="2.668005"><ele></ele><time>2017-9-19T9:12:45Z</time></trkpt>
<trkpt lat="48.435793" lon="2.667970"><ele></ele><time>2017-9-19T9:12:48Z</time></trkpt>
<trkpt lat="48.435780" lon="2.667895"><ele></ele><time>2017-9-19T9:12:51Z</time></trkpt>
<trkpt lat="48.435778" lon="2.667878"><ele></ele><time>2017-9-19T9:12:54Z</time></trkpt>
<trkpt lat="48.435770" lon="2.667832"><ele></ele><time>2017-9-19T9:12:57Z</time></trkpt>
<trkpt lat="48.435761" lon="2.667802"><ele></ele><time>2017-9-19T9:13:0Z</time></trkpt>
<trkpt lat="48.435756" lon="2.667788"><ele></ele><time>2017-9-19T9:13:3Z</time></trkpt>
<trkpt lat="48.435742" lon="2.667745"><ele></ele><time>2017-9-19T9:13:6Z</time></trkpt>
<trkpt lat="48.435735" lon="2.667718"><ele></ele><time>2017-9-19T9:13:9Z</time></trkpt>
<trkpt lat="48.435730" lon="2.667688"><ele></ele><time>2017-9-19T9:13:12Z</time></trkpt>
<trkpt lat="48.435725" lon="2.667668"><ele></ele><time>2017-9-19T9:13:15Z</time></trkpt>
<trkpt lat="48.435717" lon="2.667633"><ele></ele><time>2017-9-19T9:13:18Z</time></trkpt>
<trkpt lat="48.435711" lon="2.667617"><ele></ele><time>2017-9-19T9:13:21Z</time></trkpt>
<trkpt lat="48.435717" lon="2.667598"><ele></ele><time>2017-9-19T9:13:24Z</time></trkpt>
<trkpt lat="48.435713" lon="2.667552"><ele></ele><time>2017-9-19T9:13:27Z</time></trkpt>
<trkpt lat="48.435693" lon="2.667493"><ele></ele><time>2017-9-19T9:13:30Z</time></trkpt>
<trkpt lat="48.435688" lon="2.667478"><ele></ele><time>2017-9-19T9:13:33Z</time></trkpt>
<trkpt lat="48.435682" lon="2.667468"><ele></ele><time>2017-9-19T9:13:36Z</time></trkpt>
<trkpt lat="48.435671" lon="2.667457"><ele></ele><time>2017-9-19T9:13:39Z</time></trkpt>
<trkpt lat="48.435628" lon="2.667382"><ele></ele><time>2017-9-19T9:13:42Z</time></trkpt>
<trkpt lat="48.435625" lon="2.667368"><ele></ele><time>2017-9-19T9:13:45Z</time></trkpt>
<trkpt lat="48.435607" lon="2.667332"><ele></ele><time>2017-9-19T9:13:48Z</time></trkpt>
<trkpt lat="48.435595" lon="2.667307"><ele></ele><time>2017-9-19T9:13:51Z</time></trkpt>
<trkpt lat="48.435598" lon="2.667292"><ele></ele><time>2017-9-19T9:13:54Z</time></trkpt>
<trkpt lat="48.435595" lon="2.667282"><ele></ele><time>2017-9-19T9:13:57Z</time></trkpt>
<trkpt lat="48.435595" lon="2.667285"><ele></ele><time>2017-9-19T9:14:0Z</time></trkpt>
<trkpt lat="48.435597" lon="2.667277"><ele></ele><time>2017-9-19T9:14:3Z</time></trkpt>
<trkpt lat="48.435592" lon="2.667267"><ele></ele><time>2017-9-19T9:14:6Z</time></trkpt>
<trkpt lat="48.435593" lon="2.667251"><ele></ele><time>2017-9-19T9:14:9Z</time></trkpt>
<trkpt lat="48.435590" lon="2.667248"><ele></ele><time>2017-9-19T9:14:12Z</time></trkpt>
<trkpt lat="48.435586" lon="2.667245"><ele></ele><time>2017-9-19T9:14:15Z</time></trkpt>
<trkpt lat="48.435585" lon="2.667238"><ele></ele><time>2017-9-19T9:14:18Z</time></trkpt>
<trkpt lat="48.435570" lon="2.667223"><ele></ele><time>2017-9-19T9:14:21Z</time></trkpt>
<trkpt lat="48.435565" lon="2.667213"><ele></ele><time>2017-9-19T9:14:24Z</time></trkpt>
<trkpt lat="48.435555" lon="2.667200"><ele></ele><time>2017-9-19T9:14:27Z</time></trkpt>
<trkpt lat="48.435553" lon="2.667203"><ele></ele><time>2017-9-19T9:14:30Z</time></trkpt>
<trkpt lat="48.435552" lon="2.667202"><ele></ele><time>2017-9-19T9:14:33Z</time></trkpt>
<trkpt lat="48.435547" lon="2.667190"><ele></ele><time>2017-9-19T9:14:36Z</time></trkpt>
<trkpt lat="48.435543" lon="2.667183"><ele></ele><time>2017-9-19T9:14:39Z</time></trkpt>
<trkpt lat="48.435536" lon="2.667177"><ele></ele><time>2017-9-19T9:14:42Z</time></trkpt>
<trkpt lat="48.435528" lon="2.667167"><ele></ele><time>2017-9-19T9:14:45Z</time></trkpt>
<trkpt lat="48.435525" lon="2.667162"><ele></ele><time>2017-9-19T9:14:48Z</time></trkpt>
<trkpt lat="48.435510" lon="2.667150"><ele></ele><time>2017-9-19T9:14:51Z</time></trkpt>
<trkpt lat="48.435502" lon="2.667143"><ele></ele><time>2017-9-19T9:14:54Z</time></trkpt>
<trkpt lat="48.435496" lon="2.667136"><ele></ele><time>2017-9-19T9:14:57Z</time></trkpt>
<trkpt lat="48.435490" lon="2.667125"><ele></ele><time>2017-9-19T9:15:0Z</time></trkpt>
<trkpt lat="48.435488" lon="2.667118"><ele></ele><time>2017-9-19T9:15:3Z</time></trkpt>
<trkpt lat="48.435488" lon="2.667102"><ele></ele><time>2017-9-19T9:15:6Z</time></trkpt>
<trkpt lat="48.435488" lon="2.667095"><ele></ele><time>2017-9-19T9:15:9Z</time></trkpt>
<trkpt lat="48.435488" lon="2.667090"><ele></ele><time>2017-9-19T9:15:12Z</time></trkpt>
<trkpt lat="48.435488" lon="2.667083"><ele></ele><time>2017-9-19T9:15:15Z</time></trkpt>
<trkpt lat="48.435487" lon="2.667078"><ele></ele><time>2017-9-19T9:15:18Z</time></trkpt>
<trkpt lat="48.435485" lon="2.667073"><ele></ele><time>2017-9-19T9:15:21Z</time></trkpt>
<trkpt lat="48.435480" lon="2.667057"><ele></ele><time>2017-9-19T9:15:24Z</time></trkpt>
<trkpt lat="48.435475" lon="2.667050"><ele></ele><time>2017-9-19T9:15:27Z</time></trkpt>
<trkpt lat="48.435468" lon="2.667042"><ele></ele><time>2017-9-19T9:15:30Z</time></trkpt>
<trkpt lat="48.435466" lon="2.667035"><ele></ele><time>2017-9-19T9:15:33Z</time></trkpt>
<trkpt lat="48.435463" lon="2.667028"><ele></ele><time>2017-9-19T9:15:36Z</time></trkpt>
<trkpt lat="48.435460" lon="2.667023"><ele></ele><time>2017-9-19T9:15:39Z</time></trkpt>
<trkpt lat="48.435462" lon="2.667025"><ele></ele><time>2017-9-19T9:15:42Z</time></trkpt>
<trkpt lat="48.435463" lon="2.667027"><ele></ele><time>2017-9-19T9:15:45Z</time></trkpt>
<trkpt lat="48.435465" lon="2.667027"><ele></ele><time>2017-9-19T9:15:48Z</time></trkpt>
<trkpt lat="48.435463" lon="2.667023"><ele></ele><time>2017-9-19T9:15:51Z</time></trkpt>
<trkpt lat="48.435462" lon="2.667015"><ele></ele><time>2017-9-19T9:15:54Z</time></trkpt>
<trkpt lat="48.435458" lon="2.667008"><ele></ele><time>2017-9-19T9:15:57Z</time></trkpt>
<trkpt lat="48.435453" lon="2.666991"><ele></ele><time>2017-9-19T9:16:0Z</time></trkpt>
<trkpt lat="48.435446" lon="2.666977"><ele></ele><time>2017-9-19T9:16:3Z</time></trkpt>
<trkpt lat="48.435445" lon="2.666968"><ele></ele><time>2017-9-19T9:16:6Z</time></trkpt>
<trkpt lat="48.435442" lon="2.666947"><ele></ele><time>2017-9-19T9:16:9Z</time></trkpt>
<trkpt lat="48.435440" lon="2.666943"><ele></ele><time>2017-9-19T9:16:12Z</time></trkpt>
<trkpt lat="48.435442" lon="2.666938"><ele></ele><time>2017-9-19T9:16:15Z</time></trkpt>
<trkpt lat="48.435440" lon="2.666928"><ele></ele><time>2017-9-19T9:16:18Z</time></trkpt>
<trkpt lat="48.435437" lon="2.666918"><ele></ele><time>2017-9-19T9:16:21Z</time></trkpt>
<trkpt lat="48.435433" lon="2.666887"><ele></ele><time>2017-9-19T9:16:24Z</time></trkpt>
<trkpt lat="48.435437" lon="2.666880"><ele></ele><time>2017-9-19T9:16:27Z</time></trkpt>
<trkpt lat="48.435442" lon="2.666878"><ele></ele><time>2017-9-19T9:16:30Z</time></trkpt>
<trkpt lat="48.435451" lon="2.666883"><ele></ele><time>2017-9-19T9:16:33Z</time></trkpt>
<trkpt lat="48.435455" lon="2.666883"><ele></ele><time>2017-9-19T9:16:36Z</time></trkpt>
<trkpt lat="48.435458" lon="2.666878"><ele></ele><time>2017-9-19T9:16:39Z</time></trkpt>
<trkpt lat="48.435458" lon="2.666872"><ele></ele><time>2017-9-19T9:16:42Z</time></trkpt>
<trkpt lat="48.435455" lon="2.666863"><ele></ele><time>2017-9-19T9:16:45Z</time></trkpt>
<trkpt lat="48.435450" lon="2.666857"><ele></ele><time>2017-9-19T9:16:48Z</time></trkpt>
<trkpt lat="48.435445" lon="2.666845"><ele></ele><time>2017-9-19T9:16:51Z</time></trkpt>
<trkpt lat="48.435445" lon="2.666842"><ele></ele><time>2017-9-19T9:16:54Z</time></trkpt>
<trkpt lat="48.435442" lon="2.666837"><ele></ele><time>2017-9-19T9:16:57Z</time></trkpt>
<trkpt lat="48.435440" lon="2.666828"><ele></ele><time>2017-9-19T9:17:0Z</time></trkpt>
<trkpt lat="48.435442" lon="2.666822"><ele></ele><time>2017-9-19T9:17:3Z</time></trkpt>
<trkpt lat="48.435442" lon="2.666813"><ele></ele><time>2017-9-19T9:17:6Z</time></trkpt>
<trkpt lat="48.435440" lon="2.666803"><ele></ele><time>2017-9-19T9:17:9Z</time></trkpt>
<trkpt lat="48.435437" lon="2.666783"><ele></ele><time>2017-9-19T9:17:12Z</time></trkpt>
<trkpt lat="48.435430" lon="2.666767"><ele></ele><time>2017-9-19T9:17:15Z</time></trkpt>
<trkpt lat="48.435428" lon="2.666757"><ele></ele><time>2017-9-19T9:17:18Z</time></trkpt>
<trkpt lat="48.435428" lon="2.666748"><ele></ele><time>2017-9-19T9:17:21Z</time></trkpt>
<trkpt lat="48.435428" lon="2.666738"><ele></ele><time>2017-9-19T9:17:24Z</time></trkpt>
<trkpt lat="48.435430" lon="2.666730"><ele></ele><time>2017-9-19T9:17:27Z</time></trkpt>
<trkpt lat="48.435432" lon="2.666722"><ele></ele><time>2017-9-19T9:17:30Z</time></trkpt>
<trkpt lat="48.435430" lon="2.666712"><ele></ele><time>2017-9-19T9:17:33Z</time></trkpt>
<trkpt lat="48.435430" lon="2.666683"><ele></ele><time>2017-9-19T9:17:36Z</time></trkpt>
<trkpt lat="48.435430" lon="2.666675"><ele></ele><time>2017-9-19T9:17:39Z</time></trkpt>
<trkpt lat="48.435428" lon="2.666667"><ele></ele><time>2017-9-19T9:17:42Z</time></trkpt>
<trkpt lat="48.435425" lon="2.666645"><ele></ele><time>2017-9-19T9:17:45Z</time></trkpt>
<trkpt lat="48.435420" lon="2.666613"><ele></ele><time>2017-9-19T9:17:48Z</time></trkpt>
<trkpt lat="48.435408" lon="2.666567"><ele></ele><time>2017-9-19T9:17:51Z</time></trkpt>
<trkpt lat="48.435405" lon="2.666553"><ele></ele><time>2017-9-19T9:17:54Z</time></trkpt>
<trkpt lat="48.435403" lon="2.666543"><ele></ele><time>2017-9-19T9:17:57Z</time></trkpt>
<trkpt lat="48.435398" lon="2.666533"><ele></ele><time>2017-9-19T9:18:0Z</time></trkpt>
<trkpt lat="48.435390" lon="2.666517"><ele></ele><time>2017-9-19T9:18:3Z</time></trkpt>
<trkpt lat="48.435385" lon="2.666507"><ele></ele><time>2017-9-19T9:18:6Z</time></trkpt>
<trkpt lat="48.435375" lon="2.666487"><ele></ele><time>2017-9-19T9:18:9Z</time></trkpt>
<trkpt lat="48.435372" lon="2.666473"><ele></ele><time>2017-9-19T9:18:12Z</time></trkpt>
<trkpt lat="48.435368" lon="2.666463"><ele></ele><time>2017-9-19T9:18:15Z</time></trkpt>
<trkpt lat="48.435365" lon="2.666455"><ele></ele><time>2017-9-19T9:18:18Z</time></trkpt>
<trkpt lat="48.435363" lon="2.666445"><ele></ele><time>2017-9-19T9:18:21Z</time></trkpt>
<trkpt lat="48.435353" lon="2.666420"><ele></ele><time>2017-9-19T9:18:24Z</time></trkpt>
<trkpt lat="48.435348" lon="2.666408"><ele></ele><time>2017-9-19T9:18:27Z</time></trkpt>
<trkpt lat="48.435340" lon="2.666400"><ele></ele><time>2017-9-19T9:18:30Z</time></trkpt>
<trkpt lat="48.435336" lon="2.666390"><ele></ele><time>2017-9-19T9:18:33Z</time></trkpt>
<trkpt lat="48.435335" lon="2.666380"><ele></ele><time>2017-9-19T9:18:36Z</time></trkpt>
<trkpt lat="48.435330" lon="2.666367"><ele></ele><time>2017-9-19T9:18:39Z</time></trkpt>
<trkpt lat="48.435320" lon="2.666342"><ele></ele><time>2017-9-19T9:18:42Z</time></trkpt>
<trkpt lat="48.435313" lon="2.666333"><ele></ele><time>2017-9-19T9:18:45Z</time></trkpt>
<trkpt lat="48.435307" lon="2.666323"><ele></ele><time>2017-9-19T9:18:48Z</time></trkpt>
<trkpt lat="48.435300" lon="2.666312"><ele></ele><time>2017-9-19T9:18:51Z</time></trkpt>
<trkpt lat="48.435295" lon="2.666301"><ele></ele><time>2017-9-19T9:18:54Z</time></trkpt>
<trkpt lat="48.435248" lon="2.666213"><ele></ele><time>2017-9-19T9:18:57Z</time></trkpt>
<trkpt lat="48.435245" lon="2.666203"><ele></ele><time>2017-9-19T9:19:0Z</time></trkpt>
<trkpt lat="48.435238" lon="2.666193"><ele></ele><time>2017-9-19T9:19:3Z</time></trkpt>
<trkpt lat="48.435235" lon="2.666185"><ele></ele><time>2017-9-19T9:19:6Z</time></trkpt>
<trkpt lat="48.435230" lon="2.666172"><ele></ele><time>2017-9-19T9:19:9Z</time></trkpt>
<trkpt lat="48.435228" lon="2.666157"><ele></ele><time>2017-9-19T9:19:12Z</time></trkpt>
<trkpt lat="48.435225" lon="2.666143"><ele></ele><time>2017-9-19T9:19:15Z</time></trkpt>
<trkpt lat="48.435223" lon="2.666132"><ele></ele><time>2017-9-19T9:19:18Z</time></trkpt>
<trkpt lat="48.435225" lon="2.666122"><ele></ele><time>2017-9-19T9:19:21Z</time></trkpt>
<trkpt lat="48.435228" lon="2.666110"><ele></ele><time>2017-9-19T9:19:24Z</time></trkpt>
<trkpt lat="48.435235" lon="2.666102"><ele></ele><time>2017-9-19T9:19:27Z</time></trkpt>
<trkpt lat="48.435241" lon="2.666100"><ele></ele><time>2017-9-19T9:19:30Z</time></trkpt>
<trkpt lat="48.435248" lon="2.666100"><ele></ele><time>2017-9-19T9:19:33Z</time></trkpt>
<trkpt lat="48.435260" lon="2.666100"><ele></ele><time>2017-9-19T9:19:36Z</time></trkpt>
<trkpt lat="48.435270" lon="2.666103"><ele></ele><time>2017-9-19T9:19:39Z</time></trkpt>
<trkpt lat="48.435287" lon="2.666112"><ele></ele><time>2017-9-19T9:19:42Z</time></trkpt>
<trkpt lat="48.435285" lon="2.666113"><ele></ele><time>2017-9-19T9:19:45Z</time></trkpt>
<trkpt lat="48.435285" lon="2.666113"><ele></ele><time>2017-9-19T9:19:48Z</time></trkpt>
<trkpt lat="48.435287" lon="2.666113"><ele></ele><time>2017-9-19T9:19:51Z</time></trkpt>
<trkpt lat="48.435292" lon="2.666113"><ele></ele><time>2017-9-19T9:19:54Z</time></trkpt>
<trkpt lat="48.435298" lon="2.666117"><ele></ele><time>2017-9-19T9:19:57Z</time></trkpt>
<trkpt lat="48.435308" lon="2.666120"><ele></ele><time>2017-9-19T9:20:0Z</time></trkpt>
<trkpt lat="48.435415" lon="2.666142"><ele></ele><time>2017-9-19T9:20:3Z</time></trkpt>
<trkpt lat="48.435440" lon="2.666148"><ele></ele><time>2017-9-19T9:20:6Z</time></trkpt>
<trkpt lat="48.436850" lon="2.666565"><ele></ele><time>2017-9-19T9:20:9Z</time></trkpt>
<trkpt lat="48.436898" lon="2.666587"><ele></ele><time>2017-9-19T9:20:12Z</time></trkpt>
<trkpt lat="48.437497" lon="2.666862"><ele></ele><time>2017-9-19T9:20:15Z</time></trkpt>
<trkpt lat="48.440238" lon="2.668198"><ele></ele><time>2017-9-19T9:20:18Z</time></trkpt>
<trkpt lat="48.440272" lon="2.668222"><ele></ele><time>2017-9-19T9:20:21Z</time></trkpt>
<trkpt lat="48.440900" lon="2.668570"><ele></ele><time>2017-9-19T9:20:24Z</time></trkpt>
<trkpt lat="48.441516" lon="2.668945"><ele></ele><time>2017-9-19T9:20:27Z</time></trkpt>
<trkpt lat="48.441723" lon="2.669045"><ele></ele><time>2017-9-19T9:20:30Z</time></trkpt>
<trkpt lat="48.441798" lon="2.669090"><ele></ele><time>2017-9-19T9:20:33Z</time></trkpt>
<trkpt lat="48.441830" lon="2.669120"><ele></ele><time>2017-9-19T9:20:36Z</time></trkpt>
<trkpt lat="48.441862" lon="2.669143"><ele></ele><time>2017-9-19T9:20:39Z</time></trkpt>
<trkpt lat="48.441932" lon="2.669197"><ele></ele><time>2017-9-19T9:20:42Z</time></trkpt>
<trkpt lat="48.441950" lon="2.669233"><ele></ele><time>2017-9-19T9:20:45Z</time></trkpt>
<trkpt lat="48.441970" lon="2.669263"><ele></ele><time>2017-9-19T9:20:48Z</time></trkpt>
<trkpt lat="48.441992" lon="2.669278"><ele></ele><time>2017-9-19T9:20:51Z</time></trkpt>
<trkpt lat="48.442055" lon="2.669315"><ele></ele><time>2017-9-19T9:20:54Z</time></trkpt>
<trkpt lat="48.442070" lon="2.669320"><ele></ele><time>2017-9-19T9:20:57Z</time></trkpt>
<trkpt lat="48.442085" lon="2.669327"><ele></ele><time>2017-9-19T9:21:0Z</time></trkpt>
<trkpt lat="48.442100" lon="2.669340"><ele></ele><time>2017-9-19T9:21:3Z</time></trkpt>
<trkpt lat="48.442115" lon="2.669347"><ele></ele><time>2017-9-19T9:21:6Z</time></trkpt>
<trkpt lat="48.442132" lon="2.669342"><ele></ele><time>2017-9-19T9:21:9Z</time></trkpt>
<trkpt lat="48.442152" lon="2.669337"><ele></ele><time>2017-9-19T9:21:12Z</time></trkpt>
<trkpt lat="48.442172" lon="2.669335"><ele></ele><time>2017-9-19T9:21:15Z</time></trkpt>
<trkpt lat="48.442185" lon="2.669335"><ele></ele><time>2017-9-19T9:21:18Z</time></trkpt>
<trkpt lat="48.442243" lon="2.669345"><ele></ele><time>2017-9-19T9:21:21Z</time></trkpt>
<trkpt lat="48.442263" lon="2.669365"><ele></ele><time>2017-9-19T9:21:24Z</time></trkpt>
<trkpt lat="48.442278" lon="2.669387"><ele></ele><time>2017-9-19T9:21:27Z</time></trkpt>
<trkpt lat="48.442296" lon="2.669402"><ele></ele><time>2017-9-19T9:21:30Z</time></trkpt>
<trkpt lat="48.442348" lon="2.669430"><ele></ele><time>2017-9-19T9:21:33Z</time></trkpt>
<trkpt lat="48.442373" lon="2.669437"><ele></ele><time>2017-9-19T9:21:36Z</time></trkpt>
<trkpt lat="48.442428" lon="2.669448"><ele></ele><time>2017-9-19T9:21:39Z</time></trkpt>
<trkpt lat="48.442452" lon="2.669468"><ele></ele><time>2017-9-19T9:21:42Z</time></trkpt>
<trkpt lat="48.442492" lon="2.669485"><ele></ele><time>2017-9-19T9:21:45Z</time></trkpt>
<trkpt lat="48.442515" lon="2.669478"><ele></ele><time>2017-9-19T9:21:48Z</time></trkpt>
<trkpt lat="48.442538" lon="2.669475"><ele></ele><time>2017-9-19T9:21:51Z</time></trkpt>
<trkpt lat="48.442567" lon="2.669478"><ele></ele><time>2017-9-19T9:21:54Z</time></trkpt>
<trkpt lat="48.442592" lon="2.669485"><ele></ele><time>2017-9-19T9:21:57Z</time></trkpt>
<trkpt lat="48.442613" lon="2.669492"><ele></ele><time>2017-9-19T9:22:0Z</time></trkpt>
<trkpt lat="48.442631" lon="2.669493"><ele></ele><time>2017-9-19T9:22:3Z</time></trkpt>
<trkpt lat="48.442652" lon="2.669493"><ele></ele><time>2017-9-19T9:22:6Z</time></trkpt>
<trkpt lat="48.442675" lon="2.669490"><ele></ele><time>2017-9-19T9:22:9Z</time></trkpt>
<trkpt lat="48.442703" lon="2.669482"><ele></ele><time>2017-9-19T9:22:12Z</time></trkpt>
<trkpt lat="48.442732" lon="2.669468"><ele></ele><time>2017-9-19T9:22:15Z</time></trkpt>
<trkpt lat="48.442855" lon="2.669403"><ele></ele><time>2017-9-19T9:22:18Z</time></trkpt>
<trkpt lat="48.442908" lon="2.669392"><ele></ele><time>2017-9-19T9:22:21Z</time></trkpt>
<trkpt lat="48.442930" lon="2.669413"><ele></ele><time>2017-9-19T9:22:24Z</time></trkpt>
<trkpt lat="48.442953" lon="2.669423"><ele></ele><time>2017-9-19T9:22:27Z</time></trkpt>
<trkpt lat="48.442978" lon="2.669423"><ele></ele><time>2017-9-19T9:22:30Z</time></trkpt>
<trkpt lat="48.443002" lon="2.669433"><ele></ele><time>2017-9-19T9:22:33Z</time></trkpt>
<trkpt lat="48.443025" lon="2.669460"><ele></ele><time>2017-9-19T9:22:36Z</time></trkpt>
<trkpt lat="48.443077" lon="2.669510"><ele></ele><time>2017-9-19T9:22:39Z</time></trkpt>
<trkpt lat="48.443126" lon="2.669545"><ele></ele><time>2017-9-19T9:22:42Z</time></trkpt>
<trkpt lat="48.443153" lon="2.669555"><ele></ele><time>2017-9-19T9:22:45Z</time></trkpt>
<trkpt lat="48.443436" lon="2.669628"><ele></ele><time>2017-9-19T9:22:48Z</time></trkpt>
<trkpt lat="48.443512" lon="2.669640"><ele></ele><time>2017-9-19T9:22:51Z</time></trkpt>
<trkpt lat="48.443546" lon="2.669670"><ele></ele><time>2017-9-19T9:22:54Z</time></trkpt>
<trkpt lat="48.443573" lon="2.669712"><ele></ele><time>2017-9-19T9:22:57Z</time></trkpt>
<trkpt lat="48.443663" lon="2.669835"><ele></ele><time>2017-9-19T9:23:0Z</time></trkpt>
<trkpt lat="48.443693" lon="2.669825"><ele></ele><time>2017-9-19T9:23:3Z</time></trkpt>
<trkpt lat="48.443717" lon="2.669795"><ele></ele><time>2017-9-19T9:23:6Z</time></trkpt>
<trkpt lat="48.443726" lon="2.669755"><ele></ele><time>2017-9-19T9:23:9Z</time></trkpt>
<trkpt lat="48.443735" lon="2.669710"><ele></ele><time>2017-9-19T9:23:12Z</time></trkpt>
<trkpt lat="48.443737" lon="2.669663"><ele></ele><time>2017-9-19T9:23:15Z</time></trkpt>
<trkpt lat="48.443740" lon="2.669622"><ele></ele><time>2017-9-19T9:23:18Z</time></trkpt>
<trkpt lat="48.443753" lon="2.669428"><ele></ele><time>2017-9-19T9:23:21Z</time></trkpt>
<trkpt lat="48.443758" lon="2.669413"><ele></ele><time>2017-9-19T9:23:24Z</time></trkpt>
<trkpt lat="48.443762" lon="2.669410"><ele></ele><time>2017-9-19T9:23:27Z</time></trkpt>
<trkpt lat="48.443767" lon="2.669410"><ele></ele><time>2017-9-19T9:23:30Z</time></trkpt>
<trkpt lat="48.443778" lon="2.669403"><ele></ele><time>2017-9-19T9:23:33Z</time></trkpt>
<trkpt lat="48.443790" lon="2.669383"><ele></ele><time>2017-9-19T9:23:36Z</time></trkpt>
<trkpt lat="48.443800" lon="2.669357"><ele></ele><time>2017-9-19T9:23:39Z</time></trkpt>
<trkpt lat="48.443820" lon="2.669300"><ele></ele><time>2017-9-19T9:23:42Z</time></trkpt>
<trkpt lat="48.443820" lon="2.669258"><ele></ele><time>2017-9-19T9:23:45Z</time></trkpt>
<trkpt lat="48.443802" lon="2.668780"><ele></ele><time>2017-9-19T9:23:48Z</time></trkpt>
<trkpt lat="48.443803" lon="2.668718"><ele></ele><time>2017-9-19T9:23:51Z</time></trkpt>
<trkpt lat="48.443797" lon="2.668650"><ele></ele><time>2017-9-19T9:23:54Z</time></trkpt>
<trkpt lat="48.443803" lon="2.668593"><ele></ele><time>2017-9-19T9:23:57Z</time></trkpt>
<trkpt lat="48.443830" lon="2.668133"><ele></ele><time>2017-9-19T9:24:0Z</time></trkpt>
<trkpt lat="48.443936" lon="2.665495"><ele></ele><time>2017-9-19T9:24:3Z</time></trkpt>
<trkpt lat="48.443943" lon="2.665417"><ele></ele><time>2017-9-19T9:24:6Z</time></trkpt>
<trkpt lat="48.444043" lon="2.664500"><ele></ele><time>2017-9-19T9:24:9Z</time></trkpt>
<trkpt lat="48.444197" lon="2.664108"><ele></ele><time>2017-9-19T9:24:12Z</time></trkpt>
<trkpt lat="48.445193" lon="2.661812"><ele></ele><time>2017-9-19T9:24:15Z</time></trkpt>
<trkpt lat="48.445220" lon="2.661767"><ele></ele><time>2017-9-19T9:24:18Z</time></trkpt>
<trkpt lat="48.445247" lon="2.661735"><ele></ele><time>2017-9-19T9:24:21Z</time></trkpt>
<trkpt lat="48.445267" lon="2.661720"><ele></ele><time>2017-9-19T9:24:24Z</time></trkpt>
<trkpt lat="48.445280" lon="2.661717"><ele></ele><time>2017-9-19T9:24:27Z</time></trkpt>
<trkpt lat="48.445285" lon="2.661715"><ele></ele><time>2017-9-19T9:24:30Z</time></trkpt>
<trkpt lat="48.445285" lon="2.661712"><ele></ele><time>2017-9-19T9:24:33Z</time></trkpt>
<trkpt lat="48.445285" lon="2.661708"><ele></ele><time>2017-9-19T9:24:36Z</time></trkpt>
<trkpt lat="48.445290" lon="2.661702"><ele></ele><time>2017-9-19T9:24:39Z</time></trkpt>
<trkpt lat="48.445288" lon="2.661698"><ele></ele><time>2017-9-19T9:24:42Z</time></trkpt>
<trkpt lat="48.445288" lon="2.661697"><ele></ele><time>2017-9-19T9:24:45Z</time></trkpt>
<trkpt lat="48.445288" lon="2.661693"><ele></ele><time>2017-9-19T9:24:48Z</time></trkpt>
<trkpt lat="48.445290" lon="2.661690"><ele></ele><time>2017-9-19T9:24:51Z</time></trkpt>
<trkpt lat="48.445292" lon="2.661688"><ele></ele><time>2017-9-19T9:24:54Z</time></trkpt>
<trkpt lat="48.445293" lon="2.661687"><ele></ele><time>2017-9-19T9:24:57Z</time></trkpt>
<trkpt lat="48.445295" lon="2.661685"><ele></ele><time>2017-9-19T9:25:0Z</time></trkpt>
<trkpt lat="48.445298" lon="2.661680"><ele></ele><time>2017-9-19T9:25:3Z</time></trkpt>
<trkpt lat="48.445301" lon="2.661670"><ele></ele><time>2017-9-19T9:25:6Z</time></trkpt>
<trkpt lat="48.445310" lon="2.661655"><ele></ele><time>2017-9-19T9:25:9Z</time></trkpt>
<trkpt lat="48.445323" lon="2.661640"><ele></ele><time>2017-9-19T9:25:12Z</time></trkpt>
<trkpt lat="48.445348" lon="2.661628"><ele></ele><time>2017-9-19T9:25:15Z</time></trkpt>
<trkpt lat="48.445520" lon="2.661540"><ele></ele><time>2017-9-19T9:25:18Z</time></trkpt>
<trkpt lat="48.445885" lon="2.661310"><ele></ele><time>2017-9-19T9:25:21Z</time></trkpt>
<trkpt lat="48.447250" lon="2.660455"><ele></ele><time>2017-9-19T9:25:24Z</time></trkpt>
<trkpt lat="48.447288" lon="2.660410"><ele></ele><time>2017-9-19T9:25:27Z</time></trkpt>
<trkpt lat="48.447320" lon="2.660358"><ele></ele><time>2017-9-19T9:25:30Z</time></trkpt>
<trkpt lat="48.447372" lon="2.660240"><ele></ele><time>2017-9-19T9:25:33Z</time></trkpt>
<trkpt lat="48.447440" lon="2.660030"><ele></ele><time>2017-9-19T9:25:36Z</time></trkpt>
<trkpt lat="48.447561" lon="2.659625"><ele></ele><time>2017-9-19T9:25:39Z</time></trkpt>
<trkpt lat="48.447602" lon="2.659457"><ele></ele><time>2017-9-19T9:25:42Z</time></trkpt>
<trkpt lat="48.447770" lon="2.658777"><ele></ele><time>2017-9-19T9:25:45Z</time></trkpt>
<trkpt lat="48.447792" lon="2.658750"><ele></ele><time>2017-9-19T9:25:48Z</time></trkpt>
<trkpt lat="48.447815" lon="2.658732"><ele></ele><time>2017-9-19T9:25:51Z</time></trkpt>
<trkpt lat="48.447857" lon="2.658728"><ele></ele><time>2017-9-19T9:25:54Z</time></trkpt>
<trkpt lat="48.447898" lon="2.658736"><ele></ele><time>2017-9-19T9:25:57Z</time></trkpt>
<trkpt lat="48.448501" lon="2.658860"><ele></ele><time>2017-9-19T9:26:0Z</time></trkpt>
<trkpt lat="48.448966" lon="2.658943"><ele></ele><time>2017-9-19T9:26:3Z</time></trkpt>
<trkpt lat="48.451695" lon="2.659437"><ele></ele><time>2017-9-19T9:26:6Z</time></trkpt>
<trkpt lat="48.451732" lon="2.659448"><ele></ele><time>2017-9-19T9:26:9Z</time></trkpt>
<trkpt lat="48.454798" lon="2.659920"><ele></ele><time>2017-9-19T9:26:12Z</time></trkpt>
<trkpt lat="48.454833" lon="2.659918"><ele></ele><time>2017-9-19T9:26:15Z</time></trkpt>
<trkpt lat="48.454872" lon="2.659923"><ele></ele><time>2017-9-19T9:26:18Z</time></trkpt>
<trkpt lat="48.454915" lon="2.659935"><ele></ele><time>2017-9-19T9:26:21Z</time></trkpt>
<trkpt lat="48.456718" lon="2.660292"><ele></ele><time>2017-9-19T9:26:24Z</time></trkpt>
<trkpt lat="48.456743" lon="2.660307"><ele></ele><time>2017-9-19T9:26:27Z</time></trkpt>
<trkpt lat="48.456797" lon="2.660320"><ele></ele><time>2017-9-19T9:26:30Z</time></trkpt>
<trkpt lat="48.458632" lon="2.660752"><ele></ele><time>2017-9-19T9:26:33Z</time></trkpt>
<trkpt lat="48.458688" lon="2.660788"><ele></ele><time>2017-9-19T9:26:36Z</time></trkpt>
<trkpt lat="48.459760" lon="2.661435"><ele></ele><time>2017-9-19T9:26:39Z</time></trkpt>
<trkpt lat="48.459812" lon="2.661452"><ele></ele><time>2017-9-19T9:26:42Z</time></trkpt>
<trkpt lat="48.459952" lon="2.661478"><ele></ele><time>2017-9-19T9:26:45Z</time></trkpt>
<trkpt lat="48.459998" lon="2.661467"><ele></ele><time>2017-9-19T9:26:48Z</time></trkpt>
<trkpt lat="48.460042" lon="2.661443"><ele></ele><time>2017-9-19T9:26:51Z</time></trkpt>
<trkpt lat="48.460080" lon="2.661422"><ele></ele><time>2017-9-19T9:26:54Z</time></trkpt>
<trkpt lat="48.460201" lon="2.661340"><ele></ele><time>2017-9-19T9:26:57Z</time></trkpt>
<trkpt lat="48.460242" lon="2.661323"><ele></ele><time>2017-9-19T9:27:0Z</time></trkpt>
<trkpt lat="48.460440" lon="2.661238"><ele></ele><time>2017-9-19T9:27:3Z</time></trkpt>
<trkpt lat="48.460478" lon="2.661207"><ele></ele><time>2017-9-19T9:27:6Z</time></trkpt>
<trkpt lat="48.460510" lon="2.661163"><ele></ele><time>2017-9-19T9:27:9Z</time></trkpt>
<trkpt lat="48.460530" lon="2.661110"><ele></ele><time>2017-9-19T9:27:12Z</time></trkpt>
<trkpt lat="48.460543" lon="2.661055"><ele></ele><time>2017-9-19T9:27:15Z</time></trkpt>
<trkpt lat="48.460563" lon="2.661002"><ele></ele><time>2017-9-19T9:27:18Z</time></trkpt>
<trkpt lat="48.460603" lon="2.660910"><ele></ele><time>2017-9-19T9:27:21Z</time></trkpt>
<trkpt lat="48.460620" lon="2.660878"><ele></ele><time>2017-9-19T9:27:24Z</time></trkpt>
<trkpt lat="48.460657" lon="2.660810"><ele></ele><time>2017-9-19T9:27:27Z</time></trkpt>
<trkpt lat="48.460703" lon="2.660745"><ele></ele><time>2017-9-19T9:27:30Z</time></trkpt>
<trkpt lat="48.460746" lon="2.660693"><ele></ele><time>2017-9-19T9:27:33Z</time></trkpt>
<trkpt lat="48.460800" lon="2.660627"><ele></ele><time>2017-9-19T9:27:36Z</time></trkpt>
<trkpt lat="48.460818" lon="2.660607"><ele></ele><time>2017-9-19T9:27:39Z</time></trkpt>
<trkpt lat="48.460836" lon="2.660593"><ele></ele><time>2017-9-19T9:27:42Z</time></trkpt>
<trkpt lat="48.460853" lon="2.660585"><ele></ele><time>2017-9-19T9:27:45Z</time></trkpt>
<trkpt lat="48.460863" lon="2.660578"><ele></ele><time>2017-9-19T9:27:48Z</time></trkpt>
<trkpt lat="48.460875" lon="2.660570"><ele></ele><time>2017-9-19T9:27:51Z</time></trkpt>
<trkpt lat="48.460890" lon="2.660563"><ele></ele><time>2017-9-19T9:27:54Z</time></trkpt>
<trkpt lat="48.460905" lon="2.660558"><ele></ele><time>2017-9-19T9:27:57Z</time></trkpt>
<trkpt lat="48.460921" lon="2.660552"><ele></ele><time>2017-9-19T9:28:0Z</time></trkpt>
<trkpt lat="48.460945" lon="2.660540"><ele></ele><time>2017-9-19T9:28:3Z</time></trkpt>
<trkpt lat="48.460965" lon="2.660523"><ele></ele><time>2017-9-19T9:28:6Z</time></trkpt>
<trkpt lat="48.461103" lon="2.660430"><ele></ele><time>2017-9-19T9:28:9Z</time></trkpt>
<trkpt lat="48.461138" lon="2.660433"><ele></ele><time>2017-9-19T9:28:12Z</time></trkpt>
<trkpt lat="48.461173" lon="2.660438"><ele></ele><time>2017-9-19T9:28:15Z</time></trkpt>
<trkpt lat="48.461218" lon="2.660453"><ele></ele><time>2017-9-19T9:28:18Z</time></trkpt>
<trkpt lat="48.461263" lon="2.660468"><ele></ele><time>2017-9-19T9:28:21Z</time></trkpt>
<trkpt lat="48.461310" lon="2.660495"><ele></ele><time>2017-9-19T9:28:24Z</time></trkpt>
<trkpt lat="48.461530" lon="2.660572"><ele></ele><time>2017-9-19T9:28:27Z</time></trkpt>
<trkpt lat="48.461575" lon="2.660565"><ele></ele><time>2017-9-19T9:28:30Z</time></trkpt>
<trkpt lat="48.461677" lon="2.660542"><ele></ele><time>2017-9-19T9:28:33Z</time></trkpt>
<trkpt lat="48.462531" lon="2.660380"><ele></ele><time>2017-9-19T9:28:36Z</time></trkpt>
<trkpt lat="48.462767" lon="2.660365"><ele></ele><time>2017-9-19T9:28:39Z</time></trkpt>
<trkpt lat="48.462810" lon="2.660378"><ele></ele><time>2017-9-19T9:28:42Z</time></trkpt>
<trkpt lat="48.464587" lon="2.660787"><ele></ele><time>2017-9-19T9:28:45Z</time></trkpt>
<trkpt lat="48.464627" lon="2.660823"><ele></ele><time>2017-9-19T9:28:48Z</time></trkpt>
<trkpt lat="48.464861" lon="2.661018"><ele></ele><time>2017-9-19T9:28:51Z</time></trkpt>
<trkpt lat="48.464973" lon="2.661120"><ele></ele><time>2017-9-19T9:28:54Z</time></trkpt>
<trkpt lat="48.465020" lon="2.661145"><ele></ele><time>2017-9-19T9:28:57Z</time></trkpt>
<trkpt lat="48.465232" lon="2.661280"><ele></ele><time>2017-9-19T9:29:0Z</time></trkpt>
<trkpt lat="48.465305" lon="2.661352"><ele></ele><time>2017-9-19T9:29:3Z</time></trkpt>
<trkpt lat="48.465683" lon="2.661657"><ele></ele><time>2017-9-19T9:29:6Z</time></trkpt>
<trkpt lat="48.466487" lon="2.662233"><ele></ele><time>2017-9-19T9:29:9Z</time></trkpt>
<trkpt lat="48.466741" lon="2.662423"><ele></ele><time>2017-9-19T9:29:12Z</time></trkpt>
<trkpt lat="48.466773" lon="2.662450"><ele></ele><time>2017-9-19T9:29:15Z</time></trkpt>
<trkpt lat="48.467368" lon="2.662932"><ele></ele><time>2017-9-19T9:29:18Z</time></trkpt>
<trkpt lat="48.467396" lon="2.662957"><ele></ele><time>2017-9-19T9:29:21Z</time></trkpt>
<trkpt lat="48.467672" lon="2.663105"><ele></ele><time>2017-9-19T9:29:24Z</time></trkpt>
<trkpt lat="48.467746" lon="2.663115"><ele></ele><time>2017-9-19T9:29:27Z</time></trkpt>
<trkpt lat="48.467790" lon="2.663108"><ele></ele><time>2017-9-19T9:29:30Z</time></trkpt>
<trkpt lat="48.467830" lon="2.663095"><ele></ele><time>2017-9-19T9:29:33Z</time></trkpt>
<trkpt lat="48.467872" lon="2.663073"><ele></ele><time>2017-9-19T9:29:36Z</time></trkpt>
<trkpt lat="48.468270" lon="2.662892"><ele></ele><time>2017-9-19T9:29:39Z</time></trkpt>
<trkpt lat="48.470727" lon="2.661620"><ele></ele><time>2017-9-19T9:29:42Z</time></trkpt>
<trkpt lat="48.470765" lon="2.661595"><ele></ele><time>2017-9-19T9:29:45Z</time></trkpt>
<trkpt lat="48.472272" lon="2.660863"><ele></ele><time>2017-9-19T9:29:48Z</time></trkpt>
<trkpt lat="48.472308" lon="2.660863"><ele></ele><time>2017-9-19T9:29:51Z</time></trkpt>
<trkpt lat="48.472470" lon="2.660875"><ele></ele><time>2017-9-19T9:29:54Z</time></trkpt>
<trkpt lat="48.472698" lon="2.660903"><ele></ele><time>2017-9-19T9:29:57Z</time></trkpt>
<trkpt lat="48.472735" lon="2.660915"><ele></ele><time>2017-9-19T9:30:0Z</time></trkpt>
<trkpt lat="48.472946" lon="2.660953"><ele></ele><time>2017-9-19T9:30:3Z</time></trkpt>
<trkpt lat="48.476973" lon="2.661493"><ele></ele><time>2017-9-19T9:30:6Z</time></trkpt>
<trkpt lat="48.477008" lon="2.661508"><ele></ele><time>2017-9-19T9:30:9Z</time></trkpt>
<trkpt lat="48.477120" lon="2.661540"><ele></ele><time>2017-9-19T9:30:12Z</time></trkpt>
<trkpt lat="48.477185" lon="2.661545"><ele></ele><time>2017-9-19T9:30:15Z</time></trkpt>
<trkpt lat="48.477263" lon="2.661557"><ele></ele><time>2017-9-19T9:30:18Z</time></trkpt>
<trkpt lat="48.477310" lon="2.661572"><ele></ele><time>2017-9-19T9:30:21Z</time></trkpt>
<trkpt lat="48.477356" lon="2.661592"><ele></ele><time>2017-9-19T9:30:24Z</time></trkpt>
<trkpt lat="48.477400" lon="2.661600"><ele></ele><time>2017-9-19T9:30:27Z</time></trkpt>
<trkpt lat="48.477440" lon="2.661593"><ele></ele><time>2017-9-19T9:30:30Z</time></trkpt>
<trkpt lat="48.477477" lon="2.661582"><ele></ele><time>2017-9-19T9:30:33Z</time></trkpt>
<trkpt lat="48.477523" lon="2.661572"><ele></ele><time>2017-9-19T9:30:36Z</time></trkpt>
<trkpt lat="48.477570" lon="2.661570"><ele></ele><time>2017-9-19T9:30:39Z</time></trkpt>
<trkpt lat="48.477603" lon="2.661575"><ele></ele><time>2017-9-19T9:30:42Z</time></trkpt>
<trkpt lat="48.477635" lon="2.661587"><ele></ele><time>2017-9-19T9:30:45Z</time></trkpt>
<trkpt lat="48.477802" lon="2.661618"><ele></ele><time>2017-9-19T9:30:48Z</time></trkpt>
<trkpt lat="48.478536" lon="2.661710"><ele></ele><time>2017-9-19T9:30:51Z</time></trkpt>
<trkpt lat="48.478577" lon="2.661702"><ele></ele><time>2017-9-19T9:30:54Z</time></trkpt>
<trkpt lat="48.478660" lon="2.661703"><ele></ele><time>2017-9-19T9:30:57Z</time></trkpt>
<trkpt lat="48.478696" lon="2.661722"><ele></ele><time>2017-9-19T9:31:0Z</time></trkpt>
<trkpt lat="48.478728" lon="2.661735"><ele></ele><time>2017-9-19T9:31:3Z</time></trkpt>
<trkpt lat="48.478950" lon="2.661767"><ele></ele><time>2017-9-19T9:31:6Z</time></trkpt>
<trkpt lat="48.478991" lon="2.661772"><ele></ele><time>2017-9-19T9:31:9Z</time></trkpt>
<trkpt lat="48.479796" lon="2.661885"><ele></ele><time>2017-9-19T9:31:12Z</time></trkpt>
<trkpt lat="48.479833" lon="2.661892"><ele></ele><time>2017-9-19T9:31:15Z</time></trkpt>
<trkpt lat="48.479987" lon="2.661923"><ele></ele><time>2017-9-19T9:31:18Z</time></trkpt>
<trkpt lat="48.480010" lon="2.661935"><ele></ele><time>2017-9-19T9:31:21Z</time></trkpt>
<trkpt lat="48.480078" lon="2.661967"><ele></ele><time>2017-9-19T9:31:24Z</time></trkpt>
<trkpt lat="48.480113" lon="2.661990"><ele></ele><time>2017-9-19T9:31:27Z</time></trkpt>
<trkpt lat="48.480153" lon="2.662027"><ele></ele><time>2017-9-19T9:31:30Z</time></trkpt>
<trkpt lat="48.480332" lon="2.662183"><ele></ele><time>2017-9-19T9:31:33Z</time></trkpt>
<trkpt lat="48.480350" lon="2.662223"><ele></ele><time>2017-9-19T9:31:36Z</time></trkpt>
<trkpt lat="48.480393" lon="2.662300"><ele></ele><time>2017-9-19T9:31:39Z</time></trkpt>
<trkpt lat="48.480417" lon="2.662331"><ele></ele><time>2017-9-19T9:31:42Z</time></trkpt>
<trkpt lat="48.481285" lon="2.663507"><ele></ele><time>2017-9-19T9:31:45Z</time></trkpt>
<trkpt lat="48.481302" lon="2.663533"><ele></ele><time>2017-9-19T9:31:48Z</time></trkpt>
<trkpt lat="48.481367" lon="2.663626"><ele></ele><time>2017-9-19T9:31:51Z</time></trkpt>
<trkpt lat="48.481592" lon="2.663940"><ele></ele><time>2017-9-19T9:31:54Z</time></trkpt>
<trkpt lat="48.481813" lon="2.664270"><ele></ele><time>2017-9-19T9:31:57Z</time></trkpt>
<trkpt lat="48.482005" lon="2.664560"><ele></ele><time>2017-9-19T9:32:0Z</time></trkpt>
<trkpt lat="48.482312" lon="2.664993"><ele></ele><time>2017-9-19T9:32:3Z</time></trkpt>
<trkpt lat="48.482326" lon="2.665013"><ele></ele><time>2017-9-19T9:32:6Z</time></trkpt>
<trkpt lat="48.482505" lon="2.665305"><ele></ele><time>2017-9-19T9:32:9Z</time></trkpt>
<trkpt lat="48.482518" lon="2.665323"><ele></ele><time>2017-9-19T9:32:12Z</time></trkpt>
<trkpt lat="48.482535" lon="2.665342"><ele></ele><time>2017-9-19T9:32:15Z</time></trkpt>
<trkpt lat="48.482652" lon="2.665485"><ele></ele><time>2017-9-19T9:32:18Z</time></trkpt>
<trkpt lat="48.482668" lon="2.665513"><ele></ele><time>2017-9-19T9:32:21Z</time></trkpt>
<trkpt lat="48.482731" lon="2.665607"><ele></ele><time>2017-9-19T9:32:24Z</time></trkpt>
<trkpt lat="48.482766" lon="2.665642"><ele></ele><time>2017-9-19T9:32:27Z</time></trkpt>
<trkpt lat="48.482787" lon="2.665657"><ele></ele><time>2017-9-19T9:32:30Z</time></trkpt>
<trkpt lat="48.482830" lon="2.665683"><ele></ele><time>2017-9-19T9:32:33Z</time></trkpt>
<trkpt lat="48.482868" lon="2.665698"><ele></ele><time>2017-9-19T9:32:36Z</time></trkpt>
<trkpt lat="48.482893" lon="2.665705"><ele></ele><time>2017-9-19T9:32:39Z</time></trkpt>
<trkpt lat="48.482910" lon="2.665712"><ele></ele><time>2017-9-19T9:32:42Z</time></trkpt>
<trkpt lat="48.482950" lon="2.665728"><ele></ele><time>2017-9-19T9:32:45Z</time></trkpt>
<trkpt lat="48.482973" lon="2.665732"><ele></ele><time>2017-9-19T9:32:48Z</time></trkpt>
<trkpt lat="48.482996" lon="2.665730"><ele></ele><time>2017-9-19T9:32:51Z</time></trkpt>
<trkpt lat="48.483101" lon="2.665715"><ele></ele><time>2017-9-19T9:32:54Z</time></trkpt>
<trkpt lat="48.483210" lon="2.665705"><ele></ele><time>2017-9-19T9:32:57Z</time></trkpt>
<trkpt lat="48.483238" lon="2.665718"><ele></ele><time>2017-9-19T9:33:0Z</time></trkpt>
<trkpt lat="48.483292" lon="2.665740"><ele></ele><time>2017-9-19T9:33:3Z</time></trkpt>
<trkpt lat="48.483313" lon="2.665738"><ele></ele><time>2017-9-19T9:33:6Z</time></trkpt>
<trkpt lat="48.483326" lon="2.665733"><ele></ele><time>2017-9-19T9:33:9Z</time></trkpt>
<trkpt lat="48.483335" lon="2.665732"><ele></ele><time>2017-9-19T9:33:12Z</time></trkpt>
<trkpt lat="48.483343" lon="2.665723"><ele></ele><time>2017-9-19T9:33:15Z</time></trkpt>
<trkpt lat="48.483338" lon="2.665715"><ele></ele><time>2017-9-19T9:33:18Z</time></trkpt>
<trkpt lat="48.483333" lon="2.665708"><ele></ele><time>2017-9-19T9:33:21Z</time></trkpt>
<trkpt lat="48.483328" lon="2.665702"><ele></ele><time>2017-9-19T9:33:24Z</time></trkpt>
<trkpt lat="48.483326" lon="2.665702"><ele></ele><time>2017-9-19T9:33:27Z</time></trkpt>
</trkseg></trk></gpx>